<?xml version='1.0' encoding='UTF-8'?><gpx version="1.1" creator="JPX - https://github.com/jenetics/jpx" xmlns="http://www.topografix.com/GPX/1/1"><trk><trkseg><trkpt lat="42.812471519529694" lon="10.425166977847066"><ele>47.0</ele><time>2026-04-24T08:08:51Z</time></trkpt><trkpt lat="42.81250164629358" lon="10.425070044686775"><ele>47.0</ele><time>2026-04-24T08:09:18Z</time></trkpt><trkpt lat="42.81257012053671" lon="10.425050776185648"><ele>47.0</ele><time>2026-04-24T08:09:21Z</time></trkpt><trkpt lat="42.812616578783654" lon="10.425114891059794"><ele>47.0</ele><time>2026-04-24T08:09:24Z</time></trkpt><trkpt lat="42.81257229566917" lon="10.425220557738847"><ele>47.0</ele><time>2026-04-24T08:09:27Z</time></trkpt><trkpt lat="42.81251542188497" lon="10.425288346547548"><ele>47.0</ele><time>2026-04-24T08:09:30Z</time></trkpt><trkpt lat="42.81246644322511" lon="10.42535553123985"><ele>47.0</ele><time>2026-04-24T08:09:33Z</time></trkpt><trkpt lat="42.81247477156926" lon="10.425451612286885"><ele>47.0</ele><time>2026-04-24T08:09:42Z</time></trkpt><trkpt lat="42.81254635967484" lon="10.425426613845936"><ele>47.0</ele><time>2026-04-24T08:09:46Z</time></trkpt><trkpt lat="42.812601181891814" lon="10.42534640074619"><ele>47.0</ele><time>2026-04-24T08:10:00Z</time></trkpt><trkpt lat="42.812673704443" lon="10.4252797245898"><ele>47.0</ele><time>2026-04-24T08:10:02Z</time></trkpt><trkpt lat="42.81277505776023" lon="10.425210356041921"><ele>47.0</ele><time>2026-04-24T08:10:04Z</time></trkpt><trkpt lat="42.812828801731065" lon="10.425158631584566"><ele>47.0</ele><time>2026-04-24T08:10:05Z</time></trkpt><trkpt lat="42.81287831639434" lon="10.425093389745067"><ele>44.33333333333333</ele><time>2026-04-24T08:10:06Z</time></trkpt><trkpt lat="42.812920055785895" lon="10.425005719415871"><ele>41.666666666666664</ele><time>2026-04-24T08:10:07Z</time></trkpt><trkpt lat="42.81295331563115" lon="10.424907209183326"><ele>39.0</ele><time>2026-04-24T08:10:08Z</time></trkpt><trkpt lat="42.812981526743386" lon="10.424800921888572"><ele>36.333333333333336</ele><time>2026-04-24T08:10:09Z</time></trkpt><trkpt lat="42.81300477019849" lon="10.424699553659991"><ele>33.66666666666667</ele><time>2026-04-24T08:10:10Z</time></trkpt><trkpt lat="42.81302905533273" lon="10.424611709655295"><ele>31.0</ele><time>2026-04-24T08:10:11Z</time></trkpt><trkpt lat="42.813060085428795" lon="10.424532282007819"><ele>31.0</ele><time>2026-04-24T08:10:12Z</time></trkpt><trkpt lat="42.81309730484525" lon="10.424454894627104"><ele>31.0</ele><time>2026-04-24T08:10:13Z</time></trkpt><trkpt lat="42.81315719106873" lon="10.424290215145378"><ele>31.0</ele><time>2026-04-24T08:10:14Z</time></trkpt><trkpt lat="42.81319078646142" lon="10.424185673720537"><ele>31.0</ele><time>2026-04-24T08:10:15Z</time></trkpt><trkpt lat="42.81325020081535" lon="10.424093366379616"><ele>31.0</ele><time>2026-04-24T08:10:16Z</time></trkpt><trkpt lat="42.81329541559656" lon="10.42399084402633"><ele>31.000000000000004</ele><time>2026-04-24T08:10:17Z</time></trkpt><trkpt lat="42.813344487188736" lon="10.42388325892916"><ele>31.0</ele><time>2026-04-24T08:10:18Z</time></trkpt><trkpt lat="42.813393398470026" lon="10.42378468591093"><ele>31.0</ele><time>2026-04-24T08:10:19Z</time></trkpt><trkpt lat="42.813443896468684" lon="10.423691159408818"><ele>31.0</ele><time>2026-04-24T08:10:20Z</time></trkpt><trkpt lat="42.81348588132405" lon="10.42359152419245"><ele>31.000000000000004</ele><time>2026-04-24T08:10:21Z</time></trkpt><trkpt lat="42.813515535973565" lon="10.423471554792608"><ele>31.0</ele><time>2026-04-24T08:10:22Z</time></trkpt><trkpt lat="42.81353569748962" lon="10.42334817728283"><ele>28.8</ele><time>2026-04-24T08:10:23Z</time></trkpt><trkpt lat="42.813547176706756" lon="10.423216018283767"><ele>26.6</ele><time>2026-04-24T08:10:24Z</time></trkpt><trkpt lat="42.813553960997716" lon="10.42308995592084"><ele>24.4</ele><time>2026-04-24T08:10:25Z</time></trkpt><trkpt lat="42.81355706508301" lon="10.422966880497471"><ele>22.2</ele><time>2026-04-24T08:10:26Z</time></trkpt><trkpt lat="42.813558358334745" lon="10.422843698514251"><ele>20.0</ele><time>2026-04-24T08:10:27Z</time></trkpt><trkpt lat="42.81356157792084" lon="10.42272204511862"><ele>20.0</ele><time>2026-04-24T08:10:28Z</time></trkpt><trkpt lat="42.813564848134" lon="10.422603908721138"><ele>20.0</ele><time>2026-04-24T08:10:29Z</time></trkpt><trkpt lat="42.81356848314294" lon="10.422485691052405"><ele>20.0</ele><time>2026-04-24T08:10:30Z</time></trkpt><trkpt lat="42.81357299816034" lon="10.42237002551071"><ele>20.0</ele><time>2026-04-24T08:10:31Z</time></trkpt><trkpt lat="42.81357844908601" lon="10.42225977936974"><ele>20.0</ele><time>2026-04-24T08:10:32Z</time></trkpt><trkpt lat="42.8135705799329" lon="10.422158724694176"><ele>20.0</ele><time>2026-04-24T08:10:33Z</time></trkpt><trkpt lat="42.81360252576942" lon="10.422073136110429"><ele>20.714285714285715</ele><time>2026-04-24T08:10:34Z</time></trkpt><trkpt lat="42.813646090416015" lon="10.421989676118832"><ele>21.42857142857143</ele><time>2026-04-24T08:10:35Z</time></trkpt><trkpt lat="42.81370394701157" lon="10.421928612701585"><ele>22.142857142857146</ele><time>2026-04-24T08:10:36Z</time></trkpt><trkpt lat="42.81376791103818" lon="10.42188785748451"><ele>22.857142857142858</ele><time>2026-04-24T08:10:37Z</time></trkpt><trkpt lat="42.81383617405623" lon="10.42187290330622"><ele>23.571428571428573</ele><time>2026-04-24T08:10:38Z</time></trkpt><trkpt lat="42.81390290844432" lon="10.421847288419604"><ele>24.28571428571429</ele><time>2026-04-24T08:10:39Z</time></trkpt><trkpt lat="42.81396911993403" lon="10.421823160098251"><ele>25.0</ele><time>2026-04-24T08:10:40Z</time></trkpt><trkpt lat="42.81403759556895" lon="10.421797359788926"><ele>25.0</ele><time>2026-04-24T08:10:41Z</time></trkpt><trkpt lat="42.81414838118157" lon="10.421778374506168"><ele>25.0</ele><time>2026-04-24T08:10:43Z</time></trkpt><trkpt lat="42.814214343567926" lon="10.421759890493929"><ele>25.0</ele><time>2026-04-24T08:10:46Z</time></trkpt><trkpt lat="42.81424893120308" lon="10.421598385162342"><ele>25.0</ele><time>2026-04-24T08:11:03Z</time></trkpt><trkpt lat="42.814207922315596" lon="10.421439489977924"><ele>25.0</ele><time>2026-04-24T08:11:05Z</time></trkpt><trkpt lat="42.814180228046055" lon="10.421350105667598"><ele>28.0</ele><time>2026-04-24T08:11:06Z</time></trkpt><trkpt lat="42.814143042820064" lon="10.421246734892037"><ele>31.0</ele><time>2026-04-24T08:11:07Z</time></trkpt><trkpt lat="42.81409774820194" lon="10.421146001278421"><ele>34.0</ele><time>2026-04-24T08:11:08Z</time></trkpt><trkpt lat="42.814050862914506" lon="10.421040258080255"><ele>37.0</ele><time>2026-04-24T08:11:09Z</time></trkpt><trkpt lat="42.81399837939529" lon="10.420936299741022"><ele>40.0</ele><time>2026-04-24T08:11:10Z</time></trkpt><trkpt lat="42.8139336492784" lon="10.420837032748079"><ele>40.0</ele><time>2026-04-24T08:11:11Z</time></trkpt><trkpt lat="42.81386631775766" lon="10.420739784725015"><ele>40.0</ele><time>2026-04-24T08:11:12Z</time></trkpt><trkpt lat="42.81380115325789" lon="10.420636268379498"><ele>40.0</ele><time>2026-04-24T08:11:13Z</time></trkpt><trkpt lat="42.81374120309893" lon="10.420525032380906"><ele>40.0</ele><time>2026-04-24T08:11:14Z</time></trkpt><trkpt lat="42.81368844637507" lon="10.420410743611367"><ele>40.0</ele><time>2026-04-24T08:11:15Z</time></trkpt><trkpt lat="42.81364188604747" lon="10.420294049258015"><ele>44.0</ele><time>2026-04-24T08:11:16Z</time></trkpt><trkpt lat="42.813604280845695" lon="10.420175962958826"><ele>48.0</ele><time>2026-04-24T08:11:17Z</time></trkpt><trkpt lat="42.81358214826232" lon="10.420041754727379"><ele>52.0</ele><time>2026-04-24T08:11:18Z</time></trkpt><trkpt lat="42.81357386010475" lon="10.419896774988363"><ele>56.0</ele><time>2026-04-24T08:11:19Z</time></trkpt><trkpt lat="42.81356642914401" lon="10.419749117305091"><ele>60.0</ele><time>2026-04-24T08:11:20Z</time></trkpt><trkpt lat="42.81356287585219" lon="10.419601657839197"><ele>60.2</ele><time>2026-04-24T08:11:21Z</time></trkpt><trkpt lat="42.81356447158367" lon="10.41945292538884"><ele>60.4</ele><time>2026-04-24T08:11:22Z</time></trkpt><trkpt lat="42.813577969425644" lon="10.419305672096401"><ele>60.599999999999994</ele><time>2026-04-24T08:11:23Z</time></trkpt><trkpt lat="42.81359804087691" lon="10.419160899651484"><ele>60.8</ele><time>2026-04-24T08:11:24Z</time></trkpt><trkpt lat="42.81362813361526" lon="10.419018550281175"><ele>61.0</ele><time>2026-04-24T08:11:25Z</time></trkpt><trkpt lat="42.813650381932064" lon="10.418872241696548"><ele>59.0</ele><time>2026-04-24T08:11:26Z</time></trkpt><trkpt lat="42.81366406267343" lon="10.418724804451811"><ele>56.99999999999999</ele><time>2026-04-24T08:11:27Z</time></trkpt><trkpt lat="42.813669051152836" lon="10.41857486445744"><ele>55.0</ele><time>2026-04-24T08:11:28Z</time></trkpt><trkpt lat="42.813680105515864" lon="10.418428358350296"><ele>53.0</ele><time>2026-04-24T08:11:29Z</time></trkpt><trkpt lat="42.8137138466754" lon="10.41828714052612"><ele>51.0</ele><time>2026-04-24T08:11:30Z</time></trkpt><trkpt lat="42.813763569107884" lon="10.418154343349428"><ele>51.0</ele><time>2026-04-24T08:11:31Z</time></trkpt><trkpt lat="42.81380947603808" lon="10.418019227201839"><ele>51.0</ele><time>2026-04-24T08:11:32Z</time></trkpt><trkpt lat="42.813839858216404" lon="10.417878790924647"><ele>51.0</ele><time>2026-04-24T08:11:33Z</time></trkpt><trkpt lat="42.81386411805927" lon="10.41773573136663"><ele>51.0</ele><time>2026-04-24T08:11:34Z</time></trkpt><trkpt lat="42.81388190126792" lon="10.41760044274438"><ele>51.0</ele><time>2026-04-24T08:11:35Z</time></trkpt><trkpt lat="42.81388753847564" lon="10.417475871110055"><ele>48.5</ele><time>2026-04-24T08:11:36Z</time></trkpt><trkpt lat="42.81388388542143" lon="10.417380030108214"><ele>46.0</ele><time>2026-04-24T08:11:37Z</time></trkpt><trkpt lat="42.813859305765675" lon="10.417244348071977"><ele>43.5</ele><time>2026-04-24T08:11:39Z</time></trkpt><trkpt lat="42.81382600269704" lon="10.417077904272354"><ele>41.0</ele><time>2026-04-24T08:11:41Z</time></trkpt><trkpt lat="42.8138028903906" lon="10.41698426827678"><ele>38.5</ele><time>2026-04-24T08:11:42Z</time></trkpt><trkpt lat="42.813776274432456" lon="10.41689403489361"><ele>36.0</ele><time>2026-04-24T08:11:43Z</time></trkpt><trkpt lat="42.81372762838056" lon="10.416758718861304"><ele>36.0</ele><time>2026-04-24T08:11:45Z</time></trkpt><trkpt lat="42.813691633459726" lon="10.41668198353615"><ele>36.0</ele><time>2026-04-24T08:11:47Z</time></trkpt><trkpt lat="42.81362251941664" lon="10.416588779609116"><ele>36.0</ele><time>2026-04-24T08:11:54Z</time></trkpt><trkpt lat="42.813560083761814" lon="10.41647964785849"><ele>36.0</ele><time>2026-04-24T08:11:56Z</time></trkpt><trkpt lat="42.81346996248577" lon="10.416346996350606"><ele>36.0</ele><time>2026-04-24T08:11:58Z</time></trkpt><trkpt lat="42.813421656516624" lon="10.416271538445693"><ele>35.333333333333336</ele><time>2026-04-24T08:11:59Z</time></trkpt><trkpt lat="42.813371773591875" lon="10.416184815569299"><ele>34.666666666666664</ele><time>2026-04-24T08:12:00Z</time></trkpt><trkpt lat="42.81331153278433" lon="10.416106155507338"><ele>34.0</ele><time>2026-04-24T08:12:01Z</time></trkpt><trkpt lat="42.81324783967148" lon="10.416025890710294"><ele>33.33333333333333</ele><time>2026-04-24T08:12:02Z</time></trkpt><trkpt lat="42.81318378614308" lon="10.41594772833663"><ele>32.666666666666664</ele><time>2026-04-24T08:12:03Z</time></trkpt><trkpt lat="42.8131168550154" lon="10.415871937205047"><ele>32.0</ele><time>2026-04-24T08:12:04Z</time></trkpt><trkpt lat="42.81305143768476" lon="10.415788576971922"><ele>31.999999999999996</ele><time>2026-04-24T08:12:05Z</time></trkpt><trkpt lat="42.812987401337935" lon="10.415697782451756"><ele>32.0</ele><time>2026-04-24T08:12:06Z</time></trkpt><trkpt lat="42.81293362934921" lon="10.415606932457639"><ele>32.0</ele><time>2026-04-24T08:12:07Z</time></trkpt><trkpt lat="42.812894693003386" lon="10.415515661015263"><ele>32.0</ele><time>2026-04-24T08:12:08Z</time></trkpt><trkpt lat="42.81287233905752" lon="10.415411290871742"><ele>31.999999999999996</ele><time>2026-04-24T08:12:09Z</time></trkpt><trkpt lat="42.812860287685744" lon="10.415289775273912"><ele>32.0</ele><time>2026-04-24T08:12:10Z</time></trkpt><trkpt lat="42.812851297599565" lon="10.415163597891263"><ele>32.5</ele><time>2026-04-24T08:12:11Z</time></trkpt><trkpt lat="42.81284468329047" lon="10.415036897157819"><ele>33.0</ele><time>2026-04-24T08:12:12Z</time></trkpt><trkpt lat="42.81283568337959" lon="10.414904180575585"><ele>33.5</ele><time>2026-04-24T08:12:13Z</time></trkpt><trkpt lat="42.812830776689076" lon="10.41478997822058"><ele>34.0</ele><time>2026-04-24T08:12:14Z</time></trkpt><trkpt lat="42.8128243898656" lon="10.41468696355899"><ele>34.5</ele><time>2026-04-24T08:12:15Z</time></trkpt><trkpt lat="42.812804091338755" lon="10.414588390720564"><ele>35.0</ele><time>2026-04-24T08:12:16Z</time></trkpt><trkpt lat="42.812762416053964" lon="10.41448782394684"><ele>35.0</ele><time>2026-04-24T08:12:17Z</time></trkpt><trkpt lat="42.81270233584957" lon="10.414390708361756"><ele>35.0</ele><time>2026-04-24T08:12:18Z</time></trkpt><trkpt lat="42.81262392915447" lon="10.414300698574307"><ele>35.0</ele><time>2026-04-24T08:12:19Z</time></trkpt><trkpt lat="42.8125574147492" lon="10.414196093095923"><ele>35.0</ele><time>2026-04-24T08:12:20Z</time></trkpt><trkpt lat="42.81249893587493" lon="10.4140875405146"><ele>35.0</ele><time>2026-04-24T08:12:21Z</time></trkpt><trkpt lat="42.812446222192136" lon="10.41397522674147"><ele>35.0</ele><time>2026-04-24T08:12:22Z</time></trkpt><trkpt lat="42.812408668059454" lon="10.413857617381963"><ele>35.0</ele><time>2026-04-24T08:12:23Z</time></trkpt><trkpt lat="42.812376276444205" lon="10.413732882693374"><ele>35.0</ele><time>2026-04-24T08:12:24Z</time></trkpt><trkpt lat="42.81235237815853" lon="10.413606747947647"><ele>35.0</ele><time>2026-04-24T08:12:25Z</time></trkpt><trkpt lat="42.81232664548579" lon="10.413482882939629"><ele>35.0</ele><time>2026-04-24T08:12:26Z</time></trkpt><trkpt lat="42.81229984828628" lon="10.413360232842638"><ele>35.4</ele><time>2026-04-24T08:12:27Z</time></trkpt><trkpt lat="42.81227016767168" lon="10.41323653383862"><ele>35.8</ele><time>2026-04-24T08:12:28Z</time></trkpt><trkpt lat="42.81225041738023" lon="10.413109871247586"><ele>36.2</ele><time>2026-04-24T08:12:29Z</time></trkpt><trkpt lat="42.81224573071503" lon="10.412985466852337"><ele>36.6</ele><time>2026-04-24T08:12:30Z</time></trkpt><trkpt lat="42.812261489255704" lon="10.412865551930429"><ele>37.0</ele><time>2026-04-24T08:12:31Z</time></trkpt><trkpt lat="42.81229493993628" lon="10.41274974029912"><ele>37.8</ele><time>2026-04-24T08:12:32Z</time></trkpt><trkpt lat="42.81233118551448" lon="10.412627238707335"><ele>38.6</ele><time>2026-04-24T08:12:33Z</time></trkpt><trkpt lat="42.81236779242954" lon="10.412500437652714"><ele>39.4</ele><time>2026-04-24T08:12:34Z</time></trkpt><trkpt lat="42.812405566401154" lon="10.412372299200184"><ele>40.199999999999996</ele><time>2026-04-24T08:12:35Z</time></trkpt><trkpt lat="42.81243847308049" lon="10.412240898976188"><ele>41.0</ele><time>2026-04-24T08:12:36Z</time></trkpt><trkpt lat="42.81246597299768" lon="10.412108471525125"><ele>42.4</ele><time>2026-04-24T08:12:37Z</time></trkpt><trkpt lat="42.81249423173459" lon="10.411981368032972"><ele>43.8</ele><time>2026-04-24T08:12:38Z</time></trkpt><trkpt lat="42.81252060400433" lon="10.411855219416076"><ele>45.199999999999996</ele><time>2026-04-24T08:12:39Z</time></trkpt><trkpt lat="42.81253947160059" lon="10.411725041568877"><ele>46.599999999999994</ele><time>2026-04-24T08:12:40Z</time></trkpt><trkpt lat="42.812548430260385" lon="10.411594422315714"><ele>48.0</ele><time>2026-04-24T08:12:41Z</time></trkpt><trkpt lat="42.81255393667409" lon="10.411462656797745"><ele>48.0</ele><time>2026-04-24T08:12:42Z</time></trkpt><trkpt lat="42.81255928566916" lon="10.411327751856424"><ele>48.0</ele><time>2026-04-24T08:12:43Z</time></trkpt><trkpt lat="42.812563874192115" lon="10.411187635864454"><ele>48.0</ele><time>2026-04-24T08:12:44Z</time></trkpt><trkpt lat="42.81256800077665" lon="10.411053034407228"><ele>48.0</ele><time>2026-04-24T08:12:45Z</time></trkpt><trkpt lat="42.81257106217015" lon="10.410916815289289"><ele>48.0</ele><time>2026-04-24T08:12:46Z</time></trkpt><trkpt lat="42.81257166062945" lon="10.41077713210312"><ele>48.8</ele><time>2026-04-24T08:12:47Z</time></trkpt><trkpt lat="42.812573578726486" lon="10.410631082130157"><ele>49.599999999999994</ele><time>2026-04-24T08:12:48Z</time></trkpt><trkpt lat="42.81257862485104" lon="10.410484957862362"><ele>50.400000000000006</ele><time>2026-04-24T08:12:49Z</time></trkpt><trkpt lat="42.81258613659686" lon="10.41033769114055"><ele>51.2</ele><time>2026-04-24T08:12:50Z</time></trkpt><trkpt lat="42.81259718497822" lon="10.41018873823445"><ele>52.0</ele><time>2026-04-24T08:12:51Z</time></trkpt><trkpt lat="42.812612093006855" lon="10.4100394254375"><ele>52.6</ele><time>2026-04-24T08:12:52Z</time></trkpt><trkpt lat="42.81262786551674" lon="10.409888573111122"><ele>53.2</ele><time>2026-04-24T08:12:53Z</time></trkpt><trkpt lat="42.81264781572327" lon="10.409740108031134"><ele>53.8</ele><time>2026-04-24T08:12:54Z</time></trkpt><trkpt lat="42.81267655394051" lon="10.409598673335351"><ele>54.4</ele><time>2026-04-24T08:12:55Z</time></trkpt><trkpt lat="42.81270737212022" lon="10.409455488347804"><ele>55.0</ele><time>2026-04-24T08:12:56Z</time></trkpt><trkpt lat="42.81273922758397" lon="10.409316605616498"><ele>55.2</ele><time>2026-04-24T08:12:57Z</time></trkpt><trkpt lat="42.812757844224734" lon="10.409177627320895"><ele>55.4</ele><time>2026-04-24T08:12:58Z</time></trkpt><trkpt lat="42.812759604483034" lon="10.409043809102808"><ele>55.599999999999994</ele><time>2026-04-24T08:12:59Z</time></trkpt><trkpt lat="42.81274639706885" lon="10.408921325029947"><ele>55.8</ele><time>2026-04-24T08:13:00Z</time></trkpt><trkpt lat="42.812711755332266" lon="10.40881446724382"><ele>56.0</ele><time>2026-04-24T08:13:01Z</time></trkpt><trkpt lat="42.81267529562735" lon="10.4087057097769"><ele>57.4</ele><time>2026-04-24T08:13:02Z</time></trkpt><trkpt lat="42.81258622873373" lon="10.408655249409652"><ele>58.8</ele><time>2026-04-24T08:13:03Z</time></trkpt><trkpt lat="42.81249904365235" lon="10.408611316327583"><ele>60.199999999999996</ele><time>2026-04-24T08:13:04Z</time></trkpt><trkpt lat="42.812397473328716" lon="10.408598340696246"><ele>61.599999999999994</ele><time>2026-04-24T08:13:05Z</time></trkpt><trkpt lat="42.81228998161309" lon="10.408611855702587"><ele>63.0</ele><time>2026-04-24T08:13:06Z</time></trkpt><trkpt lat="42.81218357042836" lon="10.4086618936115"><ele>63.0</ele><time>2026-04-24T08:13:07Z</time></trkpt><trkpt lat="42.81208972953301" lon="10.40874507604779"><ele>63.0</ele><time>2026-04-24T08:13:08Z</time></trkpt><trkpt lat="42.81200306898834" lon="10.408850878009103"><ele>63.0</ele><time>2026-04-24T08:13:09Z</time></trkpt><trkpt lat="42.81191520085813" lon="10.408956088741036"><ele>63.0</ele><time>2026-04-24T08:13:10Z</time></trkpt><trkpt lat="42.811823523480854" lon="10.409054750531666"><ele>63.2</ele><time>2026-04-24T08:13:11Z</time></trkpt><trkpt lat="42.81173657149287" lon="10.409151917255635"><ele>63.4</ele><time>2026-04-24T08:13:12Z</time></trkpt><trkpt lat="42.81164837957946" lon="10.409237263831"><ele>63.60000000000001</ele><time>2026-04-24T08:13:13Z</time></trkpt><trkpt lat="42.811547670916376" lon="10.409283839609463"><ele>63.800000000000004</ele><time>2026-04-24T08:13:14Z</time></trkpt><trkpt lat="42.811443022490096" lon="10.409316529308553"><ele>64.0</ele><time>2026-04-24T08:13:15Z</time></trkpt><trkpt lat="42.81133142126344" lon="10.409332146901612"><ele>64.0</ele><time>2026-04-24T08:13:16Z</time></trkpt><trkpt lat="42.81121738599229" lon="10.409339795827522"><ele>64.0</ele><time>2026-04-24T08:13:17Z</time></trkpt><trkpt lat="42.811110293058775" lon="10.40933931433265"><ele>64.0</ele><time>2026-04-24T08:13:18Z</time></trkpt><trkpt lat="42.811010932603516" lon="10.409327293413645"><ele>64.0</ele><time>2026-04-24T08:13:19Z</time></trkpt><trkpt lat="42.81090873924574" lon="10.409298110143045"><ele>64.0</ele><time>2026-04-24T08:13:20Z</time></trkpt><trkpt lat="42.8108100250861" lon="10.409240074949238"><ele>66.0</ele><time>2026-04-24T08:13:21Z</time></trkpt><trkpt lat="42.81071482755975" lon="10.40916335151263"><ele>68.0</ele><time>2026-04-24T08:13:22Z</time></trkpt><trkpt lat="42.81061271194967" lon="10.409091169151992"><ele>70.0</ele><time>2026-04-24T08:13:23Z</time></trkpt><trkpt lat="42.810499036412246" lon="10.409036176208984"><ele>72.0</ele><time>2026-04-24T08:13:24Z</time></trkpt><trkpt lat="42.810385049605294" lon="10.409002351030141"><ele>72.0</ele><time>2026-04-24T08:13:25Z</time></trkpt><trkpt lat="42.81026710752663" lon="10.409009101987348"><ele>72.0</ele><time>2026-04-24T08:13:26Z</time></trkpt><trkpt lat="42.81015544872118" lon="10.408997810487621"><ele>72.0</ele><time>2026-04-24T08:13:27Z</time></trkpt><trkpt lat="42.810048373883234" lon="10.408983705941099"><ele>72.0</ele><time>2026-04-24T08:13:28Z</time></trkpt><trkpt lat="42.809961384375" lon="10.408968363728462"><ele>72.0</ele><time>2026-04-24T08:13:29Z</time></trkpt><trkpt lat="42.80988692693212" lon="10.408944397662"><ele>72.5</ele><time>2026-04-24T08:13:30Z</time></trkpt><trkpt lat="42.8098321739007" lon="10.408889707606555"><ele>73.0</ele><time>2026-04-24T08:13:31Z</time></trkpt><trkpt lat="42.809797510955406" lon="10.408814261911198"><ele>73.5</ele><time>2026-04-24T08:13:32Z</time></trkpt><trkpt lat="42.80980466460829" lon="10.408650059717232"><ele>74.0</ele><time>2026-04-24T08:13:34Z</time></trkpt><trkpt lat="42.80985001718356" lon="10.408578373128012"><ele>74.5</ele><time>2026-04-24T08:13:35Z</time></trkpt><trkpt lat="42.80990870994102" lon="10.408521106029944"><ele>75.0</ele><time>2026-04-24T08:13:36Z</time></trkpt><trkpt lat="42.80998011033826" lon="10.408476236176163"><ele>76.42857142857142</ele><time>2026-04-24T08:13:37Z</time></trkpt><trkpt lat="42.810053436336965" lon="10.40842697891432"><ele>77.85714285714286</ele><time>2026-04-24T08:13:38Z</time></trkpt><trkpt lat="42.81013087591819" lon="10.408383274597732"><ele>79.28571428571428</ele><time>2026-04-24T08:13:39Z</time></trkpt><trkpt lat="42.81020116759651" lon="10.40834820263564"><ele>80.71428571428571</ele><time>2026-04-24T08:13:40Z</time></trkpt><trkpt lat="42.810267785791986" lon="10.408315742460921"><ele>82.14285714285714</ele><time>2026-04-24T08:13:41Z</time></trkpt><trkpt lat="42.81033108325708" lon="10.408283330507137"><ele>83.57142857142857</ele><time>2026-04-24T08:13:42Z</time></trkpt><trkpt lat="42.81039280615386" lon="10.408247899478464"><ele>85.0</ele><time>2026-04-24T08:13:43Z</time></trkpt><trkpt lat="42.81045371217987" lon="10.408215256916732"><ele>85.0</ele><time>2026-04-24T08:13:44Z</time></trkpt><trkpt lat="42.810513409484635" lon="10.408182663271704"><ele>85.0</ele><time>2026-04-24T08:13:45Z</time></trkpt><trkpt lat="42.810575094497686" lon="10.408157527260455"><ele>85.0</ele><time>2026-04-24T08:13:46Z</time></trkpt><trkpt lat="42.810638327509615" lon="10.408120793128235"><ele>85.0</ele><time>2026-04-24T08:13:47Z</time></trkpt><trkpt lat="42.81070147595854" lon="10.408108700252932"><ele>85.0</ele><time>2026-04-24T08:13:48Z</time></trkpt><trkpt lat="42.81076133820649" lon="10.408052203114812"><ele>85.0</ele><time>2026-04-24T08:13:49Z</time></trkpt><trkpt lat="42.81081990062222" lon="10.407974574036475"><ele>85.0</ele><time>2026-04-24T08:13:50Z</time></trkpt><trkpt lat="42.8108678987369" lon="10.407889850086335"><ele>84.0</ele><time>2026-04-24T08:13:51Z</time></trkpt><trkpt lat="42.8109061890067" lon="10.407805309467365"><ele>83.0</ele><time>2026-04-24T08:13:52Z</time></trkpt><trkpt lat="42.81093884487499" lon="10.407717265422926"><ele>82.0</ele><time>2026-04-24T08:13:53Z</time></trkpt><trkpt lat="42.81096708285883" lon="10.407635080797332"><ele>81.0</ele><time>2026-04-24T08:13:54Z</time></trkpt><trkpt lat="42.8109963683501" lon="10.407549125072745"><ele>80.0</ele><time>2026-04-24T08:13:55Z</time></trkpt><trkpt lat="42.81104797048554" lon="10.407393226114305"><ele>79.0</ele><time>2026-04-24T08:13:57Z</time></trkpt><trkpt lat="42.81110060507191" lon="10.407241652477957"><ele>80.6</ele><time>2026-04-24T08:13:59Z</time></trkpt><trkpt lat="42.81114752942567" lon="10.407086847053979"><ele>82.2</ele><time>2026-04-24T08:14:01Z</time></trkpt><trkpt lat="42.81119852540792" lon="10.406946510109352"><ele>83.8</ele><time>2026-04-24T08:14:03Z</time></trkpt><trkpt lat="42.81122967019547" lon="10.406781629394887"><ele>85.39999999999999</ele><time>2026-04-24T08:14:05Z</time></trkpt><trkpt lat="42.811235522112455" lon="10.40669574431869"><ele>87.0</ele><time>2026-04-24T08:14:06Z</time></trkpt><trkpt lat="42.81122812587842" lon="10.406604653346433"><ele>87.0</ele><time>2026-04-24T08:14:07Z</time></trkpt><trkpt lat="42.811207186479436" lon="10.406508210100094"><ele>87.0</ele><time>2026-04-24T08:14:08Z</time></trkpt><trkpt lat="42.81118168827364" lon="10.40641272623162"><ele>87.0</ele><time>2026-04-24T08:14:09Z</time></trkpt><trkpt lat="42.81114468600481" lon="10.40632082010858"><ele>87.0</ele><time>2026-04-24T08:14:10Z</time></trkpt><trkpt lat="42.81110721671293" lon="10.40623652357097"><ele>87.0</ele><time>2026-04-24T08:14:11Z</time></trkpt><trkpt lat="42.81107077097346" lon="10.406154954920153"><ele>87.0</ele><time>2026-04-24T08:14:12Z</time></trkpt><trkpt lat="42.81104196323616" lon="10.406069808771075"><ele>87.0</ele><time>2026-04-24T08:14:13Z</time></trkpt><trkpt lat="42.811029046827876" lon="10.40597170232329"><ele>87.42857142857143</ele><time>2026-04-24T08:14:14Z</time></trkpt><trkpt lat="42.81103589471019" lon="10.405873387476756"><ele>87.85714285714286</ele><time>2026-04-24T08:14:15Z</time></trkpt><trkpt lat="42.81105587173381" lon="10.405780288492533"><ele>88.28571428571428</ele><time>2026-04-24T08:14:16Z</time></trkpt><trkpt lat="42.811081733175975" lon="10.40569247991112"><ele>88.71428571428572</ele><time>2026-04-24T08:14:17Z</time></trkpt><trkpt lat="42.81110873675634" lon="10.405609651142798"><ele>89.14285714285715</ele><time>2026-04-24T08:14:18Z</time></trkpt><trkpt lat="42.811138543810564" lon="10.405527625991013"><ele>89.57142857142857</ele><time>2026-04-24T08:14:19Z</time></trkpt><trkpt lat="42.81115321619683" lon="10.405435012711202"><ele>90.0</ele><time>2026-04-24T08:14:20Z</time></trkpt><trkpt lat="42.81116538215603" lon="10.405341806143959"><ele>90.57142857142857</ele><time>2026-04-24T08:14:21Z</time></trkpt><trkpt lat="42.811173077147934" lon="10.405244434552062"><ele>91.14285714285715</ele><time>2026-04-24T08:14:22Z</time></trkpt><trkpt lat="42.811177980120455" lon="10.405138579675135"><ele>91.71428571428572</ele><time>2026-04-24T08:14:23Z</time></trkpt><trkpt lat="42.81117964110998" lon="10.405034397356713"><ele>92.28571428571428</ele><time>2026-04-24T08:14:24Z</time></trkpt><trkpt lat="42.81117793691354" lon="10.404935775315636"><ele>92.85714285714286</ele><time>2026-04-24T08:14:25Z</time></trkpt><trkpt lat="42.811162761059634" lon="10.404837722388361"><ele>93.42857142857143</ele><time>2026-04-24T08:14:26Z</time></trkpt><trkpt lat="42.81113888548364" lon="10.404747304765214"><ele>94.0</ele><time>2026-04-24T08:14:27Z</time></trkpt><trkpt lat="42.81109385961606" lon="10.404661379840935"><ele>94.66666666666666</ele><time>2026-04-24T08:14:28Z</time></trkpt><trkpt lat="42.81103054288329" lon="10.404577328426452"><ele>95.33333333333333</ele><time>2026-04-24T08:14:29Z</time></trkpt><trkpt lat="42.81097656721576" lon="10.404500128117556"><ele>96.0</ele><time>2026-04-24T08:14:30Z</time></trkpt><trkpt lat="42.81090469612358" lon="10.404432935479816"><ele>96.66666666666666</ele><time>2026-04-24T08:14:31Z</time></trkpt><trkpt lat="42.810838503986304" lon="10.404370951828867"><ele>97.33333333333333</ele><time>2026-04-24T08:14:32Z</time></trkpt><trkpt lat="42.81077088526347" lon="10.404307514305547"><ele>98.0</ele><time>2026-04-24T08:14:33Z</time></trkpt><trkpt lat="42.81070045683752" lon="10.40424088901858"><ele>101.16666666666666</ele><time>2026-04-24T08:14:34Z</time></trkpt><trkpt lat="42.81063210386653" lon="10.404184289425606"><ele>104.33333333333333</ele><time>2026-04-24T08:14:35Z</time></trkpt><trkpt lat="42.81056605727038" lon="10.404105567901098"><ele>107.5</ele><time>2026-04-24T08:14:36Z</time></trkpt><trkpt lat="42.81050342753314" lon="10.404023240967527"><ele>110.66666666666666</ele><time>2026-04-24T08:14:37Z</time></trkpt><trkpt lat="42.81044497002656" lon="10.403940800073876"><ele>113.83333333333333</ele><time>2026-04-24T08:14:38Z</time></trkpt><trkpt lat="42.81039010131655" lon="10.403857017378426"><ele>117.0</ele><time>2026-04-24T08:14:39Z</time></trkpt><trkpt lat="42.81033730414634" lon="10.403771588386793"><ele>118.0</ele><time>2026-04-24T08:14:40Z</time></trkpt><trkpt lat="42.81029265381555" lon="10.403686606471007"><ele>119.0</ele><time>2026-04-24T08:14:41Z</time></trkpt><trkpt lat="42.810251929914465" lon="10.40359285597015"><ele>120.0</ele><time>2026-04-24T08:14:42Z</time></trkpt><trkpt lat="42.810212920676456" lon="10.403502610521913"><ele>121.0</ele><time>2026-04-24T08:14:43Z</time></trkpt><trkpt lat="42.81017839367601" lon="10.403408198923351"><ele>122.0</ele><time>2026-04-24T08:14:44Z</time></trkpt><trkpt lat="42.81015138676364" lon="10.403313784029065"><ele>123.0</ele><time>2026-04-24T08:14:45Z</time></trkpt><trkpt lat="42.81012303453234" lon="10.403147434965618"><ele>124.0</ele><time>2026-04-24T08:14:47Z</time></trkpt><trkpt lat="42.81010754258278" lon="10.40305463993112"><ele>125.0</ele><time>2026-04-24T08:14:48Z</time></trkpt><trkpt lat="42.81007703186377" lon="10.40296484951021"><ele>126.0</ele><time>2026-04-24T08:14:49Z</time></trkpt><trkpt lat="42.81002432001722" lon="10.40288496943496"><ele>127.0</ele><time>2026-04-24T08:14:50Z</time></trkpt><trkpt lat="42.809969437404064" lon="10.40279640714394"><ele>128.0</ele><time>2026-04-24T08:14:51Z</time></trkpt><trkpt lat="42.809903123224885" lon="10.402703233448177"><ele>129.0</ele><time>2026-04-24T08:14:52Z</time></trkpt><trkpt lat="42.80984712482028" lon="10.402592920484503"><ele>129.6</ele><time>2026-04-24T08:14:53Z</time></trkpt><trkpt lat="42.80980789628774" lon="10.402465062746012"><ele>130.2</ele><time>2026-04-24T08:14:54Z</time></trkpt><trkpt lat="42.809774976254175" lon="10.402325916155863"><ele>130.79999999999998</ele><time>2026-04-24T08:14:55Z</time></trkpt><trkpt lat="42.809749696886534" lon="10.402188601694109"><ele>131.4</ele><time>2026-04-24T08:14:56Z</time></trkpt><trkpt lat="42.80972539891159" lon="10.402062969975827"><ele>132.0</ele><time>2026-04-24T08:14:57Z</time></trkpt><trkpt lat="42.80969184239823" lon="10.401941029127418"><ele>131.6</ele><time>2026-04-24T08:14:58Z</time></trkpt><trkpt lat="42.80963464447257" lon="10.401830029056276"><ele>131.2</ele><time>2026-04-24T08:14:59Z</time></trkpt><trkpt lat="42.809570979105295" lon="10.40171636662012"><ele>130.8</ele><time>2026-04-24T08:15:00Z</time></trkpt><trkpt lat="42.80946640321761" lon="10.401659088282768"><ele>130.4</ele><time>2026-04-24T08:15:01Z</time></trkpt><trkpt lat="42.80936333403743" lon="10.401573344453837"><ele>130.0</ele><time>2026-04-24T08:15:02Z</time></trkpt><trkpt lat="42.80925918767716" lon="10.401513205411328"><ele>130.0</ele><time>2026-04-24T08:15:03Z</time></trkpt><trkpt lat="42.80915361036768" lon="10.401452240084604"><ele>130.0</ele><time>2026-04-24T08:15:04Z</time></trkpt><trkpt lat="42.809057136326814" lon="10.401413040151503"><ele>130.0</ele><time>2026-04-24T08:15:05Z</time></trkpt><trkpt lat="42.808974304984055" lon="10.401355231294694"><ele>130.0</ele><time>2026-04-24T08:15:06Z</time></trkpt><trkpt lat="42.8088932991861" lon="10.401306544207008"><ele>130.0</ele><time>2026-04-24T08:15:07Z</time></trkpt><trkpt lat="42.80881811562277" lon="10.401259714725704"><ele>131.16666666666669</ele><time>2026-04-24T08:15:08Z</time></trkpt><trkpt lat="42.808750754424224" lon="10.401216252682495"><ele>132.33333333333334</ele><time>2026-04-24T08:15:09Z</time></trkpt><trkpt lat="42.808657669274574" lon="10.401160467944532"><ele>133.5</ele><time>2026-04-24T08:15:11Z</time></trkpt><trkpt lat="42.80862119122504" lon="10.401085971535998"><ele>134.66666666666666</ele><time>2026-04-24T08:15:13Z</time></trkpt><trkpt lat="42.808571798288995" lon="10.40102986446825"><ele>135.83333333333331</ele><time>2026-04-24T08:15:22Z</time></trkpt><trkpt lat="42.80852184677953" lon="10.40097105922307"><ele>137.0</ele><time>2026-04-24T08:19:07Z</time></trkpt><trkpt lat="42.80846464897468" lon="10.401071864802125"><ele>138.0</ele><time>2026-04-24T08:19:47Z</time></trkpt><trkpt lat="42.808529248747845" lon="10.40112994579616"><ele>139.0</ele><time>2026-04-24T08:19:49Z</time></trkpt><trkpt lat="42.80862184426096" lon="10.401190925619613"><ele>140.0</ele><time>2026-04-24T08:19:50Z</time></trkpt><trkpt lat="42.808693901455534" lon="10.40122207803118"><ele>141.0</ele><time>2026-04-24T08:19:51Z</time></trkpt><trkpt lat="42.80876710108731" lon="10.401263971076299"><ele>142.0</ele><time>2026-04-24T08:19:52Z</time></trkpt><trkpt lat="42.80884561462102" lon="10.40131154234681"><ele>143.0</ele><time>2026-04-24T08:19:53Z</time></trkpt><trkpt lat="42.80892863013101" lon="10.401363260063187"><ele>143.0</ele><time>2026-04-24T08:19:54Z</time></trkpt><trkpt lat="42.809016302684974" lon="10.401413835091109"><ele>143.0</ele><time>2026-04-24T08:19:55Z</time></trkpt><trkpt lat="42.80911043688564" lon="10.401465185393995"><ele>143.0</ele><time>2026-04-24T08:19:56Z</time></trkpt><trkpt lat="42.809207616762286" lon="10.401524016162364"><ele>143.0</ele><time>2026-04-24T08:19:57Z</time></trkpt><trkpt lat="42.80931028005189" lon="10.40158294403834"><ele>143.0</ele><time>2026-04-24T08:19:58Z</time></trkpt><trkpt lat="42.809407534242055" lon="10.401636780319931"><ele>143.0</ele><time>2026-04-24T08:19:59Z</time></trkpt><trkpt lat="42.809496268802164" lon="10.401700510433411"><ele>143.0</ele><time>2026-04-24T08:20:00Z</time></trkpt><trkpt lat="42.809573073834365" lon="10.401779839403876"><ele>143.0</ele><time>2026-04-24T08:20:01Z</time></trkpt><trkpt lat="42.809635287567964" lon="10.401875964397851"><ele>143.0</ele><time>2026-04-24T08:20:02Z</time></trkpt><trkpt lat="42.809676841819744" lon="10.401994550155742"><ele>143.0</ele><time>2026-04-24T08:20:03Z</time></trkpt><trkpt lat="42.80970441525443" lon="10.402124136087023"><ele>140.8</ele><time>2026-04-24T08:20:04Z</time></trkpt><trkpt lat="42.80972604650248" lon="10.402260344314508"><ele>138.60000000000002</ele><time>2026-04-24T08:20:05Z</time></trkpt><trkpt lat="42.80975996467363" lon="10.402396030135833"><ele>136.39999999999998</ele><time>2026-04-24T08:20:06Z</time></trkpt><trkpt lat="42.809801341469985" lon="10.402527270598098"><ele>134.2</ele><time>2026-04-24T08:20:07Z</time></trkpt><trkpt lat="42.80984315237249" lon="10.402644067687536"><ele>132.0</ele><time>2026-04-24T08:20:08Z</time></trkpt><trkpt lat="42.80988179635449" lon="10.402741426360015"><ele>132.0</ele><time>2026-04-24T08:20:09Z</time></trkpt><trkpt lat="42.80993760896988" lon="10.40287299666831"><ele>132.0</ele><time>2026-04-24T08:20:11Z</time></trkpt><trkpt lat="42.80994639934176" lon="10.402960742960675"><ele>132.0</ele><time>2026-04-24T08:20:13Z</time></trkpt><trkpt lat="42.80981144789332" lon="10.402995728337027"><ele>132.0</ele><time>2026-04-24T08:20:16Z</time></trkpt><trkpt lat="42.80974290666476" lon="10.402980391258867"><ele>132.0</ele><time>2026-04-24T08:20:17Z</time></trkpt><trkpt lat="42.80966489447297" lon="10.402996357134437"><ele>131.4</ele><time>2026-04-24T08:20:18Z</time></trkpt><trkpt lat="42.809580686270095" lon="10.4030570989677"><ele>130.79999999999998</ele><time>2026-04-24T08:20:19Z</time></trkpt><trkpt lat="42.809492255327996" lon="10.403124704442574"><ele>130.2</ele><time>2026-04-24T08:20:20Z</time></trkpt><trkpt lat="42.80941029367489" lon="10.403199626668926"><ele>129.6</ele><time>2026-04-24T08:20:21Z</time></trkpt><trkpt lat="42.80933697434439" lon="10.403289166142272"><ele>129.0</ele><time>2026-04-24T08:20:22Z</time></trkpt><trkpt lat="42.8092805624916" lon="10.4033983739359"><ele>128.2</ele><time>2026-04-24T08:20:23Z</time></trkpt><trkpt lat="42.80922494798346" lon="10.403513193528823"><ele>127.4</ele><time>2026-04-24T08:20:24Z</time></trkpt><trkpt lat="42.8091392606869" lon="10.40359008533842"><ele>126.6</ele><time>2026-04-24T08:20:25Z</time></trkpt><trkpt lat="42.80905393685368" lon="10.403662494951137"><ele>125.8</ele><time>2026-04-24T08:20:26Z</time></trkpt><trkpt lat="42.80895949836302" lon="10.403735214588043"><ele>125.0</ele><time>2026-04-24T08:20:27Z</time></trkpt><trkpt lat="42.80888551259798" lon="10.403842997835358"><ele>125.0</ele><time>2026-04-24T08:20:28Z</time></trkpt><trkpt lat="42.80880138376349" lon="10.403948014719328"><ele>125.0</ele><time>2026-04-24T08:20:29Z</time></trkpt><trkpt lat="42.80872042603846" lon="10.404064820666761"><ele>125.0</ele><time>2026-04-24T08:20:30Z</time></trkpt><trkpt lat="42.808635409763184" lon="10.404168072201257"><ele>125.0</ele><time>2026-04-24T08:20:31Z</time></trkpt><trkpt lat="42.80854348809268" lon="10.40426823720506"><ele>119.5</ele><time>2026-04-24T08:20:32Z</time></trkpt><trkpt lat="42.80844918588306" lon="10.404364466978338"><ele>114.0</ele><time>2026-04-24T08:20:33Z</time></trkpt><trkpt lat="42.808354742306165" lon="10.404460391528803"><ele>108.5</ele><time>2026-04-24T08:20:34Z</time></trkpt><trkpt lat="42.808261138824044" lon="10.404556055927225"><ele>103.0</ele><time>2026-04-24T08:20:35Z</time></trkpt><trkpt lat="42.808173809393885" lon="10.404653249941791"><ele>104.60000000000001</ele><time>2026-04-24T08:20:36Z</time></trkpt><trkpt lat="42.80809376988186" lon="10.404751292183615"><ele>106.2</ele><time>2026-04-24T08:20:37Z</time></trkpt><trkpt lat="42.80802255890126" lon="10.404862766494901"><ele>107.8</ele><time>2026-04-24T08:20:38Z</time></trkpt><trkpt lat="42.807954390038816" lon="10.404980019902293"><ele>109.4</ele><time>2026-04-24T08:20:39Z</time></trkpt><trkpt lat="42.80788816305582" lon="10.405092901530764"><ele>111.0</ele><time>2026-04-24T08:20:40Z</time></trkpt><trkpt lat="42.80781793511106" lon="10.405212387396478"><ele>111.0</ele><time>2026-04-24T08:20:41Z</time></trkpt><trkpt lat="42.807751194974074" lon="10.405320949546434"><ele>111.0</ele><time>2026-04-24T08:20:42Z</time></trkpt><trkpt lat="42.80769472376836" lon="10.40542634375527"><ele>111.0</ele><time>2026-04-24T08:20:43Z</time></trkpt><trkpt lat="42.807645746806955" lon="10.405543339750112"><ele>111.0</ele><time>2026-04-24T08:20:44Z</time></trkpt><trkpt lat="42.80761034025554" lon="10.405663653288261"><ele>111.0</ele><time>2026-04-24T08:20:45Z</time></trkpt><trkpt lat="42.807582107284105" lon="10.40579142303468"><ele>107.0</ele><time>2026-04-24T08:20:46Z</time></trkpt><trkpt lat="42.80756098057282" lon="10.405915680686508"><ele>103.0</ele><time>2026-04-24T08:20:47Z</time></trkpt><trkpt lat="42.80755248982382" lon="10.406043894760565"><ele>99.0</ele><time>2026-04-24T08:20:48Z</time></trkpt><trkpt lat="42.80755663584859" lon="10.406171765848951"><ele>95.0</ele><time>2026-04-24T08:20:49Z</time></trkpt><trkpt lat="42.807557969509574" lon="10.406301040483376"><ele>91.0</ele><time>2026-04-24T08:20:50Z</time></trkpt><trkpt lat="42.807545702443356" lon="10.406419476773005"><ele>90.66666666666666</ele><time>2026-04-24T08:20:51Z</time></trkpt><trkpt lat="42.807525423235" lon="10.406527520558747"><ele>90.33333333333333</ele><time>2026-04-24T08:20:52Z</time></trkpt><trkpt lat="42.80749507537731" lon="10.40663828976025"><ele>90.0</ele><time>2026-04-24T08:20:53Z</time></trkpt><trkpt lat="42.80745767999177" lon="10.406749845402059"><ele>89.66666666666667</ele><time>2026-04-24T08:20:54Z</time></trkpt><trkpt lat="42.80742075881036" lon="10.40686295556407"><ele>89.33333333333334</ele><time>2026-04-24T08:20:55Z</time></trkpt><trkpt lat="42.807382581698526" lon="10.406982094820105"><ele>89.0</ele><time>2026-04-24T08:20:56Z</time></trkpt><trkpt lat="42.80734133277108" lon="10.407099699880995"><ele>88.5</ele><time>2026-04-24T08:20:57Z</time></trkpt><trkpt lat="42.8072946837613" lon="10.407216408657273"><ele>88.0</ele><time>2026-04-24T08:20:58Z</time></trkpt><trkpt lat="42.80725316531923" lon="10.407322644195458"><ele>87.5</ele><time>2026-04-24T08:20:59Z</time></trkpt><trkpt lat="42.80719930814448" lon="10.407416715670966"><ele>87.0</ele><time>2026-04-24T08:21:00Z</time></trkpt><trkpt lat="42.80718411927323" lon="10.407529876574904"><ele>86.5</ele><time>2026-04-24T08:21:01Z</time></trkpt><trkpt lat="42.80716191350222" lon="10.407638659275815"><ele>86.0</ele><time>2026-04-24T08:21:02Z</time></trkpt><trkpt lat="42.80714485493293" lon="10.40775342134486"><ele>86.0</ele><time>2026-04-24T08:21:03Z</time></trkpt><trkpt lat="42.80712566230235" lon="10.407858623128764"><ele>86.0</ele><time>2026-04-24T08:21:04Z</time></trkpt><trkpt lat="42.80711327430722" lon="10.4079636335899"><ele>86.0</ele><time>2026-04-24T08:21:05Z</time></trkpt><trkpt lat="42.80711370180197" lon="10.408065996912121"><ele>86.0</ele><time>2026-04-24T08:21:06Z</time></trkpt><trkpt lat="42.80711069626874" lon="10.40817405743234"><ele>86.0</ele><time>2026-04-24T08:21:07Z</time></trkpt><trkpt lat="42.80710683654045" lon="10.408286311383469"><ele>86.0</ele><time>2026-04-24T08:21:08Z</time></trkpt><trkpt lat="42.80710447281331" lon="10.408394023998369"><ele>84.83333333333334</ele><time>2026-04-24T08:21:09Z</time></trkpt><trkpt lat="42.80709948425266" lon="10.40849779240255"><ele>83.66666666666667</ele><time>2026-04-24T08:21:10Z</time></trkpt><trkpt lat="42.807089532246415" lon="10.408607604311728"><ele>82.5</ele><time>2026-04-24T08:21:11Z</time></trkpt><trkpt lat="42.80707420331248" lon="10.408719982934793"><ele>81.33333333333333</ele><time>2026-04-24T08:21:12Z</time></trkpt><trkpt lat="42.80705241463631" lon="10.408834539367792"><ele>80.16666666666666</ele><time>2026-04-24T08:21:13Z</time></trkpt><trkpt lat="42.80702508370108" lon="10.408950024800681"><ele>79.0</ele><time>2026-04-24T08:21:14Z</time></trkpt><trkpt lat="42.80699021577994" lon="10.409066561212255"><ele>77.83333333333333</ele><time>2026-04-24T08:21:15Z</time></trkpt><trkpt lat="42.80695553962997" lon="10.40918009616173"><ele>76.66666666666666</ele><time>2026-04-24T08:21:16Z</time></trkpt><trkpt lat="42.80690572172282" lon="10.409287203273491"><ele>75.5</ele><time>2026-04-24T08:21:17Z</time></trkpt><trkpt lat="42.80688831783338" lon="10.409410136560552"><ele>74.33333333333333</ele><time>2026-04-24T08:21:18Z</time></trkpt><trkpt lat="42.80685881186884" lon="10.409512750946435"><ele>73.16666666666667</ele><time>2026-04-24T08:21:19Z</time></trkpt><trkpt lat="42.80683694325439" lon="10.409595310667001"><ele>72.0</ele><time>2026-04-24T08:21:20Z</time></trkpt><trkpt lat="42.8068061013642" lon="10.409676579088565"><ele>72.0</ele><time>2026-04-24T08:21:22Z</time></trkpt><trkpt lat="42.806806658268535" lon="10.40976439309504"><ele>72.0</ele><time>2026-04-24T08:21:42Z</time></trkpt><trkpt lat="42.80673911580356" lon="10.409857527099103"><ele>72.0</ele><time>2026-04-24T08:21:44Z</time></trkpt><trkpt lat="42.80666231771556" lon="10.409935790104079"><ele>72.0</ele><time>2026-04-24T08:21:46Z</time></trkpt><trkpt lat="42.80657297189543" lon="10.410025086821685"><ele>72.0</ele><time>2026-04-24T08:21:48Z</time></trkpt><trkpt lat="42.80651096537594" lon="10.41004539136163"><ele>72.0</ele><time>2026-04-24T08:21:49Z</time></trkpt><trkpt lat="42.80640360766377" lon="10.41009781262387"><ele>72.00000000000001</ele><time>2026-04-24T08:21:51Z</time></trkpt><trkpt lat="42.806358425728696" lon="10.410170693021566"><ele>72.0</ele><time>2026-04-24T08:21:52Z</time></trkpt><trkpt lat="42.80629776978604" lon="10.410203938508463"><ele>72.0</ele><time>2026-04-24T08:21:53Z</time></trkpt><trkpt lat="42.806233835981885" lon="10.410225203738177"><ele>72.0</ele><time>2026-04-24T08:21:54Z</time></trkpt><trkpt lat="42.806172027201754" lon="10.410242112892613"><ele>72.0</ele><time>2026-04-24T08:21:55Z</time></trkpt><trkpt lat="42.80610336318547" lon="10.410232236000974"><ele>72.00000000000001</ele><time>2026-04-24T08:21:56Z</time></trkpt><trkpt lat="42.80599900991859" lon="10.410288043060172"><ele>72.0</ele><time>2026-04-24T08:21:58Z</time></trkpt><trkpt lat="42.805921873171734" lon="10.410287199043507"><ele>71.5</ele><time>2026-04-24T08:22:01Z</time></trkpt><trkpt lat="42.80585189986629" lon="10.410334442416366"><ele>71.0</ele><time>2026-04-24T08:22:23Z</time></trkpt><trkpt lat="42.8057394616645" lon="10.41037949125489"><ele>70.5</ele><time>2026-04-24T08:22:25Z</time></trkpt><trkpt lat="42.80566862189481" lon="10.410407613802771"><ele>70.0</ele><time>2026-04-24T08:22:26Z</time></trkpt><trkpt lat="42.80559544694411" lon="10.410425630752128"><ele>69.5</ele><time>2026-04-24T08:22:27Z</time></trkpt><trkpt lat="42.805517763259836" lon="10.410457476686176"><ele>69.0</ele><time>2026-04-24T08:22:28Z</time></trkpt><trkpt lat="42.80543361617545" lon="10.41049206903139"><ele>69.5</ele><time>2026-04-24T08:22:29Z</time></trkpt><trkpt lat="42.80534706116311" lon="10.410518117365505"><ele>70.0</ele><time>2026-04-24T08:22:30Z</time></trkpt><trkpt lat="42.80525677415524" lon="10.410546318401481"><ele>70.5</ele><time>2026-04-24T08:22:31Z</time></trkpt><trkpt lat="42.80517000441253" lon="10.410577373487556"><ele>71.0</ele><time>2026-04-24T08:22:32Z</time></trkpt><trkpt lat="42.805084370846195" lon="10.41060930744425"><ele>71.5</ele><time>2026-04-24T08:22:33Z</time></trkpt><trkpt lat="42.805001189045456" lon="10.410641077207261"><ele>72.0</ele><time>2026-04-24T08:22:34Z</time></trkpt><trkpt lat="42.804918603705275" lon="10.41068371312555"><ele>72.0</ele><time>2026-04-24T08:22:35Z</time></trkpt><trkpt lat="42.804843728365405" lon="10.410727557876191"><ele>72.0</ele><time>2026-04-24T08:22:36Z</time></trkpt><trkpt lat="42.80477640540969" lon="10.410781660151601"><ele>72.0</ele><time>2026-04-24T08:22:37Z</time></trkpt><trkpt lat="42.80470242554253" lon="10.410833021354389"><ele>72.0</ele><time>2026-04-24T08:22:38Z</time></trkpt><trkpt lat="42.804639393076485" lon="10.410910672164572"><ele>72.0</ele><time>2026-04-24T08:22:39Z</time></trkpt><trkpt lat="42.80458318427441" lon="10.411005765560539"><ele>72.0</ele><time>2026-04-24T08:22:40Z</time></trkpt><trkpt lat="42.80453574683329" lon="10.411103943643308"><ele>72.0</ele><time>2026-04-24T08:22:41Z</time></trkpt><trkpt lat="42.804506313157084" lon="10.411222390966284"><ele>72.0</ele><time>2026-04-24T08:22:42Z</time></trkpt><trkpt lat="42.804460643289126" lon="10.411332580557888"><ele>72.0</ele><time>2026-04-24T08:22:43Z</time></trkpt><trkpt lat="42.804408063386454" lon="10.41143250741852"><ele>72.0</ele><time>2026-04-24T08:22:44Z</time></trkpt><trkpt lat="42.80436548459117" lon="10.411545272784458"><ele>72.0</ele><time>2026-04-24T08:22:45Z</time></trkpt><trkpt lat="42.80432711442078" lon="10.41165051882849"><ele>71.0</ele><time>2026-04-24T08:22:46Z</time></trkpt><trkpt lat="42.80429677681122" lon="10.411743912448383"><ele>70.0</ele><time>2026-04-24T08:22:47Z</time></trkpt><trkpt lat="42.80423855726247" lon="10.411892042280616"><ele>69.0</ele><time>2026-04-24T08:22:49Z</time></trkpt><trkpt lat="42.804205676597384" lon="10.411972155665659"><ele>68.0</ele><time>2026-04-24T08:22:50Z</time></trkpt><trkpt lat="42.80416841442832" lon="10.412067158812608"><ele>67.0</ele><time>2026-04-24T08:22:51Z</time></trkpt><trkpt lat="42.80412750535504" lon="10.412180360913775"><ele>66.0</ele><time>2026-04-24T08:22:52Z</time></trkpt><trkpt lat="42.80408552058827" lon="10.412289809508954"><ele>66.0</ele><time>2026-04-24T08:22:53Z</time></trkpt><trkpt lat="42.80404025769173" lon="10.412394183204356"><ele>66.0</ele><time>2026-04-24T08:22:54Z</time></trkpt><trkpt lat="42.80398378772846" lon="10.412488619946187"><ele>66.0</ele><time>2026-04-24T08:22:55Z</time></trkpt><trkpt lat="42.80391918975853" lon="10.412572787554856"><ele>66.0</ele><time>2026-04-24T08:22:56Z</time></trkpt><trkpt lat="42.803845558307614" lon="10.412639621523198"><ele>66.0</ele><time>2026-04-24T08:22:57Z</time></trkpt><trkpt lat="42.80377298114716" lon="10.412705706967444"><ele>66.0</ele><time>2026-04-24T08:22:58Z</time></trkpt><trkpt lat="42.803701767212324" lon="10.412767201888524"><ele>66.0</ele><time>2026-04-24T08:22:59Z</time></trkpt><trkpt lat="42.80362872027461" lon="10.412835343936367"><ele>66.0</ele><time>2026-04-24T08:23:00Z</time></trkpt><trkpt lat="42.80355611146848" lon="10.412898461224632"><ele>66.0</ele><time>2026-04-24T08:23:01Z</time></trkpt><trkpt lat="42.803483111019034" lon="10.41295300134171"><ele>66.0</ele><time>2026-04-24T08:23:02Z</time></trkpt><trkpt lat="42.80341101962823" lon="10.41301635391213"><ele>66.0</ele><time>2026-04-24T08:23:03Z</time></trkpt><trkpt lat="42.80334373800818" lon="10.413090728688301"><ele>66.0</ele><time>2026-04-24T08:23:04Z</time></trkpt><trkpt lat="42.8032829753493" lon="10.413166930128801"><ele>64.33333333333333</ele><time>2026-04-24T08:23:05Z</time></trkpt><trkpt lat="42.80323904250939" lon="10.413253535661834"><ele>62.66666666666667</ele><time>2026-04-24T08:23:06Z</time></trkpt><trkpt lat="42.80320667864332" lon="10.413356032409558"><ele>61.0</ele><time>2026-04-24T08:23:07Z</time></trkpt><trkpt lat="42.803174522438056" lon="10.413458601903761"><ele>59.333333333333336</ele><time>2026-04-24T08:23:08Z</time></trkpt><trkpt lat="42.80313789381159" lon="10.413559329147189"><ele>57.66666666666667</ele><time>2026-04-24T08:23:09Z</time></trkpt><trkpt lat="42.803087316952585" lon="10.413659559344099"><ele>56.0</ele><time>2026-04-24T08:23:10Z</time></trkpt><trkpt lat="42.80302408191293" lon="10.413739341246629"><ele>56.0</ele><time>2026-04-24T08:23:11Z</time></trkpt><trkpt lat="42.80295313499052" lon="10.41379675475675"><ele>55.99999999999999</ele><time>2026-04-24T08:23:12Z</time></trkpt><trkpt lat="42.802869866168685" lon="10.41383210988188"><ele>55.99999999999999</ele><time>2026-04-24T08:23:13Z</time></trkpt><trkpt lat="42.8027815811882" lon="10.41384822401329"><ele>56.0</ele><time>2026-04-24T08:23:14Z</time></trkpt><trkpt lat="42.802685132334496" lon="10.413861368050647"><ele>56.0</ele><time>2026-04-24T08:23:15Z</time></trkpt><trkpt lat="42.8025888515652" lon="10.413870067710896"><ele>55.199999999999996</ele><time>2026-04-24T08:23:16Z</time></trkpt><trkpt lat="42.80249580834457" lon="10.413890727353083"><ele>54.39999999999999</ele><time>2026-04-24T08:23:17Z</time></trkpt><trkpt lat="42.802406106734" lon="10.413923693597"><ele>53.6</ele><time>2026-04-24T08:23:18Z</time></trkpt><trkpt lat="42.80232613009204" lon="10.413969857557337"><ele>52.8</ele><time>2026-04-24T08:23:19Z</time></trkpt><trkpt lat="42.802252462380714" lon="10.414036651805242"><ele>52.0</ele><time>2026-04-24T08:23:20Z</time></trkpt><trkpt lat="42.80218032527173" lon="10.414113804336234"><ele>52.0</ele><time>2026-04-24T08:23:21Z</time></trkpt><trkpt lat="42.80211166420024" lon="10.414204643709116"><ele>52.0</ele><time>2026-04-24T08:23:22Z</time></trkpt><trkpt lat="42.80204466451029" lon="10.414306550527455"><ele>52.0</ele><time>2026-04-24T08:23:23Z</time></trkpt><trkpt lat="42.80197810496825" lon="10.414415179330144"><ele>52.0</ele><time>2026-04-24T08:23:24Z</time></trkpt><trkpt lat="42.80191045871543" lon="10.414515930129092"><ele>52.0</ele><time>2026-04-24T08:23:25Z</time></trkpt><trkpt lat="42.80184211919911" lon="10.414620049849509"><ele>50.0</ele><time>2026-04-24T08:23:26Z</time></trkpt><trkpt lat="42.80177606824682" lon="10.414725980273337"><ele>48.0</ele><time>2026-04-24T08:23:27Z</time></trkpt><trkpt lat="42.80171265611503" lon="10.414827807528857"><ele>46.0</ele><time>2026-04-24T08:23:28Z</time></trkpt><trkpt lat="42.8016471375669" lon="10.414933587097792"><ele>44.0</ele><time>2026-04-24T08:23:29Z</time></trkpt><trkpt lat="42.801582145083714" lon="10.415037862606601"><ele>42.0</ele><time>2026-04-24T08:23:30Z</time></trkpt><trkpt lat="42.80151785343261" lon="10.415139251318244"><ele>42.0</ele><time>2026-04-24T08:23:31Z</time></trkpt><trkpt lat="42.80145088770138" lon="10.41523042377552"><ele>42.0</ele><time>2026-04-24T08:23:32Z</time></trkpt><trkpt lat="42.801383319022975" lon="10.415317853118802"><ele>42.0</ele><time>2026-04-24T08:23:33Z</time></trkpt><trkpt lat="42.80130299466455" lon="10.415383257757028"><ele>42.0</ele><time>2026-04-24T08:23:34Z</time></trkpt><trkpt lat="42.80121038660023" lon="10.415422557925451"><ele>42.0</ele><time>2026-04-24T08:23:35Z</time></trkpt><trkpt lat="42.8011282336902" lon="10.415498254771531"><ele>41.6</ele><time>2026-04-24T08:23:36Z</time></trkpt><trkpt lat="42.80103597737068" lon="10.415556041496254"><ele>41.2</ele><time>2026-04-24T08:23:37Z</time></trkpt><trkpt lat="42.800946657856414" lon="10.415601976824023"><ele>40.8</ele><time>2026-04-24T08:23:38Z</time></trkpt><trkpt lat="42.800859965145776" lon="10.415661932398379"><ele>40.4</ele><time>2026-04-24T08:23:39Z</time></trkpt><trkpt lat="42.80077219940501" lon="10.415718061649287"><ele>40.0</ele><time>2026-04-24T08:23:40Z</time></trkpt><trkpt lat="42.8006812041854" lon="10.415772489016499"><ele>40.0</ele><time>2026-04-24T08:23:41Z</time></trkpt><trkpt lat="42.80059162274069" lon="10.415825402245702"><ele>40.0</ele><time>2026-04-24T08:23:42Z</time></trkpt><trkpt lat="42.800501314496806" lon="10.415884735591586"><ele>40.0</ele><time>2026-04-24T08:23:43Z</time></trkpt><trkpt lat="42.80041491135716" lon="10.41592337124756"><ele>40.0</ele><time>2026-04-24T08:23:44Z</time></trkpt><trkpt lat="42.80033719763861" lon="10.415971552538942"><ele>40.0</ele><time>2026-04-24T08:23:45Z</time></trkpt><trkpt lat="42.80026571594878" lon="10.416013682426353"><ele>40.0</ele><time>2026-04-24T08:23:46Z</time></trkpt><trkpt lat="42.80019923543172" lon="10.41606212602663"><ele>40.0</ele><time>2026-04-24T08:23:47Z</time></trkpt><trkpt lat="42.80013909642464" lon="10.416109810204338"><ele>40.0</ele><time>2026-04-24T08:23:48Z</time></trkpt><trkpt lat="42.80007283008304" lon="10.416165226685083"><ele>40.0</ele><time>2026-04-24T08:23:49Z</time></trkpt><trkpt lat="42.799999434585644" lon="10.416236986882549"><ele>40.0</ele><time>2026-04-24T08:23:50Z</time></trkpt><trkpt lat="42.799930232176486" lon="10.416334774988716"><ele>40.0</ele><time>2026-04-24T08:23:51Z</time></trkpt><trkpt lat="42.79986788273739" lon="10.41644381124196"><ele>40.0</ele><time>2026-04-24T08:23:52Z</time></trkpt><trkpt lat="42.79981110954499" lon="10.416555929626226"><ele>40.0</ele><time>2026-04-24T08:23:53Z</time></trkpt><trkpt lat="42.79975602380184" lon="10.416661104887131"><ele>40.0</ele><time>2026-04-24T08:23:54Z</time></trkpt><trkpt lat="42.79970982912892" lon="10.416764275104596"><ele>40.0</ele><time>2026-04-24T08:23:55Z</time></trkpt><trkpt lat="42.7996686754942" lon="10.4168735210391"><ele>40.0</ele><time>2026-04-24T08:23:56Z</time></trkpt><trkpt lat="42.79963908104684" lon="10.416996604034338"><ele>40.0</ele><time>2026-04-24T08:23:57Z</time></trkpt><trkpt lat="42.79962817031515" lon="10.417120310976795"><ele>40.0</ele><time>2026-04-24T08:23:58Z</time></trkpt><trkpt lat="42.7996268516582" lon="10.4172523281508"><ele>40.0</ele><time>2026-04-24T08:23:59Z</time></trkpt><trkpt lat="42.79960609429199" lon="10.417383765837908"><ele>40.0</ele><time>2026-04-24T08:24:00Z</time></trkpt><trkpt lat="42.79959720160059" lon="10.417514730353927"><ele>40.0</ele><time>2026-04-24T08:24:01Z</time></trkpt><trkpt lat="42.799586610645655" lon="10.417651119190017"><ele>41.8</ele><time>2026-04-24T08:24:02Z</time></trkpt><trkpt lat="42.79955038349987" lon="10.417777091011692"><ele>43.6</ele><time>2026-04-24T08:24:03Z</time></trkpt><trkpt lat="42.799504021853785" lon="10.41789659693211"><ele>45.400000000000006</ele><time>2026-04-24T08:24:04Z</time></trkpt><trkpt lat="42.79944590972607" lon="10.41799516316384"><ele>47.2</ele><time>2026-04-24T08:24:05Z</time></trkpt><trkpt lat="42.79939586215174" lon="10.418093363116729"><ele>49.0</ele><time>2026-04-24T08:24:06Z</time></trkpt><trkpt lat="42.79934732978551" lon="10.418187573816699"><ele>45.666666666666664</ele><time>2026-04-24T08:24:07Z</time></trkpt><trkpt lat="42.79929931325412" lon="10.418280783189124"><ele>42.33333333333333</ele><time>2026-04-24T08:24:08Z</time></trkpt><trkpt lat="42.79925935110211" lon="10.41838962885398"><ele>39.0</ele><time>2026-04-24T08:24:09Z</time></trkpt><trkpt lat="42.79920127410281" lon="10.418481295560099"><ele>35.666666666666664</ele><time>2026-04-24T08:24:10Z</time></trkpt><trkpt lat="42.79915538864254" lon="10.418575591524267"><ele>32.33333333333333</ele><time>2026-04-24T08:24:11Z</time></trkpt><trkpt lat="42.799107742802484" lon="10.41867147186609"><ele>29.0</ele><time>2026-04-24T08:24:12Z</time></trkpt><trkpt lat="42.79905657661366" lon="10.418777255865887"><ele>30.799999999999997</ele><time>2026-04-24T08:24:13Z</time></trkpt><trkpt lat="42.79900175798159" lon="10.418884853537488"><ele>32.599999999999994</ele><time>2026-04-24T08:24:14Z</time></trkpt><trkpt lat="42.79893759905926" lon="10.418995526454522"><ele>34.4</ele><time>2026-04-24T08:24:15Z</time></trkpt><trkpt lat="42.798872807031294" lon="10.41910765578082"><ele>36.199999999999996</ele><time>2026-04-24T08:24:16Z</time></trkpt><trkpt lat="42.79881023210853" lon="10.419211537327461"><ele>38.0</ele><time>2026-04-24T08:24:17Z</time></trkpt><trkpt lat="42.798750999611" lon="10.419319194394149"><ele>38.0</ele><time>2026-04-24T08:24:18Z</time></trkpt><trkpt lat="42.798698629616176" lon="10.419434591897554"><ele>38.0</ele><time>2026-04-24T08:24:19Z</time></trkpt><trkpt lat="42.79863661323382" lon="10.419543718488205"><ele>38.0</ele><time>2026-04-24T08:24:20Z</time></trkpt><trkpt lat="42.798612401125425" lon="10.41968344260662"><ele>38.0</ele><time>2026-04-24T08:24:21Z</time></trkpt><trkpt lat="42.79857739210968" lon="10.419820772214733"><ele>38.0</ele><time>2026-04-24T08:24:22Z</time></trkpt><trkpt lat="42.79854537655349" lon="10.419965350085475"><ele>37.199999999999996</ele><time>2026-04-24T08:24:23Z</time></trkpt><trkpt lat="42.79850506029867" lon="10.420101292026693"><ele>36.4</ele><time>2026-04-24T08:24:24Z</time></trkpt><trkpt lat="42.798454074580825" lon="10.420230800389819"><ele>35.599999999999994</ele><time>2026-04-24T08:24:25Z</time></trkpt><trkpt lat="42.79840030877325" lon="10.420352385199322"><ele>34.8</ele><time>2026-04-24T08:24:26Z</time></trkpt><trkpt lat="42.79832445893248" lon="10.420458609288264"><ele>34.0</ele><time>2026-04-24T08:24:27Z</time></trkpt><trkpt lat="42.79825566277138" lon="10.42057823401307"><ele>34.0</ele><time>2026-04-24T08:24:28Z</time></trkpt><trkpt lat="42.79818894211048" lon="10.420699901065094"><ele>34.0</ele><time>2026-04-24T08:24:29Z</time></trkpt><trkpt lat="42.79812846966232" lon="10.420830077814133"><ele>34.0</ele><time>2026-04-24T08:24:30Z</time></trkpt><trkpt lat="42.79805581101344" lon="10.420954816908303"><ele>34.0</ele><time>2026-04-24T08:24:31Z</time></trkpt><trkpt lat="42.79798527795754" lon="10.421066495695571"><ele>34.0</ele><time>2026-04-24T08:24:32Z</time></trkpt><trkpt lat="42.797915459651534" lon="10.421177595829297"><ele>34.0</ele><time>2026-04-24T08:24:33Z</time></trkpt><trkpt lat="42.79785358732406" lon="10.421289716334424"><ele>34.0</ele><time>2026-04-24T08:24:34Z</time></trkpt><trkpt lat="42.797784283014146" lon="10.421406390836705"><ele>34.0</ele><time>2026-04-24T08:24:35Z</time></trkpt><trkpt lat="42.79771176584305" lon="10.421524031606202"><ele>34.0</ele><time>2026-04-24T08:24:36Z</time></trkpt><trkpt lat="42.79763871178313" lon="10.421636679010904"><ele>34.0</ele><time>2026-04-24T08:24:37Z</time></trkpt><trkpt lat="42.797563771413465" lon="10.421754060943634"><ele>33.0</ele><time>2026-04-24T08:24:38Z</time></trkpt><trkpt lat="42.79748980883666" lon="10.421874053618472"><ele>32.0</ele><time>2026-04-24T08:24:39Z</time></trkpt><trkpt lat="42.79742023449221" lon="10.421990517584977"><ele>31.0</ele><time>2026-04-24T08:24:40Z</time></trkpt><trkpt lat="42.79734403563729" lon="10.422100083046095"><ele>30.0</ele><time>2026-04-24T08:24:41Z</time></trkpt><trkpt lat="42.79727319869109" lon="10.422215512168952"><ele>29.0</ele><time>2026-04-24T08:24:42Z</time></trkpt><trkpt lat="42.7972058609193" lon="10.422332023562012"><ele>29.0</ele><time>2026-04-24T08:24:43Z</time></trkpt><trkpt lat="42.79713736083266" lon="10.422444864451732"><ele>29.0</ele><time>2026-04-24T08:24:44Z</time></trkpt><trkpt lat="42.79707019396114" lon="10.422563442135655"><ele>29.0</ele><time>2026-04-24T08:24:45Z</time></trkpt><trkpt lat="42.797003996567796" lon="10.422680599930542"><ele>29.0</ele><time>2026-04-24T08:24:46Z</time></trkpt><trkpt lat="42.796934287088845" lon="10.422795952450132"><ele>29.0</ele><time>2026-04-24T08:24:47Z</time></trkpt><trkpt lat="42.7968685100325" lon="10.422905473671154"><ele>26.4</ele><time>2026-04-24T08:24:48Z</time></trkpt><trkpt lat="42.79680535048224" lon="10.423013232212105"><ele>23.799999999999997</ele><time>2026-04-24T08:24:49Z</time></trkpt><trkpt lat="42.79674423263306" lon="10.423122582857161"><ele>21.200000000000003</ele><time>2026-04-24T08:24:50Z</time></trkpt><trkpt lat="42.796674364328496" lon="10.423227317506177"><ele>18.6</ele><time>2026-04-24T08:24:51Z</time></trkpt><trkpt lat="42.79660635356358" lon="10.423337143830548"><ele>16.0</ele><time>2026-04-24T08:24:52Z</time></trkpt><trkpt lat="42.79654013139423" lon="10.423453339356728"><ele>16.0</ele><time>2026-04-24T08:24:53Z</time></trkpt><trkpt lat="42.79647489342276" lon="10.423562022583651"><ele>16.0</ele><time>2026-04-24T08:24:54Z</time></trkpt><trkpt lat="42.79641185331359" lon="10.423664788462164"><ele>16.0</ele><time>2026-04-24T08:24:55Z</time></trkpt><trkpt lat="42.79634807412235" lon="10.423759643803777"><ele>16.0</ele><time>2026-04-24T08:24:56Z</time></trkpt><trkpt lat="42.79626992028726" lon="10.423829274170775"><ele>16.0</ele><time>2026-04-24T08:24:57Z</time></trkpt><trkpt lat="42.796201645613344" lon="10.423901833305473"><ele>15.999999999999998</ele><time>2026-04-24T08:24:58Z</time></trkpt><trkpt lat="42.79613973303257" lon="10.423975614177106"><ele>16.0</ele><time>2026-04-24T08:24:59Z</time></trkpt><trkpt lat="42.796071539333575" lon="10.424041203514586"><ele>16.0</ele><time>2026-04-24T08:25:00Z</time></trkpt><trkpt lat="42.79600297679265" lon="10.424108930772311"><ele>16.0</ele><time>2026-04-24T08:25:01Z</time></trkpt><trkpt lat="42.79592849300137" lon="10.424164512072963"><ele>15.999999999999998</ele><time>2026-04-24T08:25:02Z</time></trkpt><trkpt lat="42.79585661928766" lon="10.424243194532167"><ele>16.0</ele><time>2026-04-24T08:25:03Z</time></trkpt><trkpt lat="42.79579116972469" lon="10.424323967689993"><ele>15.999999999999998</ele><time>2026-04-24T08:25:04Z</time></trkpt><trkpt lat="42.79573407121832" lon="10.424417552029391"><ele>16.0</ele><time>2026-04-24T08:25:05Z</time></trkpt><trkpt lat="42.79569549098303" lon="10.424515242249699"><ele>16.0</ele><time>2026-04-24T08:25:06Z</time></trkpt><trkpt lat="42.79565995559991" lon="10.42460828665458"><ele>16.0</ele><time>2026-04-24T08:25:07Z</time></trkpt><trkpt lat="42.795638988040096" lon="10.424692426997291"><ele>15.999999999999998</ele><time>2026-04-24T08:25:08Z</time></trkpt><trkpt lat="42.795615907444166" lon="10.424836909035653"><ele>16.0</ele><time>2026-04-24T08:25:10Z</time></trkpt><trkpt lat="42.79559797481737" lon="10.424955933139394"><ele>17.0</ele><time>2026-04-24T08:25:12Z</time></trkpt><trkpt lat="42.79556753372189" lon="10.425063275244243"><ele>18.0</ele><time>2026-04-24T08:25:14Z</time></trkpt><trkpt lat="42.79553797832761" lon="10.42515221880968"><ele>19.0</ele><time>2026-04-24T08:25:16Z</time></trkpt><trkpt lat="42.79550192003873" lon="10.425236455203693"><ele>20.0</ele><time>2026-04-24T08:25:19Z</time></trkpt><trkpt lat="42.79544470998645" lon="10.425313532636965"><ele>21.0</ele><time>2026-04-24T08:25:23Z</time></trkpt><trkpt lat="42.7953120363934" lon="10.425232144421136"><ele>21.0</ele><time>2026-04-24T08:26:13Z</time></trkpt><trkpt lat="42.795225091275675" lon="10.425182565646065"><ele>21.0</ele><time>2026-04-24T08:26:15Z</time></trkpt><trkpt lat="42.79512058517577" lon="10.425130329290297"><ele>21.0</ele><time>2026-04-24T08:26:17Z</time></trkpt><trkpt lat="42.79503001325552" lon="10.425084831322142"><ele>21.0</ele><time>2026-04-24T08:26:19Z</time></trkpt><trkpt lat="42.7949585153224" lon="10.425049240901163"><ele>21.0</ele><time>2026-04-24T08:26:21Z</time></trkpt><trkpt lat="42.794891808271935" lon="10.425019494870297"><ele>21.0</ele><time>2026-04-24T08:26:23Z</time></trkpt><trkpt lat="42.794812539539734" lon="10.424976492168524"><ele>19.166666666666668</ele><time>2026-04-24T08:26:26Z</time></trkpt><trkpt lat="42.79475318003415" lon="10.424923715448623"><ele>17.333333333333332</ele><time>2026-04-24T08:26:30Z</time></trkpt><trkpt lat="42.794667863090645" lon="10.425048958371695"><ele>15.5</ele><time>2026-04-24T08:26:31Z</time></trkpt><trkpt lat="42.79463184377442" lon="10.425133465568463"><ele>13.666666666666668</ele><time>2026-04-24T08:26:33Z</time></trkpt><trkpt lat="42.7945652259953" lon="10.425197956361941"><ele>11.833333333333334</ele><time>2026-04-24T08:26:36Z</time></trkpt><trkpt lat="42.794518676779894" lon="10.42529350285"><ele>10.0</ele><time>2026-04-24T08:26:38Z</time></trkpt><trkpt lat="42.79447479645084" lon="10.425380242987265"><ele>10.0</ele><time>2026-04-24T08:26:40Z</time></trkpt><trkpt lat="42.794432018772696" lon="10.425463683660873"><ele>10.0</ele><time>2026-04-24T08:26:42Z</time></trkpt><trkpt lat="42.79438710310821" lon="10.425547536808102"><ele>10.0</ele><time>2026-04-24T08:26:44Z</time></trkpt><trkpt lat="42.79434449755834" lon="10.425614803229799"><ele>10.0</ele><time>2026-04-24T08:26:47Z</time></trkpt><trkpt lat="42.794391399770625" lon="10.42554299493979"><ele>10.0</ele><time>2026-04-24T08:27:15Z</time></trkpt><trkpt lat="42.79443764028016" lon="10.425453775343296"><ele>10.0</ele><time>2026-04-24T08:27:17Z</time></trkpt><trkpt lat="42.79449316686658" lon="10.425344409620159"><ele>10.0</ele><time>2026-04-24T08:27:19Z</time></trkpt><trkpt lat="42.79454577093904" lon="10.425239206032737"><ele>10.0</ele><time>2026-04-24T08:27:21Z</time></trkpt><trkpt lat="42.794598179507766" lon="10.425138572707457"><ele>10.0</ele><time>2026-04-24T08:27:23Z</time></trkpt><trkpt lat="42.79465559567237" lon="10.425059037252463"><ele>10.0</ele><time>2026-04-24T08:27:25Z</time></trkpt><trkpt lat="42.79470475849905" lon="10.424995625281793"><ele>10.0</ele><time>2026-04-24T08:27:27Z</time></trkpt><trkpt lat="42.79476867820975" lon="10.424911704963705"><ele>10.0</ele><time>2026-04-24T08:27:30Z</time></trkpt><trkpt lat="42.794952448598025" lon="10.425118898060477"><ele>10.0</ele><time>2026-04-24T08:27:33Z</time></trkpt><trkpt lat="42.79501998336525" lon="10.425111403514665"><ele>10.0</ele><time>2026-04-24T08:27:34Z</time></trkpt><trkpt lat="42.79511466300812" lon="10.425118871066687"><ele>10.0</ele><time>2026-04-24T08:27:36Z</time></trkpt><trkpt lat="42.79518759427273" lon="10.425163991193878"><ele>10.0</ele><time>2026-04-24T08:27:38Z</time></trkpt><trkpt lat="42.795261571195724" lon="10.425201923626851"><ele>10.0</ele><time>2026-04-24T08:27:42Z</time></trkpt><trkpt lat="42.79532746607521" lon="10.425236890355869"><ele>10.0</ele><time>2026-04-24T08:27:45Z</time></trkpt><trkpt lat="42.795258654571555" lon="10.42518823667412"><ele>21.0</ele><time>2026-04-24T08:28:16Z</time></trkpt><trkpt lat="42.795195615250435" lon="10.42515478501473"><ele>21.0</ele><time>2026-04-24T08:28:20Z</time></trkpt><trkpt lat="42.79525188238506" lon="10.425204810785104"><ele>21.0</ele><time>2026-04-24T08:36:00Z</time></trkpt><trkpt lat="42.79532914415063" lon="10.425259421244508"><ele>21.0</ele><time>2026-04-24T08:36:07Z</time></trkpt></trkseg><trkseg><trkpt lat="42.79515576552827" lon="10.425096304625942"><ele>11.833333333333334</ele><time>2026-04-24T10:01:34Z</time></trkpt><trkpt lat="42.79520924442869" lon="10.42501666865159"><ele>13.666666666666668</ele><time>2026-04-24T10:01:38Z</time></trkpt><trkpt lat="42.79524821632126" lon="10.425084127739469"><ele>15.5</ele><time>2026-04-24T10:01:40Z</time></trkpt><trkpt lat="42.7952520517102" lon="10.425188424360774"><ele>17.333333333333332</ele><time>2026-04-24T10:02:06Z</time></trkpt><trkpt lat="42.79530830096274" lon="10.425275791573675"><ele>19.166666666666668</ele><time>2026-04-24T10:02:08Z</time></trkpt><trkpt lat="42.79537012565628" lon="10.42530077044624"><ele>21.0</ele><time>2026-04-24T10:02:09Z</time></trkpt><trkpt lat="42.79549347282129" lon="10.425297077142924"><ele>21.0</ele><time>2026-04-24T10:02:11Z</time></trkpt><trkpt lat="42.79556779284798" lon="10.425203252986629"><ele>21.0</ele><time>2026-04-24T10:02:13Z</time></trkpt><trkpt lat="42.79560498343998" lon="10.425071660049957"><ele>21.0</ele><time>2026-04-24T10:02:15Z</time></trkpt><trkpt lat="42.795640479661785" lon="10.42492008561772"><ele>21.0</ele><time>2026-04-24T10:02:17Z</time></trkpt><trkpt lat="42.795676363434794" lon="10.424780520373098"><ele>21.0</ele><time>2026-04-24T10:02:19Z</time></trkpt><trkpt lat="42.795699490325646" lon="10.42468786312323"><ele>20.166666666666668</ele><time>2026-04-24T10:02:20Z</time></trkpt><trkpt lat="42.795726317439225" lon="10.424587894813397"><ele>19.333333333333332</ele><time>2026-04-24T10:02:21Z</time></trkpt><trkpt lat="42.79576478527262" lon="10.424491749196527"><ele>18.5</ele><time>2026-04-24T10:02:22Z</time></trkpt><trkpt lat="42.79581932764264" lon="10.42440838677275"><ele>17.666666666666664</ele><time>2026-04-24T10:02:23Z</time></trkpt><trkpt lat="42.79588525202295" lon="10.42432234262106"><ele>16.833333333333332</ele><time>2026-04-24T10:02:24Z</time></trkpt><trkpt lat="42.795955268604104" lon="10.424232548319383"><ele>16.0</ele><time>2026-04-24T10:02:25Z</time></trkpt><trkpt lat="42.796034630269396" lon="10.424156086104517"><ele>16.0</ele><time>2026-04-24T10:02:26Z</time></trkpt><trkpt lat="42.79611512262878" lon="10.424071274516423"><ele>16.0</ele><time>2026-04-24T10:02:27Z</time></trkpt><trkpt lat="42.79620037631851" lon="10.423986735177744"><ele>16.0</ele><time>2026-04-24T10:02:28Z</time></trkpt><trkpt lat="42.79627977929473" lon="10.423896297414549"><ele>16.0</ele><time>2026-04-24T10:02:29Z</time></trkpt><trkpt lat="42.79635229225969" lon="10.42381256703346"><ele>16.0</ele><time>2026-04-24T10:02:30Z</time></trkpt><trkpt lat="42.79641860351885" lon="10.423711854114842"><ele>16.0</ele><time>2026-04-24T10:02:31Z</time></trkpt><trkpt lat="42.79648421555676" lon="10.4236092677274"><ele>16.0</ele><time>2026-04-24T10:02:32Z</time></trkpt><trkpt lat="42.79656115920924" lon="10.423525378217303"><ele>16.0</ele><time>2026-04-24T10:02:33Z</time></trkpt><trkpt lat="42.79662144500786" lon="10.423376633698181"><ele>16.0</ele><time>2026-04-24T10:02:34Z</time></trkpt><trkpt lat="42.79668799917092" lon="10.423278499827425"><ele>16.0</ele><time>2026-04-24T10:02:35Z</time></trkpt><trkpt lat="42.79675010889613" lon="10.423178838167587"><ele>16.0</ele><time>2026-04-24T10:02:36Z</time></trkpt><trkpt lat="42.79681422864007" lon="10.423082272072262"><ele>16.0</ele><time>2026-04-24T10:02:37Z</time></trkpt><trkpt lat="42.79687688458012" lon="10.422972381680001"><ele>16.0</ele><time>2026-04-24T10:02:38Z</time></trkpt><trkpt lat="42.796940496066355" lon="10.422866792228776"><ele>16.0</ele><time>2026-04-24T10:02:39Z</time></trkpt><trkpt lat="42.79699779806144" lon="10.42274929798206"><ele>16.0</ele><time>2026-04-24T10:02:40Z</time></trkpt><trkpt lat="42.79706038622258" lon="10.422641522358312"><ele>17.6</ele><time>2026-04-24T10:02:41Z</time></trkpt><trkpt lat="42.7971211289938" lon="10.422530442194045"><ele>19.200000000000003</ele><time>2026-04-24T10:02:42Z</time></trkpt><trkpt lat="42.797188642290365" lon="10.422415946791645"><ele>20.799999999999997</ele><time>2026-04-24T10:02:43Z</time></trkpt><trkpt lat="42.79725879165827" lon="10.422308393940364"><ele>22.4</ele><time>2026-04-24T10:02:44Z</time></trkpt><trkpt lat="42.79732329289664" lon="10.422196471741831"><ele>24.0</ele><time>2026-04-24T10:02:45Z</time></trkpt><trkpt lat="42.79739329552437" lon="10.422096973668616"><ele>24.0</ele><time>2026-04-24T10:02:46Z</time></trkpt><trkpt lat="42.79745318410923" lon="10.421985677410824"><ele>24.0</ele><time>2026-04-24T10:02:47Z</time></trkpt><trkpt lat="42.79751827795235" lon="10.421884115093073"><ele>24.0</ele><time>2026-04-24T10:02:48Z</time></trkpt><trkpt lat="42.79757987980848" lon="10.421777044908964"><ele>24.0</ele><time>2026-04-24T10:02:49Z</time></trkpt><trkpt lat="42.7976456385404" lon="10.421673076496408"><ele>24.0</ele><time>2026-04-24T10:02:50Z</time></trkpt><trkpt lat="42.797707101652954" lon="10.421565527232413"><ele>26.0</ele><time>2026-04-24T10:02:51Z</time></trkpt><trkpt lat="42.79777571893665" lon="10.421468113737987"><ele>28.0</ele><time>2026-04-24T10:02:52Z</time></trkpt><trkpt lat="42.79784360000909" lon="10.421361642187296"><ele>30.0</ele><time>2026-04-24T10:02:53Z</time></trkpt><trkpt lat="42.79791362725814" lon="10.421256733280318"><ele>32.0</ele><time>2026-04-24T10:02:54Z</time></trkpt><trkpt lat="42.79797902452793" lon="10.421150409600308"><ele>34.0</ele><time>2026-04-24T10:02:55Z</time></trkpt><trkpt lat="42.79804406033594" lon="10.42103549339755"><ele>34.0</ele><time>2026-04-24T10:02:56Z</time></trkpt><trkpt lat="42.798117270193515" lon="10.420929354925146"><ele>34.0</ele><time>2026-04-24T10:02:57Z</time></trkpt><trkpt lat="42.79818221538704" lon="10.420806211978773"><ele>34.0</ele><time>2026-04-24T10:02:58Z</time></trkpt><trkpt lat="42.79824696488162" lon="10.420691677337164"><ele>34.0</ele><time>2026-04-24T10:02:59Z</time></trkpt><trkpt lat="42.79830855631463" lon="10.420577976918867"><ele>34.0</ele><time>2026-04-24T10:03:00Z</time></trkpt><trkpt lat="42.798372318234506" lon="10.420465717108648"><ele>32.4</ele><time>2026-04-24T10:03:01Z</time></trkpt><trkpt lat="42.798433015769795" lon="10.420344175320444"><ele>30.799999999999997</ele><time>2026-04-24T10:03:02Z</time></trkpt><trkpt lat="42.798491830623526" lon="10.420212199778383"><ele>29.200000000000003</ele><time>2026-04-24T10:03:03Z</time></trkpt><trkpt lat="42.798542263375616" lon="10.420083182147554"><ele>27.6</ele><time>2026-04-24T10:03:04Z</time></trkpt><trkpt lat="42.79858035490665" lon="10.419942613832797"><ele>26.0</ele><time>2026-04-24T10:03:05Z</time></trkpt><trkpt lat="42.7986126017699" lon="10.41979594860472"><ele>28.4</ele><time>2026-04-24T10:03:06Z</time></trkpt><trkpt lat="42.798644048774136" lon="10.419652514084593"><ele>30.8</ele><time>2026-04-24T10:03:07Z</time></trkpt><trkpt lat="42.7986861352994" lon="10.41952493072665"><ele>33.199999999999996</ele><time>2026-04-24T10:03:08Z</time></trkpt><trkpt lat="42.79874137422253" lon="10.41939963040206"><ele>35.6</ele><time>2026-04-24T10:03:09Z</time></trkpt><trkpt lat="42.79880551206835" lon="10.419278863020816"><ele>38.0</ele><time>2026-04-24T10:03:10Z</time></trkpt><trkpt lat="42.798872774742435" lon="10.419165844272928"><ele>38.0</ele><time>2026-04-24T10:03:11Z</time></trkpt><trkpt lat="42.798934399109164" lon="10.41905238850825"><ele>38.0</ele><time>2026-04-24T10:03:12Z</time></trkpt><trkpt lat="42.799001646932126" lon="10.418940240454283"><ele>38.0</ele><time>2026-04-24T10:03:13Z</time></trkpt><trkpt lat="42.79906778946191" lon="10.418815555760581"><ele>38.0</ele><time>2026-04-24T10:03:14Z</time></trkpt><trkpt lat="42.799130422568496" lon="10.418696826302535"><ele>38.0</ele><time>2026-04-24T10:03:15Z</time></trkpt><trkpt lat="42.79919307957143" lon="10.418579235299271"><ele>36.199999999999996</ele><time>2026-04-24T10:03:16Z</time></trkpt><trkpt lat="42.799255653602415" lon="10.418464312665597"><ele>34.4</ele><time>2026-04-24T10:03:17Z</time></trkpt><trkpt lat="42.79931644634813" lon="10.418344434985933"><ele>32.599999999999994</ele><time>2026-04-24T10:03:18Z</time></trkpt><trkpt lat="42.799378091843586" lon="10.418230633287711"><ele>30.799999999999997</ele><time>2026-04-24T10:03:19Z</time></trkpt><trkpt lat="42.79943041897787" lon="10.418122393767565"><ele>29.0</ele><time>2026-04-24T10:03:20Z</time></trkpt><trkpt lat="42.799472638729824" lon="10.41802878275087"><ele>32.33333333333333</ele><time>2026-04-24T10:03:21Z</time></trkpt><trkpt lat="42.799514295773726" lon="10.417932215539008"><ele>35.666666666666664</ele><time>2026-04-24T10:03:22Z</time></trkpt><trkpt lat="42.79955630658833" lon="10.417828867796077"><ele>39.0</ele><time>2026-04-24T10:03:23Z</time></trkpt><trkpt lat="42.79959203872533" lon="10.417718478811244"><ele>42.33333333333333</ele><time>2026-04-24T10:03:24Z</time></trkpt><trkpt lat="42.799624499040284" lon="10.417597249680167"><ele>45.666666666666664</ele><time>2026-04-24T10:03:25Z</time></trkpt><trkpt lat="42.79964029546769" lon="10.417476115180188"><ele>49.0</ele><time>2026-04-24T10:03:26Z</time></trkpt><trkpt lat="42.79964937290896" lon="10.417348613060591"><ele>49.0</ele><time>2026-04-24T10:03:27Z</time></trkpt><trkpt lat="42.79965037409361" lon="10.417212036943516"><ele>49.0</ele><time>2026-04-24T10:03:28Z</time></trkpt><trkpt lat="42.799651554494815" lon="10.417085655650977"><ele>49.0</ele><time>2026-04-24T10:03:29Z</time></trkpt><trkpt lat="42.79966123872485" lon="10.416971874519458"><ele>49.0</ele><time>2026-04-24T10:03:30Z</time></trkpt><trkpt lat="42.799698206806326" lon="10.416846991558524"><ele>49.0</ele><time>2026-04-24T10:03:31Z</time></trkpt><trkpt lat="42.79974914255114" lon="10.416720987156927"><ele>47.2</ele><time>2026-04-24T10:03:32Z</time></trkpt><trkpt lat="42.79981416574077" lon="10.416594642912855"><ele>45.400000000000006</ele><time>2026-04-24T10:03:33Z</time></trkpt><trkpt lat="42.79987900217711" lon="10.416477280096123"><ele>43.6</ele><time>2026-04-24T10:03:34Z</time></trkpt><trkpt lat="42.7999530304939" lon="10.416374920924005"><ele>41.8</ele><time>2026-04-24T10:03:35Z</time></trkpt><trkpt lat="42.800015755629154" lon="10.416265626996541"><ele>40.0</ele><time>2026-04-24T10:03:36Z</time></trkpt><trkpt lat="42.80009129304142" lon="10.416193550084113"><ele>40.0</ele><time>2026-04-24T10:03:37Z</time></trkpt><trkpt lat="42.800163412930544" lon="10.416133828268853"><ele>40.0</ele><time>2026-04-24T10:03:38Z</time></trkpt><trkpt lat="42.80022624725461" lon="10.416080000648488"><ele>40.0</ele><time>2026-04-24T10:03:39Z</time></trkpt><trkpt lat="42.80030103766408" lon="10.416030160284802"><ele>40.0</ele><time>2026-04-24T10:03:40Z</time></trkpt><trkpt lat="42.8003811141915" lon="10.415987789918466"><ele>40.0</ele><time>2026-04-24T10:03:41Z</time></trkpt><trkpt lat="42.80046371830076" lon="10.415935653352866"><ele>40.0</ele><time>2026-04-24T10:03:42Z</time></trkpt><trkpt lat="42.800556128110266" lon="10.41588177212768"><ele>40.0</ele><time>2026-04-24T10:03:43Z</time></trkpt><trkpt lat="42.80064642359961" lon="10.415823239978156"><ele>40.0</ele><time>2026-04-24T10:03:44Z</time></trkpt><trkpt lat="42.8007381155649" lon="10.415764394785642"><ele>40.0</ele><time>2026-04-24T10:03:45Z</time></trkpt><trkpt lat="42.80083297364091" lon="10.415703598643855"><ele>40.0</ele><time>2026-04-24T10:03:46Z</time></trkpt><trkpt lat="42.80092944073132" lon="10.415647469889915"><ele>40.0</ele><time>2026-04-24T10:03:47Z</time></trkpt><trkpt lat="42.80102515116226" lon="10.415594021080645"><ele>40.4</ele><time>2026-04-24T10:03:48Z</time></trkpt><trkpt lat="42.8011122753468" lon="10.415542814084803"><ele>40.8</ele><time>2026-04-24T10:03:49Z</time></trkpt><trkpt lat="42.80119501659584" lon="10.415489404353092"><ele>41.2</ele><time>2026-04-24T10:03:50Z</time></trkpt><trkpt lat="42.801280977157134" lon="10.41544272888572"><ele>41.6</ele><time>2026-04-24T10:03:51Z</time></trkpt><trkpt lat="42.80135966229583" lon="10.415384397497746"><ele>42.0</ele><time>2026-04-24T10:03:52Z</time></trkpt><trkpt lat="42.80143596703521" lon="10.415310114224376"><ele>42.0</ele><time>2026-04-24T10:03:53Z</time></trkpt><trkpt lat="42.8015113658325" lon="10.4152257283714"><ele>42.0</ele><time>2026-04-24T10:03:54Z</time></trkpt><trkpt lat="42.80158336065872" lon="10.415136526254008"><ele>42.0</ele><time>2026-04-24T10:03:55Z</time></trkpt><trkpt lat="42.80164796777473" lon="10.415039690675357"><ele>42.0</ele><time>2026-04-24T10:03:56Z</time></trkpt><trkpt lat="42.8017149096204" lon="10.414928178591445"><ele>42.0</ele><time>2026-04-24T10:03:57Z</time></trkpt><trkpt lat="42.80177830946379" lon="10.414814344102725"><ele>44.0</ele><time>2026-04-24T10:03:58Z</time></trkpt><trkpt lat="42.80184540408869" lon="10.414703814396583"><ele>46.0</ele><time>2026-04-24T10:03:59Z</time></trkpt><trkpt lat="42.80191430983396" lon="10.414596245976847"><ele>48.0</ele><time>2026-04-24T10:04:00Z</time></trkpt><trkpt lat="42.801982308243176" lon="10.41448386465441"><ele>50.0</ele><time>2026-04-24T10:04:01Z</time></trkpt><trkpt lat="42.80204756082463" lon="10.414378905743922"><ele>52.0</ele><time>2026-04-24T10:04:02Z</time></trkpt><trkpt lat="42.802114123046174" lon="10.414277423583675"><ele>52.0</ele><time>2026-04-24T10:04:03Z</time></trkpt><trkpt lat="42.802182633664906" lon="10.414186602016601"><ele>52.0</ele><time>2026-04-24T10:04:04Z</time></trkpt><trkpt lat="42.802249510398546" lon="10.414099640126073"><ele>52.0</ele><time>2026-04-24T10:04:05Z</time></trkpt><trkpt lat="42.802320140453794" lon="10.414023859875055"><ele>52.0</ele><time>2026-04-24T10:04:06Z</time></trkpt><trkpt lat="42.8024011602911" lon="10.413981927398627"><ele>52.0</ele><time>2026-04-24T10:04:07Z</time></trkpt><trkpt lat="42.80248469849952" lon="10.413948547546617"><ele>52.0</ele><time>2026-04-24T10:04:08Z</time></trkpt><trkpt lat="42.80257525612749" lon="10.413927641797683"><ele>52.0</ele><time>2026-04-24T10:04:09Z</time></trkpt><trkpt lat="42.802669970675" lon="10.413911495351343"><ele>52.0</ele><time>2026-04-24T10:04:10Z</time></trkpt><trkpt lat="42.802763836854794" lon="10.413903202004617"><ele>52.0</ele><time>2026-04-24T10:04:11Z</time></trkpt><trkpt lat="42.80285393871657" lon="10.41389411649213"><ele>52.0</ele><time>2026-04-24T10:04:12Z</time></trkpt><trkpt lat="42.802940046753804" lon="10.413871588094446"><ele>52.666666666666664</ele><time>2026-04-24T10:04:13Z</time></trkpt><trkpt lat="42.803018141206245" lon="10.413825157697914"><ele>53.33333333333333</ele><time>2026-04-24T10:04:14Z</time></trkpt><trkpt lat="42.80308209332671" lon="10.413751354846715"><ele>54.0</ele><time>2026-04-24T10:04:15Z</time></trkpt><trkpt lat="42.80312965876765" lon="10.413655284864767"><ele>54.66666666666667</ele><time>2026-04-24T10:04:16Z</time></trkpt><trkpt lat="42.803165802323484" lon="10.413555127417071"><ele>55.333333333333336</ele><time>2026-04-24T10:04:17Z</time></trkpt><trkpt lat="42.803202444252975" lon="10.413453653598738"><ele>56.0</ele><time>2026-04-24T10:04:18Z</time></trkpt><trkpt lat="42.803238092437375" lon="10.413350431052447"><ele>56.00000000000001</ele><time>2026-04-24T10:04:19Z</time></trkpt><trkpt lat="42.80327947523001" lon="10.413257291480319"><ele>56.0</ele><time>2026-04-24T10:04:20Z</time></trkpt><trkpt lat="42.80333363084002" lon="10.413175798861593"><ele>56.0</ele><time>2026-04-24T10:04:21Z</time></trkpt><trkpt lat="42.80340094881501" lon="10.413102498733359"><ele>56.0</ele><time>2026-04-24T10:04:22Z</time></trkpt><trkpt lat="42.80347208526697" lon="10.41302598164324"><ele>56.00000000000001</ele><time>2026-04-24T10:04:23Z</time></trkpt><trkpt lat="42.803547990453126" lon="10.41295478055333"><ele>56.0</ele><time>2026-04-24T10:04:24Z</time></trkpt><trkpt lat="42.8036247415484" lon="10.412896647161507"><ele>57.66666666666667</ele><time>2026-04-24T10:04:25Z</time></trkpt><trkpt lat="42.80370152315563" lon="10.412832641229357"><ele>59.333333333333336</ele><time>2026-04-24T10:04:26Z</time></trkpt><trkpt lat="42.80377964778382" lon="10.412765157756585"><ele>61.0</ele><time>2026-04-24T10:04:27Z</time></trkpt><trkpt lat="42.803856245486095" lon="10.41270617770036"><ele>62.66666666666667</ele><time>2026-04-24T10:04:28Z</time></trkpt><trkpt lat="42.80393072993773" lon="10.412644301548884"><ele>64.33333333333333</ele><time>2026-04-24T10:04:29Z</time></trkpt><trkpt lat="42.80399094185966" lon="10.412564819259917"><ele>66.0</ele><time>2026-04-24T10:04:30Z</time></trkpt><trkpt lat="42.80404689986734" lon="10.412465111710867"><ele>66.0</ele><time>2026-04-24T10:04:31Z</time></trkpt><trkpt lat="42.80410102451529" lon="10.412360918737571"><ele>66.0</ele><time>2026-04-24T10:04:32Z</time></trkpt><trkpt lat="42.80414213466468" lon="10.412254909666466"><ele>66.0</ele><time>2026-04-24T10:04:33Z</time></trkpt><trkpt lat="42.804186396438226" lon="10.412147192097471"><ele>66.0</ele><time>2026-04-24T10:04:34Z</time></trkpt><trkpt lat="42.80422708224786" lon="10.412037642907068"><ele>66.0</ele><time>2026-04-24T10:04:35Z</time></trkpt><trkpt lat="42.80426317864791" lon="10.411941050192306"><ele>66.0</ele><time>2026-04-24T10:04:36Z</time></trkpt><trkpt lat="42.80429708706861" lon="10.411862184301546"><ele>67.0</ele><time>2026-04-24T10:04:37Z</time></trkpt><trkpt lat="42.804359203148614" lon="10.411715341619983"><ele>68.0</ele><time>2026-04-24T10:04:39Z</time></trkpt><trkpt lat="42.804389806259074" lon="10.411629815902556"><ele>69.0</ele><time>2026-04-24T10:04:40Z</time></trkpt><trkpt lat="42.80442677193489" lon="10.411545446924892"><ele>70.0</ele><time>2026-04-24T10:04:41Z</time></trkpt><trkpt lat="42.80446353710449" lon="10.411451749483867"><ele>71.0</ele><time>2026-04-24T10:04:42Z</time></trkpt><trkpt lat="42.80450110337545" lon="10.411355532741412"><ele>72.0</ele><time>2026-04-24T10:04:43Z</time></trkpt><trkpt lat="42.804539506381495" lon="10.411258695573965"><ele>72.0</ele><time>2026-04-24T10:04:44Z</time></trkpt><trkpt lat="42.804579762000486" lon="10.411156738578363"><ele>72.0</ele><time>2026-04-24T10:04:45Z</time></trkpt><trkpt lat="42.80462403438491" lon="10.411058068457656"><ele>72.0</ele><time>2026-04-24T10:04:46Z</time></trkpt><trkpt lat="42.80467972170639" lon="10.410961192185997"><ele>72.0</ele><time>2026-04-24T10:04:47Z</time></trkpt><trkpt lat="42.80474638484038" lon="10.410880826633095"><ele>72.0</ele><time>2026-04-24T10:04:48Z</time></trkpt><trkpt lat="42.80481858099784" lon="10.410806833688884"><ele>72.0</ele><time>2026-04-24T10:04:49Z</time></trkpt><trkpt lat="42.804904306946376" lon="10.410753915441084"><ele>72.0</ele><time>2026-04-24T10:04:50Z</time></trkpt><trkpt lat="42.8049949116413" lon="10.41071002230687"><ele>72.0</ele><time>2026-04-24T10:04:51Z</time></trkpt><trkpt lat="42.80508540332855" lon="10.410667716107069"><ele>72.0</ele><time>2026-04-24T10:04:52Z</time></trkpt><trkpt lat="42.80517896434573" lon="10.410630272721212"><ele>72.0</ele><time>2026-04-24T10:04:53Z</time></trkpt><trkpt lat="42.805272622272554" lon="10.410589997135922"><ele>72.0</ele><time>2026-04-24T10:04:54Z</time></trkpt><trkpt lat="42.80536930835405" lon="10.410555662191898"><ele>71.4</ele><time>2026-04-24T10:04:55Z</time></trkpt><trkpt lat="42.80546565132092" lon="10.410517179923735"><ele>70.80000000000001</ele><time>2026-04-24T10:04:56Z</time></trkpt><trkpt lat="42.80556235474325" lon="10.410478743733393"><ele>70.2</ele><time>2026-04-24T10:04:57Z</time></trkpt><trkpt lat="42.80565773135999" lon="10.410440307894046"><ele>69.60000000000001</ele><time>2026-04-24T10:04:58Z</time></trkpt><trkpt lat="42.805753054067864" lon="10.410403559054798"><ele>69.0</ele><time>2026-04-24T10:04:59Z</time></trkpt><trkpt lat="42.805847023937176" lon="10.410369708516145"><ele>69.0</ele><time>2026-04-24T10:05:00Z</time></trkpt><trkpt lat="42.8059425106539" lon="10.41033577959445"><ele>69.0</ele><time>2026-04-24T10:05:01Z</time></trkpt><trkpt lat="42.80603705828943" lon="10.410300652387493"><ele>69.0</ele><time>2026-04-24T10:05:02Z</time></trkpt><trkpt lat="42.8061307234736" lon="10.410269478845882"><ele>69.0</ele><time>2026-04-24T10:05:03Z</time></trkpt><trkpt lat="42.80621573404462" lon="10.410238412810912"><ele>69.0</ele><time>2026-04-24T10:05:04Z</time></trkpt><trkpt lat="42.80629560253353" lon="10.4102110820576"><ele>69.42857142857143</ele><time>2026-04-24T10:05:05Z</time></trkpt><trkpt lat="42.806366345171256" lon="10.410178371462608"><ele>69.85714285714286</ele><time>2026-04-24T10:05:06Z</time></trkpt><trkpt lat="42.806433231531045" lon="10.410138382229162"><ele>70.28571428571429</ele><time>2026-04-24T10:05:07Z</time></trkpt><trkpt lat="42.80649914417895" lon="10.410092419484887"><ele>70.71428571428572</ele><time>2026-04-24T10:05:08Z</time></trkpt><trkpt lat="42.80656180615215" lon="10.410039771684486"><ele>71.14285714285714</ele><time>2026-04-24T10:05:09Z</time></trkpt><trkpt lat="42.80662057304558" lon="10.409982181413062"><ele>71.57142857142858</ele><time>2026-04-24T10:05:10Z</time></trkpt><trkpt lat="42.806672043708716" lon="10.40993090338791"><ele>72.0</ele><time>2026-04-24T10:05:11Z</time></trkpt><trkpt lat="42.80677204918462" lon="10.409830024667404"><ele>72.0</ele><time>2026-04-24T10:05:13Z</time></trkpt><trkpt lat="42.80682678886719" lon="10.409774508662258"><ele>72.0</ele><time>2026-04-24T10:05:14Z</time></trkpt><trkpt lat="42.80691063898144" lon="10.409687743606936"><ele>72.0</ele><time>2026-04-24T10:05:16Z</time></trkpt><trkpt lat="42.80689662774636" lon="10.409540674922244"><ele>72.0</ele><time>2026-04-24T10:05:17Z</time></trkpt><trkpt lat="42.806909721130204" lon="10.409447509824826"><ele>72.0</ele><time>2026-04-24T10:05:18Z</time></trkpt><trkpt lat="42.80693217939216" lon="10.409341428905162"><ele>72.0</ele><time>2026-04-24T10:05:19Z</time></trkpt><trkpt lat="42.80696739829923" lon="10.409229620461298"><ele>71.8</ele><time>2026-04-24T10:05:20Z</time></trkpt><trkpt lat="42.80700042194345" lon="10.409108003699943"><ele>71.6</ele><time>2026-04-24T10:05:21Z</time></trkpt><trkpt lat="42.80703520667624" lon="10.408984313226105"><ele>71.39999999999999</ele><time>2026-04-24T10:05:22Z</time></trkpt><trkpt lat="42.80706792214819" lon="10.408853483780854"><ele>71.2</ele><time>2026-04-24T10:05:23Z</time></trkpt><trkpt lat="42.80709530159402" lon="10.408730461091045"><ele>71.0</ele><time>2026-04-24T10:05:24Z</time></trkpt><trkpt lat="42.8071130917926" lon="10.40860008685429"><ele>72.6</ele><time>2026-04-24T10:05:25Z</time></trkpt><trkpt lat="42.80712563527537" lon="10.408477342996221"><ele>74.19999999999999</ele><time>2026-04-24T10:05:26Z</time></trkpt><trkpt lat="42.80713132893825" lon="10.408353239436295"><ele>75.80000000000001</ele><time>2026-04-24T10:05:27Z</time></trkpt><trkpt lat="42.80713501843167" lon="10.408230584089065"><ele>77.4</ele><time>2026-04-24T10:05:28Z</time></trkpt><trkpt lat="42.807137400442365" lon="10.40810747148619"><ele>79.0</ele><time>2026-04-24T10:05:29Z</time></trkpt><trkpt lat="42.807143246763886" lon="10.407981037711401"><ele>80.4</ele><time>2026-04-24T10:05:30Z</time></trkpt><trkpt lat="42.80715617116441" lon="10.407864496774119"><ele>81.80000000000001</ele><time>2026-04-24T10:05:31Z</time></trkpt><trkpt lat="42.807168575677295" lon="10.407741106111931"><ele>83.19999999999999</ele><time>2026-04-24T10:05:32Z</time></trkpt><trkpt lat="42.807184171675246" lon="10.407613916096961"><ele>84.6</ele><time>2026-04-24T10:05:33Z</time></trkpt><trkpt lat="42.80721108313772" lon="10.407484331986936"><ele>86.0</ele><time>2026-04-24T10:05:34Z</time></trkpt><trkpt lat="42.80725437861721" lon="10.407357584300208"><ele>86.0</ele><time>2026-04-24T10:05:35Z</time></trkpt><trkpt lat="42.807321694143546" lon="10.407246085770518"><ele>86.0</ele><time>2026-04-24T10:05:36Z</time></trkpt><trkpt lat="42.80736257036236" lon="10.407116204241246"><ele>86.0</ele><time>2026-04-24T10:05:37Z</time></trkpt><trkpt lat="42.807413840057045" lon="10.407000378777736"><ele>86.0</ele><time>2026-04-24T10:05:38Z</time></trkpt><trkpt lat="42.80745384993996" lon="10.406875293761342"><ele>86.0</ele><time>2026-04-24T10:05:39Z</time></trkpt><trkpt lat="42.80749083372651" lon="10.406754655418561"><ele>86.6</ele><time>2026-04-24T10:05:40Z</time></trkpt><trkpt lat="42.80752498565799" lon="10.406628773016257"><ele>87.19999999999999</ele><time>2026-04-24T10:05:41Z</time></trkpt><trkpt lat="42.80755501344096" lon="10.40650382327696"><ele>87.80000000000001</ele><time>2026-04-24T10:05:42Z</time></trkpt><trkpt lat="42.80757188681457" lon="10.406379393227509"><ele>88.4</ele><time>2026-04-24T10:05:43Z</time></trkpt><trkpt lat="42.80757700978336" lon="10.40624754716188"><ele>89.0</ele><time>2026-04-24T10:05:44Z</time></trkpt><trkpt lat="42.80757692492359" lon="10.4061270189269"><ele>89.33333333333334</ele><time>2026-04-24T10:05:45Z</time></trkpt><trkpt lat="42.80757882326825" lon="10.40602288076306"><ele>89.66666666666667</ele><time>2026-04-24T10:05:46Z</time></trkpt><trkpt lat="42.807587158150454" lon="10.405918709407976"><ele>90.0</ele><time>2026-04-24T10:05:47Z</time></trkpt><trkpt lat="42.807613032845914" lon="10.405808542486072"><ele>90.33333333333333</ele><time>2026-04-24T10:05:48Z</time></trkpt><trkpt lat="42.80763854579014" lon="10.405698585036271"><ele>90.66666666666666</ele><time>2026-04-24T10:05:49Z</time></trkpt><trkpt lat="42.807671682476354" lon="10.40559522979353"><ele>91.0</ele><time>2026-04-24T10:05:50Z</time></trkpt><trkpt lat="42.80770989827206" lon="10.405485138653106"><ele>95.0</ele><time>2026-04-24T10:05:51Z</time></trkpt><trkpt lat="42.80776222801675" lon="10.405382810424136"><ele>99.0</ele><time>2026-04-24T10:05:52Z</time></trkpt><trkpt lat="42.80782214215098" lon="10.405286868182605"><ele>103.0</ele><time>2026-04-24T10:05:53Z</time></trkpt><trkpt lat="42.807885610227146" lon="10.40518699795185"><ele>107.0</ele><time>2026-04-24T10:05:54Z</time></trkpt><trkpt lat="42.807948370460416" lon="10.405084664730682"><ele>111.0</ele><time>2026-04-24T10:05:55Z</time></trkpt><trkpt lat="42.808007346797474" lon="10.404982761730997"><ele>111.0</ele><time>2026-04-24T10:05:56Z</time></trkpt><trkpt lat="42.80806584328574" lon="10.404883312634817"><ele>111.0</ele><time>2026-04-24T10:05:57Z</time></trkpt><trkpt lat="42.80812574243632" lon="10.404783965299162"><ele>111.0</ele><time>2026-04-24T10:05:58Z</time></trkpt><trkpt lat="42.808192318710525" lon="10.404692562071302"><ele>111.0</ele><time>2026-04-24T10:05:59Z</time></trkpt><trkpt lat="42.8082633977791" lon="10.404606382263463"><ele>111.0</ele><time>2026-04-24T10:06:00Z</time></trkpt><trkpt lat="42.808339856911694" lon="10.404525940648988"><ele>109.4</ele><time>2026-04-24T10:06:01Z</time></trkpt><trkpt lat="42.80841607409404" lon="10.404450741465029"><ele>107.8</ele><time>2026-04-24T10:06:02Z</time></trkpt><trkpt lat="42.80849213062182" lon="10.404371286261256"><ele>106.2</ele><time>2026-04-24T10:06:03Z</time></trkpt><trkpt lat="42.80856768737239" lon="10.404294606727706"><ele>104.60000000000001</ele><time>2026-04-24T10:06:04Z</time></trkpt><trkpt lat="42.8086411392327" lon="10.404213820949412"><ele>103.0</ele><time>2026-04-24T10:06:05Z</time></trkpt><trkpt lat="42.808711514352574" lon="10.404128214289717"><ele>105.60000000000001</ele><time>2026-04-24T10:06:06Z</time></trkpt><trkpt lat="42.808777474340026" lon="10.404038606729232"><ele>108.2</ele><time>2026-04-24T10:06:07Z</time></trkpt><trkpt lat="42.80884315375861" lon="10.403949098866955"><ele>110.8</ele><time>2026-04-24T10:06:08Z</time></trkpt><trkpt lat="42.808908965881315" lon="10.403861068739706"><ele>113.4</ele><time>2026-04-24T10:06:09Z</time></trkpt><trkpt lat="42.80897573873718" lon="10.403785852090662"><ele>116.0</ele><time>2026-04-24T10:06:10Z</time></trkpt><trkpt lat="42.809046433594524" lon="10.403719167891966"><ele>115.99999999999999</ele><time>2026-04-24T10:06:11Z</time></trkpt><trkpt lat="42.80911931089147" lon="10.403658968036252"><ele>116.0</ele><time>2026-04-24T10:06:12Z</time></trkpt><trkpt lat="42.809190163305395" lon="10.403598297593158"><ele>116.0</ele><time>2026-04-24T10:06:13Z</time></trkpt><trkpt lat="42.8092557750188" lon="10.403520900760396"><ele>116.0</ele><time>2026-04-24T10:06:14Z</time></trkpt><trkpt lat="42.809310267313364" lon="10.403429308320698"><ele>115.99999999999999</ele><time>2026-04-24T10:06:15Z</time></trkpt><trkpt lat="42.809353849360676" lon="10.403333013604641"><ele>116.0</ele><time>2026-04-24T10:06:16Z</time></trkpt><trkpt lat="42.80940659744576" lon="10.40324897798703"><ele>118.16666666666666</ele><time>2026-04-24T10:06:17Z</time></trkpt><trkpt lat="42.80947448311382" lon="10.403177083188266"><ele>120.33333333333333</ele><time>2026-04-24T10:06:18Z</time></trkpt><trkpt lat="42.80954884017125" lon="10.403114069070137"><ele>122.5</ele><time>2026-04-24T10:06:19Z</time></trkpt><trkpt lat="42.809632156098345" lon="10.403064073636463"><ele>124.66666666666666</ele><time>2026-04-24T10:06:20Z</time></trkpt><trkpt lat="42.809714386550354" lon="10.403024646010735"><ele>126.83333333333333</ele><time>2026-04-24T10:06:21Z</time></trkpt><trkpt lat="42.809794136856404" lon="10.40300570384777"><ele>129.0</ele><time>2026-04-24T10:06:22Z</time></trkpt><trkpt lat="42.809865546140564" lon="10.403007899651756"><ele>129.0</ele><time>2026-04-24T10:06:23Z</time></trkpt><trkpt lat="42.80994898553771" lon="10.403036731585667"><ele>129.0</ele><time>2026-04-24T10:06:25Z</time></trkpt><trkpt lat="42.81003789642253" lon="10.403034303142647"><ele>129.0</ele><time>2026-04-24T10:06:34Z</time></trkpt><trkpt lat="42.81006977472723" lon="10.40288611649679"><ele>129.0</ele><time>2026-04-24T10:06:38Z</time></trkpt><trkpt lat="42.809962087905454" lon="10.402786392318248"><ele>129.0</ele><time>2026-04-24T10:06:40Z</time></trkpt><trkpt lat="42.80991424173699" lon="10.402720233890795"><ele>129.5</ele><time>2026-04-24T10:06:41Z</time></trkpt><trkpt lat="42.8098692319739" lon="10.40263419525146"><ele>130.0</ele><time>2026-04-24T10:06:42Z</time></trkpt><trkpt lat="42.809833560113766" lon="10.402541748363832"><ele>130.5</ele><time>2026-04-24T10:06:43Z</time></trkpt><trkpt lat="42.80979916769319" lon="10.402431883507534"><ele>131.0</ele><time>2026-04-24T10:06:44Z</time></trkpt><trkpt lat="42.809767512721166" lon="10.40232193533066"><ele>131.5</ele><time>2026-04-24T10:06:45Z</time></trkpt><trkpt lat="42.80974931179769" lon="10.40219899333244"><ele>132.0</ele><time>2026-04-24T10:06:46Z</time></trkpt><trkpt lat="42.80972902433876" lon="10.402074290244618"><ele>134.2</ele><time>2026-04-24T10:06:47Z</time></trkpt><trkpt lat="42.80969973159087" lon="10.401957764001939"><ele>136.39999999999998</ele><time>2026-04-24T10:06:48Z</time></trkpt><trkpt lat="42.80966071289358" lon="10.401851245208475"><ele>138.60000000000002</ele><time>2026-04-24T10:06:49Z</time></trkpt><trkpt lat="42.80960227250062" lon="10.401759988355863"><ele>140.8</ele><time>2026-04-24T10:06:50Z</time></trkpt><trkpt lat="42.80952618001431" lon="10.40168584880315"><ele>143.0</ele><time>2026-04-24T10:06:51Z</time></trkpt><trkpt lat="42.80943630542062" lon="10.401626941693841"><ele>143.0</ele><time>2026-04-24T10:06:52Z</time></trkpt><trkpt lat="42.80933891528879" lon="10.401568912694845"><ele>143.0</ele><time>2026-04-24T10:06:53Z</time></trkpt><trkpt lat="42.809239800712646" lon="10.401516710826078"><ele>143.0</ele><time>2026-04-24T10:06:54Z</time></trkpt><trkpt lat="42.809140390233985" lon="10.40146311843678"><ele>143.0</ele><time>2026-04-24T10:06:55Z</time></trkpt><trkpt lat="42.80903909512297" lon="10.401404872237945"><ele>143.0</ele><time>2026-04-24T10:06:56Z</time></trkpt><trkpt lat="42.80894606746735" lon="10.401324848767146"><ele>143.0</ele><time>2026-04-24T10:06:57Z</time></trkpt><trkpt lat="42.8088500012618" lon="10.401263518682454"><ele>143.0</ele><time>2026-04-24T10:06:58Z</time></trkpt><trkpt lat="42.80875059531839" lon="10.401208194337807"><ele>143.0</ele><time>2026-04-24T10:06:59Z</time></trkpt><trkpt lat="42.808651838088785" lon="10.401151301712051"><ele>143.0</ele><time>2026-04-24T10:07:00Z</time></trkpt><trkpt lat="42.80855235110989" lon="10.401092505539026"><ele>143.0</ele><time>2026-04-24T10:07:01Z</time></trkpt><trkpt lat="42.80844916644106" lon="10.401032436140762"><ele>141.5</ele><time>2026-04-24T10:07:02Z</time></trkpt><trkpt lat="42.80834551566829" lon="10.400973111696613"><ele>140.0</ele><time>2026-04-24T10:07:03Z</time></trkpt><trkpt lat="42.80824175224877" lon="10.400904603398097"><ele>138.5</ele><time>2026-04-24T10:07:04Z</time></trkpt><trkpt lat="42.808135286834926" lon="10.40084269105778"><ele>137.0</ele><time>2026-04-24T10:07:05Z</time></trkpt><trkpt lat="42.808037019066596" lon="10.400782672647809"><ele>137.0</ele><time>2026-04-24T10:07:06Z</time></trkpt><trkpt lat="42.807947728178036" lon="10.400732081798278"><ele>137.0</ele><time>2026-04-24T10:07:07Z</time></trkpt><trkpt lat="42.807859145477025" lon="10.400680870474769"><ele>137.0</ele><time>2026-04-24T10:07:08Z</time></trkpt><trkpt lat="42.80778099543395" lon="10.400633733075454"><ele>137.0</ele><time>2026-04-24T10:07:09Z</time></trkpt><trkpt lat="42.80770282080951" lon="10.400599432538224"><ele>137.0</ele><time>2026-04-24T10:07:10Z</time></trkpt><trkpt lat="42.80762249241409" lon="10.400601706162618"><ele>137.0</ele><time>2026-04-24T10:07:11Z</time></trkpt><trkpt lat="42.80754485910379" lon="10.400625967595328"><ele>136.79999999999998</ele><time>2026-04-24T10:07:12Z</time></trkpt><trkpt lat="42.80747115437603" lon="10.400680181786784"><ele>136.6</ele><time>2026-04-24T10:07:13Z</time></trkpt><trkpt lat="42.80740771632693" lon="10.400768790378782"><ele>136.39999999999998</ele><time>2026-04-24T10:07:14Z</time></trkpt><trkpt lat="42.80734997377846" lon="10.40088452675108"><ele>136.2</ele><time>2026-04-24T10:07:15Z</time></trkpt><trkpt lat="42.80729360039663" lon="10.401002880583682"><ele>136.0</ele><time>2026-04-24T10:07:16Z</time></trkpt><trkpt lat="42.807232193746025" lon="10.401137852098493"><ele>136.0</ele><time>2026-04-24T10:07:17Z</time></trkpt><trkpt lat="42.80716865123369" lon="10.401263769906226"><ele>136.0</ele><time>2026-04-24T10:07:18Z</time></trkpt><trkpt lat="42.80710222174613" lon="10.401397564438318"><ele>136.0</ele><time>2026-04-24T10:07:19Z</time></trkpt><trkpt lat="42.807039256580246" lon="10.401529124580286"><ele>136.0</ele><time>2026-04-24T10:07:20Z</time></trkpt><trkpt lat="42.80697181804631" lon="10.40166637385419"><ele>135.5</ele><time>2026-04-24T10:07:21Z</time></trkpt><trkpt lat="42.80690767722407" lon="10.40179851457284"><ele>135.0</ele><time>2026-04-24T10:07:22Z</time></trkpt><trkpt lat="42.80684613801675" lon="10.401931087517227"><ele>134.5</ele><time>2026-04-24T10:07:23Z</time></trkpt><trkpt lat="42.8067858310334" lon="10.402069252905456"><ele>134.0</ele><time>2026-04-24T10:07:24Z</time></trkpt><trkpt lat="42.806715205473665" lon="10.402199071070655"><ele>134.0</ele><time>2026-04-24T10:07:25Z</time></trkpt><trkpt lat="42.80666827836922" lon="10.402361105379791"><ele>134.0</ele><time>2026-04-24T10:07:26Z</time></trkpt><trkpt lat="42.80661765894236" lon="10.402527963258649"><ele>134.0</ele><time>2026-04-24T10:07:27Z</time></trkpt><trkpt lat="42.80656039025914" lon="10.402701865606936"><ele>134.0</ele><time>2026-04-24T10:07:28Z</time></trkpt><trkpt lat="42.80650102265357" lon="10.402857292387823"><ele>134.0</ele><time>2026-04-24T10:07:29Z</time></trkpt><trkpt lat="42.80643953086739" lon="10.402995670614576"><ele>134.0</ele><time>2026-04-24T10:07:30Z</time></trkpt><trkpt lat="42.80637336584766" lon="10.403128534636599"><ele>134.0</ele><time>2026-04-24T10:07:31Z</time></trkpt><trkpt lat="42.806299395761734" lon="10.403256727862342"><ele>134.0</ele><time>2026-04-24T10:07:32Z</time></trkpt><trkpt lat="42.80619595898711" lon="10.403354638605403"><ele>136.75</ele><time>2026-04-24T10:07:33Z</time></trkpt><trkpt lat="42.80608890668886" lon="10.403463156516954"><ele>139.5</ele><time>2026-04-24T10:07:34Z</time></trkpt><trkpt lat="42.80597919175182" lon="10.40357409114369"><ele>142.25</ele><time>2026-04-24T10:07:35Z</time></trkpt><trkpt lat="42.805872493209755" lon="10.403681975841094"><ele>145.0</ele><time>2026-04-24T10:07:36Z</time></trkpt><trkpt lat="42.80577297694026" lon="10.403782598426963"><ele>140.6</ele><time>2026-04-24T10:07:37Z</time></trkpt><trkpt lat="42.80567837991019" lon="10.403878247078195"><ele>136.2</ele><time>2026-04-24T10:07:38Z</time></trkpt><trkpt lat="42.80558885238011" lon="10.403966735445723"><ele>131.8</ele><time>2026-04-24T10:07:39Z</time></trkpt><trkpt lat="42.80550757705951" lon="10.40405976156104"><ele>127.4</ele><time>2026-04-24T10:07:40Z</time></trkpt><trkpt lat="42.805407107434945" lon="10.404100438294225"><ele>123.0</ele><time>2026-04-24T10:07:41Z</time></trkpt><trkpt lat="42.805295580399495" lon="10.404135023040068"><ele>123.0</ele><time>2026-04-24T10:07:42Z</time></trkpt><trkpt lat="42.80517285187139" lon="10.404146021855663"><ele>123.0</ele><time>2026-04-24T10:07:43Z</time></trkpt><trkpt lat="42.80504268202862" lon="10.404145372884148"><ele>123.0</ele><time>2026-04-24T10:07:44Z</time></trkpt><trkpt lat="42.804911354195816" lon="10.404132753333535"><ele>123.0</ele><time>2026-04-24T10:07:45Z</time></trkpt><trkpt lat="42.80479246098937" lon="10.4041166652754"><ele>124.80000000000001</ele><time>2026-04-24T10:07:46Z</time></trkpt><trkpt lat="42.80467912838043" lon="10.404097600275358"><ele>126.60000000000001</ele><time>2026-04-24T10:07:47Z</time></trkpt><trkpt lat="42.80457876634652" lon="10.404093004552033"><ele>128.39999999999998</ele><time>2026-04-24T10:07:48Z</time></trkpt><trkpt lat="42.80448937277551" lon="10.404045475108854"><ele>130.2</ele><time>2026-04-24T10:07:49Z</time></trkpt><trkpt lat="42.804409268705314" lon="10.40396941466186"><ele>132.0</ele><time>2026-04-24T10:07:50Z</time></trkpt><trkpt lat="42.80433655750098" lon="10.403861922445712"><ele>133.79999999999998</ele><time>2026-04-24T10:07:51Z</time></trkpt><trkpt lat="42.80426872471302" lon="10.40374097687236"><ele>135.6</ele><time>2026-04-24T10:07:52Z</time></trkpt><trkpt lat="42.80420795272883" lon="10.403617972901934"><ele>137.39999999999998</ele><time>2026-04-24T10:07:53Z</time></trkpt><trkpt lat="42.804144629528416" lon="10.403493378160315"><ele>139.2</ele><time>2026-04-24T10:07:54Z</time></trkpt><trkpt lat="42.8040770522578" lon="10.403369363647254"><ele>141.0</ele><time>2026-04-24T10:07:55Z</time></trkpt><trkpt lat="42.80401018529724" lon="10.403242577190062"><ele>141.0</ele><time>2026-04-24T10:07:56Z</time></trkpt><trkpt lat="42.8039407922959" lon="10.40311157083295"><ele>141.0</ele><time>2026-04-24T10:07:57Z</time></trkpt><trkpt lat="42.803873773314535" lon="10.402979683595204"><ele>141.0</ele><time>2026-04-24T10:07:58Z</time></trkpt><trkpt lat="42.80380925713203" lon="10.402853765801687"><ele>141.0</ele><time>2026-04-24T10:07:59Z</time></trkpt><trkpt lat="42.803748588838246" lon="10.402737068557222"><ele>139.4</ele><time>2026-04-24T10:08:00Z</time></trkpt><trkpt lat="42.80369040593476" lon="10.402632795677555"><ele>137.8</ele><time>2026-04-24T10:08:01Z</time></trkpt><trkpt lat="42.803633082910345" lon="10.402522214796157"><ele>136.20000000000002</ele><time>2026-04-24T10:08:02Z</time></trkpt><trkpt lat="42.80357562642281" lon="10.402414617573758"><ele>134.6</ele><time>2026-04-24T10:08:03Z</time></trkpt><trkpt lat="42.80351560301184" lon="10.402308318922787"><ele>133.0</ele><time>2026-04-24T10:08:04Z</time></trkpt><trkpt lat="42.80346059572449" lon="10.402205327219374"><ele>135.33333333333334</ele><time>2026-04-24T10:08:05Z</time></trkpt><trkpt lat="42.803403142307246" lon="10.402121980681928"><ele>137.66666666666669</ele><time>2026-04-24T10:08:06Z</time></trkpt><trkpt lat="42.803350912562514" lon="10.402037464073256"><ele>140.0</ele><time>2026-04-24T10:08:07Z</time></trkpt><trkpt lat="42.8032780643669" lon="10.40198813186585"><ele>142.33333333333334</ele><time>2026-04-24T10:08:08Z</time></trkpt><trkpt lat="42.80319217274701" lon="10.40196455859757"><ele>144.66666666666666</ele><time>2026-04-24T10:08:09Z</time></trkpt><trkpt lat="42.8031002224142" lon="10.401979689394762"><ele>147.0</ele><time>2026-04-24T10:08:10Z</time></trkpt><trkpt lat="42.80301552885599" lon="10.402023647722006"><ele>147.0</ele><time>2026-04-24T10:08:11Z</time></trkpt><trkpt lat="42.8029338531511" lon="10.402106423571565"><ele>147.0</ele><time>2026-04-24T10:08:12Z</time></trkpt><trkpt lat="42.80288333506338" lon="10.402238713536072"><ele>147.0</ele><time>2026-04-24T10:08:13Z</time></trkpt><trkpt lat="42.802845537552614" lon="10.402369443118785"><ele>147.0</ele><time>2026-04-24T10:08:14Z</time></trkpt><trkpt lat="42.80282539619412" lon="10.402516158720205"><ele>147.0</ele><time>2026-04-24T10:08:15Z</time></trkpt><trkpt lat="42.80281273381465" lon="10.40266686109128"><ele>143.5</ele><time>2026-04-24T10:08:16Z</time></trkpt><trkpt lat="42.80279896639506" lon="10.40281972799657"><ele>140.0</ele><time>2026-04-24T10:08:17Z</time></trkpt><trkpt lat="42.80277578950143" lon="10.402973772265481"><ele>136.5</ele><time>2026-04-24T10:08:18Z</time></trkpt><trkpt lat="42.80274269804805" lon="10.403125756728043"><ele>133.0</ele><time>2026-04-24T10:08:19Z</time></trkpt><trkpt lat="42.802703440877295" lon="10.403284537754603"><ele>132.25</ele><time>2026-04-24T10:08:20Z</time></trkpt><trkpt lat="42.80265345200366" lon="10.40343820834281"><ele>131.5</ele><time>2026-04-24T10:08:21Z</time></trkpt><trkpt lat="42.80261138232472" lon="10.403602835041836"><ele>130.75</ele><time>2026-04-24T10:08:22Z</time></trkpt><trkpt lat="42.80257132738822" lon="10.40376764244483"><ele>130.0</ele><time>2026-04-24T10:08:23Z</time></trkpt><trkpt lat="42.802518697429306" lon="10.403930751850845"><ele>130.0</ele><time>2026-04-24T10:08:24Z</time></trkpt><trkpt lat="42.802472365980904" lon="10.40409427816175"><ele>130.0</ele><time>2026-04-24T10:08:25Z</time></trkpt><trkpt lat="42.80242238117882" lon="10.40425367247628"><ele>130.0</ele><time>2026-04-24T10:08:26Z</time></trkpt><trkpt lat="42.80236483444103" lon="10.404412199283716"><ele>130.0</ele><time>2026-04-24T10:08:27Z</time></trkpt><trkpt lat="42.80230688827807" lon="10.404573331797108"><ele>127.25</ele><time>2026-04-24T10:08:28Z</time></trkpt><trkpt lat="42.802237854225005" lon="10.40472220445998"><ele>124.5</ele><time>2026-04-24T10:08:29Z</time></trkpt><trkpt lat="42.802161045609225" lon="10.404862717798"><ele>121.75</ele><time>2026-04-24T10:08:30Z</time></trkpt><trkpt lat="42.80206338769839" lon="10.40497975828651"><ele>119.0</ele><time>2026-04-24T10:08:31Z</time></trkpt><trkpt lat="42.80196803921829" lon="10.405097030573558"><ele>119.0</ele><time>2026-04-24T10:08:32Z</time></trkpt><trkpt lat="42.801877961154275" lon="10.405222102296667"><ele>119.0</ele><time>2026-04-24T10:08:33Z</time></trkpt><trkpt lat="42.801779776067505" lon="10.405310865483296"><ele>119.0</ele><time>2026-04-24T10:08:34Z</time></trkpt><trkpt lat="42.80167479728203" lon="10.40535820883696"><ele>119.0</ele><time>2026-04-24T10:08:35Z</time></trkpt><trkpt lat="42.80156876891272" lon="10.40539207179726"><ele>122.4</ele><time>2026-04-24T10:08:36Z</time></trkpt><trkpt lat="42.80145990146483" lon="10.40538923108376"><ele>125.80000000000001</ele><time>2026-04-24T10:08:37Z</time></trkpt><trkpt lat="42.801354868996945" lon="10.40535619556386"><ele>129.2</ele><time>2026-04-24T10:08:38Z</time></trkpt><trkpt lat="42.80125566741273" lon="10.405295739452251"><ele>132.6</ele><time>2026-04-24T10:08:39Z</time></trkpt><trkpt lat="42.8011685576914" lon="10.40519882108045"><ele>136.0</ele><time>2026-04-24T10:08:40Z</time></trkpt><trkpt lat="42.801086270391096" lon="10.405079410474478"><ele>134.75</ele><time>2026-04-24T10:08:41Z</time></trkpt><trkpt lat="42.80099224635747" lon="10.40496385856509"><ele>133.5</ele><time>2026-04-24T10:08:42Z</time></trkpt><trkpt lat="42.80091885683249" lon="10.40482806679576"><ele>132.25</ele><time>2026-04-24T10:08:43Z</time></trkpt><trkpt lat="42.80083883280427" lon="10.404704955537431"><ele>131.0</ele><time>2026-04-24T10:08:44Z</time></trkpt><trkpt lat="42.80076389328455" lon="10.404571368596153"><ele>135.25</ele><time>2026-04-24T10:08:45Z</time></trkpt><trkpt lat="42.80069176945356" lon="10.404433987152329"><ele>139.5</ele><time>2026-04-24T10:08:46Z</time></trkpt><trkpt lat="42.800616003338384" lon="10.404292558717271"><ele>143.75</ele><time>2026-04-24T10:08:47Z</time></trkpt><trkpt lat="42.80053971048737" lon="10.40415685230501"><ele>148.0</ele><time>2026-04-24T10:08:48Z</time></trkpt><trkpt lat="42.800456548812804" lon="10.404030661880281"><ele>148.0</ele><time>2026-04-24T10:08:49Z</time></trkpt><trkpt lat="42.80036716096434" lon="10.40391731231231"><ele>148.0</ele><time>2026-04-24T10:08:50Z</time></trkpt><trkpt lat="42.80027180045673" lon="10.403804616643656"><ele>148.0</ele><time>2026-04-24T10:08:51Z</time></trkpt><trkpt lat="42.80018907087238" lon="10.403687657022"><ele>148.0</ele><time>2026-04-24T10:08:52Z</time></trkpt><trkpt lat="42.80011217586934" lon="10.403552354199265"><ele>146.0</ele><time>2026-04-24T10:08:53Z</time></trkpt><trkpt lat="42.800047500979815" lon="10.403397852058399"><ele>144.0</ele><time>2026-04-24T10:08:54Z</time></trkpt><trkpt lat="42.79998993998298" lon="10.403236696770815"><ele>142.0</ele><time>2026-04-24T10:08:55Z</time></trkpt><trkpt lat="42.79994237041905" lon="10.4030810345861"><ele>140.0</ele><time>2026-04-24T10:08:56Z</time></trkpt><trkpt lat="42.799902830108124" lon="10.402935893360404"><ele>140.0</ele><time>2026-04-24T10:08:57Z</time></trkpt><trkpt lat="42.79987038165426" lon="10.40279507519546"><ele>140.0</ele><time>2026-04-24T10:08:58Z</time></trkpt><trkpt lat="42.79985660517267" lon="10.402657544221631"><ele>140.0</ele><time>2026-04-24T10:08:59Z</time></trkpt><trkpt lat="42.79987189594768" lon="10.40251473514251"><ele>140.0</ele><time>2026-04-24T10:09:00Z</time></trkpt><trkpt lat="42.79990770796536" lon="10.402379619020895"><ele>140.0</ele><time>2026-04-24T10:09:01Z</time></trkpt><trkpt lat="42.79995952672787" lon="10.402248742342401"><ele>138.75</ele><time>2026-04-24T10:09:02Z</time></trkpt><trkpt lat="42.80003261744821" lon="10.402131992190613"><ele>137.5</ele><time>2026-04-24T10:09:03Z</time></trkpt><trkpt lat="42.80011768819015" lon="10.40202586960916"><ele>136.25</ele><time>2026-04-24T10:09:04Z</time></trkpt><trkpt lat="42.80020146429578" lon="10.401919493316633"><ele>135.0</ele><time>2026-04-24T10:09:05Z</time></trkpt><trkpt lat="42.80027899966928" lon="10.40181350331226"><ele>139.33333333333334</ele><time>2026-04-24T10:09:06Z</time></trkpt><trkpt lat="42.8003483029467" lon="10.401717090061535"><ele>143.66666666666666</ele><time>2026-04-24T10:09:07Z</time></trkpt><trkpt lat="42.80040888211377" lon="10.401630141095943"><ele>148.0</ele><time>2026-04-24T10:09:08Z</time></trkpt><trkpt lat="42.80045622717836" lon="10.40154295160685"><ele>152.33333333333331</ele><time>2026-04-24T10:09:09Z</time></trkpt><trkpt lat="42.80048340596963" lon="10.401448556238304"><ele>156.66666666666666</ele><time>2026-04-24T10:09:10Z</time></trkpt><trkpt lat="42.80048309241553" lon="10.401344835418877"><ele>161.0</ele><time>2026-04-24T10:09:11Z</time></trkpt><trkpt lat="42.800452744373786" lon="10.401238061824955"><ele>161.4</ele><time>2026-04-24T10:09:12Z</time></trkpt><trkpt lat="42.80039347043141" lon="10.40114071987129"><ele>161.8</ele><time>2026-04-24T10:09:13Z</time></trkpt><trkpt lat="42.80031658375577" lon="10.401062974843247"><ele>162.20000000000002</ele><time>2026-04-24T10:09:14Z</time></trkpt><trkpt lat="42.800235171690645" lon="10.4010026831618"><ele>162.60000000000002</ele><time>2026-04-24T10:09:15Z</time></trkpt><trkpt lat="42.80015606646213" lon="10.40093780263928"><ele>163.0</ele><time>2026-04-24T10:09:16Z</time></trkpt><trkpt lat="42.80008014809633" lon="10.400865999690401"><ele>162.4</ele><time>2026-04-24T10:09:17Z</time></trkpt><trkpt lat="42.800006790936514" lon="10.40077535960987"><ele>161.8</ele><time>2026-04-24T10:09:18Z</time></trkpt><trkpt lat="42.799941782706576" lon="10.400667929721715"><ele>161.2</ele><time>2026-04-24T10:09:19Z</time></trkpt><trkpt lat="42.79988939868899" lon="10.400546923034263"><ele>160.6</ele><time>2026-04-24T10:09:20Z</time></trkpt><trkpt lat="42.79984703258517" lon="10.40043466010144"><ele>160.0</ele><time>2026-04-24T10:09:21Z</time></trkpt><trkpt lat="42.799803677825544" lon="10.400342630263802"><ele>160.0</ele><time>2026-04-24T10:09:22Z</time></trkpt><trkpt lat="42.799751440716506" lon="10.400270910860948"><ele>160.0</ele><time>2026-04-24T10:09:23Z</time></trkpt><trkpt lat="42.79968530382978" lon="10.400201144594806"><ele>160.0</ele><time>2026-04-24T10:09:24Z</time></trkpt><trkpt lat="42.79959106844913" lon="10.400173765702574"><ele>160.0</ele><time>2026-04-24T10:09:25Z</time></trkpt><trkpt lat="42.79948929280248" lon="10.400184683284085"><ele>160.0</ele><time>2026-04-24T10:09:26Z</time></trkpt><trkpt lat="42.799388938855074" lon="10.400246225869944"><ele>158.8</ele><time>2026-04-24T10:09:27Z</time></trkpt><trkpt lat="42.79929002597645" lon="10.400313983856405"><ele>157.6</ele><time>2026-04-24T10:09:28Z</time></trkpt><trkpt lat="42.799197987243524" lon="10.40037603504609"><ele>156.4</ele><time>2026-04-24T10:09:29Z</time></trkpt><trkpt lat="42.79910364876298" lon="10.40043459120981"><ele>155.2</ele><time>2026-04-24T10:09:30Z</time></trkpt><trkpt lat="42.79902412565241" lon="10.400460634168095"><ele>154.0</ele><time>2026-04-24T10:09:31Z</time></trkpt><trkpt lat="42.798940968173696" lon="10.40046720969715"><ele>154.0</ele><time>2026-04-24T10:09:32Z</time></trkpt><trkpt lat="42.798859931627995" lon="10.400415102559302"><ele>154.0</ele><time>2026-04-24T10:09:33Z</time></trkpt><trkpt lat="42.79878911845236" lon="10.400339415548093"><ele>154.0</ele><time>2026-04-24T10:09:34Z</time></trkpt><trkpt lat="42.79872165855182" lon="10.400263852361482"><ele>154.0</ele><time>2026-04-24T10:09:35Z</time></trkpt><trkpt lat="42.79865480936182" lon="10.400198316047323"><ele>154.0</ele><time>2026-04-24T10:09:36Z</time></trkpt><trkpt lat="42.798593660632804" lon="10.400134154027306"><ele>154.0</ele><time>2026-04-24T10:09:37Z</time></trkpt><trkpt lat="42.7985093474887" lon="10.400117929958597"><ele>154.0</ele><time>2026-04-24T10:09:38Z</time></trkpt><trkpt lat="42.798419934894014" lon="10.400138064715893"><ele>154.0</ele><time>2026-04-24T10:09:39Z</time></trkpt><trkpt lat="42.7983300923417" lon="10.400217719386223"><ele>154.0</ele><time>2026-04-24T10:09:40Z</time></trkpt><trkpt lat="42.79825931283688" lon="10.400324453817163"><ele>154.0</ele><time>2026-04-24T10:09:41Z</time></trkpt><trkpt lat="42.79819349060344" lon="10.400436074271163"><ele>154.0</ele><time>2026-04-24T10:09:42Z</time></trkpt><trkpt lat="42.79813081844748" lon="10.40054872724273"><ele>151.2</ele><time>2026-04-24T10:09:43Z</time></trkpt><trkpt lat="42.79806997569265" lon="10.400656817397698"><ele>148.4</ele><time>2026-04-24T10:09:44Z</time></trkpt><trkpt lat="42.79800458082413" lon="10.400761467452012"><ele>145.6</ele><time>2026-04-24T10:09:45Z</time></trkpt><trkpt lat="42.79793434234058" lon="10.400851626456307"><ele>142.8</ele><time>2026-04-24T10:09:46Z</time></trkpt><trkpt lat="42.79784929953886" lon="10.400928998487952"><ele>140.0</ele><time>2026-04-24T10:09:47Z</time></trkpt><trkpt lat="42.797769652077676" lon="10.401016686280002"><ele>140.0</ele><time>2026-04-24T10:09:48Z</time></trkpt><trkpt lat="42.79767537133671" lon="10.401077903307677"><ele>140.0</ele><time>2026-04-24T10:09:49Z</time></trkpt><trkpt lat="42.797580463581546" lon="10.401140089622306"><ele>140.0</ele><time>2026-04-24T10:09:50Z</time></trkpt><trkpt lat="42.797481849420876" lon="10.401196777945987"><ele>140.0</ele><time>2026-04-24T10:09:51Z</time></trkpt><trkpt lat="42.79737593426217" lon="10.401229783301083"><ele>140.0</ele><time>2026-04-24T10:09:52Z</time></trkpt><trkpt lat="42.79727740208321" lon="10.401289931736416"><ele>140.2</ele><time>2026-04-24T10:09:53Z</time></trkpt><trkpt lat="42.79718389669903" lon="10.401345253328758"><ele>140.4</ele><time>2026-04-24T10:09:54Z</time></trkpt><trkpt lat="42.797098912746456" lon="10.40138650537791"><ele>140.6</ele><time>2026-04-24T10:09:55Z</time></trkpt><trkpt lat="42.797016342154215" lon="10.401430774016479"><ele>140.8</ele><time>2026-04-24T10:09:56Z</time></trkpt><trkpt lat="42.79691824394863" lon="10.401419159147022"><ele>141.0</ele><time>2026-04-24T10:09:57Z</time></trkpt><trkpt lat="42.7968249528889" lon="10.401375574380763"><ele>142.8</ele><time>2026-04-24T10:09:58Z</time></trkpt><trkpt lat="42.79674474646791" lon="10.401309518095267"><ele>144.6</ele><time>2026-04-24T10:09:59Z</time></trkpt><trkpt lat="42.7966715114919" lon="10.401216373055776"><ele>146.4</ele><time>2026-04-24T10:10:00Z</time></trkpt><trkpt lat="42.796609255950926" lon="10.401102958422328"><ele>148.2</ele><time>2026-04-24T10:10:01Z</time></trkpt><trkpt lat="42.79654881973128" lon="10.400978982732996"><ele>150.0</ele><time>2026-04-24T10:10:02Z</time></trkpt><trkpt lat="42.796484553824435" lon="10.40086717216931"><ele>150.0</ele><time>2026-04-24T10:10:03Z</time></trkpt><trkpt lat="42.79642058121465" lon="10.400772439188366"><ele>150.0</ele><time>2026-04-24T10:10:04Z</time></trkpt><trkpt lat="42.796338894765604" lon="10.400682714727354"><ele>150.0</ele><time>2026-04-24T10:10:05Z</time></trkpt><trkpt lat="42.796247827886674" lon="10.40061196866754"><ele>150.0</ele><time>2026-04-24T10:10:06Z</time></trkpt><trkpt lat="42.79614491397895" lon="10.400559716862007"><ele>150.0</ele><time>2026-04-24T10:10:07Z</time></trkpt><trkpt lat="42.79603711788829" lon="10.400519129240893"><ele>151.75</ele><time>2026-04-24T10:10:08Z</time></trkpt><trkpt lat="42.79592315818192" lon="10.400494778314414"><ele>153.5</ele><time>2026-04-24T10:10:09Z</time></trkpt><trkpt lat="42.79580001366426" lon="10.400485429224947"><ele>155.25</ele><time>2026-04-24T10:10:10Z</time></trkpt><trkpt lat="42.79567459593554" lon="10.400503365114467"><ele>157.0</ele><time>2026-04-24T10:10:11Z</time></trkpt><trkpt lat="42.79555211127044" lon="10.400524874185146"><ele>153.0</ele><time>2026-04-24T10:10:12Z</time></trkpt><trkpt lat="42.795429742357804" lon="10.400553010238227"><ele>149.0</ele><time>2026-04-24T10:10:13Z</time></trkpt><trkpt lat="42.795305843843146" lon="10.400582647501317"><ele>145.0</ele><time>2026-04-24T10:10:14Z</time></trkpt><trkpt lat="42.795185858487386" lon="10.40060770370708"><ele>141.0</ele><time>2026-04-24T10:10:15Z</time></trkpt><trkpt lat="42.79507237982518" lon="10.40062982489364"><ele>141.0</ele><time>2026-04-24T10:10:16Z</time></trkpt><trkpt lat="42.794970035140864" lon="10.400648400837426"><ele>141.0</ele><time>2026-04-24T10:10:17Z</time></trkpt><trkpt lat="42.794882937314995" lon="10.40067197797808"><ele>141.0</ele><time>2026-04-24T10:10:18Z</time></trkpt><trkpt lat="42.79480980227655" lon="10.400702719010443"><ele>141.0</ele><time>2026-04-24T10:10:19Z</time></trkpt><trkpt lat="42.794744172128134" lon="10.400743716369714"><ele>141.0</ele><time>2026-04-24T10:10:20Z</time></trkpt><trkpt lat="42.794692119289586" lon="10.400843506765627"><ele>141.0</ele><time>2026-04-24T10:10:21Z</time></trkpt><trkpt lat="42.79468926984394" lon="10.400982891649384"><ele>141.0</ele><time>2026-04-24T10:10:22Z</time></trkpt><trkpt lat="42.79469515575798" lon="10.401105131925085"><ele>141.0</ele><time>2026-04-24T10:10:23Z</time></trkpt><trkpt lat="42.79468769507162" lon="10.40124526109958"><ele>141.0</ele><time>2026-04-24T10:10:24Z</time></trkpt><trkpt lat="42.79469157698892" lon="10.40138668122129"><ele>141.0</ele><time>2026-04-24T10:10:25Z</time></trkpt><trkpt lat="42.794708970127054" lon="10.40152159558889"><ele>141.0</ele><time>2026-04-24T10:10:26Z</time></trkpt><trkpt lat="42.794699470988014" lon="10.401646920503214"><ele>142.0</ele><time>2026-04-24T10:10:27Z</time></trkpt><trkpt lat="42.79466562660007" lon="10.401754169856456"><ele>143.0</ele><time>2026-04-24T10:10:28Z</time></trkpt><trkpt lat="42.79460963160146" lon="10.401838492024144"><ele>144.0</ele><time>2026-04-24T10:10:29Z</time></trkpt><trkpt lat="42.79453938398452" lon="10.401886068587153"><ele>145.0</ele><time>2026-04-24T10:10:30Z</time></trkpt><trkpt lat="42.794464889199" lon="10.401862730041278"><ele>146.0</ele><time>2026-04-24T10:10:31Z</time></trkpt><trkpt lat="42.79438251289576" lon="10.401869983068664"><ele>147.0</ele><time>2026-04-24T10:10:32Z</time></trkpt><trkpt lat="42.79429373214423" lon="10.401843487002523"><ele>147.0</ele><time>2026-04-24T10:10:33Z</time></trkpt><trkpt lat="42.794205802861235" lon="10.401828477823685"><ele>147.0</ele><time>2026-04-24T10:10:34Z</time></trkpt><trkpt lat="42.79412979565429" lon="10.401839393810866"><ele>147.0</ele><time>2026-04-24T10:10:35Z</time></trkpt><trkpt lat="42.794058901779465" lon="10.401868581461844"><ele>147.0</ele><time>2026-04-24T10:10:36Z</time></trkpt><trkpt lat="42.79400189938477" lon="10.401948239930181"><ele>147.0</ele><time>2026-04-24T10:10:37Z</time></trkpt><trkpt lat="42.793969310998044" lon="10.402046041194579"><ele>147.0</ele><time>2026-04-24T10:10:38Z</time></trkpt><trkpt lat="42.79397464703147" lon="10.402163101025073"><ele>145.2</ele><time>2026-04-24T10:10:39Z</time></trkpt><trkpt lat="42.79401905293388" lon="10.4022712513288"><ele>143.39999999999998</ele><time>2026-04-24T10:10:40Z</time></trkpt><trkpt lat="42.794066525985336" lon="10.402389966853395"><ele>141.60000000000002</ele><time>2026-04-24T10:10:41Z</time></trkpt><trkpt lat="42.7940966074534" lon="10.402533439719507"><ele>139.8</ele><time>2026-04-24T10:10:42Z</time></trkpt><trkpt lat="42.794138960271624" lon="10.402666638423549"><ele>138.0</ele><time>2026-04-24T10:10:43Z</time></trkpt><trkpt lat="42.79417406816755" lon="10.402791713712007"><ele>138.0</ele><time>2026-04-24T10:10:44Z</time></trkpt><trkpt lat="42.7942083162094" lon="10.402901606066314"><ele>138.0</ele><time>2026-04-24T10:10:45Z</time></trkpt><trkpt lat="42.79421934490054" lon="10.40301702680861"><ele>138.0</ele><time>2026-04-24T10:10:46Z</time></trkpt><trkpt lat="42.79420021898987" lon="10.40312889317958"><ele>138.0</ele><time>2026-04-24T10:10:47Z</time></trkpt><trkpt lat="42.794158606343856" lon="10.403244936198567"><ele>138.0</ele><time>2026-04-24T10:10:48Z</time></trkpt><trkpt lat="42.79410918525048" lon="10.403360825454817"><ele>137.20000000000002</ele><time>2026-04-24T10:10:49Z</time></trkpt><trkpt lat="42.79406125823964" lon="10.403465282981085"><ele>136.4</ele><time>2026-04-24T10:10:50Z</time></trkpt><trkpt lat="42.79403443794069" lon="10.40357379972263"><ele>135.60000000000002</ele><time>2026-04-24T10:10:51Z</time></trkpt><trkpt lat="42.79402905494402" lon="10.403699616300734"><ele>134.8</ele><time>2026-04-24T10:10:52Z</time></trkpt><trkpt lat="42.794012802656354" lon="10.403836661695223"><ele>134.0</ele><time>2026-04-24T10:10:53Z</time></trkpt><trkpt lat="42.79404461425298" lon="10.403975617388069"><ele>133.2</ele><time>2026-04-24T10:10:54Z</time></trkpt><trkpt lat="42.794070846544926" lon="10.404105697407063"><ele>132.4</ele><time>2026-04-24T10:10:55Z</time></trkpt><trkpt lat="42.794086384212186" lon="10.404227541675793"><ele>131.6</ele><time>2026-04-24T10:10:56Z</time></trkpt><trkpt lat="42.794077973753495" lon="10.404347229453224"><ele>130.8</ele><time>2026-04-24T10:10:57Z</time></trkpt><trkpt lat="42.79405256829019" lon="10.404465585418881"><ele>130.0</ele><time>2026-04-24T10:10:58Z</time></trkpt><trkpt lat="42.794010667896295" lon="10.404585092704313"><ele>129.4</ele><time>2026-04-24T10:10:59Z</time></trkpt><trkpt lat="42.79396697531273" lon="10.404707966165388"><ele>128.8</ele><time>2026-04-24T10:11:00Z</time></trkpt><trkpt lat="42.793927810652654" lon="10.404818106099079"><ele>128.2</ele><time>2026-04-24T10:11:01Z</time></trkpt><trkpt lat="42.7938941067977" lon="10.404930358174584"><ele>127.6</ele><time>2026-04-24T10:11:02Z</time></trkpt><trkpt lat="42.793884047018096" lon="10.405050535999719"><ele>127.0</ele><time>2026-04-24T10:11:03Z</time></trkpt><trkpt lat="42.79390305695331" lon="10.405177981085016"><ele>127.0</ele><time>2026-04-24T10:11:04Z</time></trkpt><trkpt lat="42.793967838562054" lon="10.405299097604837"><ele>126.99999999999999</ele><time>2026-04-24T10:11:05Z</time></trkpt><trkpt lat="42.794030489679166" lon="10.405416817289044"><ele>126.99999999999999</ele><time>2026-04-24T10:11:06Z</time></trkpt><trkpt lat="42.79409538602885" lon="10.405535331357079"><ele>127.0</ele><time>2026-04-24T10:11:07Z</time></trkpt><trkpt lat="42.794158505742296" lon="10.405650600928569"><ele>127.0</ele><time>2026-04-24T10:11:08Z</time></trkpt><trkpt lat="42.79423122907533" lon="10.405752903789782"><ele>126.0</ele><time>2026-04-24T10:11:09Z</time></trkpt><trkpt lat="42.79428319125119" lon="10.405872451899144"><ele>124.99999999999999</ele><time>2026-04-24T10:11:10Z</time></trkpt><trkpt lat="42.79434183188801" lon="10.405995886114791"><ele>123.99999999999999</ele><time>2026-04-24T10:11:11Z</time></trkpt><trkpt lat="42.794398235723754" lon="10.406122514929477"><ele>123.0</ele><time>2026-04-24T10:11:12Z</time></trkpt><trkpt lat="42.794446068310634" lon="10.406252380277017"><ele>122.0</ele><time>2026-04-24T10:11:13Z</time></trkpt><trkpt lat="42.79449021124459" lon="10.406385695210393"><ele>122.0</ele><time>2026-04-24T10:11:14Z</time></trkpt><trkpt lat="42.79453967437667" lon="10.406517848265942"><ele>121.99999999999999</ele><time>2026-04-24T10:11:15Z</time></trkpt><trkpt lat="42.79458298128878" lon="10.406643174043364"><ele>121.99999999999999</ele><time>2026-04-24T10:11:16Z</time></trkpt><trkpt lat="42.79465511522792" lon="10.406752708295791"><ele>122.0</ele><time>2026-04-24T10:11:17Z</time></trkpt><trkpt lat="42.794735380972924" lon="10.406852146439427"><ele>122.0</ele><time>2026-04-24T10:11:18Z</time></trkpt><trkpt lat="42.79482250927193" lon="10.406945538286813"><ele>122.0</ele><time>2026-04-24T10:11:19Z</time></trkpt><trkpt lat="42.7949075772064" lon="10.407034555776681"><ele>121.99999999999999</ele><time>2026-04-24T10:11:20Z</time></trkpt><trkpt lat="42.79497999424005" lon="10.40712046269379"><ele>121.99999999999999</ele><time>2026-04-24T10:11:21Z</time></trkpt><trkpt lat="42.795038867781926" lon="10.407212265737636"><ele>122.0</ele><time>2026-04-24T10:11:22Z</time></trkpt><trkpt lat="42.79507826659615" lon="10.407312593977535"><ele>122.0</ele><time>2026-04-24T10:11:23Z</time></trkpt><trkpt lat="42.79509128817826" lon="10.407414737741572"><ele>123.33333333333333</ele><time>2026-04-24T10:11:24Z</time></trkpt><trkpt lat="42.795077387648746" lon="10.40750358122585"><ele>124.66666666666666</ele><time>2026-04-24T10:11:25Z</time></trkpt><trkpt lat="42.79504761264816" lon="10.407580659341116"><ele>126.0</ele><time>2026-04-24T10:11:26Z</time></trkpt><trkpt lat="42.79498227857358" lon="10.40763143610041"><ele>127.33333333333334</ele><time>2026-04-24T10:11:27Z</time></trkpt><trkpt lat="42.794901144619566" lon="10.407653653802473"><ele>128.66666666666669</ele><time>2026-04-24T10:11:28Z</time></trkpt><trkpt lat="42.79481201406027" lon="10.40765996792656"><ele>130.0</ele><time>2026-04-24T10:11:29Z</time></trkpt><trkpt lat="42.79471330252234" lon="10.407657184093575"><ele>130.0</ele><time>2026-04-24T10:11:30Z</time></trkpt><trkpt lat="42.794609781393426" lon="10.407649349669564"><ele>130.0</ele><time>2026-04-24T10:11:31Z</time></trkpt><trkpt lat="42.794506196887625" lon="10.407652417145641"><ele>130.0</ele><time>2026-04-24T10:11:32Z</time></trkpt><trkpt lat="42.79441043089086" lon="10.407654108378903"><ele>130.0</ele><time>2026-04-24T10:11:33Z</time></trkpt><trkpt lat="42.79433248674338" lon="10.407660069475428"><ele>130.0</ele><time>2026-04-24T10:11:34Z</time></trkpt><trkpt lat="42.79426020337031" lon="10.407672214966702"><ele>128.6</ele><time>2026-04-24T10:11:35Z</time></trkpt><trkpt lat="42.79418594062219" lon="10.407700124650031"><ele>127.2</ele><time>2026-04-24T10:11:36Z</time></trkpt><trkpt lat="42.79410649477825" lon="10.407757795514886"><ele>125.80000000000001</ele><time>2026-04-24T10:11:37Z</time></trkpt><trkpt lat="42.794032528950154" lon="10.407850013556256"><ele>124.4</ele><time>2026-04-24T10:11:38Z</time></trkpt><trkpt lat="42.793979962593745" lon="10.407969427584563"><ele>123.0</ele><time>2026-04-24T10:11:39Z</time></trkpt><trkpt lat="42.793945903086986" lon="10.408110180336038"><ele>123.0</ele><time>2026-04-24T10:11:40Z</time></trkpt><trkpt lat="42.793899073323274" lon="10.408237577036866"><ele>123.00000000000001</ele><time>2026-04-24T10:11:41Z</time></trkpt><trkpt lat="42.79386444557694" lon="10.408386270751977"><ele>123.00000000000001</ele><time>2026-04-24T10:11:42Z</time></trkpt><trkpt lat="42.79383171331461" lon="10.408526825240283"><ele>123.0</ele><time>2026-04-24T10:11:43Z</time></trkpt><trkpt lat="42.79379591841821" lon="10.408669458086122"><ele>123.0</ele><time>2026-04-24T10:11:44Z</time></trkpt><trkpt lat="42.793754638886966" lon="10.408814315479491"><ele>121.60000000000001</ele><time>2026-04-24T10:11:45Z</time></trkpt><trkpt lat="42.79371134049242" lon="10.408955409367488"><ele>120.20000000000002</ele><time>2026-04-24T10:11:46Z</time></trkpt><trkpt lat="42.79366653084264" lon="10.409087986677857"><ele>118.8</ele><time>2026-04-24T10:11:47Z</time></trkpt><trkpt lat="42.79361902937642" lon="10.409222384404236"><ele>117.4</ele><time>2026-04-24T10:11:48Z</time></trkpt><trkpt lat="42.79357215422204" lon="10.409355064985649"><ele>116.0</ele><time>2026-04-24T10:11:49Z</time></trkpt><trkpt lat="42.793525887053214" lon="10.40948669140081"><ele>118.4</ele><time>2026-04-24T10:11:50Z</time></trkpt><trkpt lat="42.79347890258101" lon="10.40962035839518"><ele>120.8</ele><time>2026-04-24T10:11:51Z</time></trkpt><trkpt lat="42.79343264330101" lon="10.409752538117079"><ele>123.20000000000002</ele><time>2026-04-24T10:11:52Z</time></trkpt><trkpt lat="42.7933864088924" lon="10.409884935105211"><ele>125.60000000000001</ele><time>2026-04-24T10:11:53Z</time></trkpt><trkpt lat="42.79334086832046" lon="10.410015345218493"><ele>128.0</ele><time>2026-04-24T10:11:54Z</time></trkpt><trkpt lat="42.793294264401155" lon="10.410145465257974"><ele>128.0</ele><time>2026-04-24T10:11:55Z</time></trkpt><trkpt lat="42.793246364984576" lon="10.410275429216696"><ele>128.0</ele><time>2026-04-24T10:11:56Z</time></trkpt><trkpt lat="42.79319233817915" lon="10.41040463725647"><ele>128.0</ele><time>2026-04-24T10:11:57Z</time></trkpt><trkpt lat="42.793130542951836" lon="10.410522440942609"><ele>128.0</ele><time>2026-04-24T10:11:58Z</time></trkpt><trkpt lat="42.79305683186589" lon="10.410641373717873"><ele>128.0</ele><time>2026-04-24T10:11:59Z</time></trkpt><trkpt lat="42.79298091134531" lon="10.41075069899163"><ele>126.2</ele><time>2026-04-24T10:12:00Z</time></trkpt><trkpt lat="42.79291661768093" lon="10.410865673769186"><ele>124.4</ele><time>2026-04-24T10:12:01Z</time></trkpt><trkpt lat="42.79283769085458" lon="10.410972470763166"><ele>122.60000000000001</ele><time>2026-04-24T10:12:02Z</time></trkpt><trkpt lat="42.792758081110605" lon="10.411071116811835"><ele>120.80000000000001</ele><time>2026-04-24T10:12:03Z</time></trkpt><trkpt lat="42.79267904152543" lon="10.411171924383229"><ele>119.0</ele><time>2026-04-24T10:12:04Z</time></trkpt><trkpt lat="42.79260271007071" lon="10.411264850697044"><ele>119.80000000000001</ele><time>2026-04-24T10:12:05Z</time></trkpt><trkpt lat="42.792519580020524" lon="10.411349133481828"><ele>120.60000000000001</ele><time>2026-04-24T10:12:06Z</time></trkpt><trkpt lat="42.79242606666796" lon="10.411412246697795"><ele>121.4</ele><time>2026-04-24T10:12:07Z</time></trkpt><trkpt lat="42.792325630808165" lon="10.411450957804714"><ele>122.2</ele><time>2026-04-24T10:12:08Z</time></trkpt><trkpt lat="42.792227360405576" lon="10.411476019077444"><ele>123.0</ele><time>2026-04-24T10:12:09Z</time></trkpt><trkpt lat="42.792137992784525" lon="10.41149750286825"><ele>123.0</ele><time>2026-04-24T10:12:10Z</time></trkpt><trkpt lat="42.79206730425801" lon="10.411539797135424"><ele>123.0</ele><time>2026-04-24T10:12:11Z</time></trkpt><trkpt lat="42.79201104417028" lon="10.4115996423451"><ele>123.0</ele><time>2026-04-24T10:12:12Z</time></trkpt><trkpt lat="42.791957249561634" lon="10.411665393916604"><ele>123.0</ele><time>2026-04-24T10:12:13Z</time></trkpt><trkpt lat="42.79195755875301" lon="10.411775331142664"><ele>123.0</ele><time>2026-04-24T10:12:14Z</time></trkpt><trkpt lat="42.79196681185478" lon="10.411892507324865"><ele>123.0</ele><time>2026-04-24T10:12:15Z</time></trkpt><trkpt lat="42.79198536184093" lon="10.412013460873352"><ele>123.0</ele><time>2026-04-24T10:12:16Z</time></trkpt><trkpt lat="42.79200429488665" lon="10.412137986870626"><ele>123.0</ele><time>2026-04-24T10:12:17Z</time></trkpt><trkpt lat="42.792014578835044" lon="10.412256011284999"><ele>123.0</ele><time>2026-04-24T10:12:18Z</time></trkpt><trkpt lat="42.79201104700341" lon="10.412366386324651"><ele>123.0</ele><time>2026-04-24T10:12:19Z</time></trkpt><trkpt lat="42.79201227202778" lon="10.412467984256988"><ele>123.0</ele><time>2026-04-24T10:12:20Z</time></trkpt><trkpt lat="42.79198880991716" lon="10.412560585661948"><ele>123.0</ele><time>2026-04-24T10:12:21Z</time></trkpt><trkpt lat="42.791941852773725" lon="10.412636591679483"><ele>123.83333333333333</ele><time>2026-04-24T10:12:22Z</time></trkpt><trkpt lat="42.79187727922616" lon="10.412688367468064"><ele>124.66666666666666</ele><time>2026-04-24T10:12:23Z</time></trkpt><trkpt lat="42.79179752044496" lon="10.412709819164348"><ele>125.5</ele><time>2026-04-24T10:12:24Z</time></trkpt><trkpt lat="42.79171334587695" lon="10.412697833784108"><ele>126.33333333333333</ele><time>2026-04-24T10:12:25Z</time></trkpt><trkpt lat="42.791624784570395" lon="10.412663731971879"><ele>127.16666666666666</ele><time>2026-04-24T10:12:26Z</time></trkpt><trkpt lat="42.79153229397373" lon="10.412618320081776"><ele>128.0</ele><time>2026-04-24T10:12:27Z</time></trkpt><trkpt lat="42.791436550936396" lon="10.412579212802067"><ele>128.0</ele><time>2026-04-24T10:12:28Z</time></trkpt><trkpt lat="42.791342399511244" lon="10.412555562399177"><ele>128.0</ele><time>2026-04-24T10:12:29Z</time></trkpt><trkpt lat="42.79124738696371" lon="10.412562489251659"><ele>128.0</ele><time>2026-04-24T10:12:30Z</time></trkpt><trkpt lat="42.79115089337942" lon="10.412590456807946"><ele>128.0</ele><time>2026-04-24T10:12:31Z</time></trkpt><trkpt lat="42.79105541989705" lon="10.412643884182708"><ele>128.0</ele><time>2026-04-24T10:12:32Z</time></trkpt><trkpt lat="42.790961142734616" lon="10.412710614100153"><ele>129.20000000000002</ele><time>2026-04-24T10:12:33Z</time></trkpt><trkpt lat="42.790871386974715" lon="10.412766432140806"><ele>130.4</ele><time>2026-04-24T10:12:34Z</time></trkpt><trkpt lat="42.790777580284654" lon="10.412822045989513"><ele>131.60000000000002</ele><time>2026-04-24T10:12:35Z</time></trkpt><trkpt lat="42.790683891771884" lon="10.412899273854379"><ele>132.8</ele><time>2026-04-24T10:12:36Z</time></trkpt><trkpt lat="42.7905973667784" lon="10.412965365994102"><ele>134.0</ele><time>2026-04-24T10:12:37Z</time></trkpt><trkpt lat="42.7905214256087" lon="10.413041958571446"><ele>132.8</ele><time>2026-04-24T10:12:38Z</time></trkpt><trkpt lat="42.790450564633744" lon="10.4131221594003"><ele>131.60000000000002</ele><time>2026-04-24T10:12:39Z</time></trkpt><trkpt lat="42.79038244140158" lon="10.413205073035767"><ele>130.4</ele><time>2026-04-24T10:12:40Z</time></trkpt><trkpt lat="42.790316526036264" lon="10.413283777123109"><ele>129.20000000000002</ele><time>2026-04-24T10:12:41Z</time></trkpt><trkpt lat="42.79024323204245" lon="10.41335104530079"><ele>128.0</ele><time>2026-04-24T10:12:42Z</time></trkpt><trkpt lat="42.79015991947996" lon="10.413399702395436"><ele>127.99999999999999</ele><time>2026-04-24T10:12:43Z</time></trkpt><trkpt lat="42.790067746481554" lon="10.413410901938313"><ele>128.0</ele><time>2026-04-24T10:12:44Z</time></trkpt><trkpt lat="42.78997507801968" lon="10.413395598225316"><ele>128.0</ele><time>2026-04-24T10:12:45Z</time></trkpt><trkpt lat="42.78988913379199" lon="10.413351458283726"><ele>128.0</ele><time>2026-04-24T10:12:46Z</time></trkpt><trkpt lat="42.789818613718595" lon="10.413291280089721"><ele>127.99999999999999</ele><time>2026-04-24T10:12:47Z</time></trkpt><trkpt lat="42.78976595971326" lon="10.41319540190781"><ele>128.0</ele><time>2026-04-24T10:12:48Z</time></trkpt><trkpt lat="42.78972879260784" lon="10.413083679681902"><ele>129.0</ele><time>2026-04-24T10:12:49Z</time></trkpt><trkpt lat="42.78971143109507" lon="10.412955053391185"><ele>130.0</ele><time>2026-04-24T10:12:50Z</time></trkpt><trkpt lat="42.78970591457699" lon="10.41281595712272"><ele>131.0</ele><time>2026-04-24T10:12:51Z</time></trkpt><trkpt lat="42.78970691600279" lon="10.412669511687914"><ele>132.0</ele><time>2026-04-24T10:12:52Z</time></trkpt><trkpt lat="42.78970576297253" lon="10.412519023478097"><ele>133.0</ele><time>2026-04-24T10:12:53Z</time></trkpt><trkpt lat="42.78969920781673" lon="10.412371382808223"><ele>133.0</ele><time>2026-04-24T10:12:54Z</time></trkpt><trkpt lat="42.78969523970752" lon="10.412227866456432"><ele>133.0</ele><time>2026-04-24T10:12:55Z</time></trkpt><trkpt lat="42.789691493133205" lon="10.412083996498191"><ele>133.0</ele><time>2026-04-24T10:12:56Z</time></trkpt><trkpt lat="42.7896869051331" lon="10.411935110501567"><ele>133.0</ele><time>2026-04-24T10:12:57Z</time></trkpt><trkpt lat="42.78967635790847" lon="10.41178864358374"><ele>133.0</ele><time>2026-04-24T10:12:58Z</time></trkpt><trkpt lat="42.78965695203764" lon="10.41164698210377"><ele>133.8</ele><time>2026-04-24T10:12:59Z</time></trkpt><trkpt lat="42.78962180072092" lon="10.411513229643187"><ele>134.60000000000002</ele><time>2026-04-24T10:13:00Z</time></trkpt><trkpt lat="42.78957475493469" lon="10.411383891020275"><ele>135.39999999999998</ele><time>2026-04-24T10:13:01Z</time></trkpt><trkpt lat="42.78951436776456" lon="10.411266549607227"><ele>136.2</ele><time>2026-04-24T10:13:02Z</time></trkpt><trkpt lat="42.789440444349" lon="10.411158288109924"><ele>137.0</ele><time>2026-04-24T10:13:03Z</time></trkpt><trkpt lat="42.78936222438107" lon="10.411060446562653"><ele>136.6</ele><time>2026-04-24T10:13:04Z</time></trkpt><trkpt lat="42.78928062318564" lon="10.410974240182211"><ele>136.2</ele><time>2026-04-24T10:13:05Z</time></trkpt><trkpt lat="42.78920511467337" lon="10.410889307854156"><ele>135.8</ele><time>2026-04-24T10:13:06Z</time></trkpt><trkpt lat="42.78913618085951" lon="10.41080771292937"><ele>135.4</ele><time>2026-04-24T10:13:07Z</time></trkpt><trkpt lat="42.78908011606366" lon="10.410727805137329"><ele>135.0</ele><time>2026-04-24T10:13:08Z</time></trkpt><trkpt lat="42.78903471487312" lon="10.410643604391812"><ele>135.0</ele><time>2026-04-24T10:13:09Z</time></trkpt><trkpt lat="42.789013825455434" lon="10.410537502548948"><ele>135.0</ele><time>2026-04-24T10:13:10Z</time></trkpt><trkpt lat="42.78900594351849" lon="10.410424414730453"><ele>135.0</ele><time>2026-04-24T10:13:11Z</time></trkpt><trkpt lat="42.78901502328056" lon="10.410310257743053"><ele>135.0</ele><time>2026-04-24T10:13:12Z</time></trkpt><trkpt lat="42.78905077120584" lon="10.410202428930997"><ele>135.0</ele><time>2026-04-24T10:13:13Z</time></trkpt><trkpt lat="42.789082631843996" lon="10.4100813959977"><ele>135.0</ele><time>2026-04-24T10:13:14Z</time></trkpt><trkpt lat="42.78911049032804" lon="10.40995156780753"><ele>134.4</ele><time>2026-04-24T10:13:15Z</time></trkpt><trkpt lat="42.78913087887918" lon="10.409822940474621"><ele>133.8</ele><time>2026-04-24T10:13:16Z</time></trkpt><trkpt lat="42.78915644562599" lon="10.409695839951375"><ele>133.2</ele><time>2026-04-24T10:13:17Z</time></trkpt><trkpt lat="42.789182761132025" lon="10.409567289534774"><ele>132.6</ele><time>2026-04-24T10:13:18Z</time></trkpt><trkpt lat="42.78920740859692" lon="10.409430301863281"><ele>132.0</ele><time>2026-04-24T10:13:19Z</time></trkpt><trkpt lat="42.78923215331952" lon="10.40930691830668"><ele>132.16666666666666</ele><time>2026-04-24T10:13:20Z</time></trkpt><trkpt lat="42.78925369821502" lon="10.409190820736669"><ele>132.33333333333334</ele><time>2026-04-24T10:13:21Z</time></trkpt><trkpt lat="42.78925502700367" lon="10.409085363505078"><ele>132.5</ele><time>2026-04-24T10:13:22Z</time></trkpt><trkpt lat="42.78923927484869" lon="10.408987288957713"><ele>132.66666666666669</ele><time>2026-04-24T10:13:23Z</time></trkpt><trkpt lat="42.789198885366346" lon="10.408907379976192"><ele>132.83333333333334</ele><time>2026-04-24T10:13:24Z</time></trkpt><trkpt lat="42.789133653773106" lon="10.408836781905695"><ele>133.0</ele><time>2026-04-24T10:13:25Z</time></trkpt><trkpt lat="42.78905031198439" lon="10.408782275886386"><ele>133.0</ele><time>2026-04-24T10:13:26Z</time></trkpt><trkpt lat="42.78895626870814" lon="10.408745602229638"><ele>133.0</ele><time>2026-04-24T10:13:27Z</time></trkpt><trkpt lat="42.78885783023108" lon="10.40870498668029"><ele>133.0</ele><time>2026-04-24T10:13:28Z</time></trkpt><trkpt lat="42.78876216238254" lon="10.408656648020584"><ele>133.0</ele><time>2026-04-24T10:13:29Z</time></trkpt><trkpt lat="42.788674105028136" lon="10.408604531600279"><ele>133.0</ele><time>2026-04-24T10:13:30Z</time></trkpt><trkpt lat="42.78858929927639" lon="10.408545512537707"><ele>129.4</ele><time>2026-04-24T10:13:31Z</time></trkpt><trkpt lat="42.78850524985424" lon="10.408466454669865"><ele>125.80000000000001</ele><time>2026-04-24T10:13:32Z</time></trkpt><trkpt lat="42.788433439414284" lon="10.408372340234159"><ele>122.2</ele><time>2026-04-24T10:13:33Z</time></trkpt><trkpt lat="42.788375429033316" lon="10.40827544385543"><ele>118.6</ele><time>2026-04-24T10:13:34Z</time></trkpt><trkpt lat="42.788336168152576" lon="10.4081807849736"><ele>115.0</ele><time>2026-04-24T10:13:35Z</time></trkpt><trkpt lat="42.78831574135532" lon="10.408074810917991"><ele>114.8</ele><time>2026-04-24T10:13:36Z</time></trkpt><trkpt lat="42.78832275321881" lon="10.407963940043874"><ele>114.6</ele><time>2026-04-24T10:13:37Z</time></trkpt><trkpt lat="42.78835354091287" lon="10.407854080828892"><ele>114.4</ele><time>2026-04-24T10:13:38Z</time></trkpt><trkpt lat="42.788387576788196" lon="10.407726908167716"><ele>114.2</ele><time>2026-04-24T10:13:39Z</time></trkpt><trkpt lat="42.788420039957984" lon="10.407602734519642"><ele>114.0</ele><time>2026-04-24T10:13:40Z</time></trkpt><trkpt lat="42.78843689990277" lon="10.407466660191254"><ele>114.0</ele><time>2026-04-24T10:13:41Z</time></trkpt><trkpt lat="42.78843665151299" lon="10.407337326916098"><ele>114.0</ele><time>2026-04-24T10:13:42Z</time></trkpt><trkpt lat="42.788410796156484" lon="10.407204994203914"><ele>114.0</ele><time>2026-04-24T10:13:43Z</time></trkpt><trkpt lat="42.78836249484093" lon="10.407077401406779"><ele>114.0</ele><time>2026-04-24T10:13:44Z</time></trkpt><trkpt lat="42.78830844056232" lon="10.406953141217198"><ele>114.0</ele><time>2026-04-24T10:13:45Z</time></trkpt><trkpt lat="42.78825787154107" lon="10.406827590939926"><ele>114.0</ele><time>2026-04-24T10:13:46Z</time></trkpt><trkpt lat="42.788207865074014" lon="10.406706229011737"><ele>114.0</ele><time>2026-04-24T10:13:47Z</time></trkpt><trkpt lat="42.78815920339995" lon="10.406585138738173"><ele>114.0</ele><time>2026-04-24T10:13:48Z</time></trkpt><trkpt lat="42.78811669061157" lon="10.406463632480897"><ele>114.0</ele><time>2026-04-24T10:13:49Z</time></trkpt><trkpt lat="42.78806917384612" lon="10.406346137149043"><ele>114.0</ele><time>2026-04-24T10:13:50Z</time></trkpt><trkpt lat="42.78803148174433" lon="10.406229319896948"><ele>114.0</ele><time>2026-04-24T10:13:51Z</time></trkpt><trkpt lat="42.788004567995195" lon="10.4061114448818"><ele>114.0</ele><time>2026-04-24T10:13:52Z</time></trkpt><trkpt lat="42.78799877184153" lon="10.406005557723365"><ele>114.0</ele><time>2026-04-24T10:13:53Z</time></trkpt><trkpt lat="42.78800897545755" lon="10.405886260700793"><ele>114.0</ele><time>2026-04-24T10:13:54Z</time></trkpt><trkpt lat="42.78803996068049" lon="10.405769782655444"><ele>114.0</ele><time>2026-04-24T10:13:55Z</time></trkpt><trkpt lat="42.78807884534272" lon="10.405651066545"><ele>114.0</ele><time>2026-04-24T10:13:56Z</time></trkpt><trkpt lat="42.788129771314196" lon="10.405533937293072"><ele>110.2</ele><time>2026-04-24T10:13:57Z</time></trkpt><trkpt lat="42.78819259419579" lon="10.405426665613868"><ele>106.4</ele><time>2026-04-24T10:13:58Z</time></trkpt><trkpt lat="42.78825948403627" lon="10.405324195119185"><ele>102.6</ele><time>2026-04-24T10:13:59Z</time></trkpt><trkpt lat="42.7883318790752" lon="10.405233274014616"><ele>98.8</ele><time>2026-04-24T10:14:00Z</time></trkpt><trkpt lat="42.78841540569847" lon="10.405170593618603"><ele>95.0</ele><time>2026-04-24T10:14:01Z</time></trkpt><trkpt lat="42.788498890819476" lon="10.405116695969893"><ele>96.6</ele><time>2026-04-24T10:14:02Z</time></trkpt><trkpt lat="42.788593978939815" lon="10.405086478126941"><ele>98.2</ele><time>2026-04-24T10:14:03Z</time></trkpt><trkpt lat="42.78869112513202" lon="10.405073548821363"><ele>99.80000000000001</ele><time>2026-04-24T10:14:04Z</time></trkpt><trkpt lat="42.78878828070703" lon="10.405075503890556"><ele>101.4</ele><time>2026-04-24T10:14:05Z</time></trkpt><trkpt lat="42.788879463813274" lon="10.405085297586973"><ele>103.0</ele><time>2026-04-24T10:14:06Z</time></trkpt><trkpt lat="42.788965700025074" lon="10.40509272934219"><ele>103.00000000000001</ele><time>2026-04-24T10:14:07Z</time></trkpt><trkpt lat="42.78904882590202" lon="10.405099689888242"><ele>103.0</ele><time>2026-04-24T10:14:08Z</time></trkpt><trkpt lat="42.78912865004797" lon="10.405095636575375"><ele>103.0</ele><time>2026-04-24T10:14:09Z</time></trkpt><trkpt lat="42.78920917623476" lon="10.405065500872436"><ele>103.0</ele><time>2026-04-24T10:14:10Z</time></trkpt><trkpt lat="42.78928530249973" lon="10.405015019216847"><ele>103.00000000000001</ele><time>2026-04-24T10:14:11Z</time></trkpt><trkpt lat="42.78934764633832" lon="10.404945300409256"><ele>103.0</ele><time>2026-04-24T10:14:12Z</time></trkpt><trkpt lat="42.78940702718391" lon="10.404857785545007"><ele>104.66666666666667</ele><time>2026-04-24T10:14:13Z</time></trkpt><trkpt lat="42.7894664369183" lon="10.404758092637412"><ele>106.33333333333334</ele><time>2026-04-24T10:14:14Z</time></trkpt><trkpt lat="42.78952885411721" lon="10.404657961400698"><ele>108.0</ele><time>2026-04-24T10:14:15Z</time></trkpt><trkpt lat="42.7895884961543" lon="10.404560024361924"><ele>109.66666666666666</ele><time>2026-04-24T10:14:16Z</time></trkpt><trkpt lat="42.78964124829959" lon="10.404469186698117"><ele>111.33333333333333</ele><time>2026-04-24T10:14:17Z</time></trkpt><trkpt lat="42.78966743647358" lon="10.404370991774584"><ele>113.0</ele><time>2026-04-24T10:14:18Z</time></trkpt><trkpt lat="42.789669882932806" lon="10.404274173339548"><ele>112.99999999999999</ele><time>2026-04-24T10:14:19Z</time></trkpt><trkpt lat="42.789642834726195" lon="10.404181399048428"><ele>113.0</ele><time>2026-04-24T10:14:20Z</time></trkpt><trkpt lat="42.7895924248826" lon="10.40409682823196"><ele>113.0</ele><time>2026-04-24T10:14:21Z</time></trkpt><trkpt lat="42.78952123181735" lon="10.40403906047227"><ele>113.0</ele><time>2026-04-24T10:14:22Z</time></trkpt><trkpt lat="42.78944105182566" lon="10.404023853156689"><ele>112.99999999999999</ele><time>2026-04-24T10:14:23Z</time></trkpt><trkpt lat="42.78934809281745" lon="10.404032431439441"><ele>113.0</ele><time>2026-04-24T10:14:24Z</time></trkpt><trkpt lat="42.78924617135277" lon="10.404051993728947"><ele>111.0</ele><time>2026-04-24T10:14:25Z</time></trkpt><trkpt lat="42.78914361515932" lon="10.40408692818796"><ele>109.00000000000001</ele><time>2026-04-24T10:14:26Z</time></trkpt><trkpt lat="42.789044459390965" lon="10.40409898823505"><ele>107.0</ele><time>2026-04-24T10:14:27Z</time></trkpt><trkpt lat="42.788941552084154" lon="10.404096275521445"><ele>105.0</ele><time>2026-04-24T10:14:28Z</time></trkpt><trkpt lat="42.788837770813565" lon="10.40408344023677"><ele>103.0</ele><time>2026-04-24T10:14:29Z</time></trkpt><trkpt lat="42.78873400349642" lon="10.40406994408482"><ele>103.0</ele><time>2026-04-24T10:14:30Z</time></trkpt><trkpt lat="42.78863366668672" lon="10.404047066941319"><ele>103.0</ele><time>2026-04-24T10:14:31Z</time></trkpt><trkpt lat="42.788536377200984" lon="10.404001337069142"><ele>103.0</ele><time>2026-04-24T10:14:32Z</time></trkpt><trkpt lat="42.7884386156443" lon="10.403974967230678"><ele>103.0</ele><time>2026-04-24T10:14:33Z</time></trkpt><trkpt lat="42.78833367880109" lon="10.403953732148095"><ele>103.0</ele><time>2026-04-24T10:14:34Z</time></trkpt><trkpt lat="42.78822816116065" lon="10.403960892666925"><ele>101.0</ele><time>2026-04-24T10:14:35Z</time></trkpt><trkpt lat="42.78812453133363" lon="10.403961184492939"><ele>99.0</ele><time>2026-04-24T10:14:36Z</time></trkpt><trkpt lat="42.78801820569909" lon="10.403946368748764"><ele>97.0</ele><time>2026-04-24T10:14:37Z</time></trkpt><trkpt lat="42.78791788175557" lon="10.403983247215079"><ele>95.0</ele><time>2026-04-24T10:14:38Z</time></trkpt><trkpt lat="42.787814821633184" lon="10.403977140229037"><ele>93.0</ele><time>2026-04-24T10:14:39Z</time></trkpt><trkpt lat="42.7877158338874" lon="10.403992994035562"><ele>90.4</ele><time>2026-04-24T10:14:40Z</time></trkpt><trkpt lat="42.78761570811598" lon="10.404009030119509"><ele>87.80000000000001</ele><time>2026-04-24T10:14:41Z</time></trkpt><trkpt lat="42.78751768298334" lon="10.404024729745021"><ele>85.2</ele><time>2026-04-24T10:14:42Z</time></trkpt><trkpt lat="42.787424346672395" lon="10.40404092311983"><ele>82.6</ele><time>2026-04-24T10:14:43Z</time></trkpt><trkpt lat="42.78733770272053" lon="10.404047183229915"><ele>80.0</ele><time>2026-04-24T10:14:44Z</time></trkpt><trkpt lat="42.78725900559373" lon="10.404021614833129"><ele>80.0</ele><time>2026-04-24T10:14:45Z</time></trkpt><trkpt lat="42.78718294499359" lon="10.40397094302982"><ele>80.0</ele><time>2026-04-24T10:14:46Z</time></trkpt><trkpt lat="42.78711354504352" lon="10.403896925313617"><ele>80.0</ele><time>2026-04-24T10:14:47Z</time></trkpt><trkpt lat="42.78705583586537" lon="10.403794164453336"><ele>80.0</ele><time>2026-04-24T10:14:48Z</time></trkpt><trkpt lat="42.787017220528305" lon="10.4036656535577"><ele>80.0</ele><time>2026-04-24T10:14:49Z</time></trkpt><trkpt lat="42.78698189438536" lon="10.403532168090406"><ele>80.4</ele><time>2026-04-24T10:14:50Z</time></trkpt><trkpt lat="42.78694645326078" lon="10.40339756122079"><ele>80.8</ele><time>2026-04-24T10:14:51Z</time></trkpt><trkpt lat="42.78691478687807" lon="10.4032659025095"><ele>81.19999999999999</ele><time>2026-04-24T10:14:52Z</time></trkpt><trkpt lat="42.7868855839605" lon="10.4031386937249"><ele>81.6</ele><time>2026-04-24T10:14:53Z</time></trkpt><trkpt lat="42.786856024645694" lon="10.403017618552816"><ele>82.0</ele><time>2026-04-24T10:14:54Z</time></trkpt><trkpt lat="42.78682667161924" lon="10.402901075038317"><ele>82.0</ele><time>2026-04-24T10:14:55Z</time></trkpt><trkpt lat="42.78679447967795" lon="10.402797783829833"><ele>82.0</ele><time>2026-04-24T10:14:56Z</time></trkpt><trkpt lat="42.78674636869315" lon="10.402712173237216"><ele>82.0</ele><time>2026-04-24T10:14:57Z</time></trkpt><trkpt lat="42.78668338417542" lon="10.402649662781993"><ele>82.0</ele><time>2026-04-24T10:14:58Z</time></trkpt><trkpt lat="42.78661248628624" lon="10.402612400385907"><ele>82.0</ele><time>2026-04-24T10:14:59Z</time></trkpt><trkpt lat="42.78653451699165" lon="10.402601352043389"><ele>82.0</ele><time>2026-04-24T10:15:00Z</time></trkpt><trkpt lat="42.78645986146913" lon="10.402631719633817"><ele>82.0</ele><time>2026-04-24T10:15:01Z</time></trkpt><trkpt lat="42.786388024354565" lon="10.402689456030936"><ele>82.0</ele><time>2026-04-24T10:15:02Z</time></trkpt><trkpt lat="42.78632793443931" lon="10.402785393885694"><ele>82.0</ele><time>2026-04-24T10:15:03Z</time></trkpt><trkpt lat="42.7862823116221" lon="10.402901951905967"><ele>82.0</ele><time>2026-04-24T10:15:04Z</time></trkpt><trkpt lat="42.786251270619985" lon="10.40303239882693"><ele>82.0</ele><time>2026-04-24T10:15:05Z</time></trkpt><trkpt lat="42.786218216824686" lon="10.403165550013433"><ele>80.19999999999999</ele><time>2026-04-24T10:15:06Z</time></trkpt><trkpt lat="42.78618716705497" lon="10.403293421028785"><ele>78.39999999999999</ele><time>2026-04-24T10:15:07Z</time></trkpt><trkpt lat="42.78616145056934" lon="10.40341776817653"><ele>76.6</ele><time>2026-04-24T10:15:08Z</time></trkpt><trkpt lat="42.78611804104132" lon="10.40352472145029"><ele>74.8</ele><time>2026-04-24T10:15:09Z</time></trkpt><trkpt lat="42.78608934771209" lon="10.403635649795554"><ele>73.0</ele><time>2026-04-24T10:15:10Z</time></trkpt><trkpt lat="42.786052740852696" lon="10.403749336049806"><ele>72.4</ele><time>2026-04-24T10:15:11Z</time></trkpt><trkpt lat="42.78599416913956" lon="10.403847277076368"><ele>71.8</ele><time>2026-04-24T10:15:12Z</time></trkpt><trkpt lat="42.78593649794782" lon="10.40395740095386"><ele>71.2</ele><time>2026-04-24T10:15:13Z</time></trkpt><trkpt lat="42.78586774612681" lon="10.404065741857064"><ele>70.6</ele><time>2026-04-24T10:15:14Z</time></trkpt><trkpt lat="42.78579449552554" lon="10.404178644914031"><ele>70.0</ele><time>2026-04-24T10:15:15Z</time></trkpt><trkpt lat="42.78571859541244" lon="10.404293001313016"><ele>70.0</ele><time>2026-04-24T10:15:16Z</time></trkpt><trkpt lat="42.785641147039314" lon="10.40440798624888"><ele>70.0</ele><time>2026-04-24T10:15:17Z</time></trkpt><trkpt lat="42.78556708376771" lon="10.40451794465611"><ele>70.0</ele><time>2026-04-24T10:15:18Z</time></trkpt><trkpt lat="42.78549526297888" lon="10.40462407681691"><ele>70.0</ele><time>2026-04-24T10:15:19Z</time></trkpt><trkpt lat="42.785421099627555" lon="10.404732897692414"><ele>70.0</ele><time>2026-04-24T10:15:20Z</time></trkpt><trkpt lat="42.78534790962624" lon="10.404838689164528"><ele>70.4</ele><time>2026-04-24T10:15:21Z</time></trkpt><trkpt lat="42.78527885150491" lon="10.404953375160762"><ele>70.8</ele><time>2026-04-24T10:15:22Z</time></trkpt><trkpt lat="42.78519689360394" lon="10.405059391709116"><ele>71.2</ele><time>2026-04-24T10:15:23Z</time></trkpt><trkpt lat="42.785111380957815" lon="10.405152294557903"><ele>71.6</ele><time>2026-04-24T10:15:24Z</time></trkpt><trkpt lat="42.7850171188101" lon="10.405247516968728"><ele>72.0</ele><time>2026-04-24T10:15:25Z</time></trkpt><trkpt lat="42.78491588528758" lon="10.405345469864104"><ele>72.0</ele><time>2026-04-24T10:15:26Z</time></trkpt><trkpt lat="42.78480892686134" lon="10.405443612710048"><ele>72.0</ele><time>2026-04-24T10:15:27Z</time></trkpt><trkpt lat="42.78469838356648" lon="10.405527854820857"><ele>72.0</ele><time>2026-04-24T10:15:28Z</time></trkpt><trkpt lat="42.78458893549708" lon="10.40562188644889"><ele>72.0</ele><time>2026-04-24T10:15:29Z</time></trkpt><trkpt lat="42.78448318167185" lon="10.405721666897378"><ele>71.5</ele><time>2026-04-24T10:15:30Z</time></trkpt><trkpt lat="42.78438267987424" lon="10.40582507723459"><ele>71.0</ele><time>2026-04-24T10:15:31Z</time></trkpt><trkpt lat="42.78428604824126" lon="10.405925577519659"><ele>70.5</ele><time>2026-04-24T10:15:32Z</time></trkpt><trkpt lat="42.784187953777455" lon="10.406005638277813"><ele>70.0</ele><time>2026-04-24T10:15:33Z</time></trkpt><trkpt lat="42.78409289364117" lon="10.406113549695473"><ele>70.0</ele><time>2026-04-24T10:15:34Z</time></trkpt><trkpt lat="42.783998720642806" lon="10.406218759595273"><ele>70.0</ele><time>2026-04-24T10:15:35Z</time></trkpt><trkpt lat="42.78390933212196" lon="10.406327206021496"><ele>70.0</ele><time>2026-04-24T10:15:36Z</time></trkpt><trkpt lat="42.78382452370408" lon="10.40642438652031"><ele>70.0</ele><time>2026-04-24T10:15:37Z</time></trkpt><trkpt lat="42.783736019762834" lon="10.406507871518643"><ele>69.25</ele><time>2026-04-24T10:15:38Z</time></trkpt><trkpt lat="42.7836360490814" lon="10.406590056520518"><ele>68.5</ele><time>2026-04-24T10:15:39Z</time></trkpt><trkpt lat="42.783527014372815" lon="10.406664483681165"><ele>67.75</ele><time>2026-04-24T10:15:40Z</time></trkpt><trkpt lat="42.783424708733584" lon="10.406724356331896"><ele>67.0</ele><time>2026-04-24T10:15:41Z</time></trkpt><trkpt lat="42.783329664435136" lon="10.406785826800169"><ele>67.0</ele><time>2026-04-24T10:15:42Z</time></trkpt><trkpt lat="42.783232402449336" lon="10.406857030096264"><ele>67.0</ele><time>2026-04-24T10:15:43Z</time></trkpt><trkpt lat="42.7831238030961" lon="10.406922942051166"><ele>67.0</ele><time>2026-04-24T10:15:44Z</time></trkpt><trkpt lat="42.783028389273504" lon="10.407032740033829"><ele>67.0</ele><time>2026-04-24T10:15:45Z</time></trkpt><trkpt lat="42.78293309045584" lon="10.407160000137363"><ele>67.0</ele><time>2026-04-24T10:15:46Z</time></trkpt><trkpt lat="42.78283851422087" lon="10.407284979479869"><ele>67.0</ele><time>2026-04-24T10:15:47Z</time></trkpt><trkpt lat="42.78274250579611" lon="10.407411441872302"><ele>67.0</ele><time>2026-04-24T10:15:48Z</time></trkpt><trkpt lat="42.78265136602199" lon="10.40753227081188"><ele>67.0</ele><time>2026-04-24T10:15:49Z</time></trkpt><trkpt lat="42.78256591268357" lon="10.40764594375495"><ele>67.0</ele><time>2026-04-24T10:15:50Z</time></trkpt><trkpt lat="42.782479528855646" lon="10.407760854553485"><ele>67.0</ele><time>2026-04-24T10:15:51Z</time></trkpt><trkpt lat="42.78240065813103" lon="10.407880027268225"><ele>67.0</ele><time>2026-04-24T10:15:52Z</time></trkpt><trkpt lat="42.7823073425671" lon="10.407995356996159"><ele>67.0</ele><time>2026-04-24T10:15:53Z</time></trkpt><trkpt lat="42.78220762512882" lon="10.40810259941774"><ele>65.25</ele><time>2026-04-24T10:15:54Z</time></trkpt><trkpt lat="42.782096880795805" lon="10.408205208290347"><ele>63.5</ele><time>2026-04-24T10:15:55Z</time></trkpt><trkpt lat="42.78198591969636" lon="10.408293058536655"><ele>61.75</ele><time>2026-04-24T10:15:56Z</time></trkpt><trkpt lat="42.78187616130402" lon="10.408379888313537"><ele>60.0</ele><time>2026-04-24T10:15:57Z</time></trkpt><trkpt lat="42.781766607857485" lon="10.408456803999352"><ele>60.0</ele><time>2026-04-24T10:15:58Z</time></trkpt><trkpt lat="42.781655326060374" lon="10.4085336170819"><ele>60.0</ele><time>2026-04-24T10:15:59Z</time></trkpt><trkpt lat="42.78154648031098" lon="10.408614206903295"><ele>60.0</ele><time>2026-04-24T10:16:00Z</time></trkpt><trkpt lat="42.78143514848846" lon="10.408687862919143"><ele>60.0</ele><time>2026-04-24T10:16:01Z</time></trkpt><trkpt lat="42.781322776791306" lon="10.408764867741505"><ele>57.25</ele><time>2026-04-24T10:16:02Z</time></trkpt><trkpt lat="42.781203591110064" lon="10.408839154945614"><ele>54.5</ele><time>2026-04-24T10:16:03Z</time></trkpt><trkpt lat="42.78108165845927" lon="10.408901255293603"><ele>51.75</ele><time>2026-04-24T10:16:04Z</time></trkpt><trkpt lat="42.78095720826668" lon="10.408957048307181"><ele>49.0</ele><time>2026-04-24T10:16:05Z</time></trkpt><trkpt lat="42.78083849342469" lon="10.4090046910239"><ele>49.0</ele><time>2026-04-24T10:16:06Z</time></trkpt><trkpt lat="42.78071988520066" lon="10.409045469702285"><ele>49.0</ele><time>2026-04-24T10:16:07Z</time></trkpt><trkpt lat="42.780600054994565" lon="10.409089120613876"><ele>49.0</ele><time>2026-04-24T10:16:08Z</time></trkpt><trkpt lat="42.78047873309283" lon="10.409128221462547"><ele>49.0</ele><time>2026-04-24T10:16:09Z</time></trkpt><trkpt lat="42.78035137206764" lon="10.409163512271979"><ele>49.0</ele><time>2026-04-24T10:16:10Z</time></trkpt><trkpt lat="42.78022134109828" lon="10.409188541171511"><ele>49.0</ele><time>2026-04-24T10:16:11Z</time></trkpt><trkpt lat="42.78009038711683" lon="10.409214466775225"><ele>49.0</ele><time>2026-04-24T10:16:12Z</time></trkpt><trkpt lat="42.77995827188159" lon="10.409239958166664"><ele>49.0</ele><time>2026-04-24T10:16:13Z</time></trkpt><trkpt lat="42.77982764354113" lon="10.409264503275857"><ele>49.0</ele><time>2026-04-24T10:16:14Z</time></trkpt><trkpt lat="42.77969336370037" lon="10.409291191770963"><ele>49.0</ele><time>2026-04-24T10:16:15Z</time></trkpt><trkpt lat="42.77956133086149" lon="10.409316484572868"><ele>49.0</ele><time>2026-04-24T10:16:16Z</time></trkpt><trkpt lat="42.77943004983728" lon="10.409342684789204"><ele>49.0</ele><time>2026-04-24T10:16:17Z</time></trkpt><trkpt lat="42.77929934366733" lon="10.409367724659106"><ele>49.0</ele><time>2026-04-24T10:16:18Z</time></trkpt><trkpt lat="42.779169819211496" lon="10.409389956217135"><ele>49.0</ele><time>2026-04-24T10:16:19Z</time></trkpt><trkpt lat="42.77904249693819" lon="10.409418186406304"><ele>49.0</ele><time>2026-04-24T10:16:20Z</time></trkpt><trkpt lat="42.778915840298964" lon="10.409442528299781"><ele>49.0</ele><time>2026-04-24T10:16:21Z</time></trkpt><trkpt lat="42.77879054896665" lon="10.409465371569778"><ele>49.0</ele><time>2026-04-24T10:16:22Z</time></trkpt><trkpt lat="42.7786662156576" lon="10.409488488864614"><ele>49.0</ele><time>2026-04-24T10:16:23Z</time></trkpt><trkpt lat="42.77854304343611" lon="10.409510231989493"><ele>49.0</ele><time>2026-04-24T10:16:24Z</time></trkpt><trkpt lat="42.77841937942732" lon="10.409532995655267"><ele>49.0</ele><time>2026-04-24T10:16:25Z</time></trkpt><trkpt lat="42.77829354870117" lon="10.409552671661286"><ele>49.25</ele><time>2026-04-24T10:16:26Z</time></trkpt><trkpt lat="42.778166394913306" lon="10.409575984715328"><ele>49.5</ele><time>2026-04-24T10:16:27Z</time></trkpt><trkpt lat="42.77803800452592" lon="10.409600447007874"><ele>49.75</ele><time>2026-04-24T10:16:28Z</time></trkpt><trkpt lat="42.77790847693279" lon="10.409626876876322"><ele>50.0</ele><time>2026-04-24T10:16:29Z</time></trkpt><trkpt lat="42.777785640119056" lon="10.40964685952615"><ele>50.25</ele><time>2026-04-24T10:16:30Z</time></trkpt><trkpt lat="42.777662071317295" lon="10.409653312464235"><ele>50.5</ele><time>2026-04-24T10:16:31Z</time></trkpt><trkpt lat="42.777535724231896" lon="10.409646582640073"><ele>50.75</ele><time>2026-04-24T10:16:32Z</time></trkpt><trkpt lat="42.77741463646701" lon="10.40962850303823"><ele>51.0</ele><time>2026-04-24T10:16:33Z</time></trkpt><trkpt lat="42.777302023087124" lon="10.409600120738475"><ele>51.0</ele><time>2026-04-24T10:16:34Z</time></trkpt><trkpt lat="42.77719367320186" lon="10.409569207362281"><ele>51.0</ele><time>2026-04-24T10:16:35Z</time></trkpt><trkpt lat="42.777096015993386" lon="10.409530325908285"><ele>51.0</ele><time>2026-04-24T10:16:36Z</time></trkpt><trkpt lat="42.77700225883408" lon="10.409496155878426"><ele>51.0</ele><time>2026-04-24T10:16:37Z</time></trkpt><trkpt lat="42.77690892031016" lon="10.409469672375476"><ele>51.0</ele><time>2026-04-24T10:16:38Z</time></trkpt><trkpt lat="42.77682551339687" lon="10.409428063086224"><ele>50.333333333333336</ele><time>2026-04-24T10:16:39Z</time></trkpt><trkpt lat="42.776738348588054" lon="10.409409482823502"><ele>49.666666666666664</ele><time>2026-04-24T10:16:40Z</time></trkpt><trkpt lat="42.776657466866894" lon="10.409395512409503"><ele>49.0</ele><time>2026-04-24T10:16:41Z</time></trkpt><trkpt lat="42.77657026149819" lon="10.409393471777445"><ele>48.33333333333333</ele><time>2026-04-24T10:16:42Z</time></trkpt><trkpt lat="42.77649245954743" lon="10.409394740681027"><ele>47.666666666666664</ele><time>2026-04-24T10:16:43Z</time></trkpt><trkpt lat="42.77642739771682" lon="10.409399365905662"><ele>47.0</ele><time>2026-04-24T10:16:44Z</time></trkpt><trkpt lat="42.776316500077016" lon="10.409391871914707"><ele>47.0</ele><time>2026-04-24T10:16:46Z</time></trkpt><trkpt lat="42.77626590890061" lon="10.409500436451697"><ele>47.0</ele><time>2026-04-24T10:16:48Z</time></trkpt><trkpt lat="42.77628058821103" lon="10.409628384688299"><ele>47.0</ele><time>2026-04-24T10:16:50Z</time></trkpt><trkpt lat="42.77636177918271" lon="10.409751527865044"><ele>47.0</ele><time>2026-04-24T10:16:52Z</time></trkpt><trkpt lat="42.77640450572536" lon="10.409820905705105"><ele>47.0</ele><time>2026-04-24T10:16:53Z</time></trkpt><trkpt lat="42.77644641581996" lon="10.40990622949371"><ele>45.2</ele><time>2026-04-24T10:16:54Z</time></trkpt><trkpt lat="42.77648919059337" lon="10.409999875783674"><ele>43.400000000000006</ele><time>2026-04-24T10:16:55Z</time></trkpt><trkpt lat="42.776533064589884" lon="10.41010324057783"><ele>41.599999999999994</ele><time>2026-04-24T10:16:56Z</time></trkpt><trkpt lat="42.776583458624835" lon="10.410214730280488"><ele>39.8</ele><time>2026-04-24T10:16:57Z</time></trkpt><trkpt lat="42.77662963790746" lon="10.41032188814028"><ele>38.0</ele><time>2026-04-24T10:16:58Z</time></trkpt><trkpt lat="42.776679787798" lon="10.41043060570688"><ele>37.166666666666664</ele><time>2026-04-24T10:16:59Z</time></trkpt><trkpt lat="42.77671522078878" lon="10.410534586086639"><ele>36.33333333333333</ele><time>2026-04-24T10:17:00Z</time></trkpt><trkpt lat="42.77676581282632" lon="10.410641521830865"><ele>35.5</ele><time>2026-04-24T10:17:01Z</time></trkpt><trkpt lat="42.776813766748894" lon="10.410749738736646"><ele>34.666666666666664</ele><time>2026-04-24T10:17:02Z</time></trkpt><trkpt lat="42.776846018383694" lon="10.410863196531777"><ele>33.833333333333336</ele><time>2026-04-24T10:17:03Z</time></trkpt><trkpt lat="42.776890640805995" lon="10.410960062769"><ele>33.0</ele><time>2026-04-24T10:17:04Z</time></trkpt><trkpt lat="42.77693981679681" lon="10.411067770783156"><ele>32.666666666666664</ele><time>2026-04-24T10:17:05Z</time></trkpt><trkpt lat="42.776982500037235" lon="10.411171941791265"><ele>32.333333333333336</ele><time>2026-04-24T10:17:06Z</time></trkpt><trkpt lat="42.777021402296405" lon="10.411266234126709"><ele>32.0</ele><time>2026-04-24T10:17:07Z</time></trkpt><trkpt lat="42.777050555562575" lon="10.41134693338651"><ele>31.666666666666668</ele><time>2026-04-24T10:17:08Z</time></trkpt><trkpt lat="42.77710110899481" lon="10.411475698293431"><ele>31.333333333333336</ele><time>2026-04-24T10:17:10Z</time></trkpt><trkpt lat="42.77712485225825" lon="10.411559137052539"><ele>31.0</ele><time>2026-04-24T10:17:12Z</time></trkpt><trkpt lat="42.77724751421762" lon="10.411613989306675"><ele>29.0</ele><time>2026-04-24T10:17:16Z</time></trkpt><trkpt lat="42.77735128917315" lon="10.411546899470816"><ele>27.0</ele><time>2026-04-24T10:17:18Z</time></trkpt><trkpt lat="42.77747054675896" lon="10.41148818473808"><ele>25.0</ele><time>2026-04-24T10:17:20Z</time></trkpt><trkpt lat="42.77757852439054" lon="10.411439741437697"><ele>23.0</ele><time>2026-04-24T10:17:22Z</time></trkpt><trkpt lat="42.77768903508913" lon="10.41139754883983"><ele>22.799999999999997</ele><time>2026-04-24T10:17:24Z</time></trkpt><trkpt lat="42.777798496356304" lon="10.41134894838666"><ele>22.6</ele><time>2026-04-24T10:17:26Z</time></trkpt><trkpt lat="42.77790347618964" lon="10.411295955256186"><ele>22.4</ele><time>2026-04-24T10:17:28Z</time></trkpt><trkpt lat="42.777987948151086" lon="10.411323670882739"><ele>22.200000000000003</ele><time>2026-04-24T10:17:30Z</time></trkpt><trkpt lat="42.77805304954633" lon="10.411452636018973"><ele>22.0</ele><time>2026-04-24T10:17:32Z</time></trkpt><trkpt lat="42.77808475339637" lon="10.411531888400983"><ele>22.0</ele><time>2026-04-24T10:17:33Z</time></trkpt><trkpt lat="42.77811863244985" lon="10.411621067320404"><ele>22.0</ele><time>2026-04-24T10:17:34Z</time></trkpt><trkpt lat="42.77813981174468" lon="10.411718582215274"><ele>22.0</ele><time>2026-04-24T10:17:35Z</time></trkpt><trkpt lat="42.778175775339136" lon="10.411811076800534"><ele>22.0</ele><time>2026-04-24T10:17:36Z</time></trkpt><trkpt lat="42.77821028887895" lon="10.411899841855776"><ele>22.0</ele><time>2026-04-24T10:17:37Z</time></trkpt><trkpt lat="42.778241846273296" lon="10.41198089074243"><ele>22.0</ele><time>2026-04-24T10:17:38Z</time></trkpt><trkpt lat="42.77827209805694" lon="10.412058351175391"><ele>22.0</ele><time>2026-04-24T10:17:39Z</time></trkpt><trkpt lat="42.77832928734372" lon="10.412189679270357"><ele>23.8</ele><time>2026-04-24T10:17:41Z</time></trkpt><trkpt lat="42.778376908583716" lon="10.412301146167628"><ele>25.6</ele><time>2026-04-24T10:17:43Z</time></trkpt><trkpt lat="42.77846211957277" lon="10.412375849841519"><ele>27.400000000000002</ele><time>2026-04-24T10:17:46Z</time></trkpt><trkpt lat="42.77855688874243" lon="10.412323110288751"><ele>29.200000000000003</ele><time>2026-04-24T10:17:48Z</time></trkpt><trkpt lat="42.77864455236184" lon="10.41223726275254"><ele>31.0</ele><time>2026-04-24T10:17:50Z</time></trkpt><trkpt lat="42.778699468533375" lon="10.412193007979578"><ele>30.571428571428573</ele><time>2026-04-24T10:17:51Z</time></trkpt><trkpt lat="42.77876302063256" lon="10.412161172743895"><ele>30.142857142857146</ele><time>2026-04-24T10:17:52Z</time></trkpt><trkpt lat="42.778832013809236" lon="10.412130868554932"><ele>29.714285714285715</ele><time>2026-04-24T10:17:53Z</time></trkpt><trkpt lat="42.77890636036479" lon="10.412107087096523"><ele>29.285714285714285</ele><time>2026-04-24T10:17:54Z</time></trkpt><trkpt lat="42.77898057638052" lon="10.412092039419742"><ele>28.857142857142858</ele><time>2026-04-24T10:17:55Z</time></trkpt><trkpt lat="42.779057537136936" lon="10.412075450276873"><ele>28.42857142857143</ele><time>2026-04-24T10:17:56Z</time></trkpt><trkpt lat="42.77913410928934" lon="10.412059565699463"><ele>28.0</ele><time>2026-04-24T10:17:57Z</time></trkpt><trkpt lat="42.77920785851058" lon="10.412039989466955"><ele>28.0</ele><time>2026-04-24T10:17:58Z</time></trkpt><trkpt lat="42.77927989541987" lon="10.412024504439385"><ele>28.0</ele><time>2026-04-24T10:17:59Z</time></trkpt><trkpt lat="42.779353219244044" lon="10.412016218529562"><ele>28.0</ele><time>2026-04-24T10:18:00Z</time></trkpt><trkpt lat="42.779427340429635" lon="10.4120062528502"><ele>28.0</ele><time>2026-04-24T10:18:01Z</time></trkpt><trkpt lat="42.779492636039784" lon="10.412000468580759"><ele>28.0</ele><time>2026-04-24T10:18:02Z</time></trkpt><trkpt lat="42.77956986740805" lon="10.412011741399285"><ele>28.0</ele><time>2026-04-24T10:18:04Z</time></trkpt><trkpt lat="42.779620710264986" lon="10.412081705834959"><ele>28.0</ele><time>2026-04-24T10:18:06Z</time></trkpt><trkpt lat="42.77957954749824" lon="10.412179209751761"><ele>30.799999999999997</ele><time>2026-04-24T10:18:08Z</time></trkpt><trkpt lat="42.779462977756765" lon="10.41220180569903"><ele>33.599999999999994</ele><time>2026-04-24T10:18:10Z</time></trkpt><trkpt lat="42.779342973446525" lon="10.412225421915245"><ele>36.400000000000006</ele><time>2026-04-24T10:18:12Z</time></trkpt><trkpt lat="42.77927217802408" lon="10.412263481035959"><ele>39.2</ele><time>2026-04-24T10:18:13Z</time></trkpt><trkpt lat="42.7792047721999" lon="10.412314929590504"><ele>42.0</ele><time>2026-04-24T10:18:14Z</time></trkpt><trkpt lat="42.77913808728413" lon="10.412381551814228"><ele>42.0</ele><time>2026-04-24T10:18:15Z</time></trkpt><trkpt lat="42.77906893635255" lon="10.41244418424628"><ele>42.0</ele><time>2026-04-24T10:18:16Z</time></trkpt><trkpt lat="42.779002524846426" lon="10.412508739227238"><ele>42.0</ele><time>2026-04-24T10:18:17Z</time></trkpt><trkpt lat="42.77893574169389" lon="10.412576245091614"><ele>42.0</ele><time>2026-04-24T10:18:18Z</time></trkpt><trkpt lat="42.778869692347094" lon="10.412646417490711"><ele>42.0</ele><time>2026-04-24T10:18:19Z</time></trkpt><trkpt lat="42.77879658920687" lon="10.412698920777665"><ele>42.0</ele><time>2026-04-24T10:18:20Z</time></trkpt><trkpt lat="42.778725647198904" lon="10.412768932581915"><ele>42.0</ele><time>2026-04-24T10:18:21Z</time></trkpt><trkpt lat="42.77865041911793" lon="10.412833814750822"><ele>42.0</ele><time>2026-04-24T10:18:22Z</time></trkpt><trkpt lat="42.77857464900484" lon="10.412894886200158"><ele>42.0</ele><time>2026-04-24T10:18:23Z</time></trkpt><trkpt lat="42.77850236608594" lon="10.4129636330153"><ele>42.0</ele><time>2026-04-24T10:18:24Z</time></trkpt><trkpt lat="42.77843170365199" lon="10.413034119165571"><ele>42.0</ele><time>2026-04-24T10:18:25Z</time></trkpt><trkpt lat="42.77836538411946" lon="10.413106463015408"><ele>42.0</ele><time>2026-04-24T10:18:26Z</time></trkpt><trkpt lat="42.77830059278829" lon="10.413188613241433"><ele>43.6</ele><time>2026-04-24T10:18:27Z</time></trkpt><trkpt lat="42.778236600605155" lon="10.413283659145444"><ele>45.2</ele><time>2026-04-24T10:18:28Z</time></trkpt><trkpt lat="42.77817209082195" lon="10.413376240694133"><ele>46.8</ele><time>2026-04-24T10:18:29Z</time></trkpt><trkpt lat="42.77811187643172" lon="10.413468545767362"><ele>48.4</ele><time>2026-04-24T10:18:30Z</time></trkpt><trkpt lat="42.778050616200346" lon="10.41356062923744"><ele>50.0</ele><time>2026-04-24T10:18:31Z</time></trkpt><trkpt lat="42.777988001621516" lon="10.413657632627341"><ele>50.0</ele><time>2026-04-24T10:18:32Z</time></trkpt><trkpt lat="42.77792375760589" lon="10.41375300165446"><ele>50.0</ele><time>2026-04-24T10:18:33Z</time></trkpt><trkpt lat="42.77785667399367" lon="10.413856919985179"><ele>50.0</ele><time>2026-04-24T10:18:34Z</time></trkpt><trkpt lat="42.777790560854186" lon="10.413925555908023"><ele>50.0</ele><time>2026-04-24T10:18:35Z</time></trkpt><trkpt lat="42.777722088504866" lon="10.414018886135691"><ele>50.0</ele><time>2026-04-24T10:18:36Z</time></trkpt><trkpt lat="42.777650278081836" lon="10.414113927118786"><ele>50.2</ele><time>2026-04-24T10:18:37Z</time></trkpt><trkpt lat="42.7775769867924" lon="10.414209293175029"><ele>50.4</ele><time>2026-04-24T10:18:38Z</time></trkpt><trkpt lat="42.777496377426125" lon="10.414303801126206"><ele>50.599999999999994</ele><time>2026-04-24T10:18:39Z</time></trkpt><trkpt lat="42.777416667909556" lon="10.414392569558999"><ele>50.8</ele><time>2026-04-24T10:18:40Z</time></trkpt><trkpt lat="42.777336446700694" lon="10.41448372622276"><ele>51.0</ele><time>2026-04-24T10:18:41Z</time></trkpt><trkpt lat="42.777252824860014" lon="10.414590800145358"><ele>51.0</ele><time>2026-04-24T10:18:42Z</time></trkpt><trkpt lat="42.777172035380026" lon="10.4146882079773"><ele>51.0</ele><time>2026-04-24T10:18:43Z</time></trkpt><trkpt lat="42.7770919172403" lon="10.41478157960439"><ele>51.0</ele><time>2026-04-24T10:18:44Z</time></trkpt><trkpt lat="42.77700736907739" lon="10.414872699338241"><ele>51.0</ele><time>2026-04-24T10:18:45Z</time></trkpt><trkpt lat="42.77692715237834" lon="10.414967654432816"><ele>51.0</ele><time>2026-04-24T10:18:46Z</time></trkpt><trkpt lat="42.77684906985067" lon="10.41505999330214"><ele>51.0</ele><time>2026-04-24T10:18:47Z</time></trkpt><trkpt lat="42.776769885393456" lon="10.415156772153075"><ele>51.0</ele><time>2026-04-24T10:18:48Z</time></trkpt><trkpt lat="42.77669176535361" lon="10.415263109393369"><ele>51.0</ele><time>2026-04-24T10:18:49Z</time></trkpt><trkpt lat="42.77662307042459" lon="10.415358387548782"><ele>51.0</ele><time>2026-04-24T10:18:50Z</time></trkpt><trkpt lat="42.77656565548439" lon="10.415453794832327"><ele>51.0</ele><time>2026-04-24T10:18:51Z</time></trkpt><trkpt lat="42.7764979426482" lon="10.41555641762644"><ele>53.5</ele><time>2026-04-24T10:18:52Z</time></trkpt><trkpt lat="42.77645549365599" lon="10.41567372284848"><ele>56.0</ele><time>2026-04-24T10:18:53Z</time></trkpt><trkpt lat="42.7764318851168" lon="10.41579458707895"><ele>58.5</ele><time>2026-04-24T10:18:54Z</time></trkpt><trkpt lat="42.77645274476025" lon="10.415959493191979"><ele>61.0</ele><time>2026-04-24T10:18:56Z</time></trkpt><trkpt lat="42.77649208202888" lon="10.4160267927014"><ele>63.5</ele><time>2026-04-24T10:18:57Z</time></trkpt><trkpt lat="42.77653703160121" lon="10.4161084265752"><ele>66.0</ele><time>2026-04-24T10:18:59Z</time></trkpt><trkpt lat="42.77659447488636" lon="10.416146760738902"><ele>66.0</ele><time>2026-04-24T10:19:10Z</time></trkpt><trkpt lat="42.77650174386165" lon="10.416212654144838"><ele>66.0</ele><time>2026-04-24T10:19:13Z</time></trkpt><trkpt lat="42.77645328248768" lon="10.416284758913147"><ele>66.0</ele><time>2026-04-24T10:19:15Z</time></trkpt><trkpt lat="42.77638995029267" lon="10.416348423864816"><ele>66.0</ele><time>2026-04-24T10:19:17Z</time></trkpt><trkpt lat="42.77632214661816" lon="10.416410026206314"><ele>66.0</ele><time>2026-04-24T10:19:19Z</time></trkpt><trkpt lat="42.77625504648566" lon="10.41646340503673"><ele>66.0</ele><time>2026-04-24T10:19:21Z</time></trkpt><trkpt lat="42.77619632502612" lon="10.416522179612256"><ele>65.57142857142857</ele><time>2026-04-24T10:19:23Z</time></trkpt><trkpt lat="42.77613584402151" lon="10.416578797077426"><ele>65.14285714285714</ele><time>2026-04-24T10:19:25Z</time></trkpt><trkpt lat="42.776065230448644" lon="10.416611670151608"><ele>64.71428571428572</ele><time>2026-04-24T10:19:27Z</time></trkpt><trkpt lat="42.775990902822606" lon="10.416629936640549"><ele>64.28571428571428</ele><time>2026-04-24T10:19:29Z</time></trkpt><trkpt lat="42.77590062168562" lon="10.416620919343602"><ele>63.85714285714286</ele><time>2026-04-24T10:19:32Z</time></trkpt><trkpt lat="42.77583699493247" lon="10.416617888442717"><ele>63.42857142857143</ele><time>2026-04-24T10:19:35Z</time></trkpt><trkpt lat="42.7757702845695" lon="10.416608188029947"><ele>63.0</ele><time>2026-04-24T10:19:38Z</time></trkpt><trkpt lat="42.77570068646399" lon="10.416600253909158"><ele>63.0</ele><time>2026-04-24T10:19:42Z</time></trkpt><trkpt lat="42.77563664023878" lon="10.416619104358736"><ele>63.0</ele><time>2026-04-24T10:19:45Z</time></trkpt><trkpt lat="42.77556640168654" lon="10.416643167574506"><ele>63.0</ele><time>2026-04-24T10:19:48Z</time></trkpt><trkpt lat="42.77548307456035" lon="10.416669336389402"><ele>63.0</ele><time>2026-04-24T10:19:51Z</time></trkpt><trkpt lat="42.77539875796227" lon="10.416714153631142"><ele>63.0</ele><time>2026-04-24T10:19:54Z</time></trkpt><trkpt lat="42.775324361993135" lon="10.416722491881334"><ele>63.0</ele><time>2026-04-24T10:19:56Z</time></trkpt><trkpt lat="42.7752399335242" lon="10.416740774886105"><ele>63.0</ele><time>2026-04-24T10:19:58Z</time></trkpt><trkpt lat="42.775164116702776" lon="10.416755363613564"><ele>63.0</ele><time>2026-04-24T10:20:00Z</time></trkpt><trkpt lat="42.77509337708121" lon="10.416761984906024"><ele>63.0</ele><time>2026-04-24T10:20:02Z</time></trkpt><trkpt lat="42.77500775615646" lon="10.41677353455974"><ele>63.0</ele><time>2026-04-24T10:20:51Z</time></trkpt><trkpt lat="42.77491815538095" lon="10.416763056072512"><ele>63.0</ele><time>2026-04-24T10:20:54Z</time></trkpt><trkpt lat="42.77483789542657" lon="10.416761291333671"><ele>63.0</ele><time>2026-04-24T10:20:57Z</time></trkpt><trkpt lat="42.774766932714925" lon="10.416768034607125"><ele>63.0</ele><time>2026-04-24T10:21:00Z</time></trkpt><trkpt lat="42.77469555619311" lon="10.416775479313683"><ele>63.0</ele><time>2026-04-24T10:21:03Z</time></trkpt><trkpt lat="42.774619661594656" lon="10.416772676067628"><ele>63.0</ele><time>2026-04-24T10:21:06Z</time></trkpt><trkpt lat="42.77453981524934" lon="10.416774377736234"><ele>63.0</ele><time>2026-04-24T10:21:09Z</time></trkpt><trkpt lat="42.77447580113347" lon="10.416765842346358"><ele>63.0</ele><time>2026-04-24T10:21:11Z</time></trkpt><trkpt lat="42.774410654784944" lon="10.416747029887173"><ele>63.0</ele><time>2026-04-24T10:21:13Z</time></trkpt><trkpt lat="42.774338202119196" lon="10.416737086132791"><ele>63.0</ele><time>2026-04-24T10:21:15Z</time></trkpt><trkpt lat="42.774249003106426" lon="10.416753193076048"><ele>61.666666666666664</ele><time>2026-04-24T10:21:18Z</time></trkpt><trkpt lat="42.774174470856046" lon="10.416815212238804"><ele>60.33333333333333</ele><time>2026-04-24T10:21:21Z</time></trkpt><trkpt lat="42.7741412467483" lon="10.416914150862999"><ele>59.0</ele><time>2026-04-24T10:21:24Z</time></trkpt><trkpt lat="42.77418190395567" lon="10.416991641657038"><ele>57.666666666666664</ele><time>2026-04-24T10:21:26Z</time></trkpt><trkpt lat="42.77423573434948" lon="10.417066527372919"><ele>56.33333333333333</ele><time>2026-04-24T10:21:29Z</time></trkpt><trkpt lat="42.774285799370226" lon="10.417132813761903"><ele>55.0</ele><time>2026-04-24T10:21:32Z</time></trkpt><trkpt lat="42.77433929795143" lon="10.417208737098925"><ele>54.49999999999999</ele><time>2026-04-24T10:21:35Z</time></trkpt><trkpt lat="42.7743947594252" lon="10.417301077245043"><ele>54.0</ele><time>2026-04-24T10:21:38Z</time></trkpt><trkpt lat="42.77444433943274" lon="10.417379515866383"><ele>53.5</ele><time>2026-04-24T10:21:41Z</time></trkpt><trkpt lat="42.774495286147896" lon="10.417456904308597"><ele>53.0</ele><time>2026-04-24T10:21:44Z</time></trkpt><trkpt lat="42.77455740032637" lon="10.417507789968484"><ele>52.49999999999999</ele><time>2026-04-24T10:21:48Z</time></trkpt><trkpt lat="42.774610860442095" lon="10.417576824811665"><ele>52.0</ele><time>2026-04-24T10:22:56Z</time></trkpt><trkpt lat="42.77467134253297" lon="10.417618923829622"><ele>51.99999999999999</ele><time>2026-04-24T10:22:59Z</time></trkpt><trkpt lat="42.77474226588114" lon="10.417666957290482"><ele>52.0</ele><time>2026-04-24T10:23:03Z</time></trkpt><trkpt lat="42.77481463198232" lon="10.417718800274292"><ele>52.0</ele><time>2026-04-24T10:23:07Z</time></trkpt><trkpt lat="42.774876883724446" lon="10.417766566819163"><ele>52.0</ele><time>2026-04-24T10:23:23Z</time></trkpt><trkpt lat="42.774931786042316" lon="10.417812155086397"><ele>51.99999999999999</ele><time>2026-04-24T10:23:30Z</time></trkpt><trkpt lat="42.774990561095024" lon="10.417903602918901"><ele>52.0</ele><time>2026-04-24T10:23:55Z</time></trkpt><trkpt lat="42.7748646383123" lon="10.417950303524671"><ele>51.99999999999999</ele><time>2026-04-24T10:24:13Z</time></trkpt><trkpt lat="42.7748021582081" lon="10.417916097953492"><ele>52.0</ele><time>2026-04-24T10:24:19Z</time></trkpt><trkpt lat="42.7747332744338" lon="10.417885478746827"><ele>52.0</ele><time>2026-04-24T10:24:26Z</time></trkpt><trkpt lat="42.77466377195714" lon="10.41785480902981"><ele>52.0</ele><time>2026-04-24T10:24:33Z</time></trkpt><trkpt lat="42.774595578559875" lon="10.417845887749623"><ele>51.99999999999999</ele><time>2026-04-24T10:24:40Z</time></trkpt><trkpt lat="42.77451309153879" lon="10.417909210736738"><ele>52.0</ele><time>2026-04-24T10:24:45Z</time></trkpt><trkpt lat="42.774606492015025" lon="10.417852334445447"><ele>51.99999999999999</ele><time>2026-04-24T10:25:28Z</time></trkpt><trkpt lat="42.7746953527531" lon="10.417874073060556"><ele>52.0</ele><time>2026-04-24T10:25:31Z</time></trkpt><trkpt lat="42.774760501181554" lon="10.417912267165946"><ele>52.0</ele><time>2026-04-24T10:25:33Z</time></trkpt><trkpt lat="42.77482805083731" lon="10.417941076682219"><ele>52.0</ele><time>2026-04-24T10:25:35Z</time></trkpt><trkpt lat="42.774890010287955" lon="10.417962419984708"><ele>51.99999999999999</ele><time>2026-04-24T10:25:37Z</time></trkpt><trkpt lat="42.774902434948615" lon="10.418120043648791"><ele>52.0</ele><time>2026-04-24T10:25:39Z</time></trkpt><trkpt lat="42.77497941805096" lon="10.418132179029762"><ele>52.0</ele><time>2026-04-24T10:25:43Z</time></trkpt><trkpt lat="42.77494626677861" lon="10.41791485183535"><ele>52.0</ele><time>2026-04-24T10:25:47Z</time></trkpt><trkpt lat="42.77488204687664" lon="10.417921394831396"><ele>52.0</ele><time>2026-04-24T10:25:49Z</time></trkpt><trkpt lat="42.77481184195114" lon="10.417903912602952"><ele>52.0</ele><time>2026-04-24T10:25:51Z</time></trkpt><trkpt lat="42.774733494446416" lon="10.41786846536566"><ele>52.0</ele><time>2026-04-24T10:25:53Z</time></trkpt><trkpt lat="42.77467032941248" lon="10.417830509271223"><ele>51.99999999999999</ele><time>2026-04-24T10:25:57Z</time></trkpt><trkpt lat="42.774733712238145" lon="10.417868595241021"><ele>52.0</ele><time>2026-04-24T10:26:20Z</time></trkpt><trkpt lat="42.77480884085668" lon="10.417902807766563"><ele>52.0</ele><time>2026-04-24T10:26:23Z</time></trkpt><trkpt lat="42.77487226037754" lon="10.417918031731165"><ele>52.0</ele><time>2026-04-24T10:26:26Z</time></trkpt><trkpt lat="42.77496628540625" lon="10.417884889592422"><ele>51.99999999999999</ele><time>2026-04-24T10:26:35Z</time></trkpt><trkpt lat="42.774920933854645" lon="10.417958668469826"><ele>52.0</ele><time>2026-04-24T10:26:41Z</time></trkpt><trkpt lat="42.77485137923658" lon="10.417952990295161"><ele>52.0</ele><time>2026-04-24T10:26:46Z</time></trkpt><trkpt lat="42.774786913798984" lon="10.417918517861315"><ele>52.0</ele><time>2026-04-24T10:26:49Z</time></trkpt><trkpt lat="42.77470590774801" lon="10.417877899602043"><ele>52.0</ele><time>2026-04-24T10:26:52Z</time></trkpt><trkpt lat="42.77464167271798" lon="10.41784844664346"><ele>52.0</ele><time>2026-04-24T10:26:54Z</time></trkpt><trkpt lat="42.77457147839929" lon="10.41781291365351"><ele>52.0</ele><time>2026-04-24T10:26:57Z</time></trkpt><trkpt lat="42.77450076387797" lon="10.417842508576873"><ele>52.0</ele><time>2026-04-24T10:27:02Z</time></trkpt><trkpt lat="42.77457312969997" lon="10.417831333160745"><ele>52.0</ele><time>2026-04-24T10:28:21Z</time></trkpt><trkpt lat="42.77463327998853" lon="10.41780208541358"><ele>48.2</ele><time>2026-04-24T10:28:30Z</time></trkpt><trkpt lat="42.77477563615781" lon="10.418012229562907"><ele>44.400000000000006</ele><time>2026-04-24T10:28:43Z</time></trkpt><trkpt lat="42.7748419471569" lon="10.418054615322976"><ele>40.599999999999994</ele><time>2026-04-24T10:28:50Z</time></trkpt><trkpt lat="42.7749073401766" lon="10.418089521336453"><ele>36.8</ele><time>2026-04-24T10:29:29Z</time></trkpt><trkpt lat="42.774969339852085" lon="10.418109278303495"><ele>33.0</ele><time>2026-04-24T10:29:36Z</time></trkpt><trkpt lat="42.77503345314749" lon="10.418119049015283"><ele>33.0</ele><time>2026-04-24T10:29:42Z</time></trkpt><trkpt lat="42.775096013854025" lon="10.418144444272656"><ele>33.0</ele><time>2026-04-24T10:29:47Z</time></trkpt><trkpt lat="42.775105790801646" lon="10.418236737472151"><ele>33.0</ele><time>2026-04-24T10:29:55Z</time></trkpt><trkpt lat="42.77505069994845" lon="10.418283928503755"><ele>33.0</ele><time>2026-04-24T10:30:01Z</time></trkpt><trkpt lat="42.77501086924429" lon="10.418353141023477"><ele>33.0</ele><time>2026-04-24T10:30:07Z</time></trkpt><trkpt lat="42.77503534130245" lon="10.418434673474236"><ele>33.0</ele><time>2026-04-24T10:30:35Z</time></trkpt><trkpt lat="42.77509718111771" lon="10.418490637665471"><ele>33.0</ele><time>2026-04-24T10:30:42Z</time></trkpt><trkpt lat="42.77516154755556" lon="10.418543330559405"><ele>33.0</ele><time>2026-04-24T10:30:47Z</time></trkpt><trkpt lat="42.7752025132704" lon="10.418629646787233"><ele>33.0</ele><time>2026-04-24T10:30:55Z</time></trkpt><trkpt lat="42.77515941188269" lon="10.418699705178346"><ele>33.0</ele><time>2026-04-24T10:31:00Z</time></trkpt><trkpt lat="42.775163007089944" lon="10.41879567255963"><ele>33.0</ele><time>2026-04-24T10:31:22Z</time></trkpt><trkpt lat="42.77515919277716" lon="10.418894588749943"><ele>33.0</ele><time>2026-04-24T10:31:29Z</time></trkpt><trkpt lat="42.77517627508557" lon="10.418988242549279"><ele>33.0</ele><time>2026-04-24T10:31:36Z</time></trkpt><trkpt lat="42.77520571199928" lon="10.41907919129902"><ele>33.0</ele><time>2026-04-24T10:31:44Z</time></trkpt><trkpt lat="42.77525020822009" lon="10.419143151646855"><ele>32.0</ele><time>2026-04-24T10:31:51Z</time></trkpt><trkpt lat="42.77530257674493" lon="10.419201840922428"><ele>31.0</ele><time>2026-04-24T10:31:57Z</time></trkpt><trkpt lat="42.775348417839105" lon="10.419269736025544"><ele>30.0</ele><time>2026-04-24T10:32:03Z</time></trkpt><trkpt lat="42.7753828181978" lon="10.419362691975552"><ele>29.0</ele><time>2026-04-24T10:32:11Z</time></trkpt><trkpt lat="42.77540677017336" lon="10.419449833570814"><ele>28.0</ele><time>2026-04-24T10:32:19Z</time></trkpt><trkpt lat="42.77543173432226" lon="10.419532550108144"><ele>27.0</ele><time>2026-04-24T10:32:25Z</time></trkpt><trkpt lat="42.77545316882721" lon="10.419636116933548"><ele>26.0</ele><time>2026-04-24T10:32:38Z</time></trkpt><trkpt lat="42.77545500065223" lon="10.419740016609763"><ele>25.71428571428571</ele><time>2026-04-24T10:32:45Z</time></trkpt><trkpt lat="42.77545227568046" lon="10.419838352026256"><ele>25.42857142857143</ele><time>2026-04-24T10:32:53Z</time></trkpt><trkpt lat="42.775430534368596" lon="10.419929789763685"><ele>25.142857142857142</ele><time>2026-04-24T10:33:00Z</time></trkpt><trkpt lat="42.775397777346846" lon="10.420005793271182"><ele>24.857142857142854</ele><time>2026-04-24T10:33:06Z</time></trkpt><trkpt lat="42.77539105006369" lon="10.420110892932383"><ele>24.57142857142857</ele><time>2026-04-24T10:33:18Z</time></trkpt><trkpt lat="42.775417632543615" lon="10.420190008971192"><ele>24.285714285714285</ele><time>2026-04-24T10:33:35Z</time></trkpt><trkpt lat="42.77540069337636" lon="10.420286567242131"><ele>24.0</ele><time>2026-04-24T10:33:42Z</time></trkpt><trkpt lat="42.77537136837272" lon="10.420371682251822"><ele>23.999999999999996</ele><time>2026-04-24T10:33:50Z</time></trkpt><trkpt lat="42.77536111586939" lon="10.420465740608787"><ele>24.0</ele><time>2026-04-24T10:33:56Z</time></trkpt><trkpt lat="42.77539829274552" lon="10.420547318724402"><ele>24.0</ele><time>2026-04-24T10:34:03Z</time></trkpt><trkpt lat="42.775440231741264" lon="10.420617280370884"><ele>24.0</ele><time>2026-04-24T10:34:10Z</time></trkpt><trkpt lat="42.77544677199004" lon="10.420709101751807"><ele>24.0</ele><time>2026-04-24T10:34:16Z</time></trkpt><trkpt lat="42.775407209624895" lon="10.420780660674604"><ele>23.999999999999996</ele><time>2026-04-24T10:34:23Z</time></trkpt><trkpt lat="42.77535111380075" lon="10.42082967053473"><ele>24.0</ele><time>2026-04-24T10:34:30Z</time></trkpt><trkpt lat="42.77529043232103" lon="10.420860008719487"><ele>23.71428571428571</ele><time>2026-04-24T10:34:37Z</time></trkpt><trkpt lat="42.77522290935954" lon="10.420879329555921"><ele>23.428571428571427</ele><time>2026-04-24T10:34:45Z</time></trkpt><trkpt lat="42.775161492799064" lon="10.420931278753992"><ele>23.142857142857142</ele><time>2026-04-24T10:34:54Z</time></trkpt><trkpt lat="42.77510409941801" lon="10.420970265591171"><ele>22.857142857142854</ele><time>2026-04-24T10:35:00Z</time></trkpt><trkpt lat="42.775036391305534" lon="10.420986640342502"><ele>22.57142857142857</ele><time>2026-04-24T10:35:07Z</time></trkpt><trkpt lat="42.774973549190676" lon="10.420950029976922"><ele>22.285714285714285</ele><time>2026-04-24T10:35:25Z</time></trkpt><trkpt lat="42.774929654471734" lon="10.420882733624545"><ele>22.0</ele><time>2026-04-24T10:35:32Z</time></trkpt><trkpt lat="42.77487719367175" lon="10.420831628080608"><ele>21.0</ele><time>2026-04-24T10:35:40Z</time></trkpt><trkpt lat="42.774810952259344" lon="10.420808584494347"><ele>20.0</ele><time>2026-04-24T10:35:47Z</time></trkpt><trkpt lat="42.77474008396524" lon="10.420818786720329"><ele>19.0</ele><time>2026-04-24T10:35:55Z</time></trkpt><trkpt lat="42.774671543087884" lon="10.42085861551934"><ele>18.0</ele><time>2026-04-24T10:36:57Z</time></trkpt><trkpt lat="42.77461074139297" lon="10.42089264952247"><ele>17.0</ele><time>2026-04-24T10:37:04Z</time></trkpt><trkpt lat="42.7745483768537" lon="10.420916929702972"><ele>16.0</ele><time>2026-04-24T10:37:11Z</time></trkpt><trkpt lat="42.77448351212727" lon="10.420936380351666"><ele>15.0</ele><time>2026-04-24T10:37:17Z</time></trkpt><trkpt lat="42.77441660243589" lon="10.420964506764259"><ele>14.142857142857144</ele><time>2026-04-24T10:37:24Z</time></trkpt><trkpt lat="42.774348991343295" lon="10.420995994429328"><ele>13.285714285714285</ele><time>2026-04-24T10:37:30Z</time></trkpt><trkpt lat="42.774287106514954" lon="10.4210159165485"><ele>12.428571428571429</ele><time>2026-04-24T10:37:36Z</time></trkpt><trkpt lat="42.774215092808696" lon="10.421017552591048"><ele>11.571428571428573</ele><time>2026-04-24T10:37:43Z</time></trkpt><trkpt lat="42.774150183566206" lon="10.421003829374406"><ele>10.714285714285715</ele><time>2026-04-24T10:37:49Z</time></trkpt><trkpt lat="42.77408668019374" lon="10.421011598061686"><ele>9.857142857142858</ele><time>2026-04-24T10:37:55Z</time></trkpt><trkpt lat="42.7740250258308" lon="10.42104772002083"><ele>9.0</ele><time>2026-04-24T10:38:02Z</time></trkpt><trkpt lat="42.77396039420259" lon="10.421054367408974"><ele>9.000000000000002</ele><time>2026-04-24T10:38:09Z</time></trkpt><trkpt lat="42.773905651020044" lon="10.421004365971388"><ele>9.0</ele><time>2026-04-24T10:38:16Z</time></trkpt><trkpt lat="42.77385500064064" lon="10.420942073312911"><ele>9.0</ele><time>2026-04-24T10:38:23Z</time></trkpt><trkpt lat="42.773804589303154" lon="10.420881573652242"><ele>9.0</ele><time>2026-04-24T10:38:29Z</time></trkpt><trkpt lat="42.773754180285295" lon="10.420812947285366"><ele>9.0</ele><time>2026-04-24T10:38:36Z</time></trkpt><trkpt lat="42.77374629280078" lon="10.42072107285137"><ele>9.000000000000002</ele><time>2026-04-24T10:39:06Z</time></trkpt><trkpt lat="42.77380451068753" lon="10.4206796090452"><ele>9.0</ele><time>2026-04-24T10:39:13Z</time></trkpt><trkpt lat="42.77385230541601" lon="10.42061907000764"><ele>9.000000000000002</ele><time>2026-04-24T10:39:19Z</time></trkpt><trkpt lat="42.773886036668415" lon="10.420532562615422"><ele>9.0</ele><time>2026-04-24T10:39:27Z</time></trkpt><trkpt lat="42.773901252664636" lon="10.420444998495908"><ele>9.0</ele><time>2026-04-24T10:39:37Z</time></trkpt><trkpt lat="42.77391078984637" lon="10.42035703711346"><ele>9.0</ele><time>2026-04-24T10:39:49Z</time></trkpt><trkpt lat="42.773922950409606" lon="10.420242038468583"><ele>9.0</ele><time>2026-04-24T10:40:02Z</time></trkpt><trkpt lat="42.77397434465029" lon="10.420175497636698"><ele>9.000000000000002</ele><time>2026-04-24T10:40:10Z</time></trkpt><trkpt lat="42.77402090961492" lon="10.420097623852778"><ele>9.0</ele><time>2026-04-24T10:40:21Z</time></trkpt><trkpt lat="42.773969150446206" lon="10.420042418696985"><ele>2.0</ele><time>2026-04-24T10:44:26Z</time></trkpt></trkseg><trkseg><trkpt lat="42.77459626219067" lon="10.417852145946911"><ele>52.0</ele><time>2026-04-24T14:27:54Z</time></trkpt><trkpt lat="42.774767695993404" lon="10.417934700866985"><ele>52.0</ele><time>2026-04-24T14:28:01Z</time></trkpt><trkpt lat="42.77485335494841" lon="10.417958831997332"><ele>52.0</ele><time>2026-04-24T14:28:04Z</time></trkpt><trkpt lat="42.774917269465675" lon="10.41794452688736"><ele>52.0</ele><time>2026-04-24T14:28:07Z</time></trkpt><trkpt lat="42.77497493605082" lon="10.41788518459902"><ele>52.0</ele><time>2026-04-24T14:28:10Z</time></trkpt><trkpt lat="42.77495665992411" lon="10.417790288350778"><ele>51.99999999999999</ele><time>2026-04-24T14:28:13Z</time></trkpt><trkpt lat="42.774892242797144" lon="10.4177278358653"><ele>52.0</ele><time>2026-04-24T14:28:16Z</time></trkpt><trkpt lat="42.774803055215244" lon="10.41768433159293"><ele>52.0</ele><time>2026-04-24T14:28:19Z</time></trkpt><trkpt lat="42.77472150243127" lon="10.417637793160177"><ele>52.0</ele><time>2026-04-24T14:28:22Z</time></trkpt><trkpt lat="42.77464904568307" lon="10.417577370522975"><ele>51.99999999999999</ele><time>2026-04-24T14:28:25Z</time></trkpt><trkpt lat="42.774569597729275" lon="10.417524754558132"><ele>52.0</ele><time>2026-04-24T14:28:28Z</time></trkpt><trkpt lat="42.77452572152083" lon="10.417460840488951"><ele>52.0</ele><time>2026-04-24T14:28:30Z</time></trkpt><trkpt lat="42.7744866338559" lon="10.417390828433172"><ele>52.0</ele><time>2026-04-24T14:28:32Z</time></trkpt><trkpt lat="42.77444139340842" lon="10.417312158120138"><ele>52.0</ele><time>2026-04-24T14:28:34Z</time></trkpt><trkpt lat="42.774395182460026" lon="10.41722950926369"><ele>52.0</ele><time>2026-04-24T14:28:37Z</time></trkpt><trkpt lat="42.7743510519147" lon="10.417167209130252"><ele>52.0</ele><time>2026-04-24T14:28:39Z</time></trkpt><trkpt lat="42.77429036555135" lon="10.417074129725279"><ele>52.0</ele><time>2026-04-24T14:28:42Z</time></trkpt><trkpt lat="42.77425053135217" lon="10.41700304633962"><ele>52.0</ele><time>2026-04-24T14:28:44Z</time></trkpt><trkpt lat="42.774178554406845" lon="10.416917273694466"><ele>52.49999999999999</ele><time>2026-04-24T14:28:48Z</time></trkpt><trkpt lat="42.77418311550239" lon="10.416791420433507"><ele>53.0</ele><time>2026-04-24T14:28:51Z</time></trkpt><trkpt lat="42.77424550999697" lon="10.416765864435039"><ele>53.5</ele><time>2026-04-24T14:28:53Z</time></trkpt><trkpt lat="42.77432722536754" lon="10.416764878963281"><ele>54.0</ele><time>2026-04-24T14:28:55Z</time></trkpt><trkpt lat="42.77440071860984" lon="10.416789468709467"><ele>54.49999999999999</ele><time>2026-04-24T14:28:58Z</time></trkpt><trkpt lat="42.774479197578934" lon="10.416797188292064"><ele>55.0</ele><time>2026-04-24T14:29:00Z</time></trkpt><trkpt lat="42.774542174815394" lon="10.416793356730626"><ele>56.33333333333333</ele><time>2026-04-24T14:29:02Z</time></trkpt><trkpt lat="42.77460571480377" lon="10.416801858495143"><ele>57.666666666666664</ele><time>2026-04-24T14:29:04Z</time></trkpt><trkpt lat="42.77469775398033" lon="10.416805402817115"><ele>59.0</ele><time>2026-04-24T14:29:07Z</time></trkpt><trkpt lat="42.77479243554644" lon="10.416801815654924"><ele>60.33333333333333</ele><time>2026-04-24T14:29:10Z</time></trkpt><trkpt lat="42.77488410094267" lon="10.416799939692513"><ele>61.666666666666664</ele><time>2026-04-24T14:29:13Z</time></trkpt><trkpt lat="42.77497184173623" lon="10.416795543845597"><ele>63.0</ele><time>2026-04-24T14:29:16Z</time></trkpt><trkpt lat="42.775035916399" lon="10.416799587368958"><ele>63.0</ele><time>2026-04-24T14:29:18Z</time></trkpt><trkpt lat="42.775104740142226" lon="10.416796779654835"><ele>63.0</ele><time>2026-04-24T14:29:20Z</time></trkpt><trkpt lat="42.77517742820667" lon="10.416772337498184"><ele>63.0</ele><time>2026-04-24T14:29:22Z</time></trkpt><trkpt lat="42.775266422146714" lon="10.416757038732689"><ele>63.0</ele><time>2026-04-24T14:29:25Z</time></trkpt><trkpt lat="42.7753581869551" lon="10.416743947965868"><ele>63.0</ele><time>2026-04-24T14:29:28Z</time></trkpt><trkpt lat="42.77544415094057" lon="10.416732114414181"><ele>63.0</ele><time>2026-04-24T14:29:31Z</time></trkpt><trkpt lat="42.77552172246529" lon="10.41666938863805"><ele>63.0</ele><time>2026-04-24T14:29:34Z</time></trkpt><trkpt lat="42.7755849782974" lon="10.416642663252123"><ele>63.0</ele><time>2026-04-24T14:29:36Z</time></trkpt><trkpt lat="42.775648212635886" lon="10.416636609709155"><ele>63.0</ele><time>2026-04-24T14:29:38Z</time></trkpt><trkpt lat="42.77574109516506" lon="10.416647360900381"><ele>63.0</ele><time>2026-04-24T14:29:41Z</time></trkpt><trkpt lat="42.77582486949272" lon="10.416668361741776"><ele>63.0</ele><time>2026-04-24T14:29:44Z</time></trkpt><trkpt lat="42.7759100904023" lon="10.416671682772014"><ele>63.0</ele><time>2026-04-24T14:29:47Z</time></trkpt><trkpt lat="42.77600104711863" lon="10.416656741848335"><ele>63.0</ele><time>2026-04-24T14:30:47Z</time></trkpt><trkpt lat="42.77607747387987" lon="10.416627002138007"><ele>63.0</ele><time>2026-04-24T14:30:50Z</time></trkpt><trkpt lat="42.77614404046438" lon="10.416594296944895"><ele>63.0</ele><time>2026-04-24T14:30:53Z</time></trkpt><trkpt lat="42.77620390186685" lon="10.416543816102317"><ele>63.0</ele><time>2026-04-24T14:30:56Z</time></trkpt><trkpt lat="42.77626754397855" lon="10.416477845368945"><ele>63.0</ele><time>2026-04-24T14:30:59Z</time></trkpt><trkpt lat="42.776352101150394" lon="10.41641737870708"><ele>63.0</ele><time>2026-04-24T14:31:02Z</time></trkpt><trkpt lat="42.77641874616558" lon="10.416331554553352"><ele>63.5</ele><time>2026-04-24T14:31:05Z</time></trkpt><trkpt lat="42.776480425086035" lon="10.416256171992167"><ele>64.0</ele><time>2026-04-24T14:31:08Z</time></trkpt><trkpt lat="42.7765121496823" lon="10.416168854842596"><ele>64.5</ele><time>2026-04-24T14:31:11Z</time></trkpt><trkpt lat="42.77652124958288" lon="10.41605046253543"><ele>65.0</ele><time>2026-04-24T14:31:20Z</time></trkpt><trkpt lat="42.7764809263791" lon="10.415941691711575"><ele>65.5</ele><time>2026-04-24T14:31:22Z</time></trkpt><trkpt lat="42.77646415109577" lon="10.415816879791771"><ele>66.0</ele><time>2026-04-24T14:31:24Z</time></trkpt><trkpt lat="42.776490534453316" lon="10.415670887696743"><ele>66.0</ele><time>2026-04-24T14:31:26Z</time></trkpt><trkpt lat="42.77654217104442" lon="10.415530727314222"><ele>66.0</ele><time>2026-04-24T14:31:28Z</time></trkpt><trkpt lat="42.77657994672884" lon="10.415460974246406"><ele>66.0</ele><time>2026-04-24T14:31:29Z</time></trkpt><trkpt lat="42.77666611608612" lon="10.415335543497847"><ele>66.0</ele><time>2026-04-24T14:31:31Z</time></trkpt><trkpt lat="42.77671609462414" lon="10.41527193008244"><ele>66.0</ele><time>2026-04-24T14:31:32Z</time></trkpt><trkpt lat="42.776771352579516" lon="10.415207234655183"><ele>66.0</ele><time>2026-04-24T14:31:33Z</time></trkpt><trkpt lat="42.77683050035061" lon="10.41513703309701"><ele>66.5</ele><time>2026-04-24T14:31:34Z</time></trkpt><trkpt lat="42.77688955695751" lon="10.415062179400822"><ele>67.0</ele><time>2026-04-24T14:31:35Z</time></trkpt><trkpt lat="42.77694478278613" lon="10.414994079789395"><ele>67.5</ele><time>2026-04-24T14:31:36Z</time></trkpt><trkpt lat="42.776995934440585" lon="10.414924398283329"><ele>68.0</ele><time>2026-04-24T14:31:37Z</time></trkpt><trkpt lat="42.77705211227749" lon="10.414857746874787"><ele>68.5</ele><time>2026-04-24T14:31:38Z</time></trkpt><trkpt lat="42.777112263425636" lon="10.414788351125933"><ele>69.0</ele><time>2026-04-24T14:31:39Z</time></trkpt><trkpt lat="42.77717837148394" lon="10.414712674717606"><ele>65.4</ele><time>2026-04-24T14:31:40Z</time></trkpt><trkpt lat="42.777253531343646" lon="10.414623830600126"><ele>61.800000000000004</ele><time>2026-04-24T14:31:41Z</time></trkpt><trkpt lat="42.77732977618912" lon="10.41454078169913"><ele>58.2</ele><time>2026-04-24T14:31:42Z</time></trkpt><trkpt lat="42.777397011076445" lon="10.414458532409434"><ele>54.599999999999994</ele><time>2026-04-24T14:31:43Z</time></trkpt><trkpt lat="42.77746396509926" lon="10.414386591766938"><ele>51.0</ele><time>2026-04-24T14:31:44Z</time></trkpt><trkpt lat="42.77752731697186" lon="10.414317616825537"><ele>51.0</ele><time>2026-04-24T14:31:45Z</time></trkpt><trkpt lat="42.77758519279013" lon="10.414244155550865"><ele>51.0</ele><time>2026-04-24T14:31:46Z</time></trkpt><trkpt lat="42.777640050647996" lon="10.414176156479407"><ele>51.0</ele><time>2026-04-24T14:31:47Z</time></trkpt><trkpt lat="42.77769404965457" lon="10.414107521410186"><ele>51.0</ele><time>2026-04-24T14:31:48Z</time></trkpt><trkpt lat="42.77774597973727" lon="10.41404182071168"><ele>51.0</ele><time>2026-04-24T14:31:49Z</time></trkpt><trkpt lat="42.777801584012224" lon="10.41396512439754"><ele>51.0</ele><time>2026-04-24T14:31:50Z</time></trkpt><trkpt lat="42.77785818235568" lon="10.413879939175782"><ele>50.85714285714286</ele><time>2026-04-24T14:31:51Z</time></trkpt><trkpt lat="42.77791026657028" lon="10.413799746350367"><ele>50.714285714285715</ele><time>2026-04-24T14:31:52Z</time></trkpt><trkpt lat="42.77796099363622" lon="10.413724024069849"><ele>50.57142857142857</ele><time>2026-04-24T14:31:53Z</time></trkpt><trkpt lat="42.77800998320226" lon="10.413647659817887"><ele>50.42857142857143</ele><time>2026-04-24T14:31:54Z</time></trkpt><trkpt lat="42.778060764755814" lon="10.413575632474304"><ele>50.285714285714285</ele><time>2026-04-24T14:31:55Z</time></trkpt><trkpt lat="42.7781118820856" lon="10.413507611769557"><ele>50.142857142857146</ele><time>2026-04-24T14:31:56Z</time></trkpt><trkpt lat="42.77816241169182" lon="10.413436541387682"><ele>50.0</ele><time>2026-04-24T14:31:57Z</time></trkpt><trkpt lat="42.77821341368619" lon="10.413360675783137"><ele>50.00000000000001</ele><time>2026-04-24T14:31:58Z</time></trkpt><trkpt lat="42.77826914069306" lon="10.413280717292958"><ele>50.0</ele><time>2026-04-24T14:31:59Z</time></trkpt><trkpt lat="42.778326399586774" lon="10.413199021260304"><ele>50.0</ele><time>2026-04-24T14:32:00Z</time></trkpt><trkpt lat="42.7783898870101" lon="10.413120524571097"><ele>50.0</ele><time>2026-04-24T14:32:01Z</time></trkpt><trkpt lat="42.778464026016096" lon="10.413045604247968"><ele>50.00000000000001</ele><time>2026-04-24T14:32:02Z</time></trkpt><trkpt lat="42.77854965135287" lon="10.412971419865567"><ele>50.0</ele><time>2026-04-24T14:32:03Z</time></trkpt><trkpt lat="42.77863138984862" lon="10.412895293677726"><ele>48.4</ele><time>2026-04-24T14:32:04Z</time></trkpt><trkpt lat="42.77871117047725" lon="10.412822414856516"><ele>46.8</ele><time>2026-04-24T14:32:05Z</time></trkpt><trkpt lat="42.77878882285902" lon="10.412747945684972"><ele>45.2</ele><time>2026-04-24T14:32:06Z</time></trkpt><trkpt lat="42.77886649678042" lon="10.412677434769147"><ele>43.6</ele><time>2026-04-24T14:32:07Z</time></trkpt><trkpt lat="42.77894144098844" lon="10.412604869292268"><ele>42.0</ele><time>2026-04-24T14:32:08Z</time></trkpt><trkpt lat="42.779015235318305" lon="10.412529003783472"><ele>42.0</ele><time>2026-04-24T14:32:09Z</time></trkpt><trkpt lat="42.779088037504124" lon="10.412457781506069"><ele>42.0</ele><time>2026-04-24T14:32:10Z</time></trkpt><trkpt lat="42.77915643979544" lon="10.41239116674056"><ele>42.0</ele><time>2026-04-24T14:32:11Z</time></trkpt><trkpt lat="42.779223819886326" lon="10.412329457574378"><ele>42.0</ele><time>2026-04-24T14:32:12Z</time></trkpt><trkpt lat="42.77929719766661" lon="10.412287544146842"><ele>42.0</ele><time>2026-04-24T14:32:13Z</time></trkpt><trkpt lat="42.779374976289446" lon="10.412266943847834"><ele>42.0</ele><time>2026-04-24T14:32:14Z</time></trkpt><trkpt lat="42.779448340760986" lon="10.41225157619622"><ele>43.666666666666664</ele><time>2026-04-24T14:32:15Z</time></trkpt><trkpt lat="42.77951511364849" lon="10.412235978913191"><ele>45.33333333333333</ele><time>2026-04-24T14:32:16Z</time></trkpt><trkpt lat="42.77960468888569" lon="10.412187366309256"><ele>47.0</ele><time>2026-04-24T14:32:18Z</time></trkpt><trkpt lat="42.77963481546339" lon="10.412078618891117"><ele>48.666666666666664</ele><time>2026-04-24T14:32:20Z</time></trkpt><trkpt lat="42.77958018278553" lon="10.411989498822452"><ele>50.33333333333333</ele><time>2026-04-24T14:32:22Z</time></trkpt><trkpt lat="42.779517110898674" lon="10.41196962128663"><ele>52.0</ele><time>2026-04-24T14:32:23Z</time></trkpt><trkpt lat="42.77944112904404" lon="10.411969403225408"><ele>48.666666666666664</ele><time>2026-04-24T14:32:24Z</time></trkpt><trkpt lat="42.77936555410176" lon="10.411984598800865"><ele>45.33333333333333</ele><time>2026-04-24T14:32:25Z</time></trkpt><trkpt lat="42.77928664589807" lon="10.412005929375965"><ele>42.0</ele><time>2026-04-24T14:32:26Z</time></trkpt><trkpt lat="42.779211700441955" lon="10.412019033217657"><ele>38.666666666666664</ele><time>2026-04-24T14:32:27Z</time></trkpt><trkpt lat="42.779135442183026" lon="10.412028099432323"><ele>35.33333333333333</ele><time>2026-04-24T14:32:28Z</time></trkpt><trkpt lat="42.779061228087805" lon="10.412048197467302"><ele>32.0</ele><time>2026-04-24T14:32:29Z</time></trkpt><trkpt lat="42.77898823735502" lon="10.412073396085235"><ele>31.857142857142854</ele><time>2026-04-24T14:32:30Z</time></trkpt><trkpt lat="42.77891524853824" lon="10.412101478703546"><ele>31.71428571428571</ele><time>2026-04-24T14:32:31Z</time></trkpt><trkpt lat="42.77884300199052" lon="10.41212845702661"><ele>31.57142857142857</ele><time>2026-04-24T14:32:32Z</time></trkpt><trkpt lat="42.77877500225315" lon="10.412149913335282"><ele>31.42857142857143</ele><time>2026-04-24T14:32:33Z</time></trkpt><trkpt lat="42.7787016933942" lon="10.412181726930479"><ele>31.28571428571429</ele><time>2026-04-24T14:32:34Z</time></trkpt><trkpt lat="42.77863360454889" lon="10.412225599716372"><ele>31.142857142857146</ele><time>2026-04-24T14:32:35Z</time></trkpt><trkpt lat="42.77857044969242" lon="10.41227382700552"><ele>31.0</ele><time>2026-04-24T14:32:36Z</time></trkpt><trkpt lat="42.778480251856216" lon="10.412353823379823"><ele>31.000000000000004</ele><time>2026-04-24T14:32:38Z</time></trkpt><trkpt lat="42.77840513969747" lon="10.412356403629271"><ele>31.0</ele><time>2026-04-24T14:32:40Z</time></trkpt><trkpt lat="42.778350960593585" lon="10.412246082434695"><ele>31.0</ele><time>2026-04-24T14:32:42Z</time></trkpt><trkpt lat="42.77830135725092" lon="10.412095850345928"><ele>31.0</ele><time>2026-04-24T14:32:44Z</time></trkpt><trkpt lat="42.778268342226916" lon="10.412008471919808"><ele>31.000000000000004</ele><time>2026-04-24T14:32:45Z</time></trkpt><trkpt lat="42.77823268910073" lon="10.41191953617562"><ele>31.0</ele><time>2026-04-24T14:32:46Z</time></trkpt><trkpt lat="42.77819593330926" lon="10.411825255755696"><ele>30.500000000000004</ele><time>2026-04-24T14:32:47Z</time></trkpt><trkpt lat="42.778155550093985" lon="10.411720449648996"><ele>30.0</ele><time>2026-04-24T14:32:48Z</time></trkpt><trkpt lat="42.77811404761313" lon="10.411611412057683"><ele>29.5</ele><time>2026-04-24T14:32:49Z</time></trkpt><trkpt lat="42.77807585284102" lon="10.411505435314579"><ele>29.0</ele><time>2026-04-24T14:32:50Z</time></trkpt><trkpt lat="42.778042212117455" lon="10.41141813474707"><ele>28.500000000000004</ele><time>2026-04-24T14:32:51Z</time></trkpt><trkpt lat="42.77799525232577" lon="10.41130458964017"><ele>28.0</ele><time>2026-04-24T14:32:53Z</time></trkpt><trkpt lat="42.77792030537546" lon="10.411272847337589"><ele>28.0</ele><time>2026-04-24T14:32:55Z</time></trkpt><trkpt lat="42.777797521564736" lon="10.411320503629184"><ele>27.999999999999996</ele><time>2026-04-24T14:32:57Z</time></trkpt><trkpt lat="42.77772546470385" lon="10.411362718159694"><ele>27.999999999999996</ele><time>2026-04-24T14:32:58Z</time></trkpt><trkpt lat="42.777660747122255" lon="10.411396589345326"><ele>28.0</ele><time>2026-04-24T14:32:59Z</time></trkpt><trkpt lat="42.777548788304124" lon="10.411435960412211"><ele>28.0</ele><time>2026-04-24T14:33:01Z</time></trkpt><trkpt lat="42.777449696223826" lon="10.41149430265364"><ele>28.500000000000004</ele><time>2026-04-24T14:33:03Z</time></trkpt><trkpt lat="42.77738743103763" lon="10.411519146227482"><ele>29.0</ele><time>2026-04-24T14:33:04Z</time></trkpt><trkpt lat="42.77728487850874" lon="10.411567727937328"><ele>29.5</ele><time>2026-04-24T14:33:06Z</time></trkpt><trkpt lat="42.7771929687017" lon="10.411593214481782"><ele>30.0</ele><time>2026-04-24T14:33:08Z</time></trkpt><trkpt lat="42.77712056607608" lon="10.411543576177733"><ele>30.500000000000004</ele><time>2026-04-24T14:33:11Z</time></trkpt><trkpt lat="42.77708124795065" lon="10.411428056607344"><ele>31.0</ele><time>2026-04-24T14:33:13Z</time></trkpt><trkpt lat="42.77704449854148" lon="10.411273064742506"><ele>31.0</ele><time>2026-04-24T14:33:15Z</time></trkpt><trkpt lat="42.77701329248933" lon="10.411193367001276"><ele>31.000000000000004</ele><time>2026-04-24T14:33:16Z</time></trkpt><trkpt lat="42.776977707185964" lon="10.411112953816021"><ele>31.0</ele><time>2026-04-24T14:33:17Z</time></trkpt><trkpt lat="42.776941653765" lon="10.411030756316181"><ele>31.0</ele><time>2026-04-24T14:33:18Z</time></trkpt><trkpt lat="42.7769049924353" lon="10.410950317368078"><ele>31.000000000000004</ele><time>2026-04-24T14:33:19Z</time></trkpt><trkpt lat="42.77686969708132" lon="10.4108684302924"><ele>31.0</ele><time>2026-04-24T14:33:20Z</time></trkpt><trkpt lat="42.776835329551716" lon="10.410785524676852"><ele>31.0</ele><time>2026-04-24T14:33:21Z</time></trkpt><trkpt lat="42.776797276753335" lon="10.410707272677188"><ele>31.28571428571429</ele><time>2026-04-24T14:33:22Z</time></trkpt><trkpt lat="42.776758784500664" lon="10.4106230868787"><ele>31.571428571428577</ele><time>2026-04-24T14:33:23Z</time></trkpt><trkpt lat="42.77672144048654" lon="10.410536028149501"><ele>31.857142857142858</ele><time>2026-04-24T14:33:24Z</time></trkpt><trkpt lat="42.776682644669286" lon="10.410448210474359"><ele>32.142857142857146</ele><time>2026-04-24T14:33:25Z</time></trkpt><trkpt lat="42.776645782471256" lon="10.410362521958966"><ele>32.42857142857143</ele><time>2026-04-24T14:33:26Z</time></trkpt><trkpt lat="42.776608969172294" lon="10.410282706356922"><ele>32.714285714285715</ele><time>2026-04-24T14:33:27Z</time></trkpt><trkpt lat="42.776575312881846" lon="10.41019982644299"><ele>33.0</ele><time>2026-04-24T14:33:28Z</time></trkpt><trkpt lat="42.77653975930184" lon="10.410118044906946"><ele>33.714285714285715</ele><time>2026-04-24T14:33:29Z</time></trkpt><trkpt lat="42.776501928003725" lon="10.410036470173418"><ele>34.42857142857143</ele><time>2026-04-24T14:33:30Z</time></trkpt><trkpt lat="42.77646077831223" lon="10.409956962477148"><ele>35.14285714285714</ele><time>2026-04-24T14:33:31Z</time></trkpt><trkpt lat="42.776430192929574" lon="10.409872952121459"><ele>35.85714285714286</ele><time>2026-04-24T14:33:32Z</time></trkpt><trkpt lat="42.77639299895384" lon="10.409786577595552"><ele>36.57142857142858</ele><time>2026-04-24T14:33:33Z</time></trkpt><trkpt lat="42.776367331018356" lon="10.409700554790183"><ele>37.285714285714285</ele><time>2026-04-24T14:33:34Z</time></trkpt><trkpt lat="42.77635122188814" lon="10.409594582634146"><ele>38.0</ele><time>2026-04-24T14:33:36Z</time></trkpt><trkpt lat="42.776329461093134" lon="10.409490367699963"><ele>38.166666666666664</ele><time>2026-04-24T14:33:40Z</time></trkpt><trkpt lat="42.776237522435814" lon="10.409405739930502"><ele>38.33333333333333</ele><time>2026-04-24T14:34:16Z</time></trkpt><trkpt lat="42.776166524381885" lon="10.409424962831437"><ele>38.5</ele><time>2026-04-24T14:34:17Z</time></trkpt><trkpt lat="42.77609292703719" lon="10.409433271020026"><ele>38.666666666666664</ele><time>2026-04-24T14:34:18Z</time></trkpt><trkpt lat="42.77600403004048" lon="10.409446474937571"><ele>38.833333333333336</ele><time>2026-04-24T14:34:19Z</time></trkpt><trkpt lat="42.77590916406751" lon="10.409459106566752"><ele>39.0</ele><time>2026-04-24T14:34:20Z</time></trkpt><trkpt lat="42.775817083205425" lon="10.409474498724716"><ele>39.0</ele><time>2026-04-24T14:34:21Z</time></trkpt><trkpt lat="42.77571193946372" lon="10.409492546591514"><ele>39.0</ele><time>2026-04-24T14:34:22Z</time></trkpt><trkpt lat="42.77560628115406" lon="10.409508106144624"><ele>39.0</ele><time>2026-04-24T14:34:23Z</time></trkpt><trkpt lat="42.775499209279445" lon="10.409525856377522"><ele>39.0</ele><time>2026-04-24T14:34:24Z</time></trkpt><trkpt lat="42.775389978567176" lon="10.409541023263845"><ele>39.0</ele><time>2026-04-24T14:34:25Z</time></trkpt><trkpt lat="42.77528672825996" lon="10.409555819950512"><ele>37.8</ele><time>2026-04-24T14:34:26Z</time></trkpt><trkpt lat="42.77518267559161" lon="10.409570932797498"><ele>36.599999999999994</ele><time>2026-04-24T14:34:27Z</time></trkpt><trkpt lat="42.77507356706588" lon="10.409590590885449"><ele>35.4</ele><time>2026-04-24T14:34:28Z</time></trkpt><trkpt lat="42.77496728509211" lon="10.409602164127199"><ele>34.199999999999996</ele><time>2026-04-24T14:34:29Z</time></trkpt><trkpt lat="42.77486031679577" lon="10.409613746113914"><ele>33.0</ele><time>2026-04-24T14:34:30Z</time></trkpt><trkpt lat="42.774765161534695" lon="10.409628766595763"><ele>33.0</ele><time>2026-04-24T14:34:31Z</time></trkpt><trkpt lat="42.77468163106955" lon="10.409632266803952"><ele>33.0</ele><time>2026-04-24T14:34:32Z</time></trkpt><trkpt lat="42.77459438439947" lon="10.409623948685132"><ele>33.0</ele><time>2026-04-24T14:34:33Z</time></trkpt><trkpt lat="42.77450836886211" lon="10.40959145554575"><ele>33.0</ele><time>2026-04-24T14:34:34Z</time></trkpt><trkpt lat="42.77442139006613" lon="10.409540444837798"><ele>33.0</ele><time>2026-04-24T14:34:35Z</time></trkpt><trkpt lat="42.77434474496859" lon="10.4094690858868"><ele>33.0</ele><time>2026-04-24T14:34:36Z</time></trkpt><trkpt lat="42.7742776826942" lon="10.409392715872041"><ele>31.0</ele><time>2026-04-24T14:34:37Z</time></trkpt><trkpt lat="42.774224296955744" lon="10.409297106565491"><ele>28.999999999999996</ele><time>2026-04-24T14:34:38Z</time></trkpt><trkpt lat="42.7741829513375" lon="10.409181742827652"><ele>27.0</ele><time>2026-04-24T14:34:39Z</time></trkpt><trkpt lat="42.77414709368981" lon="10.409060286417661"><ele>25.0</ele><time>2026-04-24T14:34:40Z</time></trkpt><trkpt lat="42.77412091373069" lon="10.40893292439417"><ele>23.0</ele><time>2026-04-24T14:34:41Z</time></trkpt><trkpt lat="42.7741098141273" lon="10.408784649969979"><ele>22.599999999999998</ele><time>2026-04-24T14:34:42Z</time></trkpt><trkpt lat="42.77410273431096" lon="10.408624269613066"><ele>22.2</ele><time>2026-04-24T14:34:43Z</time></trkpt><trkpt lat="42.77408372283271" lon="10.408486231372603"><ele>21.8</ele><time>2026-04-24T14:34:44Z</time></trkpt><trkpt lat="42.77407177767794" lon="10.40834675912634"><ele>21.4</ele><time>2026-04-24T14:34:45Z</time></trkpt><trkpt lat="42.77406124830197" lon="10.408210995562877"><ele>21.0</ele><time>2026-04-24T14:34:46Z</time></trkpt><trkpt lat="42.77405271539529" lon="10.408071451096902"><ele>21.0</ele><time>2026-04-24T14:34:47Z</time></trkpt><trkpt lat="42.7740441021114" lon="10.40793457191623"><ele>21.0</ele><time>2026-04-24T14:34:48Z</time></trkpt><trkpt lat="42.77403516719705" lon="10.40780359941478"><ele>21.0</ele><time>2026-04-24T14:34:49Z</time></trkpt><trkpt lat="42.77403246194883" lon="10.407671873013202"><ele>21.0</ele><time>2026-04-24T14:34:50Z</time></trkpt><trkpt lat="42.77403585056139" lon="10.40753961909596"><ele>21.0</ele><time>2026-04-24T14:34:51Z</time></trkpt><trkpt lat="42.77404981979951" lon="10.40740043954613"><ele>21.0</ele><time>2026-04-24T14:34:52Z</time></trkpt><trkpt lat="42.77407291167185" lon="10.407263143563545"><ele>21.0</ele><time>2026-04-24T14:34:53Z</time></trkpt><trkpt lat="42.77410690476505" lon="10.407129583321073"><ele>21.0</ele><time>2026-04-24T14:34:54Z</time></trkpt><trkpt lat="42.774145657013904" lon="10.407008295988263"><ele>21.0</ele><time>2026-04-24T14:34:55Z</time></trkpt><trkpt lat="42.77418815991579" lon="10.406892301071892"><ele>21.0</ele><time>2026-04-24T14:34:56Z</time></trkpt><trkpt lat="42.77423217746729" lon="10.406785464258453"><ele>20.333333333333332</ele><time>2026-04-24T14:34:57Z</time></trkpt><trkpt lat="42.77427637033032" lon="10.406679830108736"><ele>19.666666666666668</ele><time>2026-04-24T14:34:58Z</time></trkpt><trkpt lat="42.77431258181116" lon="10.406576450206584"><ele>19.0</ele><time>2026-04-24T14:34:59Z</time></trkpt><trkpt lat="42.77433668562207" lon="10.406474346080682"><ele>18.333333333333336</ele><time>2026-04-24T14:35:00Z</time></trkpt><trkpt lat="42.774342569373225" lon="10.40636727350705"><ele>17.666666666666668</ele><time>2026-04-24T14:35:01Z</time></trkpt><trkpt lat="42.774328255233" lon="10.406253299504966"><ele>17.0</ele><time>2026-04-24T14:35:02Z</time></trkpt><trkpt lat="42.774299167394766" lon="10.406132386282385"><ele>16.0</ele><time>2026-04-24T14:35:03Z</time></trkpt><trkpt lat="42.774259752937496" lon="10.406005159441294"><ele>15.0</ele><time>2026-04-24T14:35:04Z</time></trkpt><trkpt lat="42.77421455438212" lon="10.40587483637761"><ele>14.0</ele><time>2026-04-24T14:35:05Z</time></trkpt><trkpt lat="42.77416266670283" lon="10.405744337219591"><ele>13.0</ele><time>2026-04-24T14:35:06Z</time></trkpt><trkpt lat="42.774112592166894" lon="10.40561916620832"><ele>12.0</ele><time>2026-04-24T14:35:07Z</time></trkpt><trkpt lat="42.77406981804908" lon="10.405498167167796"><ele>12.166666666666666</ele><time>2026-04-24T14:35:08Z</time></trkpt><trkpt lat="42.7740265971068" lon="10.40538279709023"><ele>12.333333333333332</ele><time>2026-04-24T14:35:09Z</time></trkpt><trkpt lat="42.773986879323274" lon="10.405272166526506"><ele>12.5</ele><time>2026-04-24T14:35:10Z</time></trkpt><trkpt lat="42.77395032120511" lon="10.405173133194458"><ele>12.666666666666666</ele><time>2026-04-24T14:35:11Z</time></trkpt><trkpt lat="42.773918664647965" lon="10.405085107198135"><ele>12.833333333333332</ele><time>2026-04-24T14:35:12Z</time></trkpt><trkpt lat="42.77387246345452" lon="10.404953000481283"><ele>13.0</ele><time>2026-04-24T14:35:14Z</time></trkpt><trkpt lat="42.77384851552747" lon="10.404860062670481"><ele>12.999999999999998</ele><time>2026-04-24T14:35:16Z</time></trkpt><trkpt lat="42.77387254195394" lon="10.404776155678155"><ele>13.0</ele><time>2026-04-24T14:35:20Z</time></trkpt><trkpt lat="42.773820929625764" lon="10.404703940245302"><ele>13.0</ele><time>2026-04-24T14:35:27Z</time></trkpt><trkpt lat="42.77375691399893" lon="10.40466413942777"><ele>13.0</ele><time>2026-04-24T14:35:47Z</time></trkpt><trkpt lat="42.773777001570494" lon="10.404783969469745"><ele>12.999999999999998</ele><time>2026-04-24T14:36:02Z</time></trkpt><trkpt lat="42.77375663899268" lon="10.40468004523703"><ele>13.0</ele><time>2026-04-24T14:36:05Z</time></trkpt><trkpt lat="42.77370843459669" lon="10.404600282987905"><ele>12.600000000000001</ele><time>2026-04-24T14:36:57Z</time></trkpt><trkpt lat="42.773671603356775" lon="10.404453782398658"><ele>12.200000000000001</ele><time>2026-04-24T14:36:59Z</time></trkpt><trkpt lat="42.77361744648128" lon="10.404309103506845"><ele>11.8</ele><time>2026-04-24T14:37:01Z</time></trkpt><trkpt lat="42.7735841732002" lon="10.404219846586177"><ele>11.4</ele><time>2026-04-24T14:37:02Z</time></trkpt><trkpt lat="42.773542514800866" lon="10.404149665106255"><ele>11.0</ele><time>2026-04-24T14:37:03Z</time></trkpt><trkpt lat="42.77350435301861" lon="10.404051671911033"><ele>10.4</ele><time>2026-04-24T14:37:04Z</time></trkpt><trkpt lat="42.77347906749269" lon="10.40393846017068"><ele>9.8</ele><time>2026-04-24T14:37:05Z</time></trkpt><trkpt lat="42.77343866500357" lon="10.403830663211576"><ele>9.200000000000001</ele><time>2026-04-24T14:37:06Z</time></trkpt><trkpt lat="42.77338645024245" lon="10.403736422188302"><ele>8.600000000000001</ele><time>2026-04-24T14:37:07Z</time></trkpt><trkpt lat="42.773349089465306" lon="10.403623731936456"><ele>8.0</ele><time>2026-04-24T14:37:08Z</time></trkpt><trkpt lat="42.77330565247954" lon="10.403501694757042"><ele>8.0</ele><time>2026-04-24T14:37:09Z</time></trkpt><trkpt lat="42.773263676624346" lon="10.403381072531333"><ele>8.0</ele><time>2026-04-24T14:37:10Z</time></trkpt><trkpt lat="42.77321713292673" lon="10.40326048583497"><ele>8.0</ele><time>2026-04-24T14:37:11Z</time></trkpt><trkpt lat="42.77316691080448" lon="10.403136380641989"><ele>8.0</ele><time>2026-04-24T14:37:12Z</time></trkpt><trkpt lat="42.77312403091403" lon="10.403007306472322"><ele>8.0</ele><time>2026-04-24T14:37:13Z</time></trkpt><trkpt lat="42.77307240989541" lon="10.402868814711274"><ele>8.4</ele><time>2026-04-24T14:37:14Z</time></trkpt><trkpt lat="42.77302653921088" lon="10.402735100881047"><ele>8.8</ele><time>2026-04-24T14:37:15Z</time></trkpt><trkpt lat="42.772978822491744" lon="10.40260774631345"><ele>9.2</ele><time>2026-04-24T14:37:16Z</time></trkpt><trkpt lat="42.77292899913285" lon="10.402476635624197"><ele>9.6</ele><time>2026-04-24T14:37:17Z</time></trkpt><trkpt lat="42.77287540196939" lon="10.40234574808823"><ele>10.0</ele><time>2026-04-24T14:37:18Z</time></trkpt><trkpt lat="42.77282939625387" lon="10.402220866773753"><ele>11.0</ele><time>2026-04-24T14:37:19Z</time></trkpt><trkpt lat="42.77278620514737" lon="10.40209277150067"><ele>12.0</ele><time>2026-04-24T14:37:20Z</time></trkpt><trkpt lat="42.77273928222774" lon="10.401958072480813"><ele>13.0</ele><time>2026-04-24T14:37:21Z</time></trkpt><trkpt lat="42.77269168365631" lon="10.401824401184578"><ele>14.0</ele><time>2026-04-24T14:37:22Z</time></trkpt><trkpt lat="42.77264108213876" lon="10.40169232768334"><ele>15.0</ele><time>2026-04-24T14:37:23Z</time></trkpt><trkpt lat="42.77258983954984" lon="10.401562463571901"><ele>15.0</ele><time>2026-04-24T14:37:24Z</time></trkpt><trkpt lat="42.772531822270416" lon="10.401432243082345"><ele>15.0</ele><time>2026-04-24T14:37:25Z</time></trkpt><trkpt lat="42.772473653880176" lon="10.401305606337727"><ele>15.0</ele><time>2026-04-24T14:37:26Z</time></trkpt><trkpt lat="42.77241367638606" lon="10.401182422579668"><ele>15.0</ele><time>2026-04-24T14:37:27Z</time></trkpt><trkpt lat="42.77235299183417" lon="10.401058134372537"><ele>15.0</ele><time>2026-04-24T14:37:28Z</time></trkpt><trkpt lat="42.77228580620303" lon="10.40094416155064"><ele>15.2</ele><time>2026-04-24T14:37:29Z</time></trkpt><trkpt lat="42.77221107563712" lon="10.400833370727511"><ele>15.4</ele><time>2026-04-24T14:37:30Z</time></trkpt><trkpt lat="42.772138609773094" lon="10.400729484592375"><ele>15.600000000000001</ele><time>2026-04-24T14:37:31Z</time></trkpt><trkpt lat="42.772062559745585" lon="10.40062781724371"><ele>15.8</ele><time>2026-04-24T14:37:32Z</time></trkpt><trkpt lat="42.77199359217425" lon="10.40053338809915"><ele>16.0</ele><time>2026-04-24T14:37:33Z</time></trkpt><trkpt lat="42.77191836759806" lon="10.400436235837564"><ele>16.2</ele><time>2026-04-24T14:37:34Z</time></trkpt><trkpt lat="42.77184505992729" lon="10.400344185672836"><ele>16.400000000000002</ele><time>2026-04-24T14:37:35Z</time></trkpt><trkpt lat="42.77177535348026" lon="10.400251676456591"><ele>16.6</ele><time>2026-04-24T14:37:36Z</time></trkpt><trkpt lat="42.77170232821403" lon="10.400159449138755"><ele>16.8</ele><time>2026-04-24T14:37:37Z</time></trkpt><trkpt lat="42.77163757401021" lon="10.40008175605567"><ele>17.0</ele><time>2026-04-24T14:37:38Z</time></trkpt><trkpt lat="42.771576879736365" lon="10.40000569259308"><ele>17.0</ele><time>2026-04-24T14:37:39Z</time></trkpt><trkpt lat="42.771515822901094" lon="10.39992622132415"><ele>17.0</ele><time>2026-04-24T14:37:40Z</time></trkpt><trkpt lat="42.77145470598772" lon="10.399843633882565"><ele>17.0</ele><time>2026-04-24T14:37:41Z</time></trkpt><trkpt lat="42.77138933731111" lon="10.3997590923358"><ele>17.0</ele><time>2026-04-24T14:37:42Z</time></trkpt><trkpt lat="42.77131891302506" lon="10.39967676480982"><ele>17.0</ele><time>2026-04-24T14:37:43Z</time></trkpt><trkpt lat="42.77124912019567" lon="10.399584450569279"><ele>17.4</ele><time>2026-04-24T14:37:44Z</time></trkpt><trkpt lat="42.77117823797966" lon="10.399487535451922"><ele>17.799999999999997</ele><time>2026-04-24T14:37:45Z</time></trkpt><trkpt lat="42.77110132327741" lon="10.399393729574054"><ele>18.2</ele><time>2026-04-24T14:37:46Z</time></trkpt><trkpt lat="42.77102115417333" lon="10.399291423132226"><ele>18.599999999999998</ele><time>2026-04-24T14:37:47Z</time></trkpt><trkpt lat="42.77094778910156" lon="10.399196095751536"><ele>19.0</ele><time>2026-04-24T14:37:48Z</time></trkpt><trkpt lat="42.77087867302669" lon="10.399106363060012"><ele>18.5</ele><time>2026-04-24T14:37:49Z</time></trkpt><trkpt lat="42.77080756135635" lon="10.399015850749185"><ele>18.0</ele><time>2026-04-24T14:37:50Z</time></trkpt><trkpt lat="42.77073993734363" lon="10.398927431603337"><ele>17.5</ele><time>2026-04-24T14:37:51Z</time></trkpt><trkpt lat="42.770673480769304" lon="10.398840371647676"><ele>17.0</ele><time>2026-04-24T14:37:52Z</time></trkpt><trkpt lat="42.77061131302897" lon="10.398757642756085"><ele>16.5</ele><time>2026-04-24T14:37:53Z</time></trkpt><trkpt lat="42.77055517716324" lon="10.398681798491802"><ele>16.0</ele><time>2026-04-24T14:37:54Z</time></trkpt><trkpt lat="42.77050778558715" lon="10.398616171295222"><ele>15.999999999999998</ele><time>2026-04-24T14:37:55Z</time></trkpt><trkpt lat="42.77043316720365" lon="10.398509894081206"><ele>16.0</ele><time>2026-04-24T14:37:57Z</time></trkpt><trkpt lat="42.77035271385639" lon="10.398385057752844"><ele>16.0</ele><time>2026-04-24T14:37:59Z</time></trkpt><trkpt lat="42.770330659895066" lon="10.398299690942585"><ele>16.0</ele><time>2026-04-24T14:38:00Z</time></trkpt><trkpt lat="42.77028781530897" lon="10.398233008783162"><ele>15.999999999999998</ele><time>2026-04-24T14:38:01Z</time></trkpt><trkpt lat="42.77026141393735" lon="10.398139673290187"><ele>16.0</ele><time>2026-04-24T14:38:02Z</time></trkpt><trkpt lat="42.770246633015304" lon="10.398040402399134"><ele>16.166666666666664</ele><time>2026-04-24T14:38:03Z</time></trkpt><trkpt lat="42.770215817118384" lon="10.39793905136747"><ele>16.333333333333332</ele><time>2026-04-24T14:38:04Z</time></trkpt><trkpt lat="42.77018466099225" lon="10.397833557016643"><ele>16.5</ele><time>2026-04-24T14:38:05Z</time></trkpt><trkpt lat="42.770149440647124" lon="10.3977377270789"><ele>16.666666666666668</ele><time>2026-04-24T14:38:06Z</time></trkpt><trkpt lat="42.770126613537975" lon="10.397643226611487"><ele>16.833333333333336</ele><time>2026-04-24T14:38:07Z</time></trkpt><trkpt lat="42.77007983853927" lon="10.397483687635082"><ele>17.0</ele><time>2026-04-24T14:38:09Z</time></trkpt><trkpt lat="42.770033296559355" lon="10.39731027215971"><ele>16.333333333333336</ele><time>2026-04-24T14:38:11Z</time></trkpt><trkpt lat="42.7700038606092" lon="10.397214288073945"><ele>15.666666666666668</ele><time>2026-04-24T14:38:12Z</time></trkpt><trkpt lat="42.76997113501553" lon="10.397119503054126"><ele>15.0</ele><time>2026-04-24T14:38:13Z</time></trkpt><trkpt lat="42.769940457591815" lon="10.397041407562744"><ele>14.333333333333332</ele><time>2026-04-24T14:38:14Z</time></trkpt><trkpt lat="42.76988967218534" lon="10.396941078186156"><ele>13.666666666666666</ele><time>2026-04-24T14:38:16Z</time></trkpt><trkpt lat="42.7698270422623" lon="10.396856012565998"><ele>13.0</ele><time>2026-04-24T14:38:38Z</time></trkpt><trkpt lat="42.76976284900455" lon="10.396778880661788"><ele>13.0</ele><time>2026-04-24T14:38:40Z</time></trkpt><trkpt lat="42.76966936426244" lon="10.396679556206859"><ele>13.0</ele><time>2026-04-24T14:38:42Z</time></trkpt><trkpt lat="42.76957726479152" lon="10.396584858955832"><ele>13.0</ele><time>2026-04-24T14:38:44Z</time></trkpt><trkpt lat="42.76952275573204" lon="10.396529052804405"><ele>13.0</ele><time>2026-04-24T14:38:45Z</time></trkpt><trkpt lat="42.76946357784335" lon="10.396468466766494"><ele>13.0</ele><time>2026-04-24T14:38:46Z</time></trkpt><trkpt lat="42.76939671033422" lon="10.396400008119784"><ele>12.499999999999998</ele><time>2026-04-24T14:38:47Z</time></trkpt><trkpt lat="42.76932836112552" lon="10.396330032419627"><ele>12.0</ele><time>2026-04-24T14:38:48Z</time></trkpt><trkpt lat="42.769263449227225" lon="10.396263575302672"><ele>11.5</ele><time>2026-04-24T14:38:49Z</time></trkpt><trkpt lat="42.769199635511264" lon="10.396199578987394"><ele>11.0</ele><time>2026-04-24T14:38:50Z</time></trkpt><trkpt lat="42.76913398847752" lon="10.396133232965033"><ele>10.5</ele><time>2026-04-24T14:38:51Z</time></trkpt><trkpt lat="42.76906872136249" lon="10.39606727098632"><ele>10.0</ele><time>2026-04-24T14:38:52Z</time></trkpt><trkpt lat="42.76899734534159" lon="10.395995133916882"><ele>10.0</ele><time>2026-04-24T14:38:53Z</time></trkpt><trkpt lat="42.768930622018836" lon="10.395927579940325"><ele>10.0</ele><time>2026-04-24T14:38:54Z</time></trkpt><trkpt lat="42.768861891660165" lon="10.395857555063925"><ele>10.0</ele><time>2026-04-24T14:38:55Z</time></trkpt><trkpt lat="42.768794555784716" lon="10.39578797245934"><ele>10.0</ele><time>2026-04-24T14:38:56Z</time></trkpt><trkpt lat="42.76873266516188" lon="10.395724016825003"><ele>10.0</ele><time>2026-04-24T14:38:57Z</time></trkpt><trkpt lat="42.76867693347221" lon="10.395666425468914"><ele>10.0</ele><time>2026-04-24T14:38:58Z</time></trkpt><trkpt lat="42.76858249531166" lon="10.395569413384525"><ele>9.5</ele><time>2026-04-24T14:39:00Z</time></trkpt><trkpt lat="42.768480366895986" lon="10.395486889107424"><ele>9.0</ele><time>2026-04-24T14:39:02Z</time></trkpt><trkpt lat="42.76842933616054" lon="10.395425513709109"><ele>8.5</ele><time>2026-04-24T14:39:03Z</time></trkpt><trkpt lat="42.76836985427594" lon="10.395367518664063"><ele>8.0</ele><time>2026-04-24T14:39:04Z</time></trkpt><trkpt lat="42.76831129000661" lon="10.395308423135623"><ele>7.500000000000001</ele><time>2026-04-24T14:39:05Z</time></trkpt><trkpt lat="42.768261963930016" lon="10.395253057968056"><ele>7.0</ele><time>2026-04-24T14:39:06Z</time></trkpt><trkpt lat="42.76821347319776" lon="10.395196511978304"><ele>7.000000000000001</ele><time>2026-04-24T14:39:07Z</time></trkpt><trkpt lat="42.76811262411628" lon="10.395085745741214"><ele>7.0</ele><time>2026-04-24T14:39:09Z</time></trkpt><trkpt lat="42.768055807997555" lon="10.395029511606971"><ele>7.0</ele><time>2026-04-24T14:39:10Z</time></trkpt><trkpt lat="42.767998353049975" lon="10.394972164995513"><ele>7.0</ele><time>2026-04-24T14:39:11Z</time></trkpt><trkpt lat="42.767938762063835" lon="10.394909361806913"><ele>7.000000000000001</ele><time>2026-04-24T14:39:12Z</time></trkpt><trkpt lat="42.767883842978485" lon="10.394844997562501"><ele>7.0</ele><time>2026-04-24T14:39:13Z</time></trkpt><trkpt lat="42.76783187960343" lon="10.394788568649393"><ele>7.000000000000001</ele><time>2026-04-24T14:39:14Z</time></trkpt><trkpt lat="42.7677755581885" lon="10.39472753280637"><ele>7.0</ele><time>2026-04-24T14:39:15Z</time></trkpt><trkpt lat="42.767716353573896" lon="10.394676615089303"><ele>7.0</ele><time>2026-04-24T14:39:16Z</time></trkpt><trkpt lat="42.76766088069828" lon="10.394635102657347"><ele>7.0</ele><time>2026-04-24T14:39:17Z</time></trkpt><trkpt lat="42.76756652056808" lon="10.394582890451225"><ele>7.000000000000001</ele><time>2026-04-24T14:39:19Z</time></trkpt><trkpt lat="42.76747011244286" lon="10.394574799020324"><ele>7.0</ele><time>2026-04-24T14:39:21Z</time></trkpt><trkpt lat="42.76736138037823" lon="10.39460915852288"><ele>6.5</ele><time>2026-04-24T14:39:23Z</time></trkpt><trkpt lat="42.76726698032996" lon="10.394636482281822"><ele>6.0</ele><time>2026-04-24T14:39:25Z</time></trkpt><trkpt lat="42.76716479059831" lon="10.394674856403597"><ele>5.5</ele><time>2026-04-24T14:39:27Z</time></trkpt><trkpt lat="42.76704968662241" lon="10.394728094401517"><ele>5.0</ele><time>2026-04-24T14:39:29Z</time></trkpt><trkpt lat="42.76692968098824" lon="10.39478605433182"><ele>4.833333333333334</ele><time>2026-04-24T14:39:31Z</time></trkpt><trkpt lat="42.76686111886643" lon="10.394815993948235"><ele>4.666666666666667</ele><time>2026-04-24T14:39:32Z</time></trkpt><trkpt lat="42.7667869964665" lon="10.394851777727098"><ele>4.5</ele><time>2026-04-24T14:39:33Z</time></trkpt><trkpt lat="42.76671143407723" lon="10.394885648570241"><ele>4.333333333333333</ele><time>2026-04-24T14:39:34Z</time></trkpt><trkpt lat="42.76663161314848" lon="10.394921136547516"><ele>4.166666666666666</ele><time>2026-04-24T14:39:35Z</time></trkpt><trkpt lat="42.766546488555655" lon="10.394955371949672"><ele>4.0</ele><time>2026-04-24T14:39:36Z</time></trkpt><trkpt lat="42.76646398174197" lon="10.39499181985636"><ele>3.9999999999999996</ele><time>2026-04-24T14:39:37Z</time></trkpt><trkpt lat="42.76638845259355" lon="10.395024573662768"><ele>4.0</ele><time>2026-04-24T14:39:38Z</time></trkpt><trkpt lat="42.76631559937119" lon="10.395057065592706"><ele>4.0</ele><time>2026-04-24T14:39:39Z</time></trkpt><trkpt lat="42.766245047989" lon="10.395083879510477"><ele>4.0</ele><time>2026-04-24T14:39:40Z</time></trkpt><trkpt lat="42.76618204908122" lon="10.395112789947655"><ele>3.9999999999999996</ele><time>2026-04-24T14:39:41Z</time></trkpt><trkpt lat="42.76607120553949" lon="10.3951602748714"><ele>4.0</ele><time>2026-04-24T14:39:43Z</time></trkpt><trkpt lat="42.76597090753711" lon="10.395205343624712"><ele>3.9999999999999996</ele><time>2026-04-24T14:39:45Z</time></trkpt><trkpt lat="42.765889376039084" lon="10.395244326823423"><ele>4.0</ele><time>2026-04-24T14:39:47Z</time></trkpt><trkpt lat="42.76581093761309" lon="10.395272809347547"><ele>4.0</ele><time>2026-04-24T14:39:50Z</time></trkpt><trkpt lat="42.765752307571255" lon="10.39521853174902"><ele>4.0</ele><time>2026-04-24T14:39:55Z</time></trkpt><trkpt lat="42.76572643530061" lon="10.39506053058526"><ele>3.9999999999999996</ele><time>2026-04-24T14:40:00Z</time></trkpt><trkpt lat="42.76571017186759" lon="10.3949598522847"><ele>4.0</ele><time>2026-04-24T14:40:04Z</time></trkpt><trkpt lat="42.76568936207095" lon="10.394873299852915"><ele>3.9999999999999996</ele><time>2026-04-24T14:40:08Z</time></trkpt><trkpt lat="42.7656496969018" lon="10.39479247120696"><ele>4.0</ele><time>2026-04-24T14:40:12Z</time></trkpt><trkpt lat="42.76558928857309" lon="10.394758280129125"><ele>4.0</ele><time>2026-04-24T14:40:16Z</time></trkpt><trkpt lat="42.765554327937025" lon="10.39489720790965"><ele>4.0</ele><time>2026-04-24T14:40:17Z</time></trkpt><trkpt lat="42.76558446591654" lon="10.395004584035693"><ele>3.9999999999999996</ele><time>2026-04-24T14:40:20Z</time></trkpt><trkpt lat="42.76561382136776" lon="10.39511344406915"><ele>4.0</ele><time>2026-04-24T14:40:23Z</time></trkpt><trkpt lat="42.76562284104071" lon="10.395210321918231"><ele>3.9999999999999996</ele><time>2026-04-24T14:40:25Z</time></trkpt><trkpt lat="42.76564947684412" lon="10.395293519878209"><ele>4.0</ele><time>2026-04-24T14:40:32Z</time></trkpt><trkpt lat="42.76560273829582" lon="10.395371386195816"><ele>4.0</ele><time>2026-04-24T14:40:42Z</time></trkpt><trkpt lat="42.76554665408731" lon="10.39529513754864"><ele>4.0</ele><time>2026-04-24T14:40:47Z</time></trkpt><trkpt lat="42.76551814941789" lon="10.395207578320097"><ele>3.9999999999999996</ele><time>2026-04-24T14:40:50Z</time></trkpt><trkpt lat="42.76560452110271" lon="10.395080341628844"><ele>4.0</ele><time>2026-04-24T14:40:53Z</time></trkpt><trkpt lat="42.76550309641179" lon="10.395079810582759"><ele>4.0</ele><time>2026-04-24T14:42:06Z</time></trkpt></trkseg><trkseg><trkpt lat="42.765500206616046" lon="10.395157648624046"><ele>4.0</ele><time>2026-04-24T16:09:40Z</time></trkpt><trkpt lat="42.76550369334848" lon="10.395259622462502"><ele>4.0</ele><time>2026-04-24T16:09:44Z</time></trkpt><trkpt lat="42.76555281776109" lon="10.395327970265734"><ele>4.0</ele><time>2026-04-24T16:09:50Z</time></trkpt><trkpt lat="42.765782895415875" lon="10.39530507972915"><ele>4.0</ele><time>2026-04-24T16:10:01Z</time></trkpt><trkpt lat="42.76584707832052" lon="10.395274479427952"><ele>4.0</ele><time>2026-04-24T16:10:02Z</time></trkpt><trkpt lat="42.76591397494085" lon="10.395234866808247"><ele>3.9999999999999996</ele><time>2026-04-24T16:10:03Z</time></trkpt><trkpt lat="42.765992910207366" lon="10.395205376263739"><ele>4.0</ele><time>2026-04-24T16:10:04Z</time></trkpt><trkpt lat="42.76607329155007" lon="10.39521003549069"><ele>4.0</ele><time>2026-04-24T16:10:05Z</time></trkpt><trkpt lat="42.76616037166874" lon="10.39517388327068"><ele>4.0</ele><time>2026-04-24T16:10:06Z</time></trkpt><trkpt lat="42.76624053634717" lon="10.395140602677605"><ele>3.9999999999999996</ele><time>2026-04-24T16:10:07Z</time></trkpt><trkpt lat="42.76633232952501" lon="10.395101409863665"><ele>4.0</ele><time>2026-04-24T16:10:08Z</time></trkpt><trkpt lat="42.76642088112919" lon="10.395063800007359"><ele>4.0</ele><time>2026-04-24T16:10:09Z</time></trkpt><trkpt lat="42.76650816998828" lon="10.395004477700077"><ele>4.0</ele><time>2026-04-24T16:10:10Z</time></trkpt><trkpt lat="42.76660285688082" lon="10.394967505673412"><ele>4.0</ele><time>2026-04-24T16:10:11Z</time></trkpt><trkpt lat="42.76669509159339" lon="10.394927435887537"><ele>4.0</ele><time>2026-04-24T16:10:12Z</time></trkpt><trkpt lat="42.76678767691588" lon="10.39488909861723"><ele>4.0</ele><time>2026-04-24T16:10:13Z</time></trkpt><trkpt lat="42.76689253302997" lon="10.394867129197706"><ele>3.9999999999999996</ele><time>2026-04-24T16:10:14Z</time></trkpt><trkpt lat="42.766989842405096" lon="10.394826485736811"><ele>4.0</ele><time>2026-04-24T16:10:15Z</time></trkpt><trkpt lat="42.7670786982563" lon="10.394789373054195"><ele>4.0</ele><time>2026-04-24T16:10:16Z</time></trkpt><trkpt lat="42.76716211525835" lon="10.39475453244715"><ele>4.0</ele><time>2026-04-24T16:10:17Z</time></trkpt><trkpt lat="42.7672218008898" lon="10.394710475568633"><ele>3.9999999999999996</ele><time>2026-04-24T16:10:18Z</time></trkpt><trkpt lat="42.76728254963081" lon="10.394682346073616"><ele>4.0</ele><time>2026-04-24T16:10:19Z</time></trkpt><trkpt lat="42.76739264267729" lon="10.394648499262019"><ele>4.2</ele><time>2026-04-24T16:10:21Z</time></trkpt><trkpt lat="42.76751458634354" lon="10.394625306839117"><ele>4.4</ele><time>2026-04-24T16:10:23Z</time></trkpt><trkpt lat="42.76765246807641" lon="10.394667411737995"><ele>4.6</ele><time>2026-04-24T16:10:25Z</time></trkpt><trkpt lat="42.76772948279997" lon="10.394723342292869"><ele>4.8</ele><time>2026-04-24T16:10:26Z</time></trkpt><trkpt lat="42.76778923642766" lon="10.39480857587211"><ele>5.0</ele><time>2026-04-24T16:10:27Z</time></trkpt><trkpt lat="42.767873110424816" lon="10.39487174506335"><ele>5.333333333333334</ele><time>2026-04-24T16:10:28Z</time></trkpt><trkpt lat="42.767946359096726" lon="10.39495296351825"><ele>5.666666666666667</ele><time>2026-04-24T16:10:29Z</time></trkpt><trkpt lat="42.7680237611716" lon="10.395031356262056"><ele>6.0</ele><time>2026-04-24T16:10:30Z</time></trkpt><trkpt lat="42.768090469950884" lon="10.395097238366827"><ele>6.333333333333334</ele><time>2026-04-24T16:10:31Z</time></trkpt><trkpt lat="42.76815031784748" lon="10.395160792051158"><ele>6.666666666666667</ele><time>2026-04-24T16:10:32Z</time></trkpt><trkpt lat="42.768207267750995" lon="10.395232489437761"><ele>7.0</ele><time>2026-04-24T16:10:34Z</time></trkpt><trkpt lat="42.76823893588429" lon="10.39530701157499"><ele>7.0</ele><time>2026-04-24T16:10:37Z</time></trkpt><trkpt lat="42.768160977332805" lon="10.395485910582172"><ele>6.999999999999999</ele><time>2026-04-24T16:11:07Z</time></trkpt><trkpt lat="42.768107164520224" lon="10.395593073515297"><ele>6.999999999999999</ele><time>2026-04-24T16:11:09Z</time></trkpt><trkpt lat="42.768059973486395" lon="10.395702871086135"><ele>7.0</ele><time>2026-04-24T16:11:11Z</time></trkpt><trkpt lat="42.76798785275026" lon="10.395749928265717"><ele>7.0</ele><time>2026-04-24T16:11:13Z</time></trkpt><trkpt lat="42.76814835807024" lon="10.395929261380328"><ele>6.714285714285714</ele><time>2026-04-24T16:11:38Z</time></trkpt><trkpt lat="42.76819373874633" lon="10.395993942368548"><ele>6.428571428571429</ele><time>2026-04-24T16:11:45Z</time></trkpt><trkpt lat="42.768238072705074" lon="10.396064385590806"><ele>6.142857142857142</ele><time>2026-04-24T16:11:50Z</time></trkpt><trkpt lat="42.768214796959995" lon="10.396149143284227"><ele>5.857142857142858</ele><time>2026-04-24T16:12:02Z</time></trkpt><trkpt lat="42.76822801000887" lon="10.396015831462764"><ele>5.571428571428571</ele><time>2026-04-24T16:12:20Z</time></trkpt><trkpt lat="42.76825015602565" lon="10.39609897114337"><ele>5.285714285714286</ele><time>2026-04-24T16:12:24Z</time></trkpt><trkpt lat="42.76831298761241" lon="10.396151704847371"><ele>5.0</ele><time>2026-04-24T16:12:34Z</time></trkpt><trkpt lat="42.76837751378683" lon="10.39615281133216"><ele>5.0</ele><time>2026-04-24T16:12:40Z</time></trkpt><trkpt lat="42.76841635174033" lon="10.39608030876676"><ele>5.0</ele><time>2026-04-24T16:12:51Z</time></trkpt><trkpt lat="42.76847283244894" lon="10.39601433014357"><ele>5.0</ele><time>2026-04-24T16:12:57Z</time></trkpt><trkpt lat="42.76853112759752" lon="10.395959379682443"><ele>5.0</ele><time>2026-04-24T16:13:04Z</time></trkpt><trkpt lat="42.76859532373986" lon="10.395952404235782"><ele>5.0</ele><time>2026-04-24T16:13:10Z</time></trkpt><trkpt lat="42.76865479385008" lon="10.395910536101637"><ele>5.0</ele><time>2026-04-24T16:13:18Z</time></trkpt><trkpt lat="42.76858609674297" lon="10.395769343850711"><ele>6.0</ele><time>2026-04-24T16:13:57.813Z</time></trkpt><trkpt lat="42.76867501923668" lon="10.39577050321573"><ele>7.0</ele><time>2026-04-24T16:16:03.071Z</time></trkpt><trkpt lat="42.76863984428145" lon="10.39587946151362"><ele>8.0</ele><time>2026-04-24T16:18:03Z</time></trkpt><trkpt lat="42.76868257231523" lon="10.395804949388165"><ele>9.0</ele><time>2026-04-24T16:19:46Z</time></trkpt><trkpt lat="42.7687385330777" lon="10.39585845552668"><ele>10.0</ele><time>2026-04-24T16:19:57Z</time></trkpt><trkpt lat="42.768776144966175" lon="10.395649008399724"><ele>10.0</ele><time>2026-04-24T16:22:19Z</time></trkpt><trkpt lat="42.76869038514276" lon="10.39567794072191"><ele>10.0</ele><time>2026-04-24T16:22:34Z</time></trkpt><trkpt lat="42.768641013182794" lon="10.3957478297574"><ele>10.0</ele><time>2026-04-24T16:22:45Z</time></trkpt><trkpt lat="42.76868332912822" lon="10.395843784880094"><ele>10.0</ele><time>2026-04-24T16:22:47Z</time></trkpt><trkpt lat="42.768695111542534" lon="10.395959567022857"><ele>10.0</ele><time>2026-04-24T16:22:54Z</time></trkpt><trkpt lat="42.768619077524164" lon="10.395860986803996"><ele>10.0</ele><time>2026-04-24T16:23:01Z</time></trkpt><trkpt lat="42.768607084152634" lon="10.395773571513221"><ele>10.0</ele><time>2026-04-24T16:23:02Z</time></trkpt><trkpt lat="42.768540640230206" lon="10.395890413036119"><ele>10.0</ele><time>2026-04-24T16:23:08Z</time></trkpt><trkpt lat="42.7684925195961" lon="10.395961854939875"><ele>10.0</ele><time>2026-04-24T16:23:15Z</time></trkpt><trkpt lat="42.76844425396853" lon="10.396033213431146"><ele>10.0</ele><time>2026-04-24T16:23:26Z</time></trkpt><trkpt lat="42.768403289655346" lon="10.39611603397059"><ele>10.0</ele><time>2026-04-24T16:23:33Z</time></trkpt><trkpt lat="42.76833435912497" lon="10.396089514498826"><ele>10.0</ele><time>2026-04-24T16:23:39Z</time></trkpt><trkpt lat="42.76826930057485" lon="10.396096007629021"><ele>9.166666666666668</ele><time>2026-04-24T16:23:45Z</time></trkpt><trkpt lat="42.76821012215647" lon="10.396034725232878"><ele>8.333333333333334</ele><time>2026-04-24T16:23:52Z</time></trkpt><trkpt lat="42.768157963791914" lon="10.395979605769725"><ele>7.5</ele><time>2026-04-24T16:23:59Z</time></trkpt><trkpt lat="42.76810370835348" lon="10.39592736810077"><ele>6.666666666666667</ele><time>2026-04-24T16:24:05Z</time></trkpt><trkpt lat="42.768052594664425" lon="10.395873359209968"><ele>5.833333333333334</ele><time>2026-04-24T16:24:12Z</time></trkpt><trkpt lat="42.768112754678" lon="10.395843534657772"><ele>5.0</ele><time>2026-04-24T16:38:11Z</time></trkpt><trkpt lat="42.76823086809481" lon="10.395808877823535"><ele>5.0</ele><time>2026-04-24T16:38:14Z</time></trkpt><trkpt lat="42.768295398285204" lon="10.395723942852099"><ele>5.0</ele><time>2026-04-24T16:38:16Z</time></trkpt><trkpt lat="42.76833812505934" lon="10.39564787428318"><ele>5.0</ele><time>2026-04-24T16:38:18Z</time></trkpt><trkpt lat="42.768338669017375" lon="10.395542329506872"><ele>5.0</ele><time>2026-04-24T16:38:22Z</time></trkpt><trkpt lat="42.76825299460487" lon="10.395557659891436"><ele>5.0</ele><time>2026-04-24T16:38:25Z</time></trkpt><trkpt lat="42.768141827622514" lon="10.395626812026835"><ele>5.0</ele><time>2026-04-24T16:38:55Z</time></trkpt><trkpt lat="42.76814307583382" lon="10.395539269547044"><ele>5.333333333333334</ele><time>2026-04-24T16:39:02Z</time></trkpt><trkpt lat="42.76821075445577" lon="10.395463886367736"><ele>5.666666666666667</ele><time>2026-04-24T16:39:05Z</time></trkpt><trkpt lat="42.76826615530727" lon="10.395417882703795"><ele>6.0</ele><time>2026-04-24T16:39:08Z</time></trkpt><trkpt lat="42.7683260297441" lon="10.395390563556298"><ele>6.333333333333334</ele><time>2026-04-24T16:39:13Z</time></trkpt><trkpt lat="42.768417101546895" lon="10.395439589685234"><ele>6.666666666666667</ele><time>2026-04-24T16:39:15Z</time></trkpt><trkpt lat="42.76847229231568" lon="10.39549903273099"><ele>7.0</ele><time>2026-04-24T16:39:16Z</time></trkpt><trkpt lat="42.768531279747954" lon="10.395573749754549"><ele>7.500000000000001</ele><time>2026-04-24T16:39:17Z</time></trkpt><trkpt lat="42.76859245412867" lon="10.39563704468664"><ele>8.0</ele><time>2026-04-24T16:39:18Z</time></trkpt><trkpt lat="42.76866190479577" lon="10.395701710660486"><ele>8.5</ele><time>2026-04-24T16:39:19Z</time></trkpt><trkpt lat="42.768721384274905" lon="10.395786994626127"><ele>9.0</ele><time>2026-04-24T16:39:20Z</time></trkpt><trkpt lat="42.76879767591404" lon="10.395863180293343"><ele>9.5</ele><time>2026-04-24T16:39:21Z</time></trkpt><trkpt lat="42.76887051425256" lon="10.395943109724103"><ele>10.0</ele><time>2026-04-24T16:39:22Z</time></trkpt><trkpt lat="42.768946551963374" lon="10.396009280027128"><ele>10.0</ele><time>2026-04-24T16:39:23Z</time></trkpt><trkpt lat="42.76902907936412" lon="10.39608482555465"><ele>10.0</ele><time>2026-04-24T16:39:24Z</time></trkpt><trkpt lat="42.769112265068166" lon="10.396165818516288"><ele>10.0</ele><time>2026-04-24T16:39:25Z</time></trkpt><trkpt lat="42.76920201973413" lon="10.396246746338415"><ele>10.0</ele><time>2026-04-24T16:39:26Z</time></trkpt><trkpt lat="42.76928675768724" lon="10.39632734879979"><ele>10.0</ele><time>2026-04-24T16:39:27Z</time></trkpt><trkpt lat="42.769371744270096" lon="10.396416977466798"><ele>10.6</ele><time>2026-04-24T16:39:28Z</time></trkpt><trkpt lat="42.76944690453968" lon="10.396512068847723"><ele>11.2</ele><time>2026-04-24T16:39:29Z</time></trkpt><trkpt lat="42.76953002840099" lon="10.396599898947178"><ele>11.8</ele><time>2026-04-24T16:39:30Z</time></trkpt><trkpt lat="42.76961178642465" lon="10.396691399056039"><ele>12.4</ele><time>2026-04-24T16:39:31Z</time></trkpt><trkpt lat="42.76969377492044" lon="10.396781483380492"><ele>13.0</ele><time>2026-04-24T16:39:32Z</time></trkpt><trkpt lat="42.76977684973669" lon="10.39687349635522"><ele>13.0</ele><time>2026-04-24T16:39:33Z</time></trkpt><trkpt lat="42.769841678546" lon="10.396974292006373"><ele>13.0</ele><time>2026-04-24T16:39:34Z</time></trkpt><trkpt lat="42.769906120179236" lon="10.397078139055461"><ele>13.0</ele><time>2026-04-24T16:39:35Z</time></trkpt><trkpt lat="42.76995007439423" lon="10.39718420242714"><ele>13.0</ele><time>2026-04-24T16:39:36Z</time></trkpt><trkpt lat="42.76998534018672" lon="10.397292773189164"><ele>13.0</ele><time>2026-04-24T16:39:37Z</time></trkpt><trkpt lat="42.770019075791005" lon="10.397405414961362"><ele>12.499999999999998</ele><time>2026-04-24T16:39:38Z</time></trkpt><trkpt lat="42.77005726397273" lon="10.397521621738921"><ele>12.0</ele><time>2026-04-24T16:39:39Z</time></trkpt><trkpt lat="42.7700829867846" lon="10.397615432705335"><ele>11.5</ele><time>2026-04-24T16:39:40Z</time></trkpt><trkpt lat="42.77010551144664" lon="10.397699802762347"><ele>11.0</ele><time>2026-04-24T16:39:41Z</time></trkpt><trkpt lat="42.770134599338704" lon="10.397784757350388"><ele>10.5</ele><time>2026-04-24T16:39:42Z</time></trkpt><trkpt lat="42.77016024858326" lon="10.397882223380218"><ele>10.0</ele><time>2026-04-24T16:39:43Z</time></trkpt><trkpt lat="42.77019084276788" lon="10.397992676607009"><ele>11.0</ele><time>2026-04-24T16:39:44Z</time></trkpt><trkpt lat="42.77020687735681" lon="10.398080986774797"><ele>12.0</ele><time>2026-04-24T16:39:45Z</time></trkpt><trkpt lat="42.77023236086252" lon="10.398212846796977"><ele>13.0</ele><time>2026-04-24T16:39:47Z</time></trkpt><trkpt lat="42.77026232177452" lon="10.398298618073056"><ele>14.0</ele><time>2026-04-24T16:40:21Z</time></trkpt><trkpt lat="42.770331261922436" lon="10.398367674699168"><ele>14.999999999999998</ele><time>2026-04-24T16:42:07Z</time></trkpt><trkpt lat="42.77035013829118" lon="10.398469086683491"><ele>16.0</ele><time>2026-04-24T16:42:10Z</time></trkpt><trkpt lat="42.77042040395719" lon="10.398579502713245"><ele>15.999999999999998</ele><time>2026-04-24T16:42:12Z</time></trkpt><trkpt lat="42.77047155585989" lon="10.398658707091894"><ele>16.0</ele><time>2026-04-24T16:42:13Z</time></trkpt><trkpt lat="42.77052892148784" lon="10.39874531161486"><ele>16.0</ele><time>2026-04-24T16:42:14Z</time></trkpt><trkpt lat="42.770598650529585" lon="10.398826219414595"><ele>16.0</ele><time>2026-04-24T16:42:15Z</time></trkpt><trkpt lat="42.7706686633738" lon="10.39891123382471"><ele>15.999999999999998</ele><time>2026-04-24T16:42:16Z</time></trkpt><trkpt lat="42.77073058213613" lon="10.398998340424393"><ele>16.0</ele><time>2026-04-24T16:42:17Z</time></trkpt><trkpt lat="42.77081195346181" lon="10.399097090555733"><ele>15.5</ele><time>2026-04-24T16:42:18Z</time></trkpt><trkpt lat="42.77089296966827" lon="10.399195962890525"><ele>15.0</ele><time>2026-04-24T16:42:19Z</time></trkpt><trkpt lat="42.77098115051189" lon="10.39929944989267"><ele>14.5</ele><time>2026-04-24T16:42:20Z</time></trkpt><trkpt lat="42.771067289737665" lon="10.399397813318705"><ele>14.0</ele><time>2026-04-24T16:42:21Z</time></trkpt><trkpt lat="42.77115986973976" lon="10.399501464787948"><ele>14.75</ele><time>2026-04-24T16:42:22Z</time></trkpt><trkpt lat="42.77124689358167" lon="10.399610405973997"><ele>15.5</ele><time>2026-04-24T16:42:23Z</time></trkpt><trkpt lat="42.77132878651234" lon="10.39971936968046"><ele>16.25</ele><time>2026-04-24T16:42:24Z</time></trkpt><trkpt lat="42.77140893911999" lon="10.399826220615248"><ele>17.0</ele><time>2026-04-24T16:42:25Z</time></trkpt><trkpt lat="42.77150111686301" lon="10.399931015857133"><ele>17.0</ele><time>2026-04-24T16:42:26Z</time></trkpt><trkpt lat="42.771576447181765" lon="10.400040400133427"><ele>17.0</ele><time>2026-04-24T16:42:27Z</time></trkpt><trkpt lat="42.77166394639584" lon="10.400141424581038"><ele>17.0</ele><time>2026-04-24T16:42:28Z</time></trkpt><trkpt lat="42.7717485493606" lon="10.40026346375046"><ele>17.0</ele><time>2026-04-24T16:42:29Z</time></trkpt><trkpt lat="42.77183610098905" lon="10.40037612784032"><ele>16.75</ele><time>2026-04-24T16:42:30Z</time></trkpt><trkpt lat="42.771926442990136" lon="10.400495950014179"><ele>16.5</ele><time>2026-04-24T16:42:31Z</time></trkpt><trkpt lat="42.7720127958823" lon="10.400611466274128"><ele>16.25</ele><time>2026-04-24T16:42:32Z</time></trkpt><trkpt lat="42.77209745013589" lon="10.400728756952345"><ele>16.0</ele><time>2026-04-24T16:42:33Z</time></trkpt><trkpt lat="42.772184580090226" lon="10.40085359133206"><ele>16.0</ele><time>2026-04-24T16:42:34Z</time></trkpt><trkpt lat="42.77226808171606" lon="10.40098755854066"><ele>16.0</ele><time>2026-04-24T16:42:35Z</time></trkpt><trkpt lat="42.77233906685311" lon="10.401111419828723"><ele>16.0</ele><time>2026-04-24T16:42:36Z</time></trkpt><trkpt lat="42.772416385406984" lon="10.401261369931927"><ele>16.0</ele><time>2026-04-24T16:42:37Z</time></trkpt><trkpt lat="42.77248012236756" lon="10.401396624245537"><ele>16.0</ele><time>2026-04-24T16:42:38Z</time></trkpt><trkpt lat="42.77254560398214" lon="10.40154296845194"><ele>16.0</ele><time>2026-04-24T16:42:39Z</time></trkpt><trkpt lat="42.772609242602755" lon="10.401702819388829"><ele>16.0</ele><time>2026-04-24T16:42:40Z</time></trkpt><trkpt lat="42.77267039288281" lon="10.401866962809644"><ele>16.0</ele><time>2026-04-24T16:42:41Z</time></trkpt><trkpt lat="42.77272908504853" lon="10.402025838515458"><ele>14.5</ele><time>2026-04-24T16:42:42Z</time></trkpt><trkpt lat="42.77280138136753" lon="10.402171876989224"><ele>13.0</ele><time>2026-04-24T16:42:43Z</time></trkpt><trkpt lat="42.772844232104156" lon="10.40233122752971"><ele>11.5</ele><time>2026-04-24T16:42:44Z</time></trkpt><trkpt lat="42.77290345653129" lon="10.402493020006894"><ele>10.0</ele><time>2026-04-24T16:42:45Z</time></trkpt><trkpt lat="42.772963915150534" lon="10.402656596959671"><ele>10.0</ele><time>2026-04-24T16:42:46Z</time></trkpt><trkpt lat="42.773025303126744" lon="10.402820238345198"><ele>10.0</ele><time>2026-04-24T16:42:47Z</time></trkpt><trkpt lat="42.77308717037821" lon="10.402980617324289"><ele>10.0</ele><time>2026-04-24T16:42:48Z</time></trkpt><trkpt lat="42.7731507462539" lon="10.40314203973754"><ele>10.0</ele><time>2026-04-24T16:42:49Z</time></trkpt><trkpt lat="42.77321363336261" lon="10.403299896112205"><ele>9.5</ele><time>2026-04-24T16:42:50Z</time></trkpt><trkpt lat="42.773254070243276" lon="10.403459615575137"><ele>9.0</ele><time>2026-04-24T16:42:51Z</time></trkpt><trkpt lat="42.773311252908336" lon="10.403620539102109"><ele>8.5</ele><time>2026-04-24T16:42:52Z</time></trkpt><trkpt lat="42.77336710358616" lon="10.403779125657719"><ele>8.0</ele><time>2026-04-24T16:42:53Z</time></trkpt><trkpt lat="42.77342588997233" lon="10.403940111370874"><ele>7.75</ele><time>2026-04-24T16:42:54Z</time></trkpt><trkpt lat="42.77348690093626" lon="10.40410395274665"><ele>7.5</ele><time>2026-04-24T16:42:55Z</time></trkpt><trkpt lat="42.773550525967984" lon="10.404262581823879"><ele>7.25</ele><time>2026-04-24T16:42:56Z</time></trkpt><trkpt lat="42.7736091798037" lon="10.404410267274152"><ele>7.0</ele><time>2026-04-24T16:42:57Z</time></trkpt><trkpt lat="42.773668288111615" lon="10.40455638400896"><ele>8.5</ele><time>2026-04-24T16:42:58Z</time></trkpt><trkpt lat="42.77372852301111" lon="10.40470311826898"><ele>10.0</ele><time>2026-04-24T16:42:59Z</time></trkpt><trkpt lat="42.77379010266422" lon="10.404855174623075"><ele>11.5</ele><time>2026-04-24T16:43:00Z</time></trkpt><trkpt lat="42.7738502411939" lon="10.405006126080119"><ele>13.0</ele><time>2026-04-24T16:43:01Z</time></trkpt><trkpt lat="42.77390324995268" lon="10.405158540623454"><ele>13.0</ele><time>2026-04-24T16:43:02Z</time></trkpt><trkpt lat="42.77395672845232" lon="10.40530486891722"><ele>13.0</ele><time>2026-04-24T16:43:03Z</time></trkpt><trkpt lat="42.77401619761693" lon="10.405454062060453"><ele>13.0</ele><time>2026-04-24T16:43:04Z</time></trkpt><trkpt lat="42.774075248966874" lon="10.405604653402047"><ele>13.0</ele><time>2026-04-24T16:43:05Z</time></trkpt><trkpt lat="42.77413215134543" lon="10.405758385355236"><ele>12.8</ele><time>2026-04-24T16:43:06Z</time></trkpt><trkpt lat="42.77418942220676" lon="10.405907744578037"><ele>12.600000000000001</ele><time>2026-04-24T16:43:07Z</time></trkpt><trkpt lat="42.77424017307569" lon="10.406043788391248"><ele>12.399999999999999</ele><time>2026-04-24T16:43:08Z</time></trkpt><trkpt lat="42.774287789081285" lon="10.4061591410152"><ele>12.2</ele><time>2026-04-24T16:43:09Z</time></trkpt><trkpt lat="42.77431749409556" lon="10.406259932772281"><ele>12.0</ele><time>2026-04-24T16:43:10Z</time></trkpt><trkpt lat="42.77433107632342" lon="10.406369081033617"><ele>13.0</ele><time>2026-04-24T16:43:11Z</time></trkpt><trkpt lat="42.77432125389092" lon="10.406480795208205"><ele>14.0</ele><time>2026-04-24T16:43:12Z</time></trkpt><trkpt lat="42.77427625267168" lon="10.40658169843886"><ele>15.0</ele><time>2026-04-24T16:43:13Z</time></trkpt><trkpt lat="42.77423550864535" lon="10.40669071058497"><ele>16.0</ele><time>2026-04-24T16:43:14Z</time></trkpt><trkpt lat="42.774187858116264" lon="10.40680211378744"><ele>17.0</ele><time>2026-04-24T16:43:15Z</time></trkpt><trkpt lat="42.77415372197999" lon="10.406934240103126"><ele>17.0</ele><time>2026-04-24T16:43:16Z</time></trkpt><trkpt lat="42.77410654426409" lon="10.40706079183099"><ele>17.0</ele><time>2026-04-24T16:43:17Z</time></trkpt><trkpt lat="42.7740715517948" lon="10.407199240225307"><ele>17.0</ele><time>2026-04-24T16:43:18Z</time></trkpt><trkpt lat="42.7740393952379" lon="10.407334227767755"><ele>17.0</ele><time>2026-04-24T16:43:19Z</time></trkpt><trkpt lat="42.77400724142515" lon="10.407479167351422"><ele>17.0</ele><time>2026-04-24T16:43:20Z</time></trkpt><trkpt lat="42.77399838515682" lon="10.407624590684515"><ele>17.8</ele><time>2026-04-24T16:43:21Z</time></trkpt><trkpt lat="42.774000154004945" lon="10.407776007416222"><ele>18.6</ele><time>2026-04-24T16:43:22Z</time></trkpt><trkpt lat="42.77400913828547" lon="10.407921972239084"><ele>19.400000000000002</ele><time>2026-04-24T16:43:23Z</time></trkpt><trkpt lat="42.77402138157122" lon="10.408061662273088"><ele>20.2</ele><time>2026-04-24T16:43:24Z</time></trkpt><trkpt lat="42.77403378176028" lon="10.408203142530242"><ele>21.0</ele><time>2026-04-24T16:43:25Z</time></trkpt><trkpt lat="42.77406322511727" lon="10.408348745748926"><ele>21.0</ele><time>2026-04-24T16:43:26Z</time></trkpt><trkpt lat="42.77405524587928" lon="10.408492564044327"><ele>21.0</ele><time>2026-04-24T16:43:27Z</time></trkpt><trkpt lat="42.77406831232039" lon="10.408637078786258"><ele>21.0</ele><time>2026-04-24T16:43:28Z</time></trkpt><trkpt lat="42.77408240927733" lon="10.408782193052467"><ele>21.0</ele><time>2026-04-24T16:43:29Z</time></trkpt><trkpt lat="42.774095735973965" lon="10.408927767945894"><ele>21.0</ele><time>2026-04-24T16:43:30Z</time></trkpt><trkpt lat="42.77412118848916" lon="10.409071312715993"><ele>21.4</ele><time>2026-04-24T16:43:31Z</time></trkpt><trkpt lat="42.77415583864008" lon="10.409204881511211"><ele>21.8</ele><time>2026-04-24T16:43:32Z</time></trkpt><trkpt lat="42.77420978415014" lon="10.40933063880017"><ele>22.2</ele><time>2026-04-24T16:43:33Z</time></trkpt><trkpt lat="42.77428456519703" lon="10.409442444739913"><ele>22.599999999999998</ele><time>2026-04-24T16:43:34Z</time></trkpt><trkpt lat="42.77437320356746" lon="10.409541743808045"><ele>23.0</ele><time>2026-04-24T16:43:35Z</time></trkpt><trkpt lat="42.77446662903786" lon="10.409609789378605"><ele>25.25</ele><time>2026-04-24T16:43:36Z</time></trkpt><trkpt lat="42.77457475887777" lon="10.40965223988713"><ele>27.5</ele><time>2026-04-24T16:43:37Z</time></trkpt><trkpt lat="42.774689147506706" lon="10.409673208367774"><ele>29.75</ele><time>2026-04-24T16:43:38Z</time></trkpt><trkpt lat="42.77480939098096" lon="10.409669474446222"><ele>32.0</ele><time>2026-04-24T16:43:39Z</time></trkpt><trkpt lat="42.77493411517269" lon="10.409653010527917"><ele>32.25</ele><time>2026-04-24T16:43:40Z</time></trkpt><trkpt lat="42.77504650621366" lon="10.409634101344803"><ele>32.5</ele><time>2026-04-24T16:43:41Z</time></trkpt><trkpt lat="42.775167932383816" lon="10.409620711935785"><ele>32.75</ele><time>2026-04-24T16:43:42Z</time></trkpt><trkpt lat="42.77528715466795" lon="10.40959788428037"><ele>33.0</ele><time>2026-04-24T16:43:43Z</time></trkpt><trkpt lat="42.775399243862566" lon="10.409576468612888"><ele>34.5</ele><time>2026-04-24T16:43:44Z</time></trkpt><trkpt lat="42.775517828013065" lon="10.409561652827707"><ele>36.0</ele><time>2026-04-24T16:43:45Z</time></trkpt><trkpt lat="42.77564279351522" lon="10.409544621611019"><ele>37.5</ele><time>2026-04-24T16:43:46Z</time></trkpt><trkpt lat="42.775759392719905" lon="10.40951842338898"><ele>39.0</ele><time>2026-04-24T16:43:47Z</time></trkpt><trkpt lat="42.77587577879256" lon="10.409502943473278"><ele>39.0</ele><time>2026-04-24T16:43:48Z</time></trkpt><trkpt lat="42.77599335558682" lon="10.40949024859011"><ele>39.0</ele><time>2026-04-24T16:43:49Z</time></trkpt><trkpt lat="42.77611362048004" lon="10.409482944489964"><ele>39.0</ele><time>2026-04-24T16:43:50Z</time></trkpt><trkpt lat="42.77622915810713" lon="10.409473780145351"><ele>39.0</ele><time>2026-04-24T16:43:51Z</time></trkpt><trkpt lat="42.77634310335242" lon="10.409458933365556"><ele>41.0</ele><time>2026-04-24T16:43:52Z</time></trkpt><trkpt lat="42.77645695413727" lon="10.409443034571819"><ele>43.0</ele><time>2026-04-24T16:43:53Z</time></trkpt><trkpt lat="42.77656934535842" lon="10.409438823793154"><ele>45.0</ele><time>2026-04-24T16:43:54Z</time></trkpt><trkpt lat="42.77668298454733" lon="10.409447403337593"><ele>47.0</ele><time>2026-04-24T16:43:55Z</time></trkpt><trkpt lat="42.77680239464134" lon="10.40947665920221"><ele>48.0</ele><time>2026-04-24T16:43:56Z</time></trkpt><trkpt lat="42.77691847645056" lon="10.409515418434324"><ele>49.0</ele><time>2026-04-24T16:43:57Z</time></trkpt><trkpt lat="42.77703528410062" lon="10.409563897366612"><ele>50.0</ele><time>2026-04-24T16:43:58Z</time></trkpt><trkpt lat="42.77715202268327" lon="10.409603972568542"><ele>51.0</ele><time>2026-04-24T16:43:59Z</time></trkpt><trkpt lat="42.77727398472898" lon="10.409641841998189"><ele>48.25</ele><time>2026-04-24T16:44:00Z</time></trkpt><trkpt lat="42.77739997702345" lon="10.40967272827351"><ele>45.5</ele><time>2026-04-24T16:44:01Z</time></trkpt><trkpt lat="42.777526415573554" lon="10.409691874736398"><ele>42.75</ele><time>2026-04-24T16:44:02Z</time></trkpt><trkpt lat="42.77763947562541" lon="10.409702261079223"><ele>40.0</ele><time>2026-04-24T16:44:03Z</time></trkpt><trkpt lat="42.77776055651549" lon="10.40969708336258"><ele>39.25</ele><time>2026-04-24T16:44:04Z</time></trkpt><trkpt lat="42.77788781723984" lon="10.409684328930451"><ele>38.5</ele><time>2026-04-24T16:44:05Z</time></trkpt><trkpt lat="42.77800464237076" lon="10.409660787543418"><ele>37.75</ele><time>2026-04-24T16:44:06Z</time></trkpt><trkpt lat="42.778121672351006" lon="10.409632625841079"><ele>37.0</ele><time>2026-04-24T16:44:07Z</time></trkpt><trkpt lat="42.77824677834735" lon="10.409610784752337"><ele>40.0</ele><time>2026-04-24T16:44:08Z</time></trkpt><trkpt lat="42.77837350430718" lon="10.409590892986667"><ele>43.0</ele><time>2026-04-24T16:44:09Z</time></trkpt><trkpt lat="42.77850022834472" lon="10.409577271777449"><ele>46.0</ele><time>2026-04-24T16:44:10Z</time></trkpt><trkpt lat="42.77864325227439" lon="10.409559547403317"><ele>49.0</ele><time>2026-04-24T16:44:11Z</time></trkpt><trkpt lat="42.77878015540866" lon="10.409529445076245"><ele>49.0</ele><time>2026-04-24T16:44:12Z</time></trkpt><trkpt lat="42.778918229809136" lon="10.409500046434472"><ele>49.0</ele><time>2026-04-24T16:44:13Z</time></trkpt><trkpt lat="42.77905179947512" lon="10.409474091473948"><ele>49.0</ele><time>2026-04-24T16:44:14Z</time></trkpt><trkpt lat="42.77918821015892" lon="10.409448008148363"><ele>49.0</ele><time>2026-04-24T16:44:15Z</time></trkpt><trkpt lat="42.77932291305767" lon="10.409425985495805"><ele>49.5</ele><time>2026-04-24T16:44:16Z</time></trkpt><trkpt lat="42.77946107035485" lon="10.40940379111167"><ele>50.0</ele><time>2026-04-24T16:44:17Z</time></trkpt><trkpt lat="42.779603551349346" lon="10.40938955823731"><ele>50.5</ele><time>2026-04-24T16:44:18Z</time></trkpt><trkpt lat="42.779741607847974" lon="10.409361207108393"><ele>51.0</ele><time>2026-04-24T16:44:19Z</time></trkpt><trkpt lat="42.779873223320465" lon="10.409335865242882"><ele>51.0</ele><time>2026-04-24T16:44:20Z</time></trkpt><trkpt lat="42.78002056172232" lon="10.409310336795915"><ele>51.0</ele><time>2026-04-24T16:44:21Z</time></trkpt><trkpt lat="42.78015228160146" lon="10.409285331072544"><ele>51.0</ele><time>2026-04-24T16:44:22Z</time></trkpt><trkpt lat="42.780289579298255" lon="10.40925652610659"><ele>51.0</ele><time>2026-04-24T16:44:23Z</time></trkpt><trkpt lat="42.78042875890422" lon="10.409225281652313"><ele>50.5</ele><time>2026-04-24T16:44:24Z</time></trkpt><trkpt lat="42.7805551425274" lon="10.409200246057937"><ele>50.0</ele><time>2026-04-24T16:44:25Z</time></trkpt><trkpt lat="42.780696340532835" lon="10.409151363465485"><ele>49.5</ele><time>2026-04-24T16:44:26Z</time></trkpt><trkpt lat="42.78082134033844" lon="10.40911505027786"><ele>49.0</ele><time>2026-04-24T16:44:27Z</time></trkpt><trkpt lat="42.78095050343705" lon="10.409059904760156"><ele>47.25</ele><time>2026-04-24T16:44:28Z</time></trkpt><trkpt lat="42.781079607345674" lon="10.408984154656682"><ele>45.5</ele><time>2026-04-24T16:44:29Z</time></trkpt><trkpt lat="42.78120877142032" lon="10.408909760240409"><ele>43.75</ele><time>2026-04-24T16:44:30Z</time></trkpt><trkpt lat="42.78133843629082" lon="10.408826065271676"><ele>42.0</ele><time>2026-04-24T16:44:31Z</time></trkpt><trkpt lat="42.7814691814438" lon="10.408741961885259"><ele>43.5</ele><time>2026-04-24T16:44:32Z</time></trkpt><trkpt lat="42.78158700031806" lon="10.408658823880266"><ele>45.0</ele><time>2026-04-24T16:44:33Z</time></trkpt><trkpt lat="42.7817331755649" lon="10.40854274785484"><ele>46.5</ele><time>2026-04-24T16:44:34Z</time></trkpt><trkpt lat="42.781844952912394" lon="10.40845746073187"><ele>48.0</ele><time>2026-04-24T16:44:35Z</time></trkpt><trkpt lat="42.781956413090676" lon="10.40837724619629"><ele>48.0</ele><time>2026-04-24T16:44:36Z</time></trkpt><trkpt lat="42.782069760145625" lon="10.408296263188545"><ele>48.0</ele><time>2026-04-24T16:44:37Z</time></trkpt><trkpt lat="42.78218535862346" lon="10.40820357857085"><ele>48.0</ele><time>2026-04-24T16:44:38Z</time></trkpt><trkpt lat="42.78229242833294" lon="10.408085931784173"><ele>48.0</ele><time>2026-04-24T16:44:39Z</time></trkpt><trkpt lat="42.782396774828385" lon="10.40796518107275"><ele>48.5</ele><time>2026-04-24T16:44:40Z</time></trkpt><trkpt lat="42.78250090219127" lon="10.40783401426316"><ele>49.0</ele><time>2026-04-24T16:44:41Z</time></trkpt><trkpt lat="42.7826095082035" lon="10.407709281758327"><ele>49.5</ele><time>2026-04-24T16:44:42Z</time></trkpt><trkpt lat="42.78271710341902" lon="10.40757590923242"><ele>50.0</ele><time>2026-04-24T16:44:43Z</time></trkpt><trkpt lat="42.782816403067955" lon="10.40745041909872"><ele>50.0</ele><time>2026-04-24T16:44:44Z</time></trkpt><trkpt lat="42.782906520506614" lon="10.407335196556115"><ele>50.0</ele><time>2026-04-24T16:44:45Z</time></trkpt><trkpt lat="42.78299595652718" lon="10.407207146761287"><ele>50.0</ele><time>2026-04-24T16:44:46Z</time></trkpt><trkpt lat="42.783092046237634" lon="10.407089814394833"><ele>50.0</ele><time>2026-04-24T16:44:47Z</time></trkpt><trkpt lat="42.78320012278399" lon="10.406992339514993"><ele>50.5</ele><time>2026-04-24T16:44:48Z</time></trkpt><trkpt lat="42.78334742861597" lon="10.406921234163233"><ele>51.0</ele><time>2026-04-24T16:44:49Z</time></trkpt><trkpt lat="42.78346343751467" lon="10.406837584219467"><ele>51.5</ele><time>2026-04-24T16:44:50Z</time></trkpt><trkpt lat="42.78358181321287" lon="10.406785808130579"><ele>52.0</ele><time>2026-04-24T16:44:51Z</time></trkpt><trkpt lat="42.783708749378455" lon="10.406680657009833"><ele>52.0</ele><time>2026-04-24T16:44:52Z</time></trkpt><trkpt lat="42.7838203214709" lon="10.406550471008368"><ele>52.0</ele><time>2026-04-24T16:44:53Z</time></trkpt><trkpt lat="42.78392767101794" lon="10.406409330330858"><ele>52.0</ele><time>2026-04-24T16:44:54Z</time></trkpt><trkpt lat="42.784034539605344" lon="10.40628060214394"><ele>52.0</ele><time>2026-04-24T16:44:55Z</time></trkpt><trkpt lat="42.7841450896312" lon="10.406167068224224"><ele>53.0</ele><time>2026-04-24T16:44:56Z</time></trkpt><trkpt lat="42.78426005222645" lon="10.406040865532024"><ele>54.0</ele><time>2026-04-24T16:44:57Z</time></trkpt><trkpt lat="42.78437860952116" lon="10.405911245047758"><ele>55.0</ele><time>2026-04-24T16:44:58Z</time></trkpt><trkpt lat="42.784497690390246" lon="10.405788074509553"><ele>56.0</ele><time>2026-04-24T16:44:59Z</time></trkpt><trkpt lat="42.78461976860483" lon="10.405681523827578"><ele>56.0</ele><time>2026-04-24T16:45:00Z</time></trkpt><trkpt lat="42.78473891727964" lon="10.405569466062348"><ele>56.0</ele><time>2026-04-24T16:45:01Z</time></trkpt><trkpt lat="42.784861309333955" lon="10.405429068625404"><ele>56.0</ele><time>2026-04-24T16:45:02Z</time></trkpt><trkpt lat="42.78497144628816" lon="10.40531050337177"><ele>56.0</ele><time>2026-04-24T16:45:03Z</time></trkpt><trkpt lat="42.78509799991444" lon="10.405251385333631"><ele>57.333333333333336</ele><time>2026-04-24T16:45:04Z</time></trkpt><trkpt lat="42.78521550795189" lon="10.405111574222808"><ele>58.66666666666667</ele><time>2026-04-24T16:45:05Z</time></trkpt><trkpt lat="42.78533634059295" lon="10.404953055096593"><ele>60.0</ele><time>2026-04-24T16:45:06Z</time></trkpt><trkpt lat="42.785440158903015" lon="10.40480041547949"><ele>62.5</ele><time>2026-04-24T16:45:07Z</time></trkpt><trkpt lat="42.78553755629002" lon="10.404653111816032"><ele>65.0</ele><time>2026-04-24T16:45:08Z</time></trkpt><trkpt lat="42.78564374896279" lon="10.404497628860833"><ele>67.5</ele><time>2026-04-24T16:45:09Z</time></trkpt><trkpt lat="42.78574693083182" lon="10.404354435443995"><ele>70.0</ele><time>2026-04-24T16:45:10Z</time></trkpt><trkpt lat="42.78583571465271" lon="10.404213414053341"><ele>70.0</ele><time>2026-04-24T16:45:11Z</time></trkpt><trkpt lat="42.78592358153597" lon="10.404066319133403"><ele>70.0</ele><time>2026-04-24T16:45:12Z</time></trkpt><trkpt lat="42.786005409968915" lon="10.403922567847186"><ele>70.0</ele><time>2026-04-24T16:45:13Z</time></trkpt><trkpt lat="42.78607762635494" lon="10.403755550090448"><ele>70.0</ele><time>2026-04-24T16:45:14Z</time></trkpt><trkpt lat="42.786142050080194" lon="10.403577372623431"><ele>70.75</ele><time>2026-04-24T16:45:15Z</time></trkpt><trkpt lat="42.786197645223595" lon="10.403409723552492"><ele>71.5</ele><time>2026-04-24T16:45:16Z</time></trkpt><trkpt lat="42.78623704315373" lon="10.403236129412708"><ele>72.25</ele><time>2026-04-24T16:45:17Z</time></trkpt><trkpt lat="42.78627374840593" lon="10.403074690587287"><ele>73.0</ele><time>2026-04-24T16:45:18Z</time></trkpt><trkpt lat="42.786310661664956" lon="10.402934457542617"><ele>74.28571428571428</ele><time>2026-04-24T16:45:19Z</time></trkpt><trkpt lat="42.78634294663128" lon="10.402833574190256"><ele>75.57142857142857</ele><time>2026-04-24T16:45:20Z</time></trkpt><trkpt lat="42.78637752886427" lon="10.402746844593292"><ele>76.85714285714286</ele><time>2026-04-24T16:45:21Z</time></trkpt><trkpt lat="42.78643073142958" lon="10.402684386022385"><ele>78.14285714285714</ele><time>2026-04-24T16:45:22Z</time></trkpt><trkpt lat="42.78649045926557" lon="10.40263874314017"><ele>79.42857142857143</ele><time>2026-04-24T16:45:23Z</time></trkpt><trkpt lat="42.78656988627405" lon="10.402625366524251"><ele>80.71428571428571</ele><time>2026-04-24T16:45:24Z</time></trkpt><trkpt lat="42.786636868549245" lon="10.402661363584459"><ele>82.0</ele><time>2026-04-24T16:45:25Z</time></trkpt><trkpt lat="42.786705957767495" lon="10.402709209632468"><ele>82.0</ele><time>2026-04-24T16:45:26Z</time></trkpt><trkpt lat="42.78675468191149" lon="10.402791527756442"><ele>82.0</ele><time>2026-04-24T16:45:27Z</time></trkpt><trkpt lat="42.78678357580532" lon="10.402904207643312"><ele>82.0</ele><time>2026-04-24T16:45:28Z</time></trkpt><trkpt lat="42.78680777658148" lon="10.403030456121655"><ele>82.0</ele><time>2026-04-24T16:45:29Z</time></trkpt><trkpt lat="42.78683347892139" lon="10.403154245856445"><ele>82.0</ele><time>2026-04-24T16:45:30Z</time></trkpt><trkpt lat="42.78687105924114" lon="10.403282876707019"><ele>81.6</ele><time>2026-04-24T16:45:31Z</time></trkpt><trkpt lat="42.78691031983353" lon="10.403414094888007"><ele>81.19999999999999</ele><time>2026-04-24T16:45:32Z</time></trkpt><trkpt lat="42.78694962064242" lon="10.403555060581134"><ele>80.8</ele><time>2026-04-24T16:45:33Z</time></trkpt><trkpt lat="42.78698302547316" lon="10.40369654797045"><ele>80.4</ele><time>2026-04-24T16:45:34Z</time></trkpt><trkpt lat="42.787030094240166" lon="10.403817968834169"><ele>80.0</ele><time>2026-04-24T16:45:35Z</time></trkpt><trkpt lat="42.7870984368355" lon="10.403920912113309"><ele>80.0</ele><time>2026-04-24T16:45:36Z</time></trkpt><trkpt lat="42.78717382915954" lon="10.403999239968634"><ele>80.0</ele><time>2026-04-24T16:45:37Z</time></trkpt><trkpt lat="42.787271168340425" lon="10.404066015029134"><ele>80.0</ele><time>2026-04-24T16:45:38Z</time></trkpt><trkpt lat="42.78737390042754" lon="10.40408688274821"><ele>80.0</ele><time>2026-04-24T16:45:39Z</time></trkpt><trkpt lat="42.7874940563676" lon="10.404080734575592"><ele>80.0</ele><time>2026-04-24T16:45:40Z</time></trkpt><trkpt lat="42.78759982948325" lon="10.404066352866058"><ele>83.25</ele><time>2026-04-24T16:45:41Z</time></trkpt><trkpt lat="42.78771665786694" lon="10.40404486657662"><ele>86.5</ele><time>2026-04-24T16:45:42Z</time></trkpt><trkpt lat="42.78782331663178" lon="10.404038473617268"><ele>89.75</ele><time>2026-04-24T16:45:43Z</time></trkpt><trkpt lat="42.787945149569424" lon="10.404035680240533"><ele>93.0</ele><time>2026-04-24T16:45:44Z</time></trkpt><trkpt lat="42.78805047632468" lon="10.404029234513489"><ele>93.0</ele><time>2026-04-24T16:45:45Z</time></trkpt><trkpt lat="42.78817208160933" lon="10.404014934567195"><ele>93.0</ele><time>2026-04-24T16:45:46Z</time></trkpt><trkpt lat="42.78829126125571" lon="10.403992838458366"><ele>93.0</ele><time>2026-04-24T16:45:47Z</time></trkpt><trkpt lat="42.788405791274464" lon="10.404007462511984"><ele>93.0</ele><time>2026-04-24T16:45:48Z</time></trkpt><trkpt lat="42.788506795723904" lon="10.4040687608649"><ele>95.0</ele><time>2026-04-24T16:45:49Z</time></trkpt><trkpt lat="42.78860607736415" lon="10.404099032748906"><ele>97.0</ele><time>2026-04-24T16:45:50Z</time></trkpt><trkpt lat="42.78871256459605" lon="10.404128003263335"><ele>99.0</ele><time>2026-04-24T16:45:51Z</time></trkpt><trkpt lat="42.78883057940995" lon="10.404152372112916"><ele>101.0</ele><time>2026-04-24T16:45:52Z</time></trkpt><trkpt lat="42.78894999048942" lon="10.404161772092621"><ele>103.0</ele><time>2026-04-24T16:45:53Z</time></trkpt><trkpt lat="42.78908308240186" lon="10.4041539346434"><ele>103.0</ele><time>2026-04-24T16:45:54Z</time></trkpt><trkpt lat="42.78920852376502" lon="10.404143771779266"><ele>103.0</ele><time>2026-04-24T16:45:55Z</time></trkpt><trkpt lat="42.78931750858755" lon="10.40412159738979"><ele>103.0</ele><time>2026-04-24T16:45:56Z</time></trkpt><trkpt lat="42.78941968127524" lon="10.404094905458544"><ele>103.0</ele><time>2026-04-24T16:45:57Z</time></trkpt><trkpt lat="42.78949188612444" lon="10.404098881188117"><ele>103.0</ele><time>2026-04-24T16:45:58Z</time></trkpt><trkpt lat="42.78958679077956" lon="10.40422954888565"><ele>104.66666666666667</ele><time>2026-04-24T16:46:00Z</time></trkpt><trkpt lat="42.789618582624875" lon="10.404328865112598"><ele>106.33333333333334</ele><time>2026-04-24T16:46:01Z</time></trkpt><trkpt lat="42.789619798895664" lon="10.40443675383006"><ele>108.0</ele><time>2026-04-24T16:46:02Z</time></trkpt><trkpt lat="42.78957187639191" lon="10.40454910753432"><ele>109.66666666666666</ele><time>2026-04-24T16:46:03Z</time></trkpt><trkpt lat="42.7895125880736" lon="10.404621356861549"><ele>111.33333333333333</ele><time>2026-04-24T16:46:04Z</time></trkpt><trkpt lat="42.78945466881907" lon="10.404722604025691"><ele>113.0</ele><time>2026-04-24T16:46:05Z</time></trkpt><trkpt lat="42.78937361349221" lon="10.404810007877686"><ele>111.0</ele><time>2026-04-24T16:46:06Z</time></trkpt><trkpt lat="42.78932241876077" lon="10.404945201721619"><ele>109.00000000000001</ele><time>2026-04-24T16:46:07Z</time></trkpt><trkpt lat="42.78923737233715" lon="10.405003471305756"><ele>107.0</ele><time>2026-04-24T16:46:08Z</time></trkpt><trkpt lat="42.789149258489026" lon="10.405049874846995"><ele>105.0</ele><time>2026-04-24T16:46:09Z</time></trkpt><trkpt lat="42.78905876238978" lon="10.405057041299884"><ele>103.0</ele><time>2026-04-24T16:46:10Z</time></trkpt><trkpt lat="42.788946326221414" lon="10.405046752617235"><ele>103.0</ele><time>2026-04-24T16:46:11Z</time></trkpt><trkpt lat="42.78883004065349" lon="10.405034305502959"><ele>103.0</ele><time>2026-04-24T16:46:12Z</time></trkpt><trkpt lat="42.788721468899276" lon="10.405024252634307"><ele>103.0</ele><time>2026-04-24T16:46:13Z</time></trkpt><trkpt lat="42.7886037934349" lon="10.40502909479917"><ele>103.0</ele><time>2026-04-24T16:46:14Z</time></trkpt><trkpt lat="42.788486944465355" lon="10.405058402323776"><ele>101.0</ele><time>2026-04-24T16:46:15Z</time></trkpt><trkpt lat="42.788380365094106" lon="10.405115569437323"><ele>99.0</ele><time>2026-04-24T16:46:16Z</time></trkpt><trkpt lat="42.788292805148636" lon="10.405215772377616"><ele>97.0</ele><time>2026-04-24T16:46:17Z</time></trkpt><trkpt lat="42.7882068350282" lon="10.405318044932415"><ele>95.0</ele><time>2026-04-24T16:46:18Z</time></trkpt><trkpt lat="42.78813189070819" lon="10.405436049350582"><ele>98.8</ele><time>2026-04-24T16:46:19Z</time></trkpt><trkpt lat="42.788077045632406" lon="10.405546604223177"><ele>102.6</ele><time>2026-04-24T16:46:20Z</time></trkpt><trkpt lat="42.78802223211919" lon="10.405668442516168"><ele>106.4</ele><time>2026-04-24T16:46:21Z</time></trkpt><trkpt lat="42.78798301870958" lon="10.405785550812643"><ele>110.2</ele><time>2026-04-24T16:46:22Z</time></trkpt><trkpt lat="42.78796702741228" lon="10.405928131103511"><ele>114.0</ele><time>2026-04-24T16:46:23Z</time></trkpt><trkpt lat="42.787974620648995" lon="10.406084568434771"><ele>114.0</ele><time>2026-04-24T16:46:24Z</time></trkpt><trkpt lat="42.7879855907464" lon="10.406255091552577"><ele>114.0</ele><time>2026-04-24T16:46:25Z</time></trkpt><trkpt lat="42.78803438798769" lon="10.406392835506358"><ele>114.0</ele><time>2026-04-24T16:46:26Z</time></trkpt><trkpt lat="42.788083786295694" lon="10.406520425673508"><ele>114.0</ele><time>2026-04-24T16:46:27Z</time></trkpt><trkpt lat="42.788146115192845" lon="10.40663911424592"><ele>114.0</ele><time>2026-04-24T16:46:28Z</time></trkpt><trkpt lat="42.78818381680787" lon="10.406773112715923"><ele>114.0</ele><time>2026-04-24T16:46:29Z</time></trkpt><trkpt lat="42.78823549876224" lon="10.406909863085449"><ele>114.0</ele><time>2026-04-24T16:46:30Z</time></trkpt><trkpt lat="42.78828637255877" lon="10.407044689734088"><ele>114.0</ele><time>2026-04-24T16:46:31Z</time></trkpt><trkpt lat="42.78833443351146" lon="10.407173077180428"><ele>114.0</ele><time>2026-04-24T16:46:32Z</time></trkpt><trkpt lat="42.78837408641807" lon="10.407302389562785"><ele>114.0</ele><time>2026-04-24T16:46:33Z</time></trkpt><trkpt lat="42.78838080719127" lon="10.407449089208887"><ele>114.0</ele><time>2026-04-24T16:46:34Z</time></trkpt><trkpt lat="42.78836194810178" lon="10.407597022159464"><ele>114.0</ele><time>2026-04-24T16:46:35Z</time></trkpt><trkpt lat="42.788319500426695" lon="10.407735398361014"><ele>114.0</ele><time>2026-04-24T16:46:36Z</time></trkpt><trkpt lat="42.788278749536566" lon="10.40786991633305"><ele>114.0</ele><time>2026-04-24T16:46:37Z</time></trkpt><trkpt lat="42.78826115579858" lon="10.407993867762327"><ele>114.2</ele><time>2026-04-24T16:46:38Z</time></trkpt><trkpt lat="42.788271962030834" lon="10.408128709865045"><ele>114.4</ele><time>2026-04-24T16:46:39Z</time></trkpt><trkpt lat="42.78831246526173" lon="10.408257228067441"><ele>114.6</ele><time>2026-04-24T16:46:40Z</time></trkpt><trkpt lat="42.78838563674834" lon="10.408376823969254"><ele>114.8</ele><time>2026-04-24T16:46:41Z</time></trkpt><trkpt lat="42.78847816845899" lon="10.408482362349309"><ele>115.0</ele><time>2026-04-24T16:46:42Z</time></trkpt><trkpt lat="42.78858092393972" lon="10.408570607528738"><ele>117.2</ele><time>2026-04-24T16:46:43Z</time></trkpt><trkpt lat="42.7886841914515" lon="10.408644386586873"><ele>119.4</ele><time>2026-04-24T16:46:44Z</time></trkpt><trkpt lat="42.78879373962352" lon="10.408703183826894"><ele>121.6</ele><time>2026-04-24T16:46:45Z</time></trkpt><trkpt lat="42.788900916891336" lon="10.408749928824337"><ele>123.8</ele><time>2026-04-24T16:46:46Z</time></trkpt><trkpt lat="42.788999343435805" lon="10.408784037705145"><ele>126.0</ele><time>2026-04-24T16:46:47Z</time></trkpt><trkpt lat="42.789086315660924" lon="10.408835663691976"><ele>126.0</ele><time>2026-04-24T16:46:48Z</time></trkpt><trkpt lat="42.789157893033135" lon="10.408896599465898"><ele>126.0</ele><time>2026-04-24T16:46:49Z</time></trkpt><trkpt lat="42.789207248506465" lon="10.40899352753567"><ele>126.0</ele><time>2026-04-24T16:46:50Z</time></trkpt><trkpt lat="42.78922110881873" lon="10.4091145195104"><ele>126.0</ele><time>2026-04-24T16:46:51Z</time></trkpt><trkpt lat="42.78921041769766" lon="10.409243432821507"><ele>126.0</ele><time>2026-04-24T16:46:52Z</time></trkpt><trkpt lat="42.78917455089938" lon="10.409377837551698"><ele>126.0</ele><time>2026-04-24T16:46:53Z</time></trkpt><trkpt lat="42.789146772084294" lon="10.409514386067558"><ele>126.0</ele><time>2026-04-24T16:46:54Z</time></trkpt><trkpt lat="42.789116644234404" lon="10.409666119360777"><ele>126.0</ele><time>2026-04-24T16:46:55Z</time></trkpt><trkpt lat="42.789094619602196" lon="10.409815347761997"><ele>126.0</ele><time>2026-04-24T16:46:56Z</time></trkpt><trkpt lat="42.78906080133782" lon="10.409961269897337"><ele>126.0</ele><time>2026-04-24T16:46:57Z</time></trkpt><trkpt lat="42.78903413328651" lon="10.410100762581639"><ele>127.19999999999999</ele><time>2026-04-24T16:46:58Z</time></trkpt><trkpt lat="42.7889840163723" lon="10.41021840380834"><ele>128.39999999999998</ele><time>2026-04-24T16:46:59Z</time></trkpt><trkpt lat="42.78896191730944" lon="10.410349891835331"><ele>129.6</ele><time>2026-04-24T16:47:00Z</time></trkpt><trkpt lat="42.788954329802394" lon="10.410468642332988"><ele>130.79999999999998</ele><time>2026-04-24T16:47:01Z</time></trkpt><trkpt lat="42.78897458496103" lon="10.410582868402612"><ele>132.0</ele><time>2026-04-24T16:47:02Z</time></trkpt><trkpt lat="42.789018901840464" lon="10.410697453760351"><ele>132.6</ele><time>2026-04-24T16:47:03Z</time></trkpt><trkpt lat="42.789087062884285" lon="10.41080414729561"><ele>133.2</ele><time>2026-04-24T16:47:04Z</time></trkpt><trkpt lat="42.78916277755084" lon="10.410880916036511"><ele>133.8</ele><time>2026-04-24T16:47:05Z</time></trkpt><trkpt lat="42.78924066157958" lon="10.410970041122937"><ele>134.4</ele><time>2026-04-24T16:47:06Z</time></trkpt><trkpt lat="42.78932372244487" lon="10.411068361365528"><ele>135.0</ele><time>2026-04-24T16:47:07Z</time></trkpt><trkpt lat="42.78940783220488" lon="10.411184066551817"><ele>135.5</ele><time>2026-04-24T16:47:08Z</time></trkpt><trkpt lat="42.78948787417913" lon="10.411298596163904"><ele>136.0</ele><time>2026-04-24T16:47:09Z</time></trkpt><trkpt lat="42.78954184542556" lon="10.411435729397333"><ele>136.5</ele><time>2026-04-24T16:47:10Z</time></trkpt><trkpt lat="42.7895836587629" lon="10.411585078584183"><ele>137.0</ele><time>2026-04-24T16:47:11Z</time></trkpt><trkpt lat="42.789630405564374" lon="10.411738662307972"><ele>137.0</ele><time>2026-04-24T16:47:12Z</time></trkpt><trkpt lat="42.78965538805105" lon="10.411893985273672"><ele>137.0</ele><time>2026-04-24T16:47:13Z</time></trkpt><trkpt lat="42.78965982122662" lon="10.412060369955096"><ele>137.0</ele><time>2026-04-24T16:47:14Z</time></trkpt><trkpt lat="42.78966298687455" lon="10.412221897392143"><ele>137.0</ele><time>2026-04-24T16:47:15Z</time></trkpt><trkpt lat="42.78966677722855" lon="10.412378283241027"><ele>136.2</ele><time>2026-04-24T16:47:16Z</time></trkpt><trkpt lat="42.7896659629614" lon="10.412539224113779"><ele>135.39999999999998</ele><time>2026-04-24T16:47:17Z</time></trkpt><trkpt lat="42.78966919922166" lon="10.412703312188986"><ele>134.60000000000002</ele><time>2026-04-24T16:47:18Z</time></trkpt><trkpt lat="42.78967343040818" lon="10.41285309832818"><ele>133.8</ele><time>2026-04-24T16:47:19Z</time></trkpt><trkpt lat="42.78965839890894" lon="10.412986413071584"><ele>133.0</ele><time>2026-04-24T16:47:20Z</time></trkpt><trkpt lat="42.7896840986783" lon="10.413127030913103"><ele>132.0</ele><time>2026-04-24T16:47:21Z</time></trkpt><trkpt lat="42.78972346350774" lon="10.413241070009905"><ele>131.0</ele><time>2026-04-24T16:47:22Z</time></trkpt><trkpt lat="42.7897776272576" lon="10.413342863881365"><ele>130.0</ele><time>2026-04-24T16:47:23Z</time></trkpt><trkpt lat="42.789849459311334" lon="10.413421935651943"><ele>129.0</ele><time>2026-04-24T16:47:24Z</time></trkpt><trkpt lat="42.789936551743125" lon="10.413471119206932"><ele>128.0</ele><time>2026-04-24T16:47:25Z</time></trkpt><trkpt lat="42.790032885674144" lon="10.413483998061878"><ele>128.0</ele><time>2026-04-24T16:47:26Z</time></trkpt><trkpt lat="42.790130281547626" lon="10.413461810397736"><ele>128.0</ele><time>2026-04-24T16:47:27Z</time></trkpt><trkpt lat="42.790226827529274" lon="10.413406222342305"><ele>128.0</ele><time>2026-04-24T16:47:28Z</time></trkpt><trkpt lat="42.79032266146769" lon="10.413320734139052"><ele>128.0</ele><time>2026-04-24T16:47:29Z</time></trkpt><trkpt lat="42.7904104212733" lon="10.413223528999227"><ele>128.0</ele><time>2026-04-24T16:47:30Z</time></trkpt><trkpt lat="42.79050748279428" lon="10.413120762427784"><ele>129.5</ele><time>2026-04-24T16:47:31Z</time></trkpt><trkpt lat="42.79059941188154" lon="10.41302307541115"><ele>131.0</ele><time>2026-04-24T16:47:32Z</time></trkpt><trkpt lat="42.79069981894605" lon="10.412937289234474"><ele>132.5</ele><time>2026-04-24T16:47:33Z</time></trkpt><trkpt lat="42.79080475915397" lon="10.412860480994071"><ele>134.0</ele><time>2026-04-24T16:47:34Z</time></trkpt><trkpt lat="42.79091366746444" lon="10.41277894467943"><ele>132.8</ele><time>2026-04-24T16:47:35Z</time></trkpt><trkpt lat="42.79101712466364" lon="10.41270305538994"><ele>131.60000000000002</ele><time>2026-04-24T16:47:36Z</time></trkpt><trkpt lat="42.79112318437686" lon="10.412639377721371"><ele>130.4</ele><time>2026-04-24T16:47:37Z</time></trkpt><trkpt lat="42.79122139168823" lon="10.41259452704113"><ele>129.20000000000002</ele><time>2026-04-24T16:47:38Z</time></trkpt><trkpt lat="42.791323675313556" lon="10.412605420391744"><ele>128.0</ele><time>2026-04-24T16:47:39Z</time></trkpt><trkpt lat="42.79143516654958" lon="10.41263587488123"><ele>128.0</ele><time>2026-04-24T16:47:40Z</time></trkpt><trkpt lat="42.79154925705427" lon="10.412654508613617"><ele>128.0</ele><time>2026-04-24T16:47:41Z</time></trkpt><trkpt lat="42.791653739861665" lon="10.412692310010913"><ele>128.0</ele><time>2026-04-24T16:47:42Z</time></trkpt><trkpt lat="42.79174448014982" lon="10.41273581413025"><ele>128.0</ele><time>2026-04-24T16:47:43Z</time></trkpt><trkpt lat="42.791832195844684" lon="10.412712057635204"><ele>128.0</ele><time>2026-04-24T16:47:44Z</time></trkpt><trkpt lat="42.79191483280259" lon="10.41270275555396"><ele>127.0</ele><time>2026-04-24T16:47:45Z</time></trkpt><trkpt lat="42.79197282971852" lon="10.412603914649843"><ele>126.00000000000001</ele><time>2026-04-24T16:47:46Z</time></trkpt><trkpt lat="42.79201350806777" lon="10.41250388967865"><ele>125.00000000000001</ele><time>2026-04-24T16:47:47Z</time></trkpt><trkpt lat="42.792038298368915" lon="10.41237842269487"><ele>124.0</ele><time>2026-04-24T16:47:48Z</time></trkpt><trkpt lat="42.79203774402083" lon="10.41225139883614"><ele>123.0</ele><time>2026-04-24T16:47:49Z</time></trkpt><trkpt lat="42.79201739305745" lon="10.412116510969735"><ele>123.0</ele><time>2026-04-24T16:47:50Z</time></trkpt><trkpt lat="42.79199038639446" lon="10.411980510639017"><ele>123.0</ele><time>2026-04-24T16:47:51Z</time></trkpt><trkpt lat="42.79197301192295" lon="10.4118681808849"><ele>123.0</ele><time>2026-04-24T16:47:52Z</time></trkpt><trkpt lat="42.791970047588364" lon="10.411760715437113"><ele>123.0</ele><time>2026-04-24T16:47:53Z</time></trkpt><trkpt lat="42.79199275048282" lon="10.411663999871372"><ele>123.0</ele><time>2026-04-24T16:47:54Z</time></trkpt><trkpt lat="42.79204003471471" lon="10.411582356354256"><ele>123.0</ele><time>2026-04-24T16:47:55Z</time></trkpt><trkpt lat="42.79210812192164" lon="10.411522588078162"><ele>123.0</ele><time>2026-04-24T16:47:56Z</time></trkpt><trkpt lat="42.792200808748525" lon="10.411497193044335"><ele>123.00000000000001</ele><time>2026-04-24T16:47:57Z</time></trkpt><trkpt lat="42.792286651605494" lon="10.411481174828348"><ele>123.00000000000001</ele><time>2026-04-24T16:47:58Z</time></trkpt><trkpt lat="42.79238888147024" lon="10.411449868954517"><ele>123.0</ele><time>2026-04-24T16:47:59Z</time></trkpt><trkpt lat="42.79249662880743" lon="10.411403983001627"><ele>123.0</ele><time>2026-04-24T16:48:00Z</time></trkpt><trkpt lat="42.79258984526413" lon="10.411322917846876"><ele>122.0</ele><time>2026-04-24T16:48:01Z</time></trkpt><trkpt lat="42.79267947144289" lon="10.411229920861459"><ele>121.0</ele><time>2026-04-24T16:48:02Z</time></trkpt><trkpt lat="42.792762287547696" lon="10.411117637287774"><ele>120.0</ele><time>2026-04-24T16:48:03Z</time></trkpt><trkpt lat="42.79284411792175" lon="10.411000595031505"><ele>119.0</ele><time>2026-04-24T16:48:04Z</time></trkpt><trkpt lat="42.792921596225426" lon="10.410892382220103"><ele>119.0</ele><time>2026-04-24T16:48:05Z</time></trkpt><trkpt lat="42.79299971641325" lon="10.410783997873327"><ele>119.0</ele><time>2026-04-24T16:48:06Z</time></trkpt><trkpt lat="42.793081844113175" lon="10.410662046565786"><ele>119.0</ele><time>2026-04-24T16:48:07Z</time></trkpt><trkpt lat="42.79316235167903" lon="10.410544816275765"><ele>119.0</ele><time>2026-04-24T16:48:08Z</time></trkpt><trkpt lat="42.79323447589727" lon="10.410410166741716"><ele>120.80000000000001</ele><time>2026-04-24T16:48:09Z</time></trkpt><trkpt lat="42.79329551632371" lon="10.410273547771407"><ele>122.60000000000001</ele><time>2026-04-24T16:48:10Z</time></trkpt><trkpt lat="42.79334433861426" lon="10.410141394208289"><ele>124.4</ele><time>2026-04-24T16:48:11Z</time></trkpt><trkpt lat="42.793389805714405" lon="10.410002510249315"><ele>126.2</ele><time>2026-04-24T16:48:12Z</time></trkpt><trkpt lat="42.79343965173926" lon="10.409874788910503"><ele>128.0</ele><time>2026-04-24T16:48:13Z</time></trkpt><trkpt lat="42.793482781708825" lon="10.409725251335965"><ele>125.0</ele><time>2026-04-24T16:48:14Z</time></trkpt><trkpt lat="42.793530650109304" lon="10.409581120247239"><ele>122.0</ele><time>2026-04-24T16:48:15Z</time></trkpt><trkpt lat="42.79358094383845" lon="10.409435703570987"><ele>119.0</ele><time>2026-04-24T16:48:16Z</time></trkpt><trkpt lat="42.793627777943925" lon="10.409281390067674"><ele>116.0</ele><time>2026-04-24T16:48:17Z</time></trkpt><trkpt lat="42.79367813202" lon="10.409131855165711"><ele>116.0</ele><time>2026-04-24T16:48:18Z</time></trkpt><trkpt lat="42.79372563633143" lon="10.409001780283326"><ele>116.0</ele><time>2026-04-24T16:48:19Z</time></trkpt><trkpt lat="42.793775718349906" lon="10.408861212566983"><ele>116.0</ele><time>2026-04-24T16:48:20Z</time></trkpt><trkpt lat="42.7938171706781" lon="10.408714118442411"><ele>116.0</ele><time>2026-04-24T16:48:21Z</time></trkpt><trkpt lat="42.793856026577764" lon="10.408568127272822"><ele>117.4</ele><time>2026-04-24T16:48:22Z</time></trkpt><trkpt lat="42.793896966132095" lon="10.408429361288063"><ele>118.8</ele><time>2026-04-24T16:48:23Z</time></trkpt><trkpt lat="42.7939345939268" lon="10.408275202663047"><ele>120.20000000000002</ele><time>2026-04-24T16:48:24Z</time></trkpt><trkpt lat="42.79396596354234" lon="10.408138627758268"><ele>121.60000000000001</ele><time>2026-04-24T16:48:25Z</time></trkpt><trkpt lat="42.79399204693809" lon="10.408017052402986"><ele>123.0</ele><time>2026-04-24T16:48:26Z</time></trkpt><trkpt lat="42.79402570815322" lon="10.40790307275931"><ele>124.4</ele><time>2026-04-24T16:48:27Z</time></trkpt><trkpt lat="42.79408283996781" lon="10.407802383802652"><ele>125.80000000000001</ele><time>2026-04-24T16:48:28Z</time></trkpt><trkpt lat="42.79415818755822" lon="10.407725342559399"><ele>127.2</ele><time>2026-04-24T16:48:29Z</time></trkpt><trkpt lat="42.7942500537538" lon="10.407708948209004"><ele>128.6</ele><time>2026-04-24T16:48:30Z</time></trkpt><trkpt lat="42.79434753077373" lon="10.40767634172728"><ele>130.0</ele><time>2026-04-24T16:48:31Z</time></trkpt><trkpt lat="42.79444934590024" lon="10.40769605938747"><ele>130.0</ele><time>2026-04-24T16:48:32Z</time></trkpt><trkpt lat="42.79456648182316" lon="10.407692457974559"><ele>130.0</ele><time>2026-04-24T16:48:33Z</time></trkpt><trkpt lat="42.79466934783489" lon="10.407693607472758"><ele>130.0</ele><time>2026-04-24T16:48:34Z</time></trkpt><trkpt lat="42.79476781734781" lon="10.407691266559297"><ele>130.0</ele><time>2026-04-24T16:48:35Z</time></trkpt><trkpt lat="42.794877016563795" lon="10.407678539605536"><ele>130.0</ele><time>2026-04-24T16:48:36Z</time></trkpt><trkpt lat="42.79496061021227" lon="10.407665666084535"><ele>130.0</ele><time>2026-04-24T16:48:37Z</time></trkpt><trkpt lat="42.79503441831114" lon="10.407649713516234"><ele>130.0</ele><time>2026-04-24T16:48:38Z</time></trkpt><trkpt lat="42.79508294751255" lon="10.4075526528344"><ele>130.0</ele><time>2026-04-24T16:48:39Z</time></trkpt><trkpt lat="42.79511706107718" lon="10.407456231893267"><ele>130.0</ele><time>2026-04-24T16:48:40Z</time></trkpt><trkpt lat="42.7951238092775" lon="10.407349333990624"><ele>130.0</ele><time>2026-04-24T16:48:41Z</time></trkpt><trkpt lat="42.795099674520536" lon="10.407240235824782"><ele>130.0</ele><time>2026-04-24T16:48:42Z</time></trkpt><trkpt lat="42.79505321637216" lon="10.40713700424919"><ele>128.4</ele><time>2026-04-24T16:48:43Z</time></trkpt><trkpt lat="42.794979263634765" lon="10.40704123445782"><ele>126.8</ele><time>2026-04-24T16:48:44Z</time></trkpt><trkpt lat="42.794896077131654" lon="10.4069422800317"><ele>125.19999999999999</ele><time>2026-04-24T16:48:45Z</time></trkpt><trkpt lat="42.794811109867396" lon="10.406832602848427"><ele>123.6</ele><time>2026-04-24T16:48:46Z</time></trkpt><trkpt lat="42.79472041091482" lon="10.406736240063513"><ele>122.0</ele><time>2026-04-24T16:48:47Z</time></trkpt><trkpt lat="42.79465724528366" lon="10.40664217685915"><ele>122.0</ele><time>2026-04-24T16:48:48Z</time></trkpt><trkpt lat="42.79458991979919" lon="10.406511791661819"><ele>122.0</ele><time>2026-04-24T16:48:49Z</time></trkpt><trkpt lat="42.79452318857226" lon="10.406370718852473"><ele>122.0</ele><time>2026-04-24T16:48:50Z</time></trkpt><trkpt lat="42.79448202105725" lon="10.40624001583839"><ele>122.0</ele><time>2026-04-24T16:48:51Z</time></trkpt><trkpt lat="42.79444550506421" lon="10.406097776748554"><ele>125.25</ele><time>2026-04-24T16:48:52Z</time></trkpt><trkpt lat="42.79437907858952" lon="10.405983073928018"><ele>128.5</ele><time>2026-04-24T16:48:53Z</time></trkpt><trkpt lat="42.79431836859295" lon="10.40584545452782"><ele>131.75</ele><time>2026-04-24T16:48:54Z</time></trkpt><trkpt lat="42.79424984866791" lon="10.405721631356167"><ele>135.0</ele><time>2026-04-24T16:48:55Z</time></trkpt><trkpt lat="42.79418005549105" lon="10.40559280318009"><ele>133.4</ele><time>2026-04-24T16:48:56Z</time></trkpt><trkpt lat="42.794113173143366" lon="10.40547655985593"><ele>131.8</ele><time>2026-04-24T16:48:57Z</time></trkpt><trkpt lat="42.794052375964036" lon="10.405366530224946"><ele>130.2</ele><time>2026-04-24T16:48:58Z</time></trkpt><trkpt lat="42.79398992353409" lon="10.40525709895434"><ele>128.6</ele><time>2026-04-24T16:48:59Z</time></trkpt><trkpt lat="42.79394741303202" lon="10.405152526206749"><ele>127.0</ele><time>2026-04-24T16:49:00Z</time></trkpt><trkpt lat="42.79392723799794" lon="10.405048847237545"><ele>127.0</ele><time>2026-04-24T16:49:01Z</time></trkpt><trkpt lat="42.793935719002015" lon="10.40492111728926"><ele>126.99999999999999</ele><time>2026-04-24T16:49:02Z</time></trkpt><trkpt lat="42.793960800760345" lon="10.40478360326658"><ele>126.99999999999999</ele><time>2026-04-24T16:49:03Z</time></trkpt><trkpt lat="42.7940096693163" lon="10.40467320382855"><ele>127.0</ele><time>2026-04-24T16:49:04Z</time></trkpt><trkpt lat="42.7940568936128" lon="10.404561859985328"><ele>127.0</ele><time>2026-04-24T16:49:05Z</time></trkpt><trkpt lat="42.79409356631864" lon="10.404423988450013"><ele>127.6</ele><time>2026-04-24T16:49:06Z</time></trkpt><trkpt lat="42.794108569936455" lon="10.40427989256866"><ele>128.2</ele><time>2026-04-24T16:49:07Z</time></trkpt><trkpt lat="42.79411715299176" lon="10.404149540495617"><ele>128.8</ele><time>2026-04-24T16:49:08Z</time></trkpt><trkpt lat="42.794088956677975" lon="10.40401144891203"><ele>129.4</ele><time>2026-04-24T16:49:09Z</time></trkpt><trkpt lat="42.794057335394996" lon="10.403875189407874"><ele>130.0</ele><time>2026-04-24T16:49:10Z</time></trkpt><trkpt lat="42.79403487745813" lon="10.40376301566436"><ele>130.8</ele><time>2026-04-24T16:49:11Z</time></trkpt><trkpt lat="42.79401825499644" lon="10.403640347620646"><ele>131.6</ele><time>2026-04-24T16:49:12Z</time></trkpt><trkpt lat="42.79404890248686" lon="10.40351675283352"><ele>132.4</ele><time>2026-04-24T16:49:13Z</time></trkpt><trkpt lat="42.7940957442336" lon="10.40340228503184"><ele>133.2</ele><time>2026-04-24T16:49:14Z</time></trkpt><trkpt lat="42.794152187242716" lon="10.403296793095192"><ele>134.0</ele><time>2026-04-24T16:49:15Z</time></trkpt><trkpt lat="42.79420973532768" lon="10.403195297976392"><ele>134.0</ele><time>2026-04-24T16:49:16Z</time></trkpt><trkpt lat="42.794234899547114" lon="10.403082441911272"><ele>134.0</ele><time>2026-04-24T16:49:17Z</time></trkpt><trkpt lat="42.79423883121175" lon="10.40294159046346"><ele>134.0</ele><time>2026-04-24T16:49:18Z</time></trkpt><trkpt lat="42.79422304298218" lon="10.402792150610985"><ele>134.0</ele><time>2026-04-24T16:49:19Z</time></trkpt><trkpt lat="42.7941953960296" lon="10.402668525098894"><ele>134.0</ele><time>2026-04-24T16:49:20Z</time></trkpt><trkpt lat="42.79415413604342" lon="10.402551301058534"><ele>134.66666666666666</ele><time>2026-04-24T16:49:21Z</time></trkpt><trkpt lat="42.79410910690472" lon="10.402450994950039"><ele>135.33333333333331</ele><time>2026-04-24T16:49:22Z</time></trkpt><trkpt lat="42.79407165379904" lon="10.402339284343347"><ele>136.0</ele><time>2026-04-24T16:49:23Z</time></trkpt><trkpt lat="42.79404171395242" lon="10.402246265078837"><ele>136.66666666666666</ele><time>2026-04-24T16:49:24Z</time></trkpt><trkpt lat="42.794029156497025" lon="10.402156601930004"><ele>137.33333333333334</ele><time>2026-04-24T16:49:25Z</time></trkpt><trkpt lat="42.79403467112198" lon="10.402062623559862"><ele>138.0</ele><time>2026-04-24T16:49:26Z</time></trkpt><trkpt lat="42.79406342810639" lon="10.401976818190505"><ele>137.0</ele><time>2026-04-24T16:49:27Z</time></trkpt><trkpt lat="42.794123923869485" lon="10.401899936288814"><ele>136.0</ele><time>2026-04-24T16:49:28Z</time></trkpt><trkpt lat="42.79419810800115" lon="10.40187008362631"><ele>135.0</ele><time>2026-04-24T16:49:29Z</time></trkpt><trkpt lat="42.79428287659716" lon="10.401884247492857"><ele>134.0</ele><time>2026-04-24T16:49:30Z</time></trkpt><trkpt lat="42.79437013092219" lon="10.401914483634911"><ele>133.0</ele><time>2026-04-24T16:49:31Z</time></trkpt><trkpt lat="42.7944518170958" lon="10.401928569740644"><ele>132.0</ele><time>2026-04-24T16:49:32Z</time></trkpt><trkpt lat="42.79453246648059" lon="10.401915538834535"><ele>132.0</ele><time>2026-04-24T16:49:33Z</time></trkpt><trkpt lat="42.79459821823803" lon="10.401862113773408"><ele>132.0</ele><time>2026-04-24T16:49:34Z</time></trkpt><trkpt lat="42.79466264317364" lon="10.40178793902868"><ele>132.0</ele><time>2026-04-24T16:49:35Z</time></trkpt><trkpt lat="42.79469629485068" lon="10.401692830267395"><ele>132.0</ele><time>2026-04-24T16:49:36Z</time></trkpt><trkpt lat="42.79471655912325" lon="10.401567656885543"><ele>132.0</ele><time>2026-04-24T16:49:37Z</time></trkpt><trkpt lat="42.79471672297278" lon="10.401417604285674"><ele>132.0</ele><time>2026-04-24T16:49:38Z</time></trkpt><trkpt lat="42.79471700485443" lon="10.40128456716406"><ele>133.5</ele><time>2026-04-24T16:49:39Z</time></trkpt><trkpt lat="42.79471992898061" lon="10.401161498447609"><ele>135.0</ele><time>2026-04-24T16:49:40Z</time></trkpt><trkpt lat="42.79471640771552" lon="10.401035428769587"><ele>136.5</ele><time>2026-04-24T16:49:41Z</time></trkpt><trkpt lat="42.79472450514317" lon="10.400923140646226"><ele>138.0</ele><time>2026-04-24T16:49:42Z</time></trkpt><trkpt lat="42.79474588277544" lon="10.400810696659661"><ele>139.5</ele><time>2026-04-24T16:49:43Z</time></trkpt><trkpt lat="42.79480307016034" lon="10.400738978051464"><ele>141.0</ele><time>2026-04-24T16:49:44Z</time></trkpt><trkpt lat="42.794880110664636" lon="10.400710899592395"><ele>141.0</ele><time>2026-04-24T16:49:45Z</time></trkpt><trkpt lat="42.79497060975833" lon="10.400695591949344"><ele>141.0</ele><time>2026-04-24T16:49:46Z</time></trkpt><trkpt lat="42.79507269551025" lon="10.40068295711837"><ele>141.0</ele><time>2026-04-24T16:49:47Z</time></trkpt><trkpt lat="42.79517253749522" lon="10.400664610565563"><ele>141.0</ele><time>2026-04-24T16:49:48Z</time></trkpt><trkpt lat="42.795281188226724" lon="10.400643872771413"><ele>141.0</ele><time>2026-04-24T16:49:49Z</time></trkpt><trkpt lat="42.795393867808436" lon="10.400623216243456"><ele>140.5</ele><time>2026-04-24T16:49:50Z</time></trkpt><trkpt lat="42.795501952877984" lon="10.400596116432737"><ele>140.0</ele><time>2026-04-24T16:49:51Z</time></trkpt><trkpt lat="42.79561500447789" lon="10.400563712789104"><ele>139.5</ele><time>2026-04-24T16:49:52Z</time></trkpt><trkpt lat="42.79573532602558" lon="10.400535855629174"><ele>139.0</ele><time>2026-04-24T16:49:53Z</time></trkpt><trkpt lat="42.79584124081371" lon="10.400515691897096"><ele>139.0</ele><time>2026-04-24T16:49:54Z</time></trkpt><trkpt lat="42.795942942681904" lon="10.400525341992354"><ele>139.0</ele><time>2026-04-24T16:49:55Z</time></trkpt><trkpt lat="42.79604746110169" lon="10.400565409477402"><ele>139.0</ele><time>2026-04-24T16:49:56Z</time></trkpt><trkpt lat="42.79614593321039" lon="10.400608892288407"><ele>139.0</ele><time>2026-04-24T16:49:57Z</time></trkpt><trkpt lat="42.796241205052674" lon="10.400669172115883"><ele>139.0</ele><time>2026-04-24T16:49:58Z</time></trkpt><trkpt lat="42.796328940780874" lon="10.400736666455924"><ele>141.2</ele><time>2026-04-24T16:49:59Z</time></trkpt><trkpt lat="42.79640849736778" lon="10.4008538928042"><ele>143.4</ele><time>2026-04-24T16:50:00Z</time></trkpt><trkpt lat="42.79647710458872" lon="10.400966542626628"><ele>145.6</ele><time>2026-04-24T16:50:01Z</time></trkpt><trkpt lat="42.79654091358829" lon="10.401080185082593"><ele>147.8</ele><time>2026-04-24T16:50:02Z</time></trkpt><trkpt lat="42.796595155451335" lon="10.401190757685134"><ele>150.0</ele><time>2026-04-24T16:50:03Z</time></trkpt><trkpt lat="42.79665804462756" lon="10.40127906040159"><ele>148.4</ele><time>2026-04-24T16:50:04Z</time></trkpt><trkpt lat="42.796738400172345" lon="10.401359281199845"><ele>146.8</ele><time>2026-04-24T16:50:05Z</time></trkpt><trkpt lat="42.79683642669093" lon="10.401413680121404"><ele>145.2</ele><time>2026-04-24T16:50:06Z</time></trkpt><trkpt lat="42.79693326808118" lon="10.401433122100665"><ele>143.6</ele><time>2026-04-24T16:50:07Z</time></trkpt><trkpt lat="42.79703940848782" lon="10.40142829657602"><ele>142.0</ele><time>2026-04-24T16:50:08Z</time></trkpt><trkpt lat="42.797146719956274" lon="10.401396201973066"><ele>142.0</ele><time>2026-04-24T16:50:09Z</time></trkpt><trkpt lat="42.79724962875416" lon="10.40134250794448"><ele>142.0</ele><time>2026-04-24T16:50:10Z</time></trkpt><trkpt lat="42.797349136978944" lon="10.401275808195464"><ele>142.0</ele><time>2026-04-24T16:50:11Z</time></trkpt><trkpt lat="42.79745397108116" lon="10.401211617425853"><ele>142.0</ele><time>2026-04-24T16:50:12Z</time></trkpt><trkpt lat="42.79755875357185" lon="10.401167002647263"><ele>142.0</ele><time>2026-04-24T16:50:13Z</time></trkpt><trkpt lat="42.797642309337284" lon="10.401099936085341"><ele>141.6</ele><time>2026-04-24T16:50:14Z</time></trkpt><trkpt lat="42.79773755904416" lon="10.401047033511352"><ele>141.2</ele><time>2026-04-24T16:50:15Z</time></trkpt><trkpt lat="42.79783623237162" lon="10.400982783202453"><ele>140.8</ele><time>2026-04-24T16:50:16Z</time></trkpt><trkpt lat="42.79791618550371" lon="10.400906069094644"><ele>140.4</ele><time>2026-04-24T16:50:17Z</time></trkpt><trkpt lat="42.79800037843848" lon="10.400810055476864"><ele>140.0</ele><time>2026-04-24T16:50:18Z</time></trkpt><trkpt lat="42.79807739317233" lon="10.400695201751688"><ele>140.0</ele><time>2026-04-24T16:50:19Z</time></trkpt><trkpt lat="42.798142399983554" lon="10.400590091236285"><ele>140.0</ele><time>2026-04-24T16:50:20Z</time></trkpt><trkpt lat="42.79820112837997" lon="10.400489557636936"><ele>140.0</ele><time>2026-04-24T16:50:21Z</time></trkpt><trkpt lat="42.798251293257366" lon="10.400378124777307"><ele>140.0</ele><time>2026-04-24T16:50:22Z</time></trkpt><trkpt lat="42.7983130638252" lon="10.400294435026028"><ele>140.0</ele><time>2026-04-24T16:50:23Z</time></trkpt><trkpt lat="42.798388319264305" lon="10.40022796520984"><ele>142.8</ele><time>2026-04-24T16:50:24Z</time></trkpt><trkpt lat="42.798472182281884" lon="10.400169948044473"><ele>145.6</ele><time>2026-04-24T16:50:25Z</time></trkpt><trkpt lat="42.79855957241467" lon="10.400161343575055"><ele>148.4</ele><time>2026-04-24T16:50:26Z</time></trkpt><trkpt lat="42.79865117522616" lon="10.400210077750861"><ele>151.2</ele><time>2026-04-24T16:50:27Z</time></trkpt><trkpt lat="42.79872984794973" lon="10.400309854221419"><ele>154.0</ele><time>2026-04-24T16:50:28Z</time></trkpt><trkpt lat="42.79878353703829" lon="10.400420151673796"><ele>154.0</ele><time>2026-04-24T16:50:29Z</time></trkpt><trkpt lat="42.79885139048996" lon="10.400475866834809"><ele>154.0</ele><time>2026-04-24T16:50:30Z</time></trkpt><trkpt lat="42.79891642460392" lon="10.400519070421128"><ele>154.0</ele><time>2026-04-24T16:50:31Z</time></trkpt><trkpt lat="42.79900294760508" lon="10.40053080308228"><ele>154.0</ele><time>2026-04-24T16:50:32Z</time></trkpt><trkpt lat="42.7991028515536" lon="10.400508876153811"><ele>154.0</ele><time>2026-04-24T16:50:33Z</time></trkpt><trkpt lat="42.799191960198115" lon="10.400454736802997"><ele>154.0</ele><time>2026-04-24T16:50:34Z</time></trkpt><trkpt lat="42.799288230141535" lon="10.400382848083927"><ele>155.2</ele><time>2026-04-24T16:50:35Z</time></trkpt><trkpt lat="42.79938555955379" lon="10.400318410386424"><ele>156.4</ele><time>2026-04-24T16:50:36Z</time></trkpt><trkpt lat="42.799486226387884" lon="10.400255859323707"><ele>157.6</ele><time>2026-04-24T16:50:37Z</time></trkpt><trkpt lat="42.79956691659424" lon="10.400239069183911"><ele>158.8</ele><time>2026-04-24T16:50:38Z</time></trkpt><trkpt lat="42.79966100799848" lon="10.400238180597107"><ele>160.0</ele><time>2026-04-24T16:50:39Z</time></trkpt><trkpt lat="42.79973219015249" lon="10.40027341286244"><ele>160.0</ele><time>2026-04-24T16:50:40Z</time></trkpt><trkpt lat="42.799792198302455" lon="10.400377234561395"><ele>160.0</ele><time>2026-04-24T16:50:41Z</time></trkpt><trkpt lat="42.79983463682416" lon="10.400503555640158"><ele>160.0</ele><time>2026-04-24T16:50:42Z</time></trkpt><trkpt lat="42.79989731211278" lon="10.40062668732028"><ele>160.0</ele><time>2026-04-24T16:50:43Z</time></trkpt><trkpt lat="42.799961858743515" lon="10.400751939799337"><ele>160.0</ele><time>2026-04-24T16:50:44Z</time></trkpt><trkpt lat="42.800047321445426" lon="10.400859797392375"><ele>160.6</ele><time>2026-04-24T16:50:45Z</time></trkpt><trkpt lat="42.800133130941056" lon="10.400952812706462"><ele>161.2</ele><time>2026-04-24T16:50:46Z</time></trkpt><trkpt lat="42.800219039984206" lon="10.401020921972668"><ele>161.8</ele><time>2026-04-24T16:50:47Z</time></trkpt><trkpt lat="42.80029637295142" lon="10.401090766001404"><ele>162.4</ele><time>2026-04-24T16:50:48Z</time></trkpt><trkpt lat="42.80036489283748" lon="10.401154481736032"><ele>163.0</ele><time>2026-04-24T16:50:49Z</time></trkpt><trkpt lat="42.80042376314148" lon="10.401226549182844"><ele>163.0</ele><time>2026-04-24T16:50:50Z</time></trkpt><trkpt lat="42.80046047524205" lon="10.401321703833057"><ele>163.0</ele><time>2026-04-24T16:50:51Z</time></trkpt><trkpt lat="42.80044654703929" lon="10.401425222414096"><ele>163.0</ele><time>2026-04-24T16:50:52Z</time></trkpt><trkpt lat="42.80037606283836" lon="10.401576162210615"><ele>163.0</ele><time>2026-04-24T16:50:54Z</time></trkpt><trkpt lat="42.80031527592753" lon="10.401663154802089"><ele>163.0</ele><time>2026-04-24T16:50:55Z</time></trkpt><trkpt lat="42.800255221825545" lon="10.401772500709686"><ele>162.60000000000002</ele><time>2026-04-24T16:50:56Z</time></trkpt><trkpt lat="42.80017951584787" lon="10.401875937238438"><ele>162.20000000000002</ele><time>2026-04-24T16:50:57Z</time></trkpt><trkpt lat="42.80010082946797" lon="10.401989755122415"><ele>161.8</ele><time>2026-04-24T16:50:58Z</time></trkpt><trkpt lat="42.80002664188987" lon="10.402085048181663"><ele>161.4</ele><time>2026-04-24T16:50:59Z</time></trkpt><trkpt lat="42.79994964407951" lon="10.402175907250848"><ele>161.0</ele><time>2026-04-24T16:51:00Z</time></trkpt><trkpt lat="42.799888027367174" lon="10.402295421870638"><ele>156.8</ele><time>2026-04-24T16:51:01Z</time></trkpt><trkpt lat="42.79984570700109" lon="10.402423723710221"><ele>152.60000000000002</ele><time>2026-04-24T16:51:02Z</time></trkpt><trkpt lat="42.79983212806557" lon="10.402560409411231"><ele>148.4</ele><time>2026-04-24T16:51:03Z</time></trkpt><trkpt lat="42.799831272576235" lon="10.402700311623493"><ele>144.2</ele><time>2026-04-24T16:51:04Z</time></trkpt><trkpt lat="42.79984299194042" lon="10.402859106044094"><ele>140.0</ele><time>2026-04-24T16:51:05Z</time></trkpt><trkpt lat="42.79990545853135" lon="10.40302750368307"><ele>139.0</ele><time>2026-04-24T16:51:06Z</time></trkpt><trkpt lat="42.799947657692506" lon="10.403161324633166"><ele>138.0</ele><time>2026-04-24T16:51:07Z</time></trkpt><trkpt lat="42.79998700667343" lon="10.403290769513099"><ele>137.0</ele><time>2026-04-24T16:51:08Z</time></trkpt><trkpt lat="42.800026053447226" lon="10.403425234311646"><ele>136.0</ele><time>2026-04-24T16:51:09Z</time></trkpt><trkpt lat="42.800085887896806" lon="10.403548955249535"><ele>135.0</ele><time>2026-04-24T16:51:10Z</time></trkpt><trkpt lat="42.80015968501845" lon="10.403678870408259"><ele>137.6</ele><time>2026-04-24T16:51:11Z</time></trkpt><trkpt lat="42.80023794349658" lon="10.403800428353486"><ele>140.2</ele><time>2026-04-24T16:51:12Z</time></trkpt><trkpt lat="42.80032219708317" lon="10.403902705257854"><ele>142.8</ele><time>2026-04-24T16:51:13Z</time></trkpt><trkpt lat="42.80040073878423" lon="10.404001436394724"><ele>145.4</ele><time>2026-04-24T16:51:14Z</time></trkpt><trkpt lat="42.80047415690941" lon="10.404113122589667"><ele>148.0</ele><time>2026-04-24T16:51:15Z</time></trkpt><trkpt lat="42.80053989991192" lon="10.404232031491535"><ele>148.0</ele><time>2026-04-24T16:51:16Z</time></trkpt><trkpt lat="42.80060399521312" lon="10.404356803029481"><ele>148.0</ele><time>2026-04-24T16:51:17Z</time></trkpt><trkpt lat="42.80067112635586" lon="10.40447735523622"><ele>148.0</ele><time>2026-04-24T16:51:18Z</time></trkpt><trkpt lat="42.80073922322298" lon="10.404602043583758"><ele>148.0</ele><time>2026-04-24T16:51:19Z</time></trkpt><trkpt lat="42.800809150914425" lon="10.404719112164102"><ele>148.0</ele><time>2026-04-24T16:51:20Z</time></trkpt><trkpt lat="42.80087475168246" lon="10.404832281009819"><ele>145.6</ele><time>2026-04-24T16:51:21Z</time></trkpt><trkpt lat="42.80094256270773" lon="10.404941563475179"><ele>143.20000000000002</ele><time>2026-04-24T16:51:22Z</time></trkpt><trkpt lat="42.80101208230476" lon="10.405046723775925"><ele>140.8</ele><time>2026-04-24T16:51:23Z</time></trkpt><trkpt lat="42.80107184436086" lon="10.405143760282886"><ele>138.4</ele><time>2026-04-24T16:51:24Z</time></trkpt><trkpt lat="42.801137533780434" lon="10.405238105413945"><ele>136.0</ele><time>2026-04-24T16:51:25Z</time></trkpt><trkpt lat="42.80122321330901" lon="10.4053210937502"><ele>136.0</ele><time>2026-04-24T16:51:26Z</time></trkpt><trkpt lat="42.80132502573936" lon="10.405379812661806"><ele>136.0</ele><time>2026-04-24T16:51:27Z</time></trkpt><trkpt lat="42.801434517002896" lon="10.405413416190141"><ele>136.0</ele><time>2026-04-24T16:51:28Z</time></trkpt><trkpt lat="42.80155192267746" lon="10.405418751578281"><ele>136.0</ele><time>2026-04-24T16:51:29Z</time></trkpt><trkpt lat="42.801668493076264" lon="10.405413619593345"><ele>136.0</ele><time>2026-04-24T16:51:30Z</time></trkpt><trkpt lat="42.801779087406544" lon="10.405334140872968"><ele>136.0</ele><time>2026-04-24T16:51:31Z</time></trkpt><trkpt lat="42.8018865178075" lon="10.40524375424838"><ele>136.0</ele><time>2026-04-24T16:51:32Z</time></trkpt><trkpt lat="42.80198834958599" lon="10.405131500380909"><ele>136.0</ele><time>2026-04-24T16:51:33Z</time></trkpt><trkpt lat="42.80208196737303" lon="10.405010285771361"><ele>134.5</ele><time>2026-04-24T16:51:34Z</time></trkpt><trkpt lat="42.80217707089759" lon="10.404875512296586"><ele>133.0</ele><time>2026-04-24T16:51:35Z</time></trkpt><trkpt lat="42.802260042523514" lon="10.404729153977083"><ele>131.5</ele><time>2026-04-24T16:51:36Z</time></trkpt><trkpt lat="42.802336361080805" lon="10.404568339454492"><ele>130.0</ele><time>2026-04-24T16:51:37Z</time></trkpt><trkpt lat="42.80240305505238" lon="10.404401911184923"><ele>130.0</ele><time>2026-04-24T16:51:38Z</time></trkpt><trkpt lat="42.80245801600748" lon="10.404230270739523"><ele>130.0</ele><time>2026-04-24T16:51:39Z</time></trkpt><trkpt lat="42.802512793424064" lon="10.404069126544428"><ele>130.0</ele><time>2026-04-24T16:51:40Z</time></trkpt><trkpt lat="42.80256444265078" lon="10.403902302995506"><ele>130.0</ele><time>2026-04-24T16:51:41Z</time></trkpt><trkpt lat="42.802615234428494" lon="10.403733303646005"><ele>127.0</ele><time>2026-04-24T16:51:42Z</time></trkpt><trkpt lat="42.80266197501257" lon="10.403570029510744"><ele>124.0</ele><time>2026-04-24T16:51:43Z</time></trkpt><trkpt lat="42.80270743721881" lon="10.403407102116951"><ele>121.0</ele><time>2026-04-24T16:51:44Z</time></trkpt><trkpt lat="42.80274615395256" lon="10.403237626877015"><ele>118.0</ele><time>2026-04-24T16:51:45Z</time></trkpt><trkpt lat="42.80278665115147" lon="10.403080106088256"><ele>121.75</ele><time>2026-04-24T16:51:46Z</time></trkpt><trkpt lat="42.80281596782068" lon="10.402915429441975"><ele>125.5</ele><time>2026-04-24T16:51:47Z</time></trkpt><trkpt lat="42.80283956571964" lon="10.402757923068979"><ele>129.25</ele><time>2026-04-24T16:51:48Z</time></trkpt><trkpt lat="42.80285629211792" lon="10.402607904473937"><ele>133.0</ele><time>2026-04-24T16:51:49Z</time></trkpt><trkpt lat="42.80287176492676" lon="10.402472000744549"><ele>133.0</ele><time>2026-04-24T16:51:50Z</time></trkpt><trkpt lat="42.802889813654" lon="10.40235745227064"><ele>133.0</ele><time>2026-04-24T16:51:51Z</time></trkpt><trkpt lat="42.80291134208566" lon="10.402251333559615"><ele>133.0</ele><time>2026-04-24T16:51:52Z</time></trkpt><trkpt lat="42.80294328759706" lon="10.402157371658882"><ele>133.0</ele><time>2026-04-24T16:51:53Z</time></trkpt><trkpt lat="42.80299825877037" lon="10.402075879220924"><ele>133.0</ele><time>2026-04-24T16:51:54Z</time></trkpt><trkpt lat="42.80308076277267" lon="10.402029597179483"><ele>133.0</ele><time>2026-04-24T16:51:55Z</time></trkpt><trkpt lat="42.80316938177394" lon="10.402010257041525"><ele>133.0</ele><time>2026-04-24T16:51:56Z</time></trkpt><trkpt lat="42.80325928143933" lon="10.40202493912584"><ele>133.0</ele><time>2026-04-24T16:51:57Z</time></trkpt><trkpt lat="42.803344590471205" lon="10.402085784479228"><ele>133.0</ele><time>2026-04-24T16:51:58Z</time></trkpt><trkpt lat="42.803418369739646" lon="10.402169211949168"><ele>133.0</ele><time>2026-04-24T16:51:59Z</time></trkpt><trkpt lat="42.80348095510407" lon="10.402279541644694"><ele>133.0</ele><time>2026-04-24T16:52:00Z</time></trkpt><trkpt lat="42.80354668791202" lon="10.4024086208655"><ele>134.6</ele><time>2026-04-24T16:52:01Z</time></trkpt><trkpt lat="42.80360933221724" lon="10.402543198813591"><ele>136.20000000000002</ele><time>2026-04-24T16:52:02Z</time></trkpt><trkpt lat="42.80367491183637" lon="10.402662026821305"><ele>137.8</ele><time>2026-04-24T16:52:03Z</time></trkpt><trkpt lat="42.80374740863705" lon="10.40277789363577"><ele>139.4</ele><time>2026-04-24T16:52:04Z</time></trkpt><trkpt lat="42.80379091522192" lon="10.402915239473115"><ele>141.0</ele><time>2026-04-24T16:52:05Z</time></trkpt><trkpt lat="42.803862829438295" lon="10.403042901013613"><ele>141.0</ele><time>2026-04-24T16:52:06Z</time></trkpt><trkpt lat="42.80393000751555" lon="10.403168347985467"><ele>141.0</ele><time>2026-04-24T16:52:07Z</time></trkpt><trkpt lat="42.804003316730714" lon="10.403298587207233"><ele>141.0</ele><time>2026-04-24T16:52:08Z</time></trkpt><trkpt lat="42.80407259128956" lon="10.403424355828173"><ele>141.0</ele><time>2026-04-24T16:52:09Z</time></trkpt><trkpt lat="42.804133850813415" lon="10.403545313836291"><ele>141.0</ele><time>2026-04-24T16:52:10Z</time></trkpt><trkpt lat="42.80419160859489" lon="10.40366091282288"><ele>141.0</ele><time>2026-04-24T16:52:11Z</time></trkpt><trkpt lat="42.80424255332631" lon="10.403775681555475"><ele>141.0</ele><time>2026-04-24T16:52:12Z</time></trkpt><trkpt lat="42.804299909701804" lon="10.403894746587728"><ele>141.0</ele><time>2026-04-24T16:52:13Z</time></trkpt><trkpt lat="42.804370278625264" lon="10.403991625345881"><ele>141.0</ele><time>2026-04-24T16:52:14Z</time></trkpt><trkpt lat="42.804464591889015" lon="10.40406128485727"><ele>138.75</ele><time>2026-04-24T16:52:15Z</time></trkpt><trkpt lat="42.80457239030932" lon="10.404114546302335"><ele>136.5</ele><time>2026-04-24T16:52:16Z</time></trkpt><trkpt lat="42.80468554057796" lon="10.40414549170363"><ele>134.25</ele><time>2026-04-24T16:52:17Z</time></trkpt><trkpt lat="42.804796954571266" lon="10.404167141825754"><ele>132.0</ele><time>2026-04-24T16:52:18Z</time></trkpt><trkpt lat="42.8049212572983" lon="10.40417915912803"><ele>132.0</ele><time>2026-04-24T16:52:19Z</time></trkpt><trkpt lat="42.80504020935188" lon="10.404192342052134"><ele>132.0</ele><time>2026-04-24T16:52:20Z</time></trkpt><trkpt lat="42.805165616509726" lon="10.404192867688836"><ele>132.0</ele><time>2026-04-24T16:52:21Z</time></trkpt><trkpt lat="42.80528634266852" lon="10.40417843881092"><ele>132.0</ele><time>2026-04-24T16:52:22Z</time></trkpt><trkpt lat="42.80540259962424" lon="10.404149906141779"><ele>129.75</ele><time>2026-04-24T16:52:23Z</time></trkpt><trkpt lat="42.805506468559805" lon="10.404090883270907"><ele>127.5</ele><time>2026-04-24T16:52:24Z</time></trkpt><trkpt lat="42.80561000278366" lon="10.404000368579464"><ele>125.25</ele><time>2026-04-24T16:52:25Z</time></trkpt><trkpt lat="42.805716221299065" lon="10.403890188179645"><ele>123.0</ele><time>2026-04-24T16:52:26Z</time></trkpt><trkpt lat="42.805815814503944" lon="10.403784050594409"><ele>121.75</ele><time>2026-04-24T16:52:27Z</time></trkpt><trkpt lat="42.80591466984085" lon="10.403685095724372"><ele>120.5</ele><time>2026-04-24T16:52:28Z</time></trkpt><trkpt lat="42.80601273470649" lon="10.403588813837775"><ele>119.25</ele><time>2026-04-24T16:52:29Z</time></trkpt><trkpt lat="42.80611631542949" lon="10.40348613509272"><ele>118.0</ele><time>2026-04-24T16:52:30Z</time></trkpt><trkpt lat="42.80621408409948" lon="10.4033909314918"><ele>118.0</ele><time>2026-04-24T16:52:31Z</time></trkpt><trkpt lat="42.806309557579205" lon="10.403280923602455"><ele>118.0</ele><time>2026-04-24T16:52:32Z</time></trkpt><trkpt lat="42.80639330573183" lon="10.403153724836606"><ele>118.0</ele><time>2026-04-24T16:52:33Z</time></trkpt><trkpt lat="42.806465650718714" lon="10.403009266123933"><ele>118.0</ele><time>2026-04-24T16:52:34Z</time></trkpt><trkpt lat="42.80652854777383" lon="10.40284893695908"><ele>122.0</ele><time>2026-04-24T16:52:35Z</time></trkpt><trkpt lat="42.80659091300372" lon="10.40269287942747"><ele>126.0</ele><time>2026-04-24T16:52:36Z</time></trkpt><trkpt lat="42.80664602490427" lon="10.402528813019893"><ele>130.0</ele><time>2026-04-24T16:52:37Z</time></trkpt><trkpt lat="42.80670209660882" lon="10.402359867605819"><ele>134.0</ele><time>2026-04-24T16:52:38Z</time></trkpt><trkpt lat="42.80675712339553" lon="10.40220502283141"><ele>135.75</ele><time>2026-04-24T16:52:39Z</time></trkpt><trkpt lat="42.80681291882581" lon="10.402061763874762"><ele>137.5</ele><time>2026-04-24T16:52:40Z</time></trkpt><trkpt lat="42.80687433245332" lon="10.401926690446045"><ele>139.25</ele><time>2026-04-24T16:52:41Z</time></trkpt><trkpt lat="42.806941006102434" lon="10.401780117673324"><ele>141.0</ele><time>2026-04-24T16:52:42Z</time></trkpt><trkpt lat="42.807009494249534" lon="10.401651185536615"><ele>139.75</ele><time>2026-04-24T16:52:43Z</time></trkpt><trkpt lat="42.80707839333808" lon="10.401523338861086"><ele>138.5</ele><time>2026-04-24T16:52:44Z</time></trkpt><trkpt lat="42.80713852617705" lon="10.40138096843631"><ele>137.25</ele><time>2026-04-24T16:52:45Z</time></trkpt><trkpt lat="42.80720530346364" lon="10.401244400735125"><ele>136.0</ele><time>2026-04-24T16:52:46Z</time></trkpt><trkpt lat="42.80726655559402" lon="10.401104635601493"><ele>136.0</ele><time>2026-04-24T16:52:47Z</time></trkpt><trkpt lat="42.80732807069314" lon="10.400976126588644"><ele>136.0</ele><time>2026-04-24T16:52:48Z</time></trkpt><trkpt lat="42.807386289770726" lon="10.400868104095755"><ele>136.0</ele><time>2026-04-24T16:52:49Z</time></trkpt><trkpt lat="42.8074363643572" lon="10.400774324950895"><ele>136.0</ele><time>2026-04-24T16:52:50Z</time></trkpt><trkpt lat="42.807479166828806" lon="10.400699151966567"><ele>136.0</ele><time>2026-04-24T16:52:51Z</time></trkpt><trkpt lat="42.807534577831056" lon="10.400643061736588"><ele>136.0</ele><time>2026-04-24T16:52:52Z</time></trkpt><trkpt lat="42.8076040434083" lon="10.400622135206174"><ele>136.16666666666669</ele><time>2026-04-24T16:52:53Z</time></trkpt><trkpt lat="42.80767548431199" lon="10.400622116733723"><ele>136.33333333333334</ele><time>2026-04-24T16:52:54Z</time></trkpt><trkpt lat="42.807748314839635" lon="10.400678520276184"><ele>136.5</ele><time>2026-04-24T16:52:55Z</time></trkpt><trkpt lat="42.80783596303431" lon="10.400705476536338"><ele>136.66666666666666</ele><time>2026-04-24T16:52:56Z</time></trkpt><trkpt lat="42.80792150634903" lon="10.400762939970045"><ele>136.83333333333331</ele><time>2026-04-24T16:52:57Z</time></trkpt><trkpt lat="42.80801506317429" lon="10.400821587178582"><ele>137.0</ele><time>2026-04-24T16:52:58Z</time></trkpt><trkpt lat="42.80810372008193" lon="10.400889119038942"><ele>137.0</ele><time>2026-04-24T16:52:59Z</time></trkpt><trkpt lat="42.80820752098089" lon="10.400950703855603"><ele>137.0</ele><time>2026-04-24T16:53:00Z</time></trkpt><trkpt lat="42.80829583581609" lon="10.400998329523702"><ele>137.0</ele><time>2026-04-24T16:53:01Z</time></trkpt><trkpt lat="42.808389598389134" lon="10.401050276170391"><ele>137.0</ele><time>2026-04-24T16:53:02Z</time></trkpt><trkpt lat="42.808477817917804" lon="10.40109937428842"><ele>137.0</ele><time>2026-04-24T16:53:03Z</time></trkpt><trkpt lat="42.80857179005828" lon="10.401152576203428"><ele>138.5</ele><time>2026-04-24T16:53:04Z</time></trkpt><trkpt lat="42.808674036482635" lon="10.401212526179762"><ele>140.0</ele><time>2026-04-24T16:53:05Z</time></trkpt><trkpt lat="42.808784607742304" lon="10.401275540727916"><ele>141.5</ele><time>2026-04-24T16:53:06Z</time></trkpt><trkpt lat="42.80889521607874" lon="10.401340678037258"><ele>143.0</ele><time>2026-04-24T16:53:07Z</time></trkpt><trkpt lat="42.80900544360253" lon="10.401406295992693"><ele>143.0</ele><time>2026-04-24T16:53:08Z</time></trkpt><trkpt lat="42.80911200813357" lon="10.4014679414439"><ele>143.0</ele><time>2026-04-24T16:53:09Z</time></trkpt><trkpt lat="42.80921909757108" lon="10.401529580048877"><ele>143.0</ele><time>2026-04-24T16:53:10Z</time></trkpt><trkpt lat="42.8093236122251" lon="10.401587659628163"><ele>143.0</ele><time>2026-04-24T16:53:11Z</time></trkpt><trkpt lat="42.8094193944432" lon="10.401644390353157"><ele>143.0</ele><time>2026-04-24T16:53:12Z</time></trkpt><trkpt lat="42.809508377671335" lon="10.401711951732342"><ele>143.0</ele><time>2026-04-24T16:53:13Z</time></trkpt><trkpt lat="42.80958300996611" lon="10.401794823899094"><ele>143.0</ele><time>2026-04-24T16:53:14Z</time></trkpt><trkpt lat="42.80964207966507" lon="10.401901287967226"><ele>143.0</ele><time>2026-04-24T16:53:15Z</time></trkpt><trkpt lat="42.80967674340421" lon="10.402029324372812"><ele>143.0</ele><time>2026-04-24T16:53:16Z</time></trkpt><trkpt lat="42.80970324954975" lon="10.402165646691017"><ele>143.0</ele><time>2026-04-24T16:53:17Z</time></trkpt><trkpt lat="42.8097337727139" lon="10.402308455177947"><ele>140.8</ele><time>2026-04-24T16:53:18Z</time></trkpt><trkpt lat="42.8097677590357" lon="10.402451117577247"><ele>138.60000000000002</ele><time>2026-04-24T16:53:19Z</time></trkpt><trkpt lat="42.80980574606526" lon="10.402574194330832"><ele>136.39999999999998</ele><time>2026-04-24T16:53:20Z</time></trkpt><trkpt lat="42.80985106166078" lon="10.402683109629894"><ele>134.2</ele><time>2026-04-24T16:53:21Z</time></trkpt><trkpt lat="42.80989122306852" lon="10.40276662411934"><ele>132.0</ele><time>2026-04-24T16:53:22Z</time></trkpt><trkpt lat="42.80992901451252" lon="10.402871347051402"><ele>131.4</ele><time>2026-04-24T16:53:24Z</time></trkpt><trkpt lat="42.80997902674382" lon="10.40300025119192"><ele>130.79999999999998</ele><time>2026-04-24T16:53:26Z</time></trkpt><trkpt lat="42.81000301408348" lon="10.403100022631453"><ele>130.2</ele><time>2026-04-24T16:53:27Z</time></trkpt><trkpt lat="42.810048305779326" lon="10.403199615739956"><ele>129.6</ele><time>2026-04-24T16:53:28Z</time></trkpt><trkpt lat="42.81010109463921" lon="10.403319227524896"><ele>129.0</ele><time>2026-04-24T16:53:29Z</time></trkpt><trkpt lat="42.81015839522091" lon="10.403451510704269"><ele>127.5</ele><time>2026-04-24T16:53:30Z</time></trkpt><trkpt lat="42.810211398108336" lon="10.403582755265372"><ele>126.0</ele><time>2026-04-24T16:53:31Z</time></trkpt><trkpt lat="42.81028372947546" lon="10.4037240354209"><ele>124.5</ele><time>2026-04-24T16:53:32Z</time></trkpt><trkpt lat="42.81035570498439" lon="10.403865554970379"><ele>123.0</ele><time>2026-04-24T16:53:33Z</time></trkpt><trkpt lat="42.81043947689777" lon="10.403997106634119"><ele>121.5</ele><time>2026-04-24T16:53:34Z</time></trkpt><trkpt lat="42.81053147975436" lon="10.404119143858367"><ele>120.0</ele><time>2026-04-24T16:53:35Z</time></trkpt><trkpt lat="42.81062243203864" lon="10.404230638523233"><ele>118.5</ele><time>2026-04-24T16:53:36Z</time></trkpt><trkpt lat="42.810717442379676" lon="10.40432997045815"><ele>117.0</ele><time>2026-04-24T16:53:37Z</time></trkpt><trkpt lat="42.81081713025319" lon="10.404415295728391"><ele>117.0</ele><time>2026-04-24T16:53:38Z</time></trkpt><trkpt lat="42.81090156157529" lon="10.404492869874025"><ele>116.99999999999999</ele><time>2026-04-24T16:53:39Z</time></trkpt><trkpt lat="42.81098467905379" lon="10.404567889721253"><ele>116.99999999999999</ele><time>2026-04-24T16:53:40Z</time></trkpt><trkpt lat="42.811055901859966" lon="10.404649824649079"><ele>117.0</ele><time>2026-04-24T16:53:41Z</time></trkpt><trkpt lat="42.81110646994412" lon="10.404742959217431"><ele>117.0</ele><time>2026-04-24T16:53:42Z</time></trkpt><trkpt lat="42.81113753665163" lon="10.404857417759178"><ele>112.39999999999999</ele><time>2026-04-24T16:53:43Z</time></trkpt><trkpt lat="42.81115743569345" lon="10.404984689991425"><ele>107.79999999999998</ele><time>2026-04-24T16:53:44Z</time></trkpt><trkpt lat="42.81116433917586" lon="10.405124414671016"><ele>103.2</ele><time>2026-04-24T16:53:45Z</time></trkpt><trkpt lat="42.81116203107593" lon="10.405259720848898"><ele>98.6</ele><time>2026-04-24T16:53:46Z</time></trkpt><trkpt lat="42.81114003366952" lon="10.405400143331747"><ele>94.0</ele><time>2026-04-24T16:53:47Z</time></trkpt><trkpt lat="42.81111255403302" lon="10.405522584716303"><ele>93.2</ele><time>2026-04-24T16:53:48Z</time></trkpt><trkpt lat="42.81106724051036" lon="10.405639609319875"><ele>92.4</ele><time>2026-04-24T16:53:49Z</time></trkpt><trkpt lat="42.81102785209603" lon="10.405750621696122"><ele>91.6</ele><time>2026-04-24T16:53:50Z</time></trkpt><trkpt lat="42.811005109338566" lon="10.40586006998273"><ele>90.8</ele><time>2026-04-24T16:53:51Z</time></trkpt><trkpt lat="42.81099751865236" lon="10.40598512769446"><ele>90.0</ele><time>2026-04-24T16:53:52Z</time></trkpt><trkpt lat="42.81102701962114" lon="10.40611015333942"><ele>90.0</ele><time>2026-04-24T16:53:53Z</time></trkpt><trkpt lat="42.81107573064485" lon="10.406230670611963"><ele>90.0</ele><time>2026-04-24T16:53:54Z</time></trkpt><trkpt lat="42.81112533898887" lon="10.406350849661605"><ele>90.0</ele><time>2026-04-24T16:53:55Z</time></trkpt><trkpt lat="42.81118056480521" lon="10.406448733681806"><ele>90.0</ele><time>2026-04-24T16:53:56Z</time></trkpt><trkpt lat="42.81119170582683" lon="10.406568349311357"><ele>90.0</ele><time>2026-04-24T16:53:57Z</time></trkpt><trkpt lat="42.81120351145821" lon="10.406679837440802"><ele>89.4</ele><time>2026-04-24T16:53:58Z</time></trkpt><trkpt lat="42.81119956609901" lon="10.406780832789373"><ele>88.8</ele><time>2026-04-24T16:53:59Z</time></trkpt><trkpt lat="42.81119264402508" lon="10.406905637190743"><ele>88.19999999999999</ele><time>2026-04-24T16:54:00Z</time></trkpt><trkpt lat="42.811160314452344" lon="10.407022977023235"><ele>87.6</ele><time>2026-04-24T16:54:01Z</time></trkpt><trkpt lat="42.81110555916158" lon="10.40714011773484"><ele>87.0</ele><time>2026-04-24T16:54:02Z</time></trkpt><trkpt lat="42.81106407691969" lon="10.407264708425195"><ele>85.39999999999999</ele><time>2026-04-24T16:54:03Z</time></trkpt><trkpt lat="42.81102001249767" lon="10.407394405229484"><ele>83.8</ele><time>2026-04-24T16:54:04Z</time></trkpt><trkpt lat="42.810976143626284" lon="10.407523526450838"><ele>82.2</ele><time>2026-04-24T16:54:05Z</time></trkpt><trkpt lat="42.810933190625875" lon="10.407645041514861"><ele>80.6</ele><time>2026-04-24T16:54:06Z</time></trkpt><trkpt lat="42.81088722490188" lon="10.407763626207092"><ele>79.0</ele><time>2026-04-24T16:54:07Z</time></trkpt><trkpt lat="42.8108471651617" lon="10.407878575189955"><ele>80.2</ele><time>2026-04-24T16:54:08Z</time></trkpt><trkpt lat="42.81077990582584" lon="10.407975143364082"><ele>81.4</ele><time>2026-04-24T16:54:09Z</time></trkpt><trkpt lat="42.810695732212665" lon="10.408050920769544"><ele>82.6</ele><time>2026-04-24T16:54:10Z</time></trkpt><trkpt lat="42.81060520715461" lon="10.408103177390208"><ele>83.8</ele><time>2026-04-24T16:54:11Z</time></trkpt><trkpt lat="42.81051662857533" lon="10.408148740326006"><ele>85.0</ele><time>2026-04-24T16:54:12Z</time></trkpt><trkpt lat="42.81041984132298" lon="10.408190559809922"><ele>85.0</ele><time>2026-04-24T16:54:13Z</time></trkpt><trkpt lat="42.81032290893375" lon="10.408238747912788"><ele>85.0</ele><time>2026-04-24T16:54:14Z</time></trkpt><trkpt lat="42.81022924735511" lon="10.408291867435025"><ele>85.0</ele><time>2026-04-24T16:54:15Z</time></trkpt><trkpt lat="42.81013067399018" lon="10.408337655627635"><ele>85.0</ele><time>2026-04-24T16:54:16Z</time></trkpt><trkpt lat="42.81004130123624" lon="10.40839756713531"><ele>85.0</ele><time>2026-04-24T16:54:17Z</time></trkpt><trkpt lat="42.809941072339655" lon="10.408401587876835"><ele>85.83333333333333</ele><time>2026-04-24T16:54:18Z</time></trkpt><trkpt lat="42.80987026604349" lon="10.408450438200656"><ele>86.66666666666666</ele><time>2026-04-24T16:54:19Z</time></trkpt><trkpt lat="42.809811909332076" lon="10.408500656716939"><ele>87.5</ele><time>2026-04-24T16:54:20Z</time></trkpt><trkpt lat="42.809754267227156" lon="10.408636080555231"><ele>88.33333333333333</ele><time>2026-04-24T16:54:22Z</time></trkpt><trkpt lat="42.80974831706117" lon="10.408723590013631"><ele>89.16666666666667</ele><time>2026-04-24T16:54:23Z</time></trkpt><trkpt lat="42.80977312868835" lon="10.408818244974155"><ele>90.0</ele><time>2026-04-24T16:54:24Z</time></trkpt><trkpt lat="42.809808828683614" lon="10.408906612617105"><ele>87.5</ele><time>2026-04-24T16:54:25Z</time></trkpt><trkpt lat="42.80989253728189" lon="10.40895439325225"><ele>85.0</ele><time>2026-04-24T16:54:26Z</time></trkpt><trkpt lat="42.80995792074364" lon="10.408974547751855"><ele>82.5</ele><time>2026-04-24T16:54:27Z</time></trkpt><trkpt lat="42.81002583290449" lon="10.408983996798389"><ele>80.0</ele><time>2026-04-24T16:54:28Z</time></trkpt><trkpt lat="42.81010282444627" lon="10.408992489110805"><ele>77.5</ele><time>2026-04-24T16:54:29Z</time></trkpt><trkpt lat="42.810190561261436" lon="10.40900507214635"><ele>75.0</ele><time>2026-04-24T16:54:30Z</time></trkpt><trkpt lat="42.81029191042796" lon="10.409020046188623"><ele>74.4</ele><time>2026-04-24T16:54:31Z</time></trkpt><trkpt lat="42.81037731388059" lon="10.40903834192056"><ele>73.8</ele><time>2026-04-24T16:54:32Z</time></trkpt><trkpt lat="42.81047636332213" lon="10.409067773505704"><ele>73.2</ele><time>2026-04-24T16:54:33Z</time></trkpt><trkpt lat="42.81056948695246" lon="10.409107990382626"><ele>72.6</ele><time>2026-04-24T16:54:34Z</time></trkpt><trkpt lat="42.81065554911381" lon="10.409163571349602"><ele>72.0</ele><time>2026-04-24T16:54:35Z</time></trkpt><trkpt lat="42.81073689121762" lon="10.409235688225138"><ele>72.0</ele><time>2026-04-24T16:54:36Z</time></trkpt><trkpt lat="42.810818920899415" lon="10.40930195914565"><ele>72.0</ele><time>2026-04-24T16:54:37Z</time></trkpt><trkpt lat="42.810913079327726" lon="10.409352110141993"><ele>72.0</ele><time>2026-04-24T16:54:38Z</time></trkpt><trkpt lat="42.81101598193648" lon="10.40937394429043"><ele>72.0</ele><time>2026-04-24T16:54:39Z</time></trkpt><trkpt lat="42.81111808175178" lon="10.409378745986704"><ele>72.0</ele><time>2026-04-24T16:54:40Z</time></trkpt><trkpt lat="42.811223588790135" lon="10.409378891735635"><ele>70.4</ele><time>2026-04-24T16:54:41Z</time></trkpt><trkpt lat="42.8113298897834" lon="10.409365783515451"><ele>68.80000000000001</ele><time>2026-04-24T16:54:42Z</time></trkpt><trkpt lat="42.81143629649123" lon="10.409347247945695"><ele>67.2</ele><time>2026-04-24T16:54:43Z</time></trkpt><trkpt lat="42.8115394111933" lon="10.409319115118805"><ele>65.60000000000001</ele><time>2026-04-24T16:54:44Z</time></trkpt><trkpt lat="42.81163987691643" lon="10.40927501228699"><ele>64.0</ele><time>2026-04-24T16:54:45Z</time></trkpt><trkpt lat="42.81173489388036" lon="10.409173763557261"><ele>64.0</ele><time>2026-04-24T16:54:46Z</time></trkpt><trkpt lat="42.811820596653384" lon="10.40906569468461"><ele>64.0</ele><time>2026-04-24T16:54:47Z</time></trkpt><trkpt lat="42.811911013093095" lon="10.408971960555466"><ele>64.0</ele><time>2026-04-24T16:54:48Z</time></trkpt><trkpt lat="42.812001310188876" lon="10.408879603919093"><ele>64.0</ele><time>2026-04-24T16:54:49Z</time></trkpt><trkpt lat="42.81208883911196" lon="10.408789701921767"><ele>63.83333333333333</ele><time>2026-04-24T16:54:50Z</time></trkpt><trkpt lat="42.81217174256489" lon="10.40871574727694"><ele>63.666666666666664</ele><time>2026-04-24T16:54:51Z</time></trkpt><trkpt lat="42.81224416395855" lon="10.408653495204664"><ele>63.5</ele><time>2026-04-24T16:54:52Z</time></trkpt><trkpt lat="42.81232795705951" lon="10.40863211306891"><ele>63.33333333333333</ele><time>2026-04-24T16:54:53Z</time></trkpt><trkpt lat="42.81240115945552" lon="10.40862678628839"><ele>63.166666666666664</ele><time>2026-04-24T16:54:54Z</time></trkpt><trkpt lat="42.81248128270467" lon="10.408635623804866"><ele>63.0</ele><time>2026-04-24T16:54:55Z</time></trkpt><trkpt lat="42.812560887689145" lon="10.408651484221178"><ele>63.0</ele><time>2026-04-24T16:54:56Z</time></trkpt><trkpt lat="42.81263218393235" lon="10.40871329236654"><ele>63.0</ele><time>2026-04-24T16:54:57Z</time></trkpt><trkpt lat="42.81268941437559" lon="10.40877783596751"><ele>63.0</ele><time>2026-04-24T16:54:58Z</time></trkpt><trkpt lat="42.81272296663407" lon="10.408875864214114"><ele>63.0</ele><time>2026-04-24T16:54:59Z</time></trkpt><trkpt lat="42.812747006720684" lon="10.408988175555326"><ele>63.0</ele><time>2026-04-24T16:55:00Z</time></trkpt><trkpt lat="42.81274157329681" lon="10.409118515512086"><ele>63.0</ele><time>2026-04-24T16:55:01Z</time></trkpt><trkpt lat="42.81272589451452" lon="10.409251626887388"><ele>62.0</ele><time>2026-04-24T16:55:02Z</time></trkpt><trkpt lat="42.81270251326419" lon="10.409385653090323"><ele>61.0</ele><time>2026-04-24T16:55:03Z</time></trkpt><trkpt lat="42.81267827036482" lon="10.409518347048438"><ele>60.0</ele><time>2026-04-24T16:55:04Z</time></trkpt><trkpt lat="42.81265397772102" lon="10.409642720227138"><ele>59.0</ele><time>2026-04-24T16:55:05Z</time></trkpt><trkpt lat="42.8126153335938" lon="10.409765590867599"><ele>58.0</ele><time>2026-04-24T16:55:06Z</time></trkpt><trkpt lat="42.81259584011249" lon="10.409892471250828"><ele>57.4</ele><time>2026-04-24T16:55:07Z</time></trkpt><trkpt lat="42.81256585633831" lon="10.410012361309944"><ele>56.8</ele><time>2026-04-24T16:55:08Z</time></trkpt><trkpt lat="42.812564289635915" lon="10.410141904219936"><ele>56.2</ele><time>2026-04-24T16:55:09Z</time></trkpt><trkpt lat="42.81255725096036" lon="10.410276545119368"><ele>55.6</ele><time>2026-04-24T16:55:10Z</time></trkpt><trkpt lat="42.81254278530608" lon="10.410410650392706"><ele>55.0</ele><time>2026-04-24T16:55:11Z</time></trkpt><trkpt lat="42.81254184096449" lon="10.410545782063455"><ele>54.4</ele><time>2026-04-24T16:55:12Z</time></trkpt><trkpt lat="42.81253939314422" lon="10.410681097087863"><ele>53.8</ele><time>2026-04-24T16:55:13Z</time></trkpt><trkpt lat="42.8125346338819" lon="10.410802770569344"><ele>53.2</ele><time>2026-04-24T16:55:14Z</time></trkpt><trkpt lat="42.81253297946339" lon="10.410927391897403"><ele>52.6</ele><time>2026-04-24T16:55:15Z</time></trkpt><trkpt lat="42.81253156384133" lon="10.411048828624805"><ele>52.0</ele><time>2026-04-24T16:55:16Z</time></trkpt><trkpt lat="42.81252725311064" lon="10.411183047108386"><ele>51.2</ele><time>2026-04-24T16:55:17Z</time></trkpt><trkpt lat="42.812522364531446" lon="10.411324827704554"><ele>50.400000000000006</ele><time>2026-04-24T16:55:18Z</time></trkpt><trkpt lat="42.81252039672993" lon="10.411465596556175"><ele>49.599999999999994</ele><time>2026-04-24T16:55:19Z</time></trkpt><trkpt lat="42.812519268922486" lon="10.41159053014026"><ele>48.8</ele><time>2026-04-24T16:55:20Z</time></trkpt><trkpt lat="42.812513305652416" lon="10.411730891505588"><ele>48.0</ele><time>2026-04-24T16:55:21Z</time></trkpt><trkpt lat="42.81249667073437" lon="10.411851945533313"><ele>48.0</ele><time>2026-04-24T16:55:22Z</time></trkpt><trkpt lat="42.812448011111506" lon="10.411976297374357"><ele>48.0</ele><time>2026-04-24T16:55:23Z</time></trkpt><trkpt lat="42.812430218998685" lon="10.412090764237131"><ele>48.0</ele><time>2026-04-24T16:55:24Z</time></trkpt><trkpt lat="42.8124211292815" lon="10.412220937005822"><ele>48.0</ele><time>2026-04-24T16:55:25Z</time></trkpt><trkpt lat="42.812391187453" lon="10.412345404690807"><ele>48.0</ele><time>2026-04-24T16:55:26Z</time></trkpt><trkpt lat="42.812358962245725" lon="10.412452588085127"><ele>46.833333333333336</ele><time>2026-04-24T16:55:27Z</time></trkpt><trkpt lat="42.81231436588316" lon="10.412561942295891"><ele>45.666666666666664</ele><time>2026-04-24T16:55:28Z</time></trkpt><trkpt lat="42.81228305375421" lon="10.412665154422498"><ele>44.5</ele><time>2026-04-24T16:55:29Z</time></trkpt><trkpt lat="42.8122676447703" lon="10.412777864908264"><ele>43.33333333333333</ele><time>2026-04-24T16:55:30Z</time></trkpt><trkpt lat="42.81222441007222" lon="10.412869841005548"><ele>42.166666666666664</ele><time>2026-04-24T16:55:31Z</time></trkpt><trkpt lat="42.812205314485475" lon="10.412963116135414"><ele>41.0</ele><time>2026-04-24T16:55:32Z</time></trkpt><trkpt lat="42.81220630959412" lon="10.413104694905376"><ele>40.199999999999996</ele><time>2026-04-24T16:55:33Z</time></trkpt><trkpt lat="42.81223528530174" lon="10.413223576525512"><ele>39.4</ele><time>2026-04-24T16:55:34Z</time></trkpt><trkpt lat="42.812277755422905" lon="10.41333029579978"><ele>38.6</ele><time>2026-04-24T16:55:35Z</time></trkpt><trkpt lat="42.81228719299993" lon="10.413451637920046"><ele>37.8</ele><time>2026-04-24T16:55:36Z</time></trkpt><trkpt lat="42.8123301302551" lon="10.413570906391051"><ele>37.0</ele><time>2026-04-24T16:55:37Z</time></trkpt><trkpt lat="42.81234580115156" lon="10.413699251195693"><ele>37.0</ele><time>2026-04-24T16:55:38Z</time></trkpt><trkpt lat="42.812372577969704" lon="10.413815718250504"><ele>37.0</ele><time>2026-04-24T16:55:39Z</time></trkpt><trkpt lat="42.81240475981908" lon="10.413934455034786"><ele>37.0</ele><time>2026-04-24T16:55:40Z</time></trkpt><trkpt lat="42.812445194352854" lon="10.414049615089368"><ele>37.0</ele><time>2026-04-24T16:55:41Z</time></trkpt><trkpt lat="42.81249940788581" lon="10.414153661258977"><ele>37.0</ele><time>2026-04-24T16:55:42Z</time></trkpt><trkpt lat="42.81256432809508" lon="10.414255719276554"><ele>37.16666666666667</ele><time>2026-04-24T16:55:43Z</time></trkpt><trkpt lat="42.81263218961553" lon="10.414345509981864"><ele>37.333333333333336</ele><time>2026-04-24T16:55:44Z</time></trkpt><trkpt lat="42.81269606986609" lon="10.414428540035479"><ele>37.5</ele><time>2026-04-24T16:55:45Z</time></trkpt><trkpt lat="42.81275798305286" lon="10.414513034972718"><ele>37.666666666666664</ele><time>2026-04-24T16:55:46Z</time></trkpt><trkpt lat="42.81279872099486" lon="10.41461417016716"><ele>37.83333333333333</ele><time>2026-04-24T16:55:47Z</time></trkpt><trkpt lat="42.81281752186357" lon="10.414728814201577"><ele>38.0</ele><time>2026-04-24T16:55:48Z</time></trkpt><trkpt lat="42.81280583142439" lon="10.414853860118063"><ele>37.4</ele><time>2026-04-24T16:55:49Z</time></trkpt><trkpt lat="42.81281004717783" lon="10.414986225215994"><ele>36.8</ele><time>2026-04-24T16:55:50Z</time></trkpt><trkpt lat="42.81281535653487" lon="10.415117656648427"><ele>36.2</ele><time>2026-04-24T16:55:51Z</time></trkpt><trkpt lat="42.81282226729637" lon="10.4152457005302"><ele>35.6</ele><time>2026-04-24T16:55:52Z</time></trkpt><trkpt lat="42.81283734306308" lon="10.415366902901752"><ele>35.0</ele><time>2026-04-24T16:55:53Z</time></trkpt><trkpt lat="42.812857504324725" lon="10.415475110100155"><ele>34.4</ele><time>2026-04-24T16:55:54Z</time></trkpt><trkpt lat="42.81287336820793" lon="10.415562426172805"><ele>33.8</ele><time>2026-04-24T16:55:55Z</time></trkpt><trkpt lat="42.812964245507516" lon="10.415672408628767"><ele>33.2</ele><time>2026-04-24T16:55:57Z</time></trkpt><trkpt lat="42.81300584798099" lon="10.415764584844894"><ele>32.6</ele><time>2026-04-24T16:55:59Z</time></trkpt><trkpt lat="42.81306863109537" lon="10.415851887394595"><ele>32.0</ele><time>2026-04-24T16:56:27Z</time></trkpt><trkpt lat="42.81314763366983" lon="10.415958508090604"><ele>31.999999999999996</ele><time>2026-04-24T16:56:29Z</time></trkpt><trkpt lat="42.81319350631264" lon="10.416023569319297"><ele>32.0</ele><time>2026-04-24T16:56:30Z</time></trkpt><trkpt lat="42.81325149157738" lon="10.416107965683432"><ele>32.0</ele><time>2026-04-24T16:56:31Z</time></trkpt><trkpt lat="42.81331159415972" lon="10.41619161582663"><ele>32.0</ele><time>2026-04-24T16:56:32Z</time></trkpt><trkpt lat="42.81338366644501" lon="10.41625991257477"><ele>31.999999999999996</ele><time>2026-04-24T16:56:33Z</time></trkpt><trkpt lat="42.81345203874865" lon="10.416364421723827"><ele>32.0</ele><time>2026-04-24T16:56:34Z</time></trkpt><trkpt lat="42.81351740397801" lon="10.41648140694738"><ele>32.800000000000004</ele><time>2026-04-24T16:56:35Z</time></trkpt><trkpt lat="42.8135801113773" lon="10.416592183469426"><ele>33.6</ele><time>2026-04-24T16:56:36Z</time></trkpt><trkpt lat="42.813640153375395" lon="10.416697552491895"><ele>34.400000000000006</ele><time>2026-04-24T16:56:37Z</time></trkpt><trkpt lat="42.81369336753309" lon="10.416814610807718"><ele>35.2</ele><time>2026-04-24T16:56:38Z</time></trkpt><trkpt lat="42.813730557328455" lon="10.416948737856773"><ele>36.0</ele><time>2026-04-24T16:56:39Z</time></trkpt><trkpt lat="42.81377036892635" lon="10.417082278093025"><ele>36.0</ele><time>2026-04-24T16:56:40Z</time></trkpt><trkpt lat="42.81380763565074" lon="10.417208293089903"><ele>36.0</ele><time>2026-04-24T16:56:41Z</time></trkpt><trkpt lat="42.813833613969564" lon="10.417340066267073"><ele>36.0</ele><time>2026-04-24T16:56:42Z</time></trkpt><trkpt lat="42.81385159161841" lon="10.417481018045002"><ele>36.0</ele><time>2026-04-24T16:56:43Z</time></trkpt><trkpt lat="42.813836886222646" lon="10.41761753958233"><ele>36.0</ele><time>2026-04-24T16:56:44Z</time></trkpt><trkpt lat="42.81382656090003" lon="10.417762821433596"><ele>36.0</ele><time>2026-04-24T16:56:45Z</time></trkpt><trkpt lat="42.81379892203757" lon="10.4179129255254"><ele>36.0</ele><time>2026-04-24T16:56:46Z</time></trkpt><trkpt lat="42.81376428006485" lon="10.418063528274843"><ele>36.0</ele><time>2026-04-24T16:56:47Z</time></trkpt><trkpt lat="42.81371860165506" lon="10.41820412588053"><ele>36.0</ele><time>2026-04-24T16:56:48Z</time></trkpt><trkpt lat="42.81367960621387" lon="10.418353622745997"><ele>39.75</ele><time>2026-04-24T16:56:49Z</time></trkpt><trkpt lat="42.81365524691203" lon="10.41851733149212"><ele>43.5</ele><time>2026-04-24T16:56:50Z</time></trkpt><trkpt lat="42.81363738573226" lon="10.41868939089131"><ele>47.25</ele><time>2026-04-24T16:56:51Z</time></trkpt><trkpt lat="42.81362414106528" lon="10.41888380978982"><ele>51.0</ele><time>2026-04-24T16:56:52Z</time></trkpt><trkpt lat="42.81359315190793" lon="10.4190636964934"><ele>53.25</ele><time>2026-04-24T16:56:53Z</time></trkpt><trkpt lat="42.8135493102714" lon="10.419227916543395"><ele>55.5</ele><time>2026-04-24T16:56:54Z</time></trkpt><trkpt lat="42.81352996511982" lon="10.419416641107269"><ele>57.75</ele><time>2026-04-24T16:56:55Z</time></trkpt><trkpt lat="42.81352042808061" lon="10.419593275952293"><ele>60.0</ele><time>2026-04-24T16:56:56Z</time></trkpt><trkpt lat="42.81352892869508" lon="10.419775548594556"><ele>60.0</ele><time>2026-04-24T16:56:57Z</time></trkpt><trkpt lat="42.8135477786366" lon="10.41995343414624"><ele>60.0</ele><time>2026-04-24T16:56:58Z</time></trkpt><trkpt lat="42.81357223884241" lon="10.42011898425304"><ele>60.0</ele><time>2026-04-24T16:56:59Z</time></trkpt><trkpt lat="42.81360963138929" lon="10.420272752623639"><ele>60.0</ele><time>2026-04-24T16:57:00Z</time></trkpt><trkpt lat="42.81367366661236" lon="10.420427072884921"><ele>55.0</ele><time>2026-04-24T16:57:01Z</time></trkpt><trkpt lat="42.81374431744873" lon="10.42057259451904"><ele>50.0</ele><time>2026-04-24T16:57:02Z</time></trkpt><trkpt lat="42.813830116190246" lon="10.420729912491998"><ele>45.0</ele><time>2026-04-24T16:57:03Z</time></trkpt><trkpt lat="42.81392733051577" lon="10.420869924980803"><ele>40.0</ele><time>2026-04-24T16:57:04Z</time></trkpt><trkpt lat="42.813999865846945" lon="10.421016240468903"><ele>40.0</ele><time>2026-04-24T16:57:05Z</time></trkpt><trkpt lat="42.81405848681711" lon="10.421130734648841"><ele>40.0</ele><time>2026-04-24T16:57:06Z</time></trkpt><trkpt lat="42.81411929687218" lon="10.421241098771512"><ele>40.0</ele><time>2026-04-24T16:57:07Z</time></trkpt><trkpt lat="42.81415776056106" lon="10.42135234423736"><ele>25.0</ele><time>2026-04-24T16:57:08Z</time></trkpt></trkseg></trk></gpx>